<?xml version="1.0" encoding="UTF-8" standalone="no" ?>
<gpx xmlns="http://www.topografix.com/GPX/1/1" xmlns:xsi="http://www.w3.org/2001/XMLSchema-instance" xsi:schemaLocation="http://www.topografix.com/GPX/1/1 http://www.topografix.com/GPX/1/1/gpx.xsd" version="1.1" creator="VisuGPX - https://www.visugpx.com">
  <metadata>
    <name>Revel-lumbin-St mury-revel</name>
  </metadata>
  <trk>
    <name><![CDATA[Revel-lumbin-St mury-revel_1]]></name>
    <trkseg>
      <trkpt lat="45.18409" lon="5.87172">
        <ele>717.3</ele>
        <time>2021-03-21T13:22:04Z</time>
      </trkpt>
      <trkpt lat="45.18506" lon="5.87075">
        <ele>717.4</ele>
        <time>2021-03-21T13:22:21Z</time>
      </trkpt>
      <trkpt lat="45.18575" lon="5.86954">
        <ele>717.3</ele>
        <time>2021-03-21T13:22:38Z</time>
      </trkpt>
      <trkpt lat="45.18584" lon="5.86896">
        <ele>717.2</ele>
        <time>2021-03-21T13:22:44Z</time>
      </trkpt>
      <trkpt lat="45.18599" lon="5.86874">
        <ele>717.3</ele>
        <time>2021-03-21T13:22:49Z</time>
      </trkpt>
      <trkpt lat="45.18627" lon="5.86927">
        <ele>717.4</ele>
        <time>2021-03-21T13:22:59Z</time>
      </trkpt>
      <trkpt lat="45.18646" lon="5.86928">
        <ele>717.4</ele>
        <time>2021-03-21T13:23:01Z</time>
      </trkpt>
      <trkpt lat="45.1867" lon="5.86909">
        <ele>717.4</ele>
        <time>2021-03-21T13:23:04Z</time>
      </trkpt>
      <trkpt lat="45.18686" lon="5.86877">
        <ele>717.5</ele>
        <time>2021-03-21T13:23:07Z</time>
      </trkpt>
      <trkpt lat="45.18693" lon="5.86839">
        <ele>717.4</ele>
        <time>2021-03-21T13:23:09Z</time>
      </trkpt>
      <trkpt lat="45.18711" lon="5.86793">
        <ele>717.3</ele>
        <time>2021-03-21T13:23:12Z</time>
      </trkpt>
      <trkpt lat="45.18722" lon="5.86764">
        <ele>717.4</ele>
        <time>2021-03-21T13:23:14Z</time>
      </trkpt>
      <trkpt lat="45.1874" lon="5.86726">
        <ele>717.4</ele>
        <time>2021-03-21T13:23:17Z</time>
      </trkpt>
      <trkpt lat="45.1876" lon="5.86693">
        <ele>717.4</ele>
        <time>2021-03-21T13:23:20Z</time>
      </trkpt>
      <trkpt lat="45.18781" lon="5.86661">
        <ele>717.4</ele>
        <time>2021-03-21T13:23:23Z</time>
      </trkpt>
      <trkpt lat="45.18796" lon="5.86634">
        <ele>717.3</ele>
        <time>2021-03-21T13:23:25Z</time>
      </trkpt>
      <trkpt lat="45.18806" lon="5.8659">
        <ele>717.3</ele>
        <time>2021-03-21T13:23:28Z</time>
      </trkpt>
      <trkpt lat="45.18807" lon="5.86554">
        <ele>717.4</ele>
        <time>2021-03-21T13:23:30Z</time>
      </trkpt>
      <trkpt lat="45.18798" lon="5.86499">
        <ele>717.4</ele>
        <time>2021-03-21T13:23:33Z</time>
      </trkpt>
      <trkpt lat="45.18789" lon="5.86474">
        <ele>717.4</ele>
        <time>2021-03-21T13:23:35Z</time>
      </trkpt>
      <trkpt lat="45.18789" lon="5.86455">
        <ele>717.4</ele>
        <time>2021-03-21T13:23:37Z</time>
      </trkpt>
      <trkpt lat="45.18798" lon="5.86441">
        <ele>717.4</ele>
        <time>2021-03-21T13:23:40Z</time>
      </trkpt>
      <trkpt lat="45.18816" lon="5.86442">
        <ele>717.4</ele>
        <time>2021-03-21T13:23:42Z</time>
      </trkpt>
      <trkpt lat="45.18848" lon="5.86427">
        <ele>717.4</ele>
        <time>2021-03-21T13:23:45Z</time>
      </trkpt>
      <trkpt lat="45.18873" lon="5.86395">
        <ele>717.3</ele>
        <time>2021-03-21T13:23:48Z</time>
      </trkpt>
      <trkpt lat="45.18893" lon="5.86368">
        <ele>717.2</ele>
        <time>2021-03-21T13:23:51Z</time>
      </trkpt>
      <trkpt lat="45.18906" lon="5.86336">
        <ele>643.1</ele>
        <time>2021-03-21T13:23:54Z</time>
      </trkpt>
      <trkpt lat="45.18913" lon="5.86308">
        <ele>639.9</ele>
        <time>2021-03-21T13:23:56Z</time>
      </trkpt>
      <trkpt lat="45.18922" lon="5.86267">
        <ele>637.7</ele>
        <time>2021-03-21T13:23:59Z</time>
      </trkpt>
      <trkpt lat="45.18931" lon="5.8622">
        <ele>630</ele>
        <time>2021-03-21T13:24:02Z</time>
      </trkpt>
      <trkpt lat="45.18938" lon="5.86188">
        <ele>629.7</ele>
        <time>2021-03-21T13:24:04Z</time>
      </trkpt>
      <trkpt lat="45.18945" lon="5.86156">
        <ele>629.2</ele>
        <time>2021-03-21T13:24:06Z</time>
      </trkpt>
      <trkpt lat="45.18946" lon="5.86123">
        <ele>625.9</ele>
        <time>2021-03-21T13:24:08Z</time>
      </trkpt>
      <trkpt lat="45.18946" lon="5.86076">
        <ele>625</ele>
        <time>2021-03-21T13:24:11Z</time>
      </trkpt>
      <trkpt lat="45.18952" lon="5.86045">
        <ele>621.5</ele>
        <time>2021-03-21T13:24:13Z</time>
      </trkpt>
      <trkpt lat="45.18962" lon="5.85996">
        <ele>622.3</ele>
        <time>2021-03-21T13:24:16Z</time>
      </trkpt>
      <trkpt lat="45.18971" lon="5.85942">
        <ele>620.4</ele>
        <time>2021-03-21T13:24:19Z</time>
      </trkpt>
      <trkpt lat="45.18974" lon="5.85905">
        <ele>616.5</ele>
        <time>2021-03-21T13:24:21Z</time>
      </trkpt>
      <trkpt lat="45.18967" lon="5.85858">
        <ele>613.3</ele>
        <time>2021-03-21T13:24:24Z</time>
      </trkpt>
      <trkpt lat="45.18958" lon="5.85829">
        <ele>610.3</ele>
        <time>2021-03-21T13:24:26Z</time>
      </trkpt>
      <trkpt lat="45.1895" lon="5.8578">
        <ele>611.8</ele>
        <time>2021-03-21T13:24:29Z</time>
      </trkpt>
      <trkpt lat="45.1895" lon="5.85745">
        <ele>610.9</ele>
        <time>2021-03-21T13:24:31Z</time>
      </trkpt>
      <trkpt lat="45.18952" lon="5.85708">
        <ele>609.7</ele>
        <time>2021-03-21T13:24:33Z</time>
      </trkpt>
      <trkpt lat="45.18946" lon="5.85662">
        <ele>601.1</ele>
        <time>2021-03-21T13:24:36Z</time>
      </trkpt>
      <trkpt lat="45.18944" lon="5.85627">
        <ele>596</ele>
        <time>2021-03-21T13:24:39Z</time>
      </trkpt>
      <trkpt lat="45.18956" lon="5.85597">
        <ele>594</ele>
        <time>2021-03-21T13:24:42Z</time>
      </trkpt>
      <trkpt lat="45.18978" lon="5.85559">
        <ele>595.7</ele>
        <time>2021-03-21T13:24:45Z</time>
      </trkpt>
      <trkpt lat="45.18997" lon="5.85521">
        <ele>593.6</ele>
        <time>2021-03-21T13:24:48Z</time>
      </trkpt>
      <trkpt lat="45.19023" lon="5.85502">
        <ele>593.4</ele>
        <time>2021-03-21T13:24:51Z</time>
      </trkpt>
      <trkpt lat="45.19054" lon="5.85488">
        <ele>592.3</ele>
        <time>2021-03-21T13:24:54Z</time>
      </trkpt>
      <trkpt lat="45.19074" lon="5.85478">
        <ele>587.3</ele>
        <time>2021-03-21T13:24:56Z</time>
      </trkpt>
      <trkpt lat="45.19101" lon="5.85462">
        <ele>587.9</ele>
        <time>2021-03-21T13:24:59Z</time>
      </trkpt>
      <trkpt lat="45.19119" lon="5.85445">
        <ele>586.1</ele>
        <time>2021-03-21T13:25:01Z</time>
      </trkpt>
      <trkpt lat="45.19142" lon="5.85416">
        <ele>582.7</ele>
        <time>2021-03-21T13:25:04Z</time>
      </trkpt>
      <trkpt lat="45.19163" lon="5.85391">
        <ele>578.3</ele>
        <time>2021-03-21T13:25:07Z</time>
      </trkpt>
      <trkpt lat="45.19189" lon="5.85371">
        <ele>570.4</ele>
        <time>2021-03-21T13:25:10Z</time>
      </trkpt>
      <trkpt lat="45.19209" lon="5.85362">
        <ele>567.1</ele>
        <time>2021-03-21T13:25:12Z</time>
      </trkpt>
      <trkpt lat="45.19244" lon="5.85358">
        <ele>562.3</ele>
        <time>2021-03-21T13:25:15Z</time>
      </trkpt>
      <trkpt lat="45.19274" lon="5.85348">
        <ele>559.5</ele>
        <time>2021-03-21T13:25:18Z</time>
      </trkpt>
      <trkpt lat="45.19306" lon="5.85338">
        <ele>554.2</ele>
        <time>2021-03-21T13:25:21Z</time>
      </trkpt>
      <trkpt lat="45.19327" lon="5.8533">
        <ele>553.6</ele>
        <time>2021-03-21T13:25:23Z</time>
      </trkpt>
      <trkpt lat="45.19359" lon="5.85321">
        <ele>552.3</ele>
        <time>2021-03-21T13:25:26Z</time>
      </trkpt>
      <trkpt lat="45.19378" lon="5.85332">
        <ele>552</ele>
        <time>2021-03-21T13:25:28Z</time>
      </trkpt>
      <trkpt lat="45.19387" lon="5.85354">
        <ele>550.6</ele>
        <time>2021-03-21T13:25:30Z</time>
      </trkpt>
      <trkpt lat="45.19396" lon="5.85375">
        <ele>551.4</ele>
        <time>2021-03-21T13:25:33Z</time>
      </trkpt>
      <trkpt lat="45.19398" lon="5.85365">
        <ele>547.8</ele>
        <time>2021-03-21T13:25:35Z</time>
      </trkpt>
      <trkpt lat="45.19392" lon="5.85329">
        <ele>546.6</ele>
        <time>2021-03-21T13:25:38Z</time>
      </trkpt>
      <trkpt lat="45.19388" lon="5.85305">
        <ele>544.9</ele>
        <time>2021-03-21T13:25:40Z</time>
      </trkpt>
      <trkpt lat="45.19383" lon="5.85272">
        <ele>543.4</ele>
        <time>2021-03-21T13:25:42Z</time>
      </trkpt>
      <trkpt lat="45.19385" lon="5.85216">
        <ele>544.2</ele>
        <time>2021-03-21T13:25:45Z</time>
      </trkpt>
      <trkpt lat="45.194" lon="5.85172">
        <ele>545</ele>
        <time>2021-03-21T13:25:48Z</time>
      </trkpt>
      <trkpt lat="45.19417" lon="5.85157">
        <ele>543.9</ele>
        <time>2021-03-21T13:25:50Z</time>
      </trkpt>
      <trkpt lat="45.19437" lon="5.85162">
        <ele>544.1</ele>
        <time>2021-03-21T13:25:52Z</time>
      </trkpt>
      <trkpt lat="45.19467" lon="5.8516">
        <ele>544.6</ele>
        <time>2021-03-21T13:25:55Z</time>
      </trkpt>
      <trkpt lat="45.19483" lon="5.85147">
        <ele>543.6</ele>
        <time>2021-03-21T13:25:57Z</time>
      </trkpt>
      <trkpt lat="45.19493" lon="5.85125">
        <ele>541.4</ele>
        <time>2021-03-21T13:25:59Z</time>
      </trkpt>
      <trkpt lat="45.19495" lon="5.85076">
        <ele>539.9</ele>
        <time>2021-03-21T13:26:02Z</time>
      </trkpt>
      <trkpt lat="45.195" lon="5.85037">
        <ele>538.9</ele>
        <time>2021-03-21T13:26:04Z</time>
      </trkpt>
      <trkpt lat="45.19514" lon="5.85006">
        <ele>536</ele>
        <time>2021-03-21T13:26:06Z</time>
      </trkpt>
      <trkpt lat="45.19542" lon="5.84981">
        <ele>532.7</ele>
        <time>2021-03-21T13:26:09Z</time>
      </trkpt>
      <trkpt lat="45.19564" lon="5.84971">
        <ele>532.1</ele>
        <time>2021-03-21T13:26:11Z</time>
      </trkpt>
      <trkpt lat="45.19592" lon="5.84952">
        <ele>532.2</ele>
        <time>2021-03-21T13:26:14Z</time>
      </trkpt>
      <trkpt lat="45.19614" lon="5.84938">
        <ele>532.7</ele>
        <time>2021-03-21T13:26:16Z</time>
      </trkpt>
      <trkpt lat="45.19645" lon="5.84906">
        <ele>529.3</ele>
        <time>2021-03-21T13:26:19Z</time>
      </trkpt>
      <trkpt lat="45.19661" lon="5.84883">
        <ele>525.7</ele>
        <time>2021-03-21T13:26:21Z</time>
      </trkpt>
      <trkpt lat="45.19677" lon="5.8486">
        <ele>525.8</ele>
        <time>2021-03-21T13:26:23Z</time>
      </trkpt>
      <trkpt lat="45.19706" lon="5.84831">
        <ele>523.1</ele>
        <time>2021-03-21T13:26:26Z</time>
      </trkpt>
      <trkpt lat="45.19723" lon="5.84814">
        <ele>523.9</ele>
        <time>2021-03-21T13:26:28Z</time>
      </trkpt>
      <trkpt lat="45.19752" lon="5.84794">
        <ele>519.8</ele>
        <time>2021-03-21T13:26:31Z</time>
      </trkpt>
      <trkpt lat="45.19777" lon="5.84785">
        <ele>519.5</ele>
        <time>2021-03-21T13:26:33Z</time>
      </trkpt>
      <trkpt lat="45.19812" lon="5.84763">
        <ele>515.8</ele>
        <time>2021-03-21T13:26:36Z</time>
      </trkpt>
      <trkpt lat="45.19832" lon="5.84754">
        <ele>513.8</ele>
        <time>2021-03-21T13:26:38Z</time>
      </trkpt>
      <trkpt lat="45.19853" lon="5.84745">
        <ele>510.2</ele>
        <time>2021-03-21T13:26:40Z</time>
      </trkpt>
      <trkpt lat="45.19884" lon="5.8474">
        <ele>515.9</ele>
        <time>2021-03-21T13:26:43Z</time>
      </trkpt>
      <trkpt lat="45.19901" lon="5.84708">
        <ele>515.4</ele>
        <time>2021-03-21T13:26:46Z</time>
      </trkpt>
      <trkpt lat="45.19897" lon="5.84658">
        <ele>513.5</ele>
        <time>2021-03-21T13:26:49Z</time>
      </trkpt>
      <trkpt lat="45.19895" lon="5.84624">
        <ele>510.1</ele>
        <time>2021-03-21T13:26:51Z</time>
      </trkpt>
      <trkpt lat="45.19907" lon="5.84584">
        <ele>506.5</ele>
        <time>2021-03-21T13:26:54Z</time>
      </trkpt>
      <trkpt lat="45.19922" lon="5.84562">
        <ele>500.6</ele>
        <time>2021-03-21T13:26:56Z</time>
      </trkpt>
      <trkpt lat="45.19941" lon="5.84545">
        <ele>487.4</ele>
        <time>2021-03-21T13:26:58Z</time>
      </trkpt>
      <trkpt lat="45.19959" lon="5.84513">
        <ele>483.6</ele>
        <time>2021-03-21T13:27:01Z</time>
      </trkpt>
      <trkpt lat="45.19966" lon="5.84482">
        <ele>483.3</ele>
        <time>2021-03-21T13:27:03Z</time>
      </trkpt>
      <trkpt lat="45.19985" lon="5.84451">
        <ele>481.7</ele>
        <time>2021-03-21T13:27:06Z</time>
      </trkpt>
      <trkpt lat="45.20004" lon="5.84441">
        <ele>482</ele>
        <time>2021-03-21T13:27:08Z</time>
      </trkpt>
      <trkpt lat="45.20034" lon="5.84437">
        <ele>484.4</ele>
        <time>2021-03-21T13:27:11Z</time>
      </trkpt>
      <trkpt lat="45.20064" lon="5.8443">
        <ele>481.5</ele>
        <time>2021-03-21T13:27:14Z</time>
      </trkpt>
      <trkpt lat="45.20089" lon="5.84425">
        <ele>478.8</ele>
        <time>2021-03-21T13:27:17Z</time>
      </trkpt>
      <trkpt lat="45.20105" lon="5.84432">
        <ele>480</ele>
        <time>2021-03-21T13:27:19Z</time>
      </trkpt>
      <trkpt lat="45.20118" lon="5.84455">
        <ele>480.6</ele>
        <time>2021-03-21T13:27:21Z</time>
      </trkpt>
      <trkpt lat="45.20135" lon="5.84498">
        <ele>476.9</ele>
        <time>2021-03-21T13:27:24Z</time>
      </trkpt>
      <trkpt lat="45.20151" lon="5.84547">
        <ele>469.2</ele>
        <time>2021-03-21T13:27:27Z</time>
      </trkpt>
      <trkpt lat="45.20163" lon="5.84597">
        <ele>459.2</ele>
        <time>2021-03-21T13:27:30Z</time>
      </trkpt>
      <trkpt lat="45.20183" lon="5.84646">
        <ele>455</ele>
        <time>2021-03-21T13:27:33Z</time>
      </trkpt>
      <trkpt lat="45.20208" lon="5.84686">
        <ele>452</ele>
        <time>2021-03-21T13:27:36Z</time>
      </trkpt>
      <trkpt lat="45.20237" lon="5.84716">
        <ele>447.2</ele>
        <time>2021-03-21T13:27:39Z</time>
      </trkpt>
      <trkpt lat="45.20256" lon="5.84737">
        <ele>445.8</ele>
        <time>2021-03-21T13:27:41Z</time>
      </trkpt>
      <trkpt lat="45.20269" lon="5.84785">
        <ele>441.3</ele>
        <time>2021-03-21T13:27:44Z</time>
      </trkpt>
      <trkpt lat="45.20278" lon="5.84832">
        <ele>434.7</ele>
        <time>2021-03-21T13:27:47Z</time>
      </trkpt>
      <trkpt lat="45.20287" lon="5.84861">
        <ele>432.4</ele>
        <time>2021-03-21T13:27:49Z</time>
      </trkpt>
      <trkpt lat="45.20304" lon="5.84901">
        <ele>429.7</ele>
        <time>2021-03-21T13:27:52Z</time>
      </trkpt>
      <trkpt lat="45.20326" lon="5.84932">
        <ele>425.2</ele>
        <time>2021-03-21T13:27:55Z</time>
      </trkpt>
      <trkpt lat="45.20339" lon="5.84958">
        <ele>424</ele>
        <time>2021-03-21T13:27:57Z</time>
      </trkpt>
      <trkpt lat="45.20351" lon="5.84986">
        <ele>423.5</ele>
        <time>2021-03-21T13:27:59Z</time>
      </trkpt>
      <trkpt lat="45.20373" lon="5.85028">
        <ele>422.6</ele>
        <time>2021-03-21T13:28:02Z</time>
      </trkpt>
      <trkpt lat="45.20391" lon="5.85061">
        <ele>416.8</ele>
        <time>2021-03-21T13:28:05Z</time>
      </trkpt>
      <trkpt lat="45.20398" lon="5.85084">
        <ele>414.3</ele>
        <time>2021-03-21T13:28:07Z</time>
      </trkpt>
      <trkpt lat="45.20406" lon="5.85111">
        <ele>412.2</ele>
        <time>2021-03-21T13:28:10Z</time>
      </trkpt>
      <trkpt lat="45.20421" lon="5.85118">
        <ele>405.5</ele>
        <time>2021-03-21T13:28:13Z</time>
      </trkpt>
      <trkpt lat="45.20423" lon="5.85096">
        <ele>401.6</ele>
        <time>2021-03-21T13:28:16Z</time>
      </trkpt>
      <trkpt lat="45.20409" lon="5.85068">
        <ele>395.9</ele>
        <time>2021-03-21T13:28:18Z</time>
      </trkpt>
      <trkpt lat="45.20391" lon="5.85031">
        <ele>393.2</ele>
        <time>2021-03-21T13:28:21Z</time>
      </trkpt>
      <trkpt lat="45.2038" lon="5.85006">
        <ele>391.3</ele>
        <time>2021-03-21T13:28:23Z</time>
      </trkpt>
      <trkpt lat="45.20373" lon="5.84978">
        <ele>389.7</ele>
        <time>2021-03-21T13:28:25Z</time>
      </trkpt>
      <trkpt lat="45.20362" lon="5.84933">
        <ele>390</ele>
        <time>2021-03-21T13:28:28Z</time>
      </trkpt>
      <trkpt lat="45.20352" lon="5.84904">
        <ele>390.4</ele>
        <time>2021-03-21T13:28:30Z</time>
      </trkpt>
      <trkpt lat="45.20339" lon="5.8487">
        <ele>386.5</ele>
        <time>2021-03-21T13:28:33Z</time>
      </trkpt>
      <trkpt lat="45.20332" lon="5.84831">
        <ele>386.7</ele>
        <time>2021-03-21T13:28:36Z</time>
      </trkpt>
      <trkpt lat="45.20336" lon="5.84799">
        <ele>384.9</ele>
        <time>2021-03-21T13:28:38Z</time>
      </trkpt>
      <trkpt lat="45.20329" lon="5.84746">
        <ele>384.1</ele>
        <time>2021-03-21T13:28:41Z</time>
      </trkpt>
      <trkpt lat="45.20323" lon="5.84712">
        <ele>380.7</ele>
        <time>2021-03-21T13:28:43Z</time>
      </trkpt>
      <trkpt lat="45.20312" lon="5.8468">
        <ele>372.2</ele>
        <time>2021-03-21T13:28:45Z</time>
      </trkpt>
      <trkpt lat="45.203" lon="5.84649">
        <ele>371.2</ele>
        <time>2021-03-21T13:28:47Z</time>
      </trkpt>
      <trkpt lat="45.20276" lon="5.84605">
        <ele>366</ele>
        <time>2021-03-21T13:28:50Z</time>
      </trkpt>
      <trkpt lat="45.20259" lon="5.84557">
        <ele>364.6</ele>
        <time>2021-03-21T13:28:53Z</time>
      </trkpt>
      <trkpt lat="45.20249" lon="5.84516">
        <ele>359.6</ele>
        <time>2021-03-21T13:28:56Z</time>
      </trkpt>
      <trkpt lat="45.20243" lon="5.84476">
        <ele>356.3</ele>
        <time>2021-03-21T13:28:59Z</time>
      </trkpt>
      <trkpt lat="45.20241" lon="5.84426">
        <ele>358.4</ele>
        <time>2021-03-21T13:29:02Z</time>
      </trkpt>
      <trkpt lat="45.20227" lon="5.84378">
        <ele>350.1</ele>
        <time>2021-03-21T13:29:05Z</time>
      </trkpt>
      <trkpt lat="45.20204" lon="5.84328">
        <ele>344.3</ele>
        <time>2021-03-21T13:29:08Z</time>
      </trkpt>
      <trkpt lat="45.2019" lon="5.84296">
        <ele>341.7</ele>
        <time>2021-03-21T13:29:10Z</time>
      </trkpt>
      <trkpt lat="45.20178" lon="5.84254">
        <ele>333.7</ele>
        <time>2021-03-21T13:29:13Z</time>
      </trkpt>
      <trkpt lat="45.2017" lon="5.8423">
        <ele>332</ele>
        <time>2021-03-21T13:29:15Z</time>
      </trkpt>
      <trkpt lat="45.20156" lon="5.84215">
        <ele>327.2</ele>
        <time>2021-03-21T13:29:17Z</time>
      </trkpt>
      <trkpt lat="45.20126" lon="5.84214">
        <ele>325.5</ele>
        <time>2021-03-21T13:29:20Z</time>
      </trkpt>
      <trkpt lat="45.20107" lon="5.84225">
        <ele>325.5</ele>
        <time>2021-03-21T13:29:22Z</time>
      </trkpt>
      <trkpt lat="45.20069" lon="5.84245">
        <ele>326</ele>
        <time>2021-03-21T13:29:25Z</time>
      </trkpt>
      <trkpt lat="45.20035" lon="5.84252">
        <ele>321.3</ele>
        <time>2021-03-21T13:29:28Z</time>
      </trkpt>
      <trkpt lat="45.20007" lon="5.84254">
        <ele>322.2</ele>
        <time>2021-03-21T13:29:31Z</time>
      </trkpt>
      <trkpt lat="45.19987" lon="5.84247">
        <ele>318.7</ele>
        <time>2021-03-21T13:29:34Z</time>
      </trkpt>
      <trkpt lat="45.19987" lon="5.84222">
        <ele>314.6</ele>
        <time>2021-03-21T13:29:37Z</time>
      </trkpt>
      <trkpt lat="45.20006" lon="5.84212">
        <ele>312.3</ele>
        <time>2021-03-21T13:29:39Z</time>
      </trkpt>
      <trkpt lat="45.2003" lon="5.84197">
        <ele>311.6</ele>
        <time>2021-03-21T13:29:42Z</time>
      </trkpt>
      <trkpt lat="45.20053" lon="5.84183">
        <ele>310</ele>
        <time>2021-03-21T13:29:45Z</time>
      </trkpt>
      <trkpt lat="45.20074" lon="5.84166">
        <ele>310.7</ele>
        <time>2021-03-21T13:29:48Z</time>
      </trkpt>
      <trkpt lat="45.20084" lon="5.84149">
        <ele>310.3</ele>
        <time>2021-03-21T13:29:50Z</time>
      </trkpt>
      <trkpt lat="45.20096" lon="5.84123">
        <ele>308</ele>
        <time>2021-03-21T13:29:53Z</time>
      </trkpt>
      <trkpt lat="45.20108" lon="5.84097">
        <ele>306.6</ele>
        <time>2021-03-21T13:29:56Z</time>
      </trkpt>
      <trkpt lat="45.20116" lon="5.84078">
        <ele>303.1</ele>
        <time>2021-03-21T13:29:58Z</time>
      </trkpt>
      <trkpt lat="45.20132" lon="5.84057">
        <ele>300.9</ele>
        <time>2021-03-21T13:30:01Z</time>
      </trkpt>
      <trkpt lat="45.2014" lon="5.84041">
        <ele>302.2</ele>
        <time>2021-03-21T13:30:04Z</time>
      </trkpt>
      <trkpt lat="45.20145" lon="5.8403">
        <ele>302.9</ele>
        <time>2021-03-21T13:30:06Z</time>
      </trkpt>
      <trkpt lat="45.20149" lon="5.8402">
        <ele>305.6</ele>
        <time>2021-03-21T13:30:08Z</time>
      </trkpt>
      <trkpt lat="45.20153" lon="5.84015">
        <ele>302.1</ele>
        <time>2021-03-21T13:30:11Z</time>
      </trkpt>
      <trkpt lat="45.20152" lon="5.84015">
        <ele>302.6</ele>
        <time>2021-03-21T13:30:14Z</time>
      </trkpt>
      <trkpt lat="45.20151" lon="5.84015">
        <ele>301.1</ele>
        <time>2021-03-21T13:30:17Z</time>
      </trkpt>
      <trkpt lat="45.20151" lon="5.84015">
        <ele>301.6</ele>
        <time>2021-03-21T13:30:20Z</time>
      </trkpt>
      <trkpt lat="45.20151" lon="5.84015">
        <ele>300.1</ele>
        <time>2021-03-21T13:30:23Z</time>
      </trkpt>
      <trkpt lat="45.20151" lon="5.84015">
        <ele>302</ele>
        <time>2021-03-21T13:30:26Z</time>
      </trkpt>
      <trkpt lat="45.20151" lon="5.84015">
        <ele>299.6</ele>
        <time>2021-03-21T13:30:28Z</time>
      </trkpt>
      <trkpt lat="45.20151" lon="5.84015">
        <ele>298.9</ele>
        <time>2021-03-21T13:30:31Z</time>
      </trkpt>
      <trkpt lat="45.2015" lon="5.84015">
        <ele>302.8</ele>
        <time>2021-03-21T13:30:34Z</time>
      </trkpt>
      <trkpt lat="45.2015" lon="5.84015">
        <ele>299</ele>
        <time>2021-03-21T13:30:36Z</time>
      </trkpt>
      <trkpt lat="45.2015" lon="5.84014">
        <ele>301.6</ele>
        <time>2021-03-21T13:30:38Z</time>
      </trkpt>
      <trkpt lat="45.2015" lon="5.84014">
        <ele>301.1</ele>
        <time>2021-03-21T13:30:41Z</time>
      </trkpt>
      <trkpt lat="45.2015" lon="5.84011">
        <ele>302.8</ele>
        <time>2021-03-21T13:30:44Z</time>
      </trkpt>
      <trkpt lat="45.20149" lon="5.84011">
        <ele>303.6</ele>
        <time>2021-03-21T13:30:47Z</time>
      </trkpt>
      <trkpt lat="45.20147" lon="5.84009">
        <ele>304.9</ele>
        <time>2021-03-21T13:30:50Z</time>
      </trkpt>
      <trkpt lat="45.20147" lon="5.84008">
        <ele>306</ele>
        <time>2021-03-21T13:30:52Z</time>
      </trkpt>
      <trkpt lat="45.20147" lon="5.84011">
        <ele>303.5</ele>
        <time>2021-03-21T13:30:54Z</time>
      </trkpt>
      <trkpt lat="45.20148" lon="5.84009">
        <ele>305.6</ele>
        <time>2021-03-21T13:30:57Z</time>
      </trkpt>
      <trkpt lat="45.20149" lon="5.84008">
        <ele>301.6</ele>
        <time>2021-03-21T13:30:59Z</time>
      </trkpt>
      <trkpt lat="45.2015" lon="5.84009">
        <ele>301</ele>
        <time>2021-03-21T13:31:02Z</time>
      </trkpt>
      <trkpt lat="45.2015" lon="5.8401">
        <ele>300.3</ele>
        <time>2021-03-21T13:31:04Z</time>
      </trkpt>
      <trkpt lat="45.2015" lon="5.8401">
        <ele>299</ele>
        <time>2021-03-21T13:31:07Z</time>
      </trkpt>
      <trkpt lat="45.20149" lon="5.8401">
        <ele>297.7</ele>
        <time>2021-03-21T13:31:09Z</time>
      </trkpt>
      <trkpt lat="45.20148" lon="5.8401">
        <ele>299.4</ele>
        <time>2021-03-21T13:31:11Z</time>
      </trkpt>
      <trkpt lat="45.20148" lon="5.8401">
        <ele>297.7</ele>
        <time>2021-03-21T13:31:14Z</time>
      </trkpt>
      <trkpt lat="45.20148" lon="5.8401">
        <ele>299</ele>
        <time>2021-03-21T13:31:16Z</time>
      </trkpt>
      <trkpt lat="45.20148" lon="5.8401">
        <ele>299.2</ele>
        <time>2021-03-21T13:31:19Z</time>
      </trkpt>
      <trkpt lat="45.20148" lon="5.84009">
        <ele>299.4</ele>
        <time>2021-03-21T13:31:21Z</time>
      </trkpt>
      <trkpt lat="45.20148" lon="5.84009">
        <ele>299.1</ele>
        <time>2021-03-21T13:31:24Z</time>
      </trkpt>
      <trkpt lat="45.20148" lon="5.84009">
        <ele>300.5</ele>
        <time>2021-03-21T13:31:26Z</time>
      </trkpt>
      <trkpt lat="45.20148" lon="5.84009">
        <ele>298.6</ele>
        <time>2021-03-21T13:31:28Z</time>
      </trkpt>
      <trkpt lat="45.20148" lon="5.84009">
        <ele>299.2</ele>
        <time>2021-03-21T13:31:31Z</time>
      </trkpt>
      <trkpt lat="45.20148" lon="5.84009">
        <ele>298.7</ele>
        <time>2021-03-21T13:31:34Z</time>
      </trkpt>
      <trkpt lat="45.20148" lon="5.84009">
        <ele>300.4</ele>
        <time>2021-03-21T13:31:37Z</time>
      </trkpt>
      <trkpt lat="45.20148" lon="5.84009">
        <ele>299.6</ele>
        <time>2021-03-21T13:31:39Z</time>
      </trkpt>
      <trkpt lat="45.20148" lon="5.84009">
        <ele>299</ele>
        <time>2021-03-21T13:31:42Z</time>
      </trkpt>
      <trkpt lat="45.20148" lon="5.84009">
        <ele>299.4</ele>
        <time>2021-03-21T13:31:44Z</time>
      </trkpt>
      <trkpt lat="45.20148" lon="5.84009">
        <ele>298.5</ele>
        <time>2021-03-21T13:31:46Z</time>
      </trkpt>
      <trkpt lat="45.20148" lon="5.84009">
        <ele>299.1</ele>
        <time>2021-03-21T13:31:49Z</time>
      </trkpt>
      <trkpt lat="45.20148" lon="5.84009">
        <ele>299.6</ele>
        <time>2021-03-21T13:31:51Z</time>
      </trkpt>
      <trkpt lat="45.20148" lon="5.84009">
        <ele>301.1</ele>
        <time>2021-03-21T13:31:54Z</time>
      </trkpt>
      <trkpt lat="45.20148" lon="5.84009">
        <ele>299.5</ele>
        <time>2021-03-21T13:31:57Z</time>
      </trkpt>
      <trkpt lat="45.20148" lon="5.84009">
        <ele>299.8</ele>
        <time>2021-03-21T13:32:00Z</time>
      </trkpt>
      <trkpt lat="45.20148" lon="5.84009">
        <ele>298.9</ele>
        <time>2021-03-21T13:32:03Z</time>
      </trkpt>
      <trkpt lat="45.20149" lon="5.84011">
        <ele>302.3</ele>
        <time>2021-03-21T13:32:06Z</time>
      </trkpt>
      <trkpt lat="45.20148" lon="5.84009">
        <ele>301.9</ele>
        <time>2021-03-21T13:32:09Z</time>
      </trkpt>
      <trkpt lat="45.20148" lon="5.84011">
        <ele>303</ele>
        <time>2021-03-21T13:32:12Z</time>
      </trkpt>
      <trkpt lat="45.20148" lon="5.84013">
        <ele>301.6</ele>
        <time>2021-03-21T13:32:14Z</time>
      </trkpt>
      <trkpt lat="45.20148" lon="5.84013">
        <ele>299.7</ele>
        <time>2021-03-21T13:32:17Z</time>
      </trkpt>
      <trkpt lat="45.20148" lon="5.84013">
        <ele>301.5</ele>
        <time>2021-03-21T13:32:20Z</time>
      </trkpt>
      <trkpt lat="45.20147" lon="5.84013">
        <ele>302.3</ele>
        <time>2021-03-21T13:32:22Z</time>
      </trkpt>
      <trkpt lat="45.20147" lon="5.84013">
        <ele>303.3</ele>
        <time>2021-03-21T13:32:25Z</time>
      </trkpt>
      <trkpt lat="45.20147" lon="5.84013">
        <ele>304.4</ele>
        <time>2021-03-21T13:32:27Z</time>
      </trkpt>
      <trkpt lat="45.20148" lon="5.84017">
        <ele>297.5</ele>
        <time>2021-03-21T13:32:30Z</time>
      </trkpt>
      <trkpt lat="45.20147" lon="5.8402">
        <ele>296.1</ele>
        <time>2021-03-21T13:32:32Z</time>
      </trkpt>
      <trkpt lat="45.20147" lon="5.8402">
        <ele>296</ele>
        <time>2021-03-21T13:32:35Z</time>
      </trkpt>
      <trkpt lat="45.20147" lon="5.84019">
        <ele>298.2</ele>
        <time>2021-03-21T13:32:37Z</time>
      </trkpt>
      <trkpt lat="45.20147" lon="5.84018">
        <ele>298.1</ele>
        <time>2021-03-21T13:32:39Z</time>
      </trkpt>
      <trkpt lat="45.20147" lon="5.84017">
        <ele>298.4</ele>
        <time>2021-03-21T13:32:42Z</time>
      </trkpt>
      <trkpt lat="45.20147" lon="5.84016">
        <ele>295.4</ele>
        <time>2021-03-21T13:32:45Z</time>
      </trkpt>
      <trkpt lat="45.20147" lon="5.84016">
        <ele>296.6</ele>
        <time>2021-03-21T13:32:48Z</time>
      </trkpt>
      <trkpt lat="45.20147" lon="5.84016">
        <ele>296.8</ele>
        <time>2021-03-21T13:32:50Z</time>
      </trkpt>
      <trkpt lat="45.20147" lon="5.84016">
        <ele>298.1</ele>
        <time>2021-03-21T13:32:53Z</time>
      </trkpt>
      <trkpt lat="45.20147" lon="5.84016">
        <ele>295.5</ele>
        <time>2021-03-21T13:32:55Z</time>
      </trkpt>
      <trkpt lat="45.20147" lon="5.84016">
        <ele>297</ele>
        <time>2021-03-21T13:32:58Z</time>
      </trkpt>
      <trkpt lat="45.20147" lon="5.84016">
        <ele>298.1</ele>
        <time>2021-03-21T13:33:00Z</time>
      </trkpt>
      <trkpt lat="45.20147" lon="5.84016">
        <ele>295.9</ele>
        <time>2021-03-21T13:33:03Z</time>
      </trkpt>
      <trkpt lat="45.20147" lon="5.84016">
        <ele>295.8</ele>
        <time>2021-03-21T13:33:06Z</time>
      </trkpt>
      <trkpt lat="45.20147" lon="5.84016">
        <ele>295.6</ele>
        <time>2021-03-21T13:33:09Z</time>
      </trkpt>
      <trkpt lat="45.20147" lon="5.84016">
        <ele>298.6</ele>
        <time>2021-03-21T13:33:12Z</time>
      </trkpt>
      <trkpt lat="45.20147" lon="5.84016">
        <ele>296.2</ele>
        <time>2021-03-21T13:33:15Z</time>
      </trkpt>
      <trkpt lat="45.20147" lon="5.84016">
        <ele>297.3</ele>
        <time>2021-03-21T13:33:17Z</time>
      </trkpt>
      <trkpt lat="45.20147" lon="5.84016">
        <ele>297.6</ele>
        <time>2021-03-21T13:33:20Z</time>
      </trkpt>
      <trkpt lat="45.20147" lon="5.84016">
        <ele>295.9</ele>
        <time>2021-03-21T13:33:23Z</time>
      </trkpt>
      <trkpt lat="45.20147" lon="5.84016">
        <ele>297.7</ele>
        <time>2021-03-21T13:33:25Z</time>
      </trkpt>
      <trkpt lat="45.20147" lon="5.84016">
        <ele>295.6</ele>
        <time>2021-03-21T13:33:28Z</time>
      </trkpt>
      <trkpt lat="45.20147" lon="5.84016">
        <ele>295.7</ele>
        <time>2021-03-21T13:33:30Z</time>
      </trkpt>
      <trkpt lat="45.20147" lon="5.84016">
        <ele>295.9</ele>
        <time>2021-03-21T13:33:33Z</time>
      </trkpt>
      <trkpt lat="45.20147" lon="5.84016">
        <ele>298.4</ele>
        <time>2021-03-21T13:33:35Z</time>
      </trkpt>
      <trkpt lat="45.20147" lon="5.84016">
        <ele>298.7</ele>
        <time>2021-03-21T13:33:38Z</time>
      </trkpt>
      <trkpt lat="45.20147" lon="5.84016">
        <ele>298.3</ele>
        <time>2021-03-21T13:33:41Z</time>
      </trkpt>
      <trkpt lat="45.20147" lon="5.84016">
        <ele>296.7</ele>
        <time>2021-03-21T13:33:44Z</time>
      </trkpt>
      <trkpt lat="45.20147" lon="5.84016">
        <ele>296.9</ele>
        <time>2021-03-21T13:33:47Z</time>
      </trkpt>
      <trkpt lat="45.20147" lon="5.84016">
        <ele>298.4</ele>
        <time>2021-03-21T13:33:50Z</time>
      </trkpt>
      <trkpt lat="45.20147" lon="5.84016">
        <ele>295.5</ele>
        <time>2021-03-21T13:33:52Z</time>
      </trkpt>
      <trkpt lat="45.20147" lon="5.84016">
        <ele>296.2</ele>
        <time>2021-03-21T13:33:54Z</time>
      </trkpt>
      <trkpt lat="45.20147" lon="5.84016">
        <ele>296</ele>
        <time>2021-03-21T13:33:57Z</time>
      </trkpt>
      <trkpt lat="45.20147" lon="5.84016">
        <ele>295.6</ele>
        <time>2021-03-21T13:33:59Z</time>
      </trkpt>
      <trkpt lat="45.20147" lon="5.84016">
        <ele>295.5</ele>
        <time>2021-03-21T13:34:01Z</time>
      </trkpt>
      <trkpt lat="45.20147" lon="5.84016">
        <ele>295.3</ele>
        <time>2021-03-21T13:34:04Z</time>
      </trkpt>
      <trkpt lat="45.20147" lon="5.84016">
        <ele>298.9</ele>
        <time>2021-03-21T13:34:06Z</time>
      </trkpt>
      <trkpt lat="45.20147" lon="5.84015">
        <ele>296.4</ele>
        <time>2021-03-21T13:34:08Z</time>
      </trkpt>
      <trkpt lat="45.20147" lon="5.84015">
        <ele>297.7</ele>
        <time>2021-03-21T13:34:11Z</time>
      </trkpt>
      <trkpt lat="45.20148" lon="5.84014">
        <ele>296.7</ele>
        <time>2021-03-21T13:34:14Z</time>
      </trkpt>
      <trkpt lat="45.20148" lon="5.84014">
        <ele>294.7</ele>
        <time>2021-03-21T13:34:17Z</time>
      </trkpt>
      <trkpt lat="45.20148" lon="5.84015">
        <ele>292.5</ele>
        <time>2021-03-21T13:34:20Z</time>
      </trkpt>
      <trkpt lat="45.20148" lon="5.84016">
        <ele>291.2</ele>
        <time>2021-03-21T13:34:23Z</time>
      </trkpt>
      <trkpt lat="45.20148" lon="5.84016">
        <ele>294.2</ele>
        <time>2021-03-21T13:34:26Z</time>
      </trkpt>
      <trkpt lat="45.20148" lon="5.84014">
        <ele>294.8</ele>
        <time>2021-03-21T13:34:28Z</time>
      </trkpt>
      <trkpt lat="45.20149" lon="5.84012">
        <ele>296.3</ele>
        <time>2021-03-21T13:34:31Z</time>
      </trkpt>
      <trkpt lat="45.20148" lon="5.84013">
        <ele>293.9</ele>
        <time>2021-03-21T13:34:34Z</time>
      </trkpt>
      <trkpt lat="45.20148" lon="5.84014">
        <ele>294.4</ele>
        <time>2021-03-21T13:34:36Z</time>
      </trkpt>
      <trkpt lat="45.20148" lon="5.84015">
        <ele>293.9</ele>
        <time>2021-03-21T13:34:39Z</time>
      </trkpt>
      <trkpt lat="45.20147" lon="5.84016">
        <ele>293.5</ele>
        <time>2021-03-21T13:34:41Z</time>
      </trkpt>
      <trkpt lat="45.20147" lon="5.84019">
        <ele>290.8</ele>
        <time>2021-03-21T13:34:44Z</time>
      </trkpt>
      <trkpt lat="45.20146" lon="5.84019">
        <ele>292.6</ele>
        <time>2021-03-21T13:34:46Z</time>
      </trkpt>
      <trkpt lat="45.20146" lon="5.84021">
        <ele>291.7</ele>
        <time>2021-03-21T13:34:49Z</time>
      </trkpt>
      <trkpt lat="45.20146" lon="5.84023">
        <ele>292.8</ele>
        <time>2021-03-21T13:34:51Z</time>
      </trkpt>
      <trkpt lat="45.20144" lon="5.84022">
        <ele>292.1</ele>
        <time>2021-03-21T13:34:54Z</time>
      </trkpt>
      <trkpt lat="45.20144" lon="5.84021">
        <ele>293.6</ele>
        <time>2021-03-21T13:34:56Z</time>
      </trkpt>
      <trkpt lat="45.20145" lon="5.84021">
        <ele>294.5</ele>
        <time>2021-03-21T13:34:58Z</time>
      </trkpt>
      <trkpt lat="45.20145" lon="5.8402">
        <ele>292.6</ele>
        <time>2021-03-21T13:35:01Z</time>
      </trkpt>
      <trkpt lat="45.20145" lon="5.8402">
        <ele>292.4</ele>
        <time>2021-03-21T13:35:03Z</time>
      </trkpt>
      <trkpt lat="45.20145" lon="5.8402">
        <ele>292.5</ele>
        <time>2021-03-21T13:35:05Z</time>
      </trkpt>
      <trkpt lat="45.20145" lon="5.8402">
        <ele>292.6</ele>
        <time>2021-03-21T13:35:08Z</time>
      </trkpt>
      <trkpt lat="45.20145" lon="5.8402">
        <ele>293.3</ele>
        <time>2021-03-21T13:35:11Z</time>
      </trkpt>
      <trkpt lat="45.20145" lon="5.8402">
        <ele>292.2</ele>
        <time>2021-03-21T13:35:14Z</time>
      </trkpt>
      <trkpt lat="45.20145" lon="5.8402">
        <ele>292.4</ele>
        <time>2021-03-21T13:35:17Z</time>
      </trkpt>
      <trkpt lat="45.20145" lon="5.8402">
        <ele>293.5</ele>
        <time>2021-03-21T13:35:20Z</time>
      </trkpt>
      <trkpt lat="45.20145" lon="5.84017">
        <ele>295.1</ele>
        <time>2021-03-21T13:35:23Z</time>
      </trkpt>
      <trkpt lat="45.20147" lon="5.84012">
        <ele>298.7</ele>
        <time>2021-03-21T13:35:26Z</time>
      </trkpt>
      <trkpt lat="45.20148" lon="5.8401">
        <ele>303</ele>
        <time>2021-03-21T13:35:28Z</time>
      </trkpt>
      <trkpt lat="45.20147" lon="5.84007">
        <ele>305.4</ele>
        <time>2021-03-21T13:35:30Z</time>
      </trkpt>
      <trkpt lat="45.20147" lon="5.84003">
        <ele>305.8</ele>
        <time>2021-03-21T13:35:33Z</time>
      </trkpt>
      <trkpt lat="45.20149" lon="5.84001">
        <ele>307.3</ele>
        <time>2021-03-21T13:35:36Z</time>
      </trkpt>
      <trkpt lat="45.20149" lon="5.83999">
        <ele>307.2</ele>
        <time>2021-03-21T13:35:38Z</time>
      </trkpt>
      <trkpt lat="45.20148" lon="5.83999">
        <ele>307</ele>
        <time>2021-03-21T13:35:41Z</time>
      </trkpt>
      <trkpt lat="45.20147" lon="5.84">
        <ele>306.8</ele>
        <time>2021-03-21T13:35:43Z</time>
      </trkpt>
      <trkpt lat="45.20146" lon="5.84">
        <ele>306.1</ele>
        <time>2021-03-21T13:35:46Z</time>
      </trkpt>
      <trkpt lat="45.20147" lon="5.83999">
        <ele>305.8</ele>
        <time>2021-03-21T13:35:49Z</time>
      </trkpt>
      <trkpt lat="45.2015" lon="5.83996">
        <ele>303.7</ele>
        <time>2021-03-21T13:35:51Z</time>
      </trkpt>
      <trkpt lat="45.20154" lon="5.83991">
        <ele>298</ele>
        <time>2021-03-21T13:35:54Z</time>
      </trkpt>
      <trkpt lat="45.20153" lon="5.83989">
        <ele>299.3</ele>
        <time>2021-03-21T13:35:56Z</time>
      </trkpt>
      <trkpt lat="45.20156" lon="5.83986">
        <ele>300.6</ele>
        <time>2021-03-21T13:35:59Z</time>
      </trkpt>
      <trkpt lat="45.2016" lon="5.83981">
        <ele>298.1</ele>
        <time>2021-03-21T13:36:01Z</time>
      </trkpt>
      <trkpt lat="45.20164" lon="5.83975">
        <ele>299.7</ele>
        <time>2021-03-21T13:36:04Z</time>
      </trkpt>
      <trkpt lat="45.20165" lon="5.83968">
        <ele>301</ele>
        <time>2021-03-21T13:36:07Z</time>
      </trkpt>
      <trkpt lat="45.20164" lon="5.83963">
        <ele>301.8</ele>
        <time>2021-03-21T13:36:10Z</time>
      </trkpt>
      <trkpt lat="45.20164" lon="5.83957">
        <ele>303.5</ele>
        <time>2021-03-21T13:36:13Z</time>
      </trkpt>
      <trkpt lat="45.20163" lon="5.83952">
        <ele>304.3</ele>
        <time>2021-03-21T13:36:16Z</time>
      </trkpt>
      <trkpt lat="45.20163" lon="5.83949">
        <ele>303.4</ele>
        <time>2021-03-21T13:36:18Z</time>
      </trkpt>
      <trkpt lat="45.20162" lon="5.83943">
        <ele>301.3</ele>
        <time>2021-03-21T13:36:21Z</time>
      </trkpt>
      <trkpt lat="45.20161" lon="5.83941">
        <ele>301.3</ele>
        <time>2021-03-21T13:36:23Z</time>
      </trkpt>
      <trkpt lat="45.2016" lon="5.83937">
        <ele>300.1</ele>
        <time>2021-03-21T13:36:25Z</time>
      </trkpt>
      <trkpt lat="45.2016" lon="5.83929">
        <ele>298.6</ele>
        <time>2021-03-21T13:36:28Z</time>
      </trkpt>
      <trkpt lat="45.20159" lon="5.83924">
        <ele>297.7</ele>
        <time>2021-03-21T13:36:30Z</time>
      </trkpt>
      <trkpt lat="45.20159" lon="5.83918">
        <ele>301.9</ele>
        <time>2021-03-21T13:36:33Z</time>
      </trkpt>
      <trkpt lat="45.20158" lon="5.8391">
        <ele>303.1</ele>
        <time>2021-03-21T13:36:36Z</time>
      </trkpt>
      <trkpt lat="45.20157" lon="5.83905">
        <ele>304.9</ele>
        <time>2021-03-21T13:36:38Z</time>
      </trkpt>
      <trkpt lat="45.20157" lon="5.83894">
        <ele>306.1</ele>
        <time>2021-03-21T13:36:41Z</time>
      </trkpt>
      <trkpt lat="45.20157" lon="5.83886">
        <ele>305.1</ele>
        <time>2021-03-21T13:36:43Z</time>
      </trkpt>
      <trkpt lat="45.20155" lon="5.8387">
        <ele>297.6</ele>
        <time>2021-03-21T13:36:46Z</time>
      </trkpt>
      <trkpt lat="45.20155" lon="5.83859">
        <ele>295.6</ele>
        <time>2021-03-21T13:36:48Z</time>
      </trkpt>
      <trkpt lat="45.20162" lon="5.83847">
        <ele>295.9</ele>
        <time>2021-03-21T13:36:51Z</time>
      </trkpt>
      <trkpt lat="45.20175" lon="5.83841">
        <ele>294.1</ele>
        <time>2021-03-21T13:36:54Z</time>
      </trkpt>
      <trkpt lat="45.20188" lon="5.83835">
        <ele>295.2</ele>
        <time>2021-03-21T13:36:57Z</time>
      </trkpt>
      <trkpt lat="45.20197" lon="5.83831">
        <ele>293.3</ele>
        <time>2021-03-21T13:36:59Z</time>
      </trkpt>
      <trkpt lat="45.20212" lon="5.83823">
        <ele>290</ele>
        <time>2021-03-21T13:37:02Z</time>
      </trkpt>
      <trkpt lat="45.20226" lon="5.83818">
        <ele>290.7</ele>
        <time>2021-03-21T13:37:05Z</time>
      </trkpt>
      <trkpt lat="45.2024" lon="5.83813">
        <ele>290.6</ele>
        <time>2021-03-21T13:37:08Z</time>
      </trkpt>
      <trkpt lat="45.20257" lon="5.83802">
        <ele>292.2</ele>
        <time>2021-03-21T13:37:10Z</time>
      </trkpt>
      <trkpt lat="45.20271" lon="5.83791">
        <ele>292.4</ele>
        <time>2021-03-21T13:37:12Z</time>
      </trkpt>
      <trkpt lat="45.2029" lon="5.83774">
        <ele>291.7</ele>
        <time>2021-03-21T13:37:15Z</time>
      </trkpt>
      <trkpt lat="45.203" lon="5.83765">
        <ele>291.5</ele>
        <time>2021-03-21T13:37:17Z</time>
      </trkpt>
      <trkpt lat="45.2031" lon="5.83756">
        <ele>291.2</ele>
        <time>2021-03-21T13:37:19Z</time>
      </trkpt>
      <trkpt lat="45.20322" lon="5.83743">
        <ele>293.9</ele>
        <time>2021-03-21T13:37:22Z</time>
      </trkpt>
      <trkpt lat="45.20329" lon="5.83737">
        <ele>291.3</ele>
        <time>2021-03-21T13:37:24Z</time>
      </trkpt>
      <trkpt lat="45.20342" lon="5.83727">
        <ele>290.1</ele>
        <time>2021-03-21T13:37:27Z</time>
      </trkpt>
      <trkpt lat="45.20354" lon="5.83717">
        <ele>292.3</ele>
        <time>2021-03-21T13:37:29Z</time>
      </trkpt>
      <trkpt lat="45.20366" lon="5.83705">
        <ele>291.1</ele>
        <time>2021-03-21T13:37:31Z</time>
      </trkpt>
      <trkpt lat="45.20383" lon="5.8369">
        <ele>291.6</ele>
        <time>2021-03-21T13:37:34Z</time>
      </trkpt>
      <trkpt lat="45.20397" lon="5.83676">
        <ele>287.7</ele>
        <time>2021-03-21T13:37:37Z</time>
      </trkpt>
      <trkpt lat="45.20407" lon="5.83666">
        <ele>289.3</ele>
        <time>2021-03-21T13:37:39Z</time>
      </trkpt>
      <trkpt lat="45.20419" lon="5.83659">
        <ele>288.7</ele>
        <time>2021-03-21T13:37:41Z</time>
      </trkpt>
      <trkpt lat="45.20434" lon="5.83644">
        <ele>286.5</ele>
        <time>2021-03-21T13:37:44Z</time>
      </trkpt>
      <trkpt lat="45.20442" lon="5.83633">
        <ele>284.5</ele>
        <time>2021-03-21T13:37:46Z</time>
      </trkpt>
      <trkpt lat="45.20451" lon="5.83622">
        <ele>282.2</ele>
        <time>2021-03-21T13:37:48Z</time>
      </trkpt>
      <trkpt lat="45.20461" lon="5.83612">
        <ele>283.3</ele>
        <time>2021-03-21T13:37:50Z</time>
      </trkpt>
      <trkpt lat="45.20476" lon="5.83597">
        <ele>283.3</ele>
        <time>2021-03-21T13:37:53Z</time>
      </trkpt>
      <trkpt lat="45.20488" lon="5.83585">
        <ele>284.4</ele>
        <time>2021-03-21T13:37:56Z</time>
      </trkpt>
      <trkpt lat="45.20493" lon="5.83581">
        <ele>284.3</ele>
        <time>2021-03-21T13:37:58Z</time>
      </trkpt>
      <trkpt lat="45.20502" lon="5.83575">
        <ele>284.2</ele>
        <time>2021-03-21T13:38:01Z</time>
      </trkpt>
      <trkpt lat="45.20514" lon="5.83567">
        <ele>284.3</ele>
        <time>2021-03-21T13:38:04Z</time>
      </trkpt>
      <trkpt lat="45.20524" lon="5.83558">
        <ele>284.9</ele>
        <time>2021-03-21T13:38:07Z</time>
      </trkpt>
      <trkpt lat="45.20533" lon="5.8355">
        <ele>285.6</ele>
        <time>2021-03-21T13:38:09Z</time>
      </trkpt>
      <trkpt lat="45.20545" lon="5.83539">
        <ele>283.9</ele>
        <time>2021-03-21T13:38:11Z</time>
      </trkpt>
      <trkpt lat="45.20564" lon="5.83523">
        <ele>282.7</ele>
        <time>2021-03-21T13:38:15Z</time>
      </trkpt>
      <trkpt lat="45.20577" lon="5.83512">
        <ele>281.5</ele>
        <time>2021-03-21T13:38:17Z</time>
      </trkpt>
      <trkpt lat="45.20589" lon="5.83503">
        <ele>282.5</ele>
        <time>2021-03-21T13:38:19Z</time>
      </trkpt>
      <trkpt lat="45.20601" lon="5.83494">
        <ele>282.8</ele>
        <time>2021-03-21T13:38:21Z</time>
      </trkpt>
      <trkpt lat="45.20621" lon="5.83481">
        <ele>279.5</ele>
        <time>2021-03-21T13:38:24Z</time>
      </trkpt>
      <trkpt lat="45.20639" lon="5.83466">
        <ele>279.8</ele>
        <time>2021-03-21T13:38:27Z</time>
      </trkpt>
      <trkpt lat="45.20651" lon="5.83457">
        <ele>280.5</ele>
        <time>2021-03-21T13:38:29Z</time>
      </trkpt>
      <trkpt lat="45.20669" lon="5.83444">
        <ele>279.5</ele>
        <time>2021-03-21T13:38:32Z</time>
      </trkpt>
      <trkpt lat="45.20686" lon="5.8343">
        <ele>279.5</ele>
        <time>2021-03-21T13:38:35Z</time>
      </trkpt>
      <trkpt lat="45.20698" lon="5.83421">
        <ele>278.7</ele>
        <time>2021-03-21T13:38:37Z</time>
      </trkpt>
      <trkpt lat="45.20711" lon="5.83412">
        <ele>280.5</ele>
        <time>2021-03-21T13:38:39Z</time>
      </trkpt>
      <trkpt lat="45.20732" lon="5.83398">
        <ele>280.9</ele>
        <time>2021-03-21T13:38:42Z</time>
      </trkpt>
      <trkpt lat="45.2075" lon="5.8338">
        <ele>279.4</ele>
        <time>2021-03-21T13:38:45Z</time>
      </trkpt>
      <trkpt lat="45.20769" lon="5.83364">
        <ele>278.4</ele>
        <time>2021-03-21T13:38:48Z</time>
      </trkpt>
      <trkpt lat="45.20782" lon="5.83354">
        <ele>278.2</ele>
        <time>2021-03-21T13:38:50Z</time>
      </trkpt>
      <trkpt lat="45.20802" lon="5.83339">
        <ele>276.8</ele>
        <time>2021-03-21T13:38:53Z</time>
      </trkpt>
      <trkpt lat="45.2082" lon="5.83326">
        <ele>275.2</ele>
        <time>2021-03-21T13:38:56Z</time>
      </trkpt>
      <trkpt lat="45.20837" lon="5.83311">
        <ele>275.1</ele>
        <time>2021-03-21T13:38:59Z</time>
      </trkpt>
      <trkpt lat="45.20854" lon="5.83298">
        <ele>273.2</ele>
        <time>2021-03-21T13:39:02Z</time>
      </trkpt>
      <trkpt lat="45.2087" lon="5.83287">
        <ele>274.2</ele>
        <time>2021-03-21T13:39:05Z</time>
      </trkpt>
      <trkpt lat="45.20886" lon="5.83274">
        <ele>274</ele>
        <time>2021-03-21T13:39:08Z</time>
      </trkpt>
      <trkpt lat="45.20896" lon="5.83266">
        <ele>273.3</ele>
        <time>2021-03-21T13:39:10Z</time>
      </trkpt>
      <trkpt lat="45.20911" lon="5.83254">
        <ele>272.4</ele>
        <time>2021-03-21T13:39:13Z</time>
      </trkpt>
      <trkpt lat="45.20921" lon="5.83247">
        <ele>272.1</ele>
        <time>2021-03-21T13:39:15Z</time>
      </trkpt>
      <trkpt lat="45.20937" lon="5.83236">
        <ele>271.3</ele>
        <time>2021-03-21T13:39:18Z</time>
      </trkpt>
      <trkpt lat="45.20947" lon="5.83233">
        <ele>271.6</ele>
        <time>2021-03-21T13:39:20Z</time>
      </trkpt>
      <trkpt lat="45.20963" lon="5.83226">
        <ele>271.2</ele>
        <time>2021-03-21T13:39:23Z</time>
      </trkpt>
      <trkpt lat="45.20973" lon="5.83224">
        <ele>271.4</ele>
        <time>2021-03-21T13:39:25Z</time>
      </trkpt>
      <trkpt lat="45.20988" lon="5.83223">
        <ele>272.3</ele>
        <time>2021-03-21T13:39:28Z</time>
      </trkpt>
      <trkpt lat="45.21001" lon="5.83228">
        <ele>273.4</ele>
        <time>2021-03-21T13:39:31Z</time>
      </trkpt>
      <trkpt lat="45.21015" lon="5.83236">
        <ele>273.6</ele>
        <time>2021-03-21T13:39:34Z</time>
      </trkpt>
      <trkpt lat="45.21026" lon="5.83248">
        <ele>274.1</ele>
        <time>2021-03-21T13:39:37Z</time>
      </trkpt>
      <trkpt lat="45.21039" lon="5.83258">
        <ele>271.5</ele>
        <time>2021-03-21T13:39:40Z</time>
      </trkpt>
      <trkpt lat="45.21053" lon="5.83255">
        <ele>271.2</ele>
        <time>2021-03-21T13:39:43Z</time>
      </trkpt>
      <trkpt lat="45.21065" lon="5.83245">
        <ele>273.4</ele>
        <time>2021-03-21T13:39:46Z</time>
      </trkpt>
      <trkpt lat="45.21073" lon="5.83227">
        <ele>274.2</ele>
        <time>2021-03-21T13:39:49Z</time>
      </trkpt>
      <trkpt lat="45.21078" lon="5.83207">
        <ele>273.1</ele>
        <time>2021-03-21T13:39:52Z</time>
      </trkpt>
      <trkpt lat="45.21081" lon="5.83194">
        <ele>274.5</ele>
        <time>2021-03-21T13:39:54Z</time>
      </trkpt>
      <trkpt lat="45.21085" lon="5.83182">
        <ele>274.4</ele>
        <time>2021-03-21T13:39:56Z</time>
      </trkpt>
      <trkpt lat="45.2109" lon="5.83171">
        <ele>275.2</ele>
        <time>2021-03-21T13:39:58Z</time>
      </trkpt>
      <trkpt lat="45.21101" lon="5.83156">
        <ele>273.3</ele>
        <time>2021-03-21T13:40:01Z</time>
      </trkpt>
      <trkpt lat="45.21111" lon="5.83141">
        <ele>273.1</ele>
        <time>2021-03-21T13:40:04Z</time>
      </trkpt>
      <trkpt lat="45.21121" lon="5.83126">
        <ele>274.8</ele>
        <time>2021-03-21T13:40:07Z</time>
      </trkpt>
      <trkpt lat="45.21128" lon="5.8311">
        <ele>276.4</ele>
        <time>2021-03-21T13:40:10Z</time>
      </trkpt>
      <trkpt lat="45.21136" lon="5.83095">
        <ele>276.4</ele>
        <time>2021-03-21T13:40:13Z</time>
      </trkpt>
      <trkpt lat="45.21142" lon="5.83084">
        <ele>277.3</ele>
        <time>2021-03-21T13:40:15Z</time>
      </trkpt>
      <trkpt lat="45.21151" lon="5.8307">
        <ele>277.4</ele>
        <time>2021-03-21T13:40:18Z</time>
      </trkpt>
      <trkpt lat="45.21157" lon="5.83056">
        <ele>278.3</ele>
        <time>2021-03-21T13:40:20Z</time>
      </trkpt>
      <trkpt lat="45.21166" lon="5.83037">
        <ele>275.7</ele>
        <time>2021-03-21T13:40:23Z</time>
      </trkpt>
      <trkpt lat="45.21173" lon="5.83025">
        <ele>273.9</ele>
        <time>2021-03-21T13:40:25Z</time>
      </trkpt>
      <trkpt lat="45.21179" lon="5.83013">
        <ele>273.3</ele>
        <time>2021-03-21T13:40:27Z</time>
      </trkpt>
      <trkpt lat="45.21187" lon="5.82994">
        <ele>274.5</ele>
        <time>2021-03-21T13:40:30Z</time>
      </trkpt>
      <trkpt lat="45.21195" lon="5.82976">
        <ele>275.3</ele>
        <time>2021-03-21T13:40:33Z</time>
      </trkpt>
      <trkpt lat="45.21203" lon="5.82959">
        <ele>274.6</ele>
        <time>2021-03-21T13:40:36Z</time>
      </trkpt>
      <trkpt lat="45.21209" lon="5.82943">
        <ele>276.1</ele>
        <time>2021-03-21T13:40:39Z</time>
      </trkpt>
      <trkpt lat="45.21214" lon="5.82933">
        <ele>276.4</ele>
        <time>2021-03-21T13:40:41Z</time>
      </trkpt>
      <trkpt lat="45.21219" lon="5.82923">
        <ele>276.9</ele>
        <time>2021-03-21T13:40:43Z</time>
      </trkpt>
      <trkpt lat="45.21224" lon="5.82914">
        <ele>277.3</ele>
        <time>2021-03-21T13:40:45Z</time>
      </trkpt>
      <trkpt lat="45.21229" lon="5.82904">
        <ele>276.9</ele>
        <time>2021-03-21T13:40:47Z</time>
      </trkpt>
      <trkpt lat="45.21237" lon="5.82889">
        <ele>277.2</ele>
        <time>2021-03-21T13:40:50Z</time>
      </trkpt>
      <trkpt lat="45.21244" lon="5.82875">
        <ele>275.6</ele>
        <time>2021-03-21T13:40:53Z</time>
      </trkpt>
      <trkpt lat="45.21253" lon="5.8286">
        <ele>274</ele>
        <time>2021-03-21T13:40:56Z</time>
      </trkpt>
      <trkpt lat="45.21258" lon="5.8285">
        <ele>275.7</ele>
        <time>2021-03-21T13:40:58Z</time>
      </trkpt>
      <trkpt lat="45.21266" lon="5.82835">
        <ele>273.5</ele>
        <time>2021-03-21T13:41:01Z</time>
      </trkpt>
      <trkpt lat="45.21271" lon="5.82825">
        <ele>272.9</ele>
        <time>2021-03-21T13:41:03Z</time>
      </trkpt>
      <trkpt lat="45.21276" lon="5.82815">
        <ele>272.7</ele>
        <time>2021-03-21T13:41:05Z</time>
      </trkpt>
      <trkpt lat="45.21285" lon="5.82799">
        <ele>273.7</ele>
        <time>2021-03-21T13:41:08Z</time>
      </trkpt>
      <trkpt lat="45.21292" lon="5.82797">
        <ele>271.4</ele>
        <time>2021-03-21T13:41:11Z</time>
      </trkpt>
      <trkpt lat="45.21289" lon="5.82807">
        <ele>272.7</ele>
        <time>2021-03-21T13:41:13Z</time>
      </trkpt>
      <trkpt lat="45.2128" lon="5.82826">
        <ele>272</ele>
        <time>2021-03-21T13:41:16Z</time>
      </trkpt>
      <trkpt lat="45.21274" lon="5.82835">
        <ele>271.6</ele>
        <time>2021-03-21T13:41:18Z</time>
      </trkpt>
      <trkpt lat="45.21269" lon="5.82845">
        <ele>270.4</ele>
        <time>2021-03-21T13:41:20Z</time>
      </trkpt>
      <trkpt lat="45.21261" lon="5.82861">
        <ele>268.9</ele>
        <time>2021-03-21T13:41:23Z</time>
      </trkpt>
      <trkpt lat="45.21254" lon="5.82879">
        <ele>267.8</ele>
        <time>2021-03-21T13:41:26Z</time>
      </trkpt>
      <trkpt lat="45.21249" lon="5.82891">
        <ele>266.7</ele>
        <time>2021-03-21T13:41:28Z</time>
      </trkpt>
      <trkpt lat="45.21239" lon="5.82909">
        <ele>266.9</ele>
        <time>2021-03-21T13:41:31Z</time>
      </trkpt>
      <trkpt lat="45.21231" lon="5.82928">
        <ele>269.9</ele>
        <time>2021-03-21T13:41:34Z</time>
      </trkpt>
      <trkpt lat="45.21223" lon="5.82944">
        <ele>268.3</ele>
        <time>2021-03-21T13:41:37Z</time>
      </trkpt>
      <trkpt lat="45.21233" lon="5.82955">
        <ele>269.6</ele>
        <time>2021-03-21T13:41:40Z</time>
      </trkpt>
      <trkpt lat="45.21239" lon="5.82959">
        <ele>269.3</ele>
        <time>2021-03-21T13:41:42Z</time>
      </trkpt>
      <trkpt lat="45.21244" lon="5.82965">
        <ele>270.2</ele>
        <time>2021-03-21T13:41:45Z</time>
      </trkpt>
      <trkpt lat="45.21245" lon="5.82967">
        <ele>267.3</ele>
        <time>2021-03-21T13:41:47Z</time>
      </trkpt>
      <trkpt lat="45.21245" lon="5.82967">
        <ele>270.4</ele>
        <time>2021-03-21T13:41:50Z</time>
      </trkpt>
      <trkpt lat="45.21241" lon="5.82975">
        <ele>270.6</ele>
        <time>2021-03-21T13:41:53Z</time>
      </trkpt>
      <trkpt lat="45.21242" lon="5.82981">
        <ele>270.3</ele>
        <time>2021-03-21T13:41:55Z</time>
      </trkpt>
      <trkpt lat="45.21248" lon="5.82987">
        <ele>270</ele>
        <time>2021-03-21T13:41:58Z</time>
      </trkpt>
      <trkpt lat="45.21254" lon="5.82992">
        <ele>271.3</ele>
        <time>2021-03-21T13:42:01Z</time>
      </trkpt>
      <trkpt lat="45.21259" lon="5.82997">
        <ele>271.3</ele>
        <time>2021-03-21T13:42:03Z</time>
      </trkpt>
      <trkpt lat="45.21268" lon="5.83003">
        <ele>271.5</ele>
        <time>2021-03-21T13:42:06Z</time>
      </trkpt>
      <trkpt lat="45.21273" lon="5.83007">
        <ele>270.8</ele>
        <time>2021-03-21T13:42:08Z</time>
      </trkpt>
      <trkpt lat="45.21277" lon="5.83011">
        <ele>269.7</ele>
        <time>2021-03-21T13:42:10Z</time>
      </trkpt>
      <trkpt lat="45.21281" lon="5.83016">
        <ele>270.6</ele>
        <time>2021-03-21T13:42:12Z</time>
      </trkpt>
      <trkpt lat="45.21286" lon="5.83024">
        <ele>268.9</ele>
        <time>2021-03-21T13:42:15Z</time>
      </trkpt>
      <trkpt lat="45.21295" lon="5.83032">
        <ele>269.4</ele>
        <time>2021-03-21T13:42:18Z</time>
      </trkpt>
      <trkpt lat="45.21304" lon="5.8304">
        <ele>269.3</ele>
        <time>2021-03-21T13:42:21Z</time>
      </trkpt>
      <trkpt lat="45.21312" lon="5.8305">
        <ele>268.3</ele>
        <time>2021-03-21T13:42:24Z</time>
      </trkpt>
      <trkpt lat="45.21319" lon="5.83057">
        <ele>268.6</ele>
        <time>2021-03-21T13:42:26Z</time>
      </trkpt>
      <trkpt lat="45.2133" lon="5.83068">
        <ele>265.6</ele>
        <time>2021-03-21T13:42:29Z</time>
      </trkpt>
      <trkpt lat="45.21338" lon="5.83075">
        <ele>265.8</ele>
        <time>2021-03-21T13:42:31Z</time>
      </trkpt>
      <trkpt lat="45.21352" lon="5.83088">
        <ele>268.1</ele>
        <time>2021-03-21T13:42:34Z</time>
      </trkpt>
      <trkpt lat="45.21361" lon="5.83098">
        <ele>269</ele>
        <time>2021-03-21T13:42:36Z</time>
      </trkpt>
      <trkpt lat="45.21371" lon="5.83115">
        <ele>268.8</ele>
        <time>2021-03-21T13:42:39Z</time>
      </trkpt>
      <trkpt lat="45.2138" lon="5.83124">
        <ele>269.9</ele>
        <time>2021-03-21T13:42:41Z</time>
      </trkpt>
      <trkpt lat="45.21394" lon="5.83137">
        <ele>269.3</ele>
        <time>2021-03-21T13:42:44Z</time>
      </trkpt>
      <trkpt lat="45.21409" lon="5.83151">
        <ele>269.7</ele>
        <time>2021-03-21T13:42:47Z</time>
      </trkpt>
      <trkpt lat="45.21422" lon="5.83164">
        <ele>268.5</ele>
        <time>2021-03-21T13:42:50Z</time>
      </trkpt>
      <trkpt lat="45.21431" lon="5.83175">
        <ele>268.6</ele>
        <time>2021-03-21T13:42:52Z</time>
      </trkpt>
      <trkpt lat="45.21444" lon="5.83187">
        <ele>271.5</ele>
        <time>2021-03-21T13:42:55Z</time>
      </trkpt>
      <trkpt lat="45.21453" lon="5.83196">
        <ele>271.9</ele>
        <time>2021-03-21T13:42:57Z</time>
      </trkpt>
      <trkpt lat="45.21466" lon="5.83212">
        <ele>270.2</ele>
        <time>2021-03-21T13:43:00Z</time>
      </trkpt>
      <trkpt lat="45.21481" lon="5.83228">
        <ele>269.9</ele>
        <time>2021-03-21T13:43:03Z</time>
      </trkpt>
      <trkpt lat="45.2149" lon="5.83239">
        <ele>272.3</ele>
        <time>2021-03-21T13:43:05Z</time>
      </trkpt>
      <trkpt lat="45.21498" lon="5.8325">
        <ele>273.8</ele>
        <time>2021-03-21T13:43:07Z</time>
      </trkpt>
      <trkpt lat="45.21508" lon="5.83268">
        <ele>273.6</ele>
        <time>2021-03-21T13:43:10Z</time>
      </trkpt>
      <trkpt lat="45.21519" lon="5.83283">
        <ele>273.5</ele>
        <time>2021-03-21T13:43:13Z</time>
      </trkpt>
      <trkpt lat="45.21527" lon="5.83293">
        <ele>273.6</ele>
        <time>2021-03-21T13:43:15Z</time>
      </trkpt>
      <trkpt lat="45.21538" lon="5.83308">
        <ele>273.6</ele>
        <time>2021-03-21T13:43:18Z</time>
      </trkpt>
      <trkpt lat="45.2155" lon="5.83323">
        <ele>273.8</ele>
        <time>2021-03-21T13:43:21Z</time>
      </trkpt>
      <trkpt lat="45.21559" lon="5.83334">
        <ele>271.7</ele>
        <time>2021-03-21T13:43:23Z</time>
      </trkpt>
      <trkpt lat="45.21573" lon="5.83353">
        <ele>273.2</ele>
        <time>2021-03-21T13:43:26Z</time>
      </trkpt>
      <trkpt lat="45.21579" lon="5.83367">
        <ele>273</ele>
        <time>2021-03-21T13:43:28Z</time>
      </trkpt>
      <trkpt lat="45.2159" lon="5.83385">
        <ele>270.7</ele>
        <time>2021-03-21T13:43:31Z</time>
      </trkpt>
      <trkpt lat="45.21599" lon="5.83403">
        <ele>272.9</ele>
        <time>2021-03-21T13:43:34Z</time>
      </trkpt>
      <trkpt lat="45.21605" lon="5.83415">
        <ele>271.4</ele>
        <time>2021-03-21T13:43:36Z</time>
      </trkpt>
      <trkpt lat="45.21613" lon="5.83427">
        <ele>271.5</ele>
        <time>2021-03-21T13:43:38Z</time>
      </trkpt>
      <trkpt lat="45.21625" lon="5.83443">
        <ele>272.1</ele>
        <time>2021-03-21T13:43:41Z</time>
      </trkpt>
      <trkpt lat="45.21634" lon="5.83454">
        <ele>271.4</ele>
        <time>2021-03-21T13:43:43Z</time>
      </trkpt>
      <trkpt lat="45.21641" lon="5.83469">
        <ele>272.6</ele>
        <time>2021-03-21T13:43:45Z</time>
      </trkpt>
      <trkpt lat="45.21649" lon="5.83491">
        <ele>270.9</ele>
        <time>2021-03-21T13:43:48Z</time>
      </trkpt>
      <trkpt lat="45.2166" lon="5.83513">
        <ele>270.3</ele>
        <time>2021-03-21T13:43:51Z</time>
      </trkpt>
      <trkpt lat="45.21669" lon="5.83529">
        <ele>269.7</ele>
        <time>2021-03-21T13:43:54Z</time>
      </trkpt>
      <trkpt lat="45.21673" lon="5.83537">
        <ele>269.8</ele>
        <time>2021-03-21T13:43:56Z</time>
      </trkpt>
      <trkpt lat="45.21677" lon="5.83543">
        <ele>272.4</ele>
        <time>2021-03-21T13:43:59Z</time>
      </trkpt>
      <trkpt lat="45.21681" lon="5.8355">
        <ele>273.9</ele>
        <time>2021-03-21T13:44:02Z</time>
      </trkpt>
      <trkpt lat="45.21685" lon="5.83558">
        <ele>273.4</ele>
        <time>2021-03-21T13:44:05Z</time>
      </trkpt>
      <trkpt lat="45.21692" lon="5.83573">
        <ele>272.3</ele>
        <time>2021-03-21T13:44:08Z</time>
      </trkpt>
      <trkpt lat="45.217" lon="5.83586">
        <ele>273.7</ele>
        <time>2021-03-21T13:44:10Z</time>
      </trkpt>
      <trkpt lat="45.2171" lon="5.83606">
        <ele>272.2</ele>
        <time>2021-03-21T13:44:13Z</time>
      </trkpt>
      <trkpt lat="45.21719" lon="5.83628">
        <ele>268.5</ele>
        <time>2021-03-21T13:44:16Z</time>
      </trkpt>
      <trkpt lat="45.21725" lon="5.83644">
        <ele>269.7</ele>
        <time>2021-03-21T13:44:18Z</time>
      </trkpt>
      <trkpt lat="45.21736" lon="5.83661">
        <ele>268.2</ele>
        <time>2021-03-21T13:44:21Z</time>
      </trkpt>
      <trkpt lat="45.21742" lon="5.83675">
        <ele>269.5</ele>
        <time>2021-03-21T13:44:23Z</time>
      </trkpt>
      <trkpt lat="45.21749" lon="5.8369">
        <ele>270.5</ele>
        <time>2021-03-21T13:44:25Z</time>
      </trkpt>
      <trkpt lat="45.2176" lon="5.83712">
        <ele>269.3</ele>
        <time>2021-03-21T13:44:28Z</time>
      </trkpt>
      <trkpt lat="45.21771" lon="5.83734">
        <ele>271.2</ele>
        <time>2021-03-21T13:44:31Z</time>
      </trkpt>
      <trkpt lat="45.21782" lon="5.83752">
        <ele>271.4</ele>
        <time>2021-03-21T13:44:34Z</time>
      </trkpt>
      <trkpt lat="45.21792" lon="5.83772">
        <ele>272.1</ele>
        <time>2021-03-21T13:44:37Z</time>
      </trkpt>
      <trkpt lat="45.21798" lon="5.83782">
        <ele>272.1</ele>
        <time>2021-03-21T13:44:39Z</time>
      </trkpt>
      <trkpt lat="45.2181" lon="5.83794">
        <ele>271</ele>
        <time>2021-03-21T13:44:42Z</time>
      </trkpt>
      <trkpt lat="45.21824" lon="5.83809">
        <ele>270.1</ele>
        <time>2021-03-21T13:44:45Z</time>
      </trkpt>
      <trkpt lat="45.21838" lon="5.83826">
        <ele>268.9</ele>
        <time>2021-03-21T13:44:48Z</time>
      </trkpt>
      <trkpt lat="45.21853" lon="5.83846">
        <ele>270.8</ele>
        <time>2021-03-21T13:44:51Z</time>
      </trkpt>
      <trkpt lat="45.21867" lon="5.83864">
        <ele>269.1</ele>
        <time>2021-03-21T13:44:54Z</time>
      </trkpt>
      <trkpt lat="45.21879" lon="5.83883">
        <ele>268.6</ele>
        <time>2021-03-21T13:44:57Z</time>
      </trkpt>
      <trkpt lat="45.21889" lon="5.83894">
        <ele>270</ele>
        <time>2021-03-21T13:44:59Z</time>
      </trkpt>
      <trkpt lat="45.21901" lon="5.83914">
        <ele>270.7</ele>
        <time>2021-03-21T13:45:02Z</time>
      </trkpt>
      <trkpt lat="45.21907" lon="5.83928">
        <ele>269.6</ele>
        <time>2021-03-21T13:45:04Z</time>
      </trkpt>
      <trkpt lat="45.21916" lon="5.83948">
        <ele>270.8</ele>
        <time>2021-03-21T13:45:07Z</time>
      </trkpt>
      <trkpt lat="45.21929" lon="5.83966">
        <ele>271.3</ele>
        <time>2021-03-21T13:45:10Z</time>
      </trkpt>
      <trkpt lat="45.21941" lon="5.83987">
        <ele>268.9</ele>
        <time>2021-03-21T13:45:13Z</time>
      </trkpt>
      <trkpt lat="45.21953" lon="5.84005">
        <ele>269.9</ele>
        <time>2021-03-21T13:45:16Z</time>
      </trkpt>
      <trkpt lat="45.21966" lon="5.84027">
        <ele>268.4</ele>
        <time>2021-03-21T13:45:19Z</time>
      </trkpt>
      <trkpt lat="45.21979" lon="5.84047">
        <ele>267.2</ele>
        <time>2021-03-21T13:45:22Z</time>
      </trkpt>
      <trkpt lat="45.21991" lon="5.84066">
        <ele>269.6</ele>
        <time>2021-03-21T13:45:25Z</time>
      </trkpt>
      <trkpt lat="45.22003" lon="5.84085">
        <ele>270.3</ele>
        <time>2021-03-21T13:45:28Z</time>
      </trkpt>
      <trkpt lat="45.22016" lon="5.84104">
        <ele>269.9</ele>
        <time>2021-03-21T13:45:31Z</time>
      </trkpt>
      <trkpt lat="45.22029" lon="5.84119">
        <ele>271.9</ele>
        <time>2021-03-21T13:45:34Z</time>
      </trkpt>
      <trkpt lat="45.22043" lon="5.84133">
        <ele>270.6</ele>
        <time>2021-03-21T13:45:37Z</time>
      </trkpt>
      <trkpt lat="45.22058" lon="5.84145">
        <ele>269.9</ele>
        <time>2021-03-21T13:45:40Z</time>
      </trkpt>
      <trkpt lat="45.22071" lon="5.84158">
        <ele>269.9</ele>
        <time>2021-03-21T13:45:43Z</time>
      </trkpt>
      <trkpt lat="45.22086" lon="5.8417">
        <ele>268.8</ele>
        <time>2021-03-21T13:45:46Z</time>
      </trkpt>
      <trkpt lat="45.22104" lon="5.8418">
        <ele>267.9</ele>
        <time>2021-03-21T13:45:49Z</time>
      </trkpt>
      <trkpt lat="45.22114" lon="5.84187">
        <ele>267.6</ele>
        <time>2021-03-21T13:45:51Z</time>
      </trkpt>
      <trkpt lat="45.22126" lon="5.84203">
        <ele>266.9</ele>
        <time>2021-03-21T13:45:54Z</time>
      </trkpt>
      <trkpt lat="45.22139" lon="5.84218">
        <ele>268.3</ele>
        <time>2021-03-21T13:45:57Z</time>
      </trkpt>
      <trkpt lat="45.22152" lon="5.84238">
        <ele>270</ele>
        <time>2021-03-21T13:46:00Z</time>
      </trkpt>
      <trkpt lat="45.22166" lon="5.84256">
        <ele>268.7</ele>
        <time>2021-03-21T13:46:03Z</time>
      </trkpt>
      <trkpt lat="45.22178" lon="5.84278">
        <ele>269.5</ele>
        <time>2021-03-21T13:46:06Z</time>
      </trkpt>
      <trkpt lat="45.22191" lon="5.84295">
        <ele>266.8</ele>
        <time>2021-03-21T13:46:09Z</time>
      </trkpt>
      <trkpt lat="45.22204" lon="5.84314">
        <ele>269.1</ele>
        <time>2021-03-21T13:46:12Z</time>
      </trkpt>
      <trkpt lat="45.22218" lon="5.84334">
        <ele>271.2</ele>
        <time>2021-03-21T13:46:15Z</time>
      </trkpt>
      <trkpt lat="45.22231" lon="5.84349">
        <ele>268.7</ele>
        <time>2021-03-21T13:46:18Z</time>
      </trkpt>
      <trkpt lat="45.22245" lon="5.84364">
        <ele>268</ele>
        <time>2021-03-21T13:46:21Z</time>
      </trkpt>
      <trkpt lat="45.22258" lon="5.84374">
        <ele>268.3</ele>
        <time>2021-03-21T13:46:24Z</time>
      </trkpt>
      <trkpt lat="45.22267" lon="5.84379">
        <ele>265.8</ele>
        <time>2021-03-21T13:46:26Z</time>
      </trkpt>
      <trkpt lat="45.22274" lon="5.84386">
        <ele>264.5</ele>
        <time>2021-03-21T13:46:28Z</time>
      </trkpt>
      <trkpt lat="45.22288" lon="5.84402">
        <ele>266.6</ele>
        <time>2021-03-21T13:46:31Z</time>
      </trkpt>
      <trkpt lat="45.22303" lon="5.84421">
        <ele>267.6</ele>
        <time>2021-03-21T13:46:34Z</time>
      </trkpt>
      <trkpt lat="45.22313" lon="5.84431">
        <ele>266.1</ele>
        <time>2021-03-21T13:46:36Z</time>
      </trkpt>
      <trkpt lat="45.22322" lon="5.84443">
        <ele>270.9</ele>
        <time>2021-03-21T13:46:38Z</time>
      </trkpt>
      <trkpt lat="45.22335" lon="5.8446">
        <ele>269.5</ele>
        <time>2021-03-21T13:46:41Z</time>
      </trkpt>
      <trkpt lat="45.22349" lon="5.84476">
        <ele>269</ele>
        <time>2021-03-21T13:46:44Z</time>
      </trkpt>
      <trkpt lat="45.22363" lon="5.84494">
        <ele>271.7</ele>
        <time>2021-03-21T13:46:47Z</time>
      </trkpt>
      <trkpt lat="45.22376" lon="5.8451">
        <ele>269.2</ele>
        <time>2021-03-21T13:46:50Z</time>
      </trkpt>
      <trkpt lat="45.22389" lon="5.84522">
        <ele>273.8</ele>
        <time>2021-03-21T13:46:53Z</time>
      </trkpt>
      <trkpt lat="45.22403" lon="5.8454">
        <ele>274.2</ele>
        <time>2021-03-21T13:46:56Z</time>
      </trkpt>
      <trkpt lat="45.22417" lon="5.84558">
        <ele>272.4</ele>
        <time>2021-03-21T13:46:59Z</time>
      </trkpt>
      <trkpt lat="45.22426" lon="5.84571">
        <ele>273.1</ele>
        <time>2021-03-21T13:47:01Z</time>
      </trkpt>
      <trkpt lat="45.22438" lon="5.84589">
        <ele>273.9</ele>
        <time>2021-03-21T13:47:04Z</time>
      </trkpt>
      <trkpt lat="45.22451" lon="5.84606">
        <ele>271.8</ele>
        <time>2021-03-21T13:47:07Z</time>
      </trkpt>
      <trkpt lat="45.22463" lon="5.84622">
        <ele>273</ele>
        <time>2021-03-21T13:47:10Z</time>
      </trkpt>
      <trkpt lat="45.22472" lon="5.84631">
        <ele>271.6</ele>
        <time>2021-03-21T13:47:12Z</time>
      </trkpt>
      <trkpt lat="45.22485" lon="5.84647">
        <ele>274.3</ele>
        <time>2021-03-21T13:47:15Z</time>
      </trkpt>
      <trkpt lat="45.22493" lon="5.84659">
        <ele>272.5</ele>
        <time>2021-03-21T13:47:17Z</time>
      </trkpt>
      <trkpt lat="45.22502" lon="5.84669">
        <ele>273.4</ele>
        <time>2021-03-21T13:47:19Z</time>
      </trkpt>
      <trkpt lat="45.22515" lon="5.84686">
        <ele>272.8</ele>
        <time>2021-03-21T13:47:22Z</time>
      </trkpt>
      <trkpt lat="45.22528" lon="5.84704">
        <ele>274.6</ele>
        <time>2021-03-21T13:47:25Z</time>
      </trkpt>
      <trkpt lat="45.22543" lon="5.84719">
        <ele>273.4</ele>
        <time>2021-03-21T13:47:28Z</time>
      </trkpt>
      <trkpt lat="45.22552" lon="5.8473">
        <ele>272.2</ele>
        <time>2021-03-21T13:47:30Z</time>
      </trkpt>
      <trkpt lat="45.22565" lon="5.84747">
        <ele>273.6</ele>
        <time>2021-03-21T13:47:33Z</time>
      </trkpt>
      <trkpt lat="45.22575" lon="5.84758">
        <ele>273.3</ele>
        <time>2021-03-21T13:47:35Z</time>
      </trkpt>
      <trkpt lat="45.22584" lon="5.84768">
        <ele>272.5</ele>
        <time>2021-03-21T13:47:37Z</time>
      </trkpt>
      <trkpt lat="45.22597" lon="5.84783">
        <ele>271.7</ele>
        <time>2021-03-21T13:47:40Z</time>
      </trkpt>
      <trkpt lat="45.22606" lon="5.84796">
        <ele>272.3</ele>
        <time>2021-03-21T13:47:42Z</time>
      </trkpt>
      <trkpt lat="45.22616" lon="5.84807">
        <ele>273.8</ele>
        <time>2021-03-21T13:47:44Z</time>
      </trkpt>
      <trkpt lat="45.2263" lon="5.84824">
        <ele>275</ele>
        <time>2021-03-21T13:47:47Z</time>
      </trkpt>
      <trkpt lat="45.22642" lon="5.8484">
        <ele>272.8</ele>
        <time>2021-03-21T13:47:50Z</time>
      </trkpt>
      <trkpt lat="45.22654" lon="5.84858">
        <ele>272.6</ele>
        <time>2021-03-21T13:47:53Z</time>
      </trkpt>
      <trkpt lat="45.22667" lon="5.84876">
        <ele>272.4</ele>
        <time>2021-03-21T13:47:56Z</time>
      </trkpt>
      <trkpt lat="45.22676" lon="5.84887">
        <ele>273</ele>
        <time>2021-03-21T13:47:58Z</time>
      </trkpt>
      <trkpt lat="45.22685" lon="5.84897">
        <ele>273.8</ele>
        <time>2021-03-21T13:48:00Z</time>
      </trkpt>
      <trkpt lat="45.22699" lon="5.84915">
        <ele>274.1</ele>
        <time>2021-03-21T13:48:03Z</time>
      </trkpt>
      <trkpt lat="45.22708" lon="5.84926">
        <ele>274.7</ele>
        <time>2021-03-21T13:48:05Z</time>
      </trkpt>
      <trkpt lat="45.22717" lon="5.84937">
        <ele>274.2</ele>
        <time>2021-03-21T13:48:07Z</time>
      </trkpt>
      <trkpt lat="45.22732" lon="5.84952">
        <ele>274.5</ele>
        <time>2021-03-21T13:48:10Z</time>
      </trkpt>
      <trkpt lat="45.22746" lon="5.84972">
        <ele>277.4</ele>
        <time>2021-03-21T13:48:13Z</time>
      </trkpt>
      <trkpt lat="45.2276" lon="5.8499">
        <ele>276.2</ele>
        <time>2021-03-21T13:48:16Z</time>
      </trkpt>
      <trkpt lat="45.22776" lon="5.85008">
        <ele>276.9</ele>
        <time>2021-03-21T13:48:19Z</time>
      </trkpt>
      <trkpt lat="45.2279" lon="5.85024">
        <ele>276.7</ele>
        <time>2021-03-21T13:48:22Z</time>
      </trkpt>
      <trkpt lat="45.22809" lon="5.85033">
        <ele>276.8</ele>
        <time>2021-03-21T13:48:25Z</time>
      </trkpt>
      <trkpt lat="45.22815" lon="5.85044">
        <ele>271.9</ele>
        <time>2021-03-21T13:48:27Z</time>
      </trkpt>
      <trkpt lat="45.2282" lon="5.85059">
        <ele>274.4</ele>
        <time>2021-03-21T13:48:29Z</time>
      </trkpt>
      <trkpt lat="45.22834" lon="5.8508">
        <ele>272.7</ele>
        <time>2021-03-21T13:48:32Z</time>
      </trkpt>
      <trkpt lat="45.22849" lon="5.85095">
        <ele>272.2</ele>
        <time>2021-03-21T13:48:35Z</time>
      </trkpt>
      <trkpt lat="45.22861" lon="5.85111">
        <ele>271.6</ele>
        <time>2021-03-21T13:48:38Z</time>
      </trkpt>
      <trkpt lat="45.22868" lon="5.85121">
        <ele>270.9</ele>
        <time>2021-03-21T13:48:40Z</time>
      </trkpt>
      <trkpt lat="45.22885" lon="5.85141">
        <ele>269.3</ele>
        <time>2021-03-21T13:48:43Z</time>
      </trkpt>
      <trkpt lat="45.22894" lon="5.8515">
        <ele>269.7</ele>
        <time>2021-03-21T13:48:45Z</time>
      </trkpt>
      <trkpt lat="45.22902" lon="5.85161">
        <ele>270.3</ele>
        <time>2021-03-21T13:48:47Z</time>
      </trkpt>
      <trkpt lat="45.22912" lon="5.85179">
        <ele>271.8</ele>
        <time>2021-03-21T13:48:50Z</time>
      </trkpt>
      <trkpt lat="45.22922" lon="5.85188">
        <ele>272.2</ele>
        <time>2021-03-21T13:48:52Z</time>
      </trkpt>
      <trkpt lat="45.22931" lon="5.85199">
        <ele>269.5</ele>
        <time>2021-03-21T13:48:54Z</time>
      </trkpt>
      <trkpt lat="45.22943" lon="5.85214">
        <ele>271.6</ele>
        <time>2021-03-21T13:48:57Z</time>
      </trkpt>
      <trkpt lat="45.2295" lon="5.85225">
        <ele>272.9</ele>
        <time>2021-03-21T13:48:59Z</time>
      </trkpt>
      <trkpt lat="45.22963" lon="5.8524">
        <ele>272</ele>
        <time>2021-03-21T13:49:02Z</time>
      </trkpt>
      <trkpt lat="45.22977" lon="5.85257">
        <ele>271.7</ele>
        <time>2021-03-21T13:49:05Z</time>
      </trkpt>
      <trkpt lat="45.22988" lon="5.85271">
        <ele>272.7</ele>
        <time>2021-03-21T13:49:08Z</time>
      </trkpt>
      <trkpt lat="45.23" lon="5.85287">
        <ele>271.9</ele>
        <time>2021-03-21T13:49:11Z</time>
      </trkpt>
      <trkpt lat="45.23013" lon="5.85304">
        <ele>271.8</ele>
        <time>2021-03-21T13:49:14Z</time>
      </trkpt>
      <trkpt lat="45.23025" lon="5.85322">
        <ele>272.8</ele>
        <time>2021-03-21T13:49:17Z</time>
      </trkpt>
      <trkpt lat="45.23037" lon="5.85342">
        <ele>273.6</ele>
        <time>2021-03-21T13:49:20Z</time>
      </trkpt>
      <trkpt lat="45.2305" lon="5.85358">
        <ele>271.9</ele>
        <time>2021-03-21T13:49:23Z</time>
      </trkpt>
      <trkpt lat="45.23058" lon="5.85376">
        <ele>269.5</ele>
        <time>2021-03-21T13:49:26Z</time>
      </trkpt>
      <trkpt lat="45.23067" lon="5.854">
        <ele>268.9</ele>
        <time>2021-03-21T13:49:29Z</time>
      </trkpt>
      <trkpt lat="45.23079" lon="5.85408">
        <ele>268.5</ele>
        <time>2021-03-21T13:49:31Z</time>
      </trkpt>
      <trkpt lat="45.23096" lon="5.85415">
        <ele>267.1</ele>
        <time>2021-03-21T13:49:34Z</time>
      </trkpt>
      <trkpt lat="45.23108" lon="5.85423">
        <ele>268.3</ele>
        <time>2021-03-21T13:49:36Z</time>
      </trkpt>
      <trkpt lat="45.23121" lon="5.85437">
        <ele>270.2</ele>
        <time>2021-03-21T13:49:39Z</time>
      </trkpt>
      <trkpt lat="45.2313" lon="5.85447">
        <ele>269.8</ele>
        <time>2021-03-21T13:49:41Z</time>
      </trkpt>
      <trkpt lat="45.23142" lon="5.8546">
        <ele>270.1</ele>
        <time>2021-03-21T13:49:44Z</time>
      </trkpt>
      <trkpt lat="45.23153" lon="5.85467">
        <ele>269.1</ele>
        <time>2021-03-21T13:49:46Z</time>
      </trkpt>
      <trkpt lat="45.23171" lon="5.85476">
        <ele>271.9</ele>
        <time>2021-03-21T13:49:49Z</time>
      </trkpt>
      <trkpt lat="45.23187" lon="5.85484">
        <ele>271.7</ele>
        <time>2021-03-21T13:49:52Z</time>
      </trkpt>
      <trkpt lat="45.23201" lon="5.85491">
        <ele>271.8</ele>
        <time>2021-03-21T13:49:54Z</time>
      </trkpt>
      <trkpt lat="45.23214" lon="5.85494">
        <ele>273.8</ele>
        <time>2021-03-21T13:49:56Z</time>
      </trkpt>
      <trkpt lat="45.23234" lon="5.85496">
        <ele>274</ele>
        <time>2021-03-21T13:49:59Z</time>
      </trkpt>
      <trkpt lat="45.23249" lon="5.85499">
        <ele>272.4</ele>
        <time>2021-03-21T13:50:01Z</time>
      </trkpt>
      <trkpt lat="45.23266" lon="5.85499">
        <ele>271.6</ele>
        <time>2021-03-21T13:50:04Z</time>
      </trkpt>
      <trkpt lat="45.23285" lon="5.85498">
        <ele>274.9</ele>
        <time>2021-03-21T13:50:07Z</time>
      </trkpt>
      <trkpt lat="45.23303" lon="5.85497">
        <ele>275.7</ele>
        <time>2021-03-21T13:50:10Z</time>
      </trkpt>
      <trkpt lat="45.23314" lon="5.85496">
        <ele>276</ele>
        <time>2021-03-21T13:50:12Z</time>
      </trkpt>
      <trkpt lat="45.23329" lon="5.85499">
        <ele>275.7</ele>
        <time>2021-03-21T13:50:15Z</time>
      </trkpt>
      <trkpt lat="45.23343" lon="5.85508">
        <ele>274.9</ele>
        <time>2021-03-21T13:50:18Z</time>
      </trkpt>
      <trkpt lat="45.23355" lon="5.85508">
        <ele>273.3</ele>
        <time>2021-03-21T13:50:20Z</time>
      </trkpt>
      <trkpt lat="45.23368" lon="5.85506">
        <ele>274.2</ele>
        <time>2021-03-21T13:50:22Z</time>
      </trkpt>
      <trkpt lat="45.23382" lon="5.85504">
        <ele>274.6</ele>
        <time>2021-03-21T13:50:24Z</time>
      </trkpt>
      <trkpt lat="45.234" lon="5.85505">
        <ele>272.8</ele>
        <time>2021-03-21T13:50:27Z</time>
      </trkpt>
      <trkpt lat="45.23418" lon="5.85505">
        <ele>272.9</ele>
        <time>2021-03-21T13:50:30Z</time>
      </trkpt>
      <trkpt lat="45.23437" lon="5.85503">
        <ele>275.3</ele>
        <time>2021-03-21T13:50:33Z</time>
      </trkpt>
      <trkpt lat="45.23454" lon="5.85504">
        <ele>273.5</ele>
        <time>2021-03-21T13:50:36Z</time>
      </trkpt>
      <trkpt lat="45.23473" lon="5.85506">
        <ele>274.3</ele>
        <time>2021-03-21T13:50:39Z</time>
      </trkpt>
      <trkpt lat="45.23486" lon="5.85508">
        <ele>274</ele>
        <time>2021-03-21T13:50:41Z</time>
      </trkpt>
      <trkpt lat="45.23502" lon="5.8551">
        <ele>274.7</ele>
        <time>2021-03-21T13:50:44Z</time>
      </trkpt>
      <trkpt lat="45.23514" lon="5.85512">
        <ele>274.4</ele>
        <time>2021-03-21T13:50:46Z</time>
      </trkpt>
      <trkpt lat="45.23525" lon="5.85516">
        <ele>273.5</ele>
        <time>2021-03-21T13:50:48Z</time>
      </trkpt>
      <trkpt lat="45.23538" lon="5.8552">
        <ele>274.9</ele>
        <time>2021-03-21T13:50:51Z</time>
      </trkpt>
      <trkpt lat="45.23552" lon="5.85518">
        <ele>274.1</ele>
        <time>2021-03-21T13:50:53Z</time>
      </trkpt>
      <trkpt lat="45.23563" lon="5.85508">
        <ele>275.7</ele>
        <time>2021-03-21T13:50:55Z</time>
      </trkpt>
      <trkpt lat="45.23574" lon="5.85492">
        <ele>276.5</ele>
        <time>2021-03-21T13:50:58Z</time>
      </trkpt>
      <trkpt lat="45.23582" lon="5.8547">
        <ele>278</ele>
        <time>2021-03-21T13:51:01Z</time>
      </trkpt>
      <trkpt lat="45.23589" lon="5.85449">
        <ele>273</ele>
        <time>2021-03-21T13:51:04Z</time>
      </trkpt>
      <trkpt lat="45.23602" lon="5.8544">
        <ele>272.6</ele>
        <time>2021-03-21T13:51:07Z</time>
      </trkpt>
      <trkpt lat="45.23618" lon="5.85442">
        <ele>270.8</ele>
        <time>2021-03-21T13:51:10Z</time>
      </trkpt>
      <trkpt lat="45.23637" lon="5.85441">
        <ele>270.5</ele>
        <time>2021-03-21T13:51:13Z</time>
      </trkpt>
      <trkpt lat="45.23652" lon="5.85438">
        <ele>271.4</ele>
        <time>2021-03-21T13:51:16Z</time>
      </trkpt>
      <trkpt lat="45.23664" lon="5.85435">
        <ele>271.7</ele>
        <time>2021-03-21T13:51:18Z</time>
      </trkpt>
      <trkpt lat="45.2368" lon="5.85432">
        <ele>270.3</ele>
        <time>2021-03-21T13:51:21Z</time>
      </trkpt>
      <trkpt lat="45.23697" lon="5.85431">
        <ele>273.3</ele>
        <time>2021-03-21T13:51:24Z</time>
      </trkpt>
      <trkpt lat="45.23707" lon="5.8543">
        <ele>273.9</ele>
        <time>2021-03-21T13:51:26Z</time>
      </trkpt>
      <trkpt lat="45.23723" lon="5.85428">
        <ele>272.7</ele>
        <time>2021-03-21T13:51:29Z</time>
      </trkpt>
      <trkpt lat="45.2374" lon="5.85426">
        <ele>272.7</ele>
        <time>2021-03-21T13:51:32Z</time>
      </trkpt>
      <trkpt lat="45.2375" lon="5.85425">
        <ele>271.8</ele>
        <time>2021-03-21T13:51:34Z</time>
      </trkpt>
      <trkpt lat="45.23766" lon="5.85422">
        <ele>275.1</ele>
        <time>2021-03-21T13:51:37Z</time>
      </trkpt>
      <trkpt lat="45.23783" lon="5.85419">
        <ele>273.6</ele>
        <time>2021-03-21T13:51:40Z</time>
      </trkpt>
      <trkpt lat="45.23798" lon="5.85417">
        <ele>272.5</ele>
        <time>2021-03-21T13:51:43Z</time>
      </trkpt>
      <trkpt lat="45.23809" lon="5.85415">
        <ele>273.6</ele>
        <time>2021-03-21T13:51:45Z</time>
      </trkpt>
      <trkpt lat="45.23826" lon="5.85412">
        <ele>273.4</ele>
        <time>2021-03-21T13:51:48Z</time>
      </trkpt>
      <trkpt lat="45.23843" lon="5.85411">
        <ele>271.4</ele>
        <time>2021-03-21T13:51:51Z</time>
      </trkpt>
      <trkpt lat="45.23855" lon="5.85409">
        <ele>273.5</ele>
        <time>2021-03-21T13:51:53Z</time>
      </trkpt>
      <trkpt lat="45.23869" lon="5.85408">
        <ele>273.7</ele>
        <time>2021-03-21T13:51:56Z</time>
      </trkpt>
      <trkpt lat="45.2388" lon="5.85403">
        <ele>273.8</ele>
        <time>2021-03-21T13:51:58Z</time>
      </trkpt>
      <trkpt lat="45.23892" lon="5.85399">
        <ele>272.5</ele>
        <time>2021-03-21T13:52:00Z</time>
      </trkpt>
      <trkpt lat="45.23904" lon="5.85395">
        <ele>273.6</ele>
        <time>2021-03-21T13:52:02Z</time>
      </trkpt>
      <trkpt lat="45.23916" lon="5.85392">
        <ele>274.6</ele>
        <time>2021-03-21T13:52:04Z</time>
      </trkpt>
      <trkpt lat="45.23932" lon="5.85389">
        <ele>273.8</ele>
        <time>2021-03-21T13:52:07Z</time>
      </trkpt>
      <trkpt lat="45.23948" lon="5.85382">
        <ele>274.5</ele>
        <time>2021-03-21T13:52:10Z</time>
      </trkpt>
      <trkpt lat="45.23963" lon="5.85369">
        <ele>273.2</ele>
        <time>2021-03-21T13:52:13Z</time>
      </trkpt>
      <trkpt lat="45.23976" lon="5.85352">
        <ele>273.4</ele>
        <time>2021-03-21T13:52:16Z</time>
      </trkpt>
      <trkpt lat="45.23985" lon="5.85342">
        <ele>272.9</ele>
        <time>2021-03-21T13:52:18Z</time>
      </trkpt>
      <trkpt lat="45.23994" lon="5.8533">
        <ele>275</ele>
        <time>2021-03-21T13:52:21Z</time>
      </trkpt>
      <trkpt lat="45.24003" lon="5.85317">
        <ele>275.9</ele>
        <time>2021-03-21T13:52:24Z</time>
      </trkpt>
      <trkpt lat="45.24012" lon="5.85308">
        <ele>278.7</ele>
        <time>2021-03-21T13:52:27Z</time>
      </trkpt>
      <trkpt lat="45.24023" lon="5.85315">
        <ele>276</ele>
        <time>2021-03-21T13:52:30Z</time>
      </trkpt>
      <trkpt lat="45.24035" lon="5.85334">
        <ele>274.9</ele>
        <time>2021-03-21T13:52:33Z</time>
      </trkpt>
      <trkpt lat="45.24043" lon="5.8535">
        <ele>273.6</ele>
        <time>2021-03-21T13:52:35Z</time>
      </trkpt>
      <trkpt lat="45.2405" lon="5.85376">
        <ele>272.5</ele>
        <time>2021-03-21T13:52:38Z</time>
      </trkpt>
      <trkpt lat="45.24058" lon="5.85396">
        <ele>275.3</ele>
        <time>2021-03-21T13:52:41Z</time>
      </trkpt>
      <trkpt lat="45.24065" lon="5.854">
        <ele>275.7</ele>
        <time>2021-03-21T13:52:43Z</time>
      </trkpt>
      <trkpt lat="45.24075" lon="5.8541">
        <ele>276.3</ele>
        <time>2021-03-21T13:52:46Z</time>
      </trkpt>
      <trkpt lat="45.24087" lon="5.85418">
        <ele>274.8</ele>
        <time>2021-03-21T13:52:49Z</time>
      </trkpt>
      <trkpt lat="45.24101" lon="5.85426">
        <ele>276.7</ele>
        <time>2021-03-21T13:52:56Z</time>
      </trkpt>
      <trkpt lat="45.24107" lon="5.8541">
        <ele>280.2</ele>
        <time>2021-03-21T13:52:58Z</time>
      </trkpt>
      <trkpt lat="45.24117" lon="5.85407">
        <ele>279.4</ele>
        <time>2021-03-21T13:53:01Z</time>
      </trkpt>
      <trkpt lat="45.24124" lon="5.85407">
        <ele>279.4</ele>
        <time>2021-03-21T13:53:03Z</time>
      </trkpt>
      <trkpt lat="45.24136" lon="5.85407">
        <ele>277.8</ele>
        <time>2021-03-21T13:53:06Z</time>
      </trkpt>
      <trkpt lat="45.24144" lon="5.85407">
        <ele>277.4</ele>
        <time>2021-03-21T13:53:08Z</time>
      </trkpt>
      <trkpt lat="45.24155" lon="5.85405">
        <ele>277.9</ele>
        <time>2021-03-21T13:53:11Z</time>
      </trkpt>
      <trkpt lat="45.24161" lon="5.85403">
        <ele>276.2</ele>
        <time>2021-03-21T13:53:13Z</time>
      </trkpt>
      <trkpt lat="45.2417" lon="5.85401">
        <ele>276.6</ele>
        <time>2021-03-21T13:53:16Z</time>
      </trkpt>
      <trkpt lat="45.24175" lon="5.854">
        <ele>277.8</ele>
        <time>2021-03-21T13:53:18Z</time>
      </trkpt>
      <trkpt lat="45.24182" lon="5.85404">
        <ele>277.7</ele>
        <time>2021-03-21T13:53:21Z</time>
      </trkpt>
      <trkpt lat="45.24184" lon="5.85412">
        <ele>276</ele>
        <time>2021-03-21T13:53:23Z</time>
      </trkpt>
      <trkpt lat="45.24187" lon="5.85425">
        <ele>278.3</ele>
        <time>2021-03-21T13:53:26Z</time>
      </trkpt>
      <trkpt lat="45.24189" lon="5.85441">
        <ele>275.7</ele>
        <time>2021-03-21T13:53:29Z</time>
      </trkpt>
      <trkpt lat="45.2419" lon="5.85456">
        <ele>276.8</ele>
        <time>2021-03-21T13:53:31Z</time>
      </trkpt>
      <trkpt lat="45.24194" lon="5.85479">
        <ele>274.8</ele>
        <time>2021-03-21T13:53:34Z</time>
      </trkpt>
      <trkpt lat="45.24199" lon="5.85499">
        <ele>277.6</ele>
        <time>2021-03-21T13:53:37Z</time>
      </trkpt>
      <trkpt lat="45.24206" lon="5.85515">
        <ele>278</ele>
        <time>2021-03-21T13:53:40Z</time>
      </trkpt>
      <trkpt lat="45.2421" lon="5.85525">
        <ele>276.2</ele>
        <time>2021-03-21T13:53:42Z</time>
      </trkpt>
      <trkpt lat="45.24213" lon="5.85541">
        <ele>274.8</ele>
        <time>2021-03-21T13:53:45Z</time>
      </trkpt>
      <trkpt lat="45.24218" lon="5.85559">
        <ele>274.8</ele>
        <time>2021-03-21T13:53:48Z</time>
      </trkpt>
      <trkpt lat="45.24221" lon="5.85578">
        <ele>275.9</ele>
        <time>2021-03-21T13:53:51Z</time>
      </trkpt>
      <trkpt lat="45.24208" lon="5.85591">
        <ele>275.2</ele>
        <time>2021-03-21T13:53:54Z</time>
      </trkpt>
      <trkpt lat="45.24193" lon="5.85601">
        <ele>275.5</ele>
        <time>2021-03-21T13:53:57Z</time>
      </trkpt>
      <trkpt lat="45.24183" lon="5.85607">
        <ele>275.3</ele>
        <time>2021-03-21T13:53:59Z</time>
      </trkpt>
      <trkpt lat="45.24169" lon="5.85615">
        <ele>273.8</ele>
        <time>2021-03-21T13:54:02Z</time>
      </trkpt>
      <trkpt lat="45.2416" lon="5.85621">
        <ele>274.4</ele>
        <time>2021-03-21T13:54:04Z</time>
      </trkpt>
      <trkpt lat="45.24146" lon="5.85632">
        <ele>275.8</ele>
        <time>2021-03-21T13:54:07Z</time>
      </trkpt>
      <trkpt lat="45.24139" lon="5.85644">
        <ele>276.2</ele>
        <time>2021-03-21T13:54:09Z</time>
      </trkpt>
      <trkpt lat="45.24133" lon="5.85659">
        <ele>276.1</ele>
        <time>2021-03-21T13:54:11Z</time>
      </trkpt>
      <trkpt lat="45.24123" lon="5.85683">
        <ele>270.9</ele>
        <time>2021-03-21T13:54:14Z</time>
      </trkpt>
      <trkpt lat="45.24118" lon="5.85699">
        <ele>269</ele>
        <time>2021-03-21T13:54:16Z</time>
      </trkpt>
      <trkpt lat="45.24111" lon="5.85722">
        <ele>269.9</ele>
        <time>2021-03-21T13:54:19Z</time>
      </trkpt>
      <trkpt lat="45.24109" lon="5.85731">
        <ele>270.3</ele>
        <time>2021-03-21T13:54:21Z</time>
      </trkpt>
      <trkpt lat="45.24108" lon="5.85738">
        <ele>268.8</ele>
        <time>2021-03-21T13:54:23Z</time>
      </trkpt>
      <trkpt lat="45.24108" lon="5.85744">
        <ele>267</ele>
        <time>2021-03-21T13:54:26Z</time>
      </trkpt>
      <trkpt lat="45.24107" lon="5.85747">
        <ele>269.8</ele>
        <time>2021-03-21T13:54:29Z</time>
      </trkpt>
      <trkpt lat="45.24105" lon="5.85751">
        <ele>267.9</ele>
        <time>2021-03-21T13:54:32Z</time>
      </trkpt>
      <trkpt lat="45.24101" lon="5.85758">
        <ele>267.8</ele>
        <time>2021-03-21T13:54:34Z</time>
      </trkpt>
      <trkpt lat="45.24096" lon="5.85769">
        <ele>268.3</ele>
        <time>2021-03-21T13:54:37Z</time>
      </trkpt>
      <trkpt lat="45.24092" lon="5.85777">
        <ele>267.7</ele>
        <time>2021-03-21T13:54:39Z</time>
      </trkpt>
      <trkpt lat="45.24087" lon="5.85786">
        <ele>266.8</ele>
        <time>2021-03-21T13:54:41Z</time>
      </trkpt>
      <trkpt lat="45.24081" lon="5.858">
        <ele>268.3</ele>
        <time>2021-03-21T13:54:44Z</time>
      </trkpt>
      <trkpt lat="45.24074" lon="5.85816">
        <ele>264.5</ele>
        <time>2021-03-21T13:54:47Z</time>
      </trkpt>
      <trkpt lat="45.2407" lon="5.85825">
        <ele>265.2</ele>
        <time>2021-03-21T13:54:49Z</time>
      </trkpt>
      <trkpt lat="45.24065" lon="5.85836">
        <ele>264.9</ele>
        <time>2021-03-21T13:54:51Z</time>
      </trkpt>
      <trkpt lat="45.24056" lon="5.85857">
        <ele>264.5</ele>
        <time>2021-03-21T13:54:54Z</time>
      </trkpt>
      <trkpt lat="45.24049" lon="5.85876">
        <ele>267.2</ele>
        <time>2021-03-21T13:54:57Z</time>
      </trkpt>
      <trkpt lat="45.24042" lon="5.85896">
        <ele>264.8</ele>
        <time>2021-03-21T13:55:00Z</time>
      </trkpt>
      <trkpt lat="45.24031" lon="5.85915">
        <ele>267.8</ele>
        <time>2021-03-21T13:55:03Z</time>
      </trkpt>
      <trkpt lat="45.2402" lon="5.85932">
        <ele>270.1</ele>
        <time>2021-03-21T13:55:06Z</time>
      </trkpt>
      <trkpt lat="45.24011" lon="5.85951">
        <ele>269</ele>
        <time>2021-03-21T13:55:09Z</time>
      </trkpt>
      <trkpt lat="45.24003" lon="5.85968">
        <ele>273.1</ele>
        <time>2021-03-21T13:55:12Z</time>
      </trkpt>
      <trkpt lat="45.23995" lon="5.85982">
        <ele>270.6</ele>
        <time>2021-03-21T13:55:15Z</time>
      </trkpt>
      <trkpt lat="45.23984" lon="5.85996">
        <ele>267.3</ele>
        <time>2021-03-21T13:55:18Z</time>
      </trkpt>
      <trkpt lat="45.23977" lon="5.86008">
        <ele>267.9</ele>
        <time>2021-03-21T13:55:20Z</time>
      </trkpt>
      <trkpt lat="45.23967" lon="5.86025">
        <ele>271.9</ele>
        <time>2021-03-21T13:55:23Z</time>
      </trkpt>
      <trkpt lat="45.23957" lon="5.86041">
        <ele>272.2</ele>
        <time>2021-03-21T13:55:26Z</time>
      </trkpt>
      <trkpt lat="45.23947" lon="5.86053">
        <ele>270.7</ele>
        <time>2021-03-21T13:55:29Z</time>
      </trkpt>
      <trkpt lat="45.23939" lon="5.86068">
        <ele>268.7</ele>
        <time>2021-03-21T13:55:32Z</time>
      </trkpt>
      <trkpt lat="45.23934" lon="5.86078">
        <ele>271.2</ele>
        <time>2021-03-21T13:55:34Z</time>
      </trkpt>
      <trkpt lat="45.23928" lon="5.86091">
        <ele>269.6</ele>
        <time>2021-03-21T13:55:36Z</time>
      </trkpt>
      <trkpt lat="45.23923" lon="5.86101">
        <ele>270.4</ele>
        <time>2021-03-21T13:55:38Z</time>
      </trkpt>
      <trkpt lat="45.23916" lon="5.86112">
        <ele>268.6</ele>
        <time>2021-03-21T13:55:41Z</time>
      </trkpt>
      <trkpt lat="45.23909" lon="5.86127">
        <ele>270.2</ele>
        <time>2021-03-21T13:55:44Z</time>
      </trkpt>
      <trkpt lat="45.239" lon="5.86142">
        <ele>269</ele>
        <time>2021-03-21T13:55:47Z</time>
      </trkpt>
      <trkpt lat="45.2389" lon="5.86156">
        <ele>268.2</ele>
        <time>2021-03-21T13:55:50Z</time>
      </trkpt>
      <trkpt lat="45.23883" lon="5.86168">
        <ele>269.7</ele>
        <time>2021-03-21T13:55:53Z</time>
      </trkpt>
      <trkpt lat="45.23876" lon="5.86186">
        <ele>270.3</ele>
        <time>2021-03-21T13:55:56Z</time>
      </trkpt>
      <trkpt lat="45.23872" lon="5.862">
        <ele>271.3</ele>
        <time>2021-03-21T13:55:58Z</time>
      </trkpt>
      <trkpt lat="45.23866" lon="5.86219">
        <ele>270.9</ele>
        <time>2021-03-21T13:56:01Z</time>
      </trkpt>
      <trkpt lat="45.23859" lon="5.86229">
        <ele>271.5</ele>
        <time>2021-03-21T13:56:03Z</time>
      </trkpt>
      <trkpt lat="45.23844" lon="5.86239">
        <ele>272.4</ele>
        <time>2021-03-21T13:56:06Z</time>
      </trkpt>
      <trkpt lat="45.2383" lon="5.86238">
        <ele>269.5</ele>
        <time>2021-03-21T13:56:09Z</time>
      </trkpt>
      <trkpt lat="45.23824" lon="5.86225">
        <ele>272</ele>
        <time>2021-03-21T13:56:12Z</time>
      </trkpt>
      <trkpt lat="45.23822" lon="5.86224">
        <ele>273.1</ele>
        <time>2021-03-21T13:56:15Z</time>
      </trkpt>
      <trkpt lat="45.23821" lon="5.86226">
        <ele>276.2</ele>
        <time>2021-03-21T13:56:17Z</time>
      </trkpt>
      <trkpt lat="45.23822" lon="5.86227">
        <ele>275</ele>
        <time>2021-03-21T13:56:20Z</time>
      </trkpt>
      <trkpt lat="45.23822" lon="5.8623">
        <ele>276.2</ele>
        <time>2021-03-21T13:56:22Z</time>
      </trkpt>
      <trkpt lat="45.23823" lon="5.86232">
        <ele>275</ele>
        <time>2021-03-21T13:56:24Z</time>
      </trkpt>
      <trkpt lat="45.23823" lon="5.86233">
        <ele>273.8</ele>
        <time>2021-03-21T13:56:27Z</time>
      </trkpt>
      <trkpt lat="45.23824" lon="5.86235">
        <ele>274.1</ele>
        <time>2021-03-21T13:56:30Z</time>
      </trkpt>
      <trkpt lat="45.23826" lon="5.86238">
        <ele>274.2</ele>
        <time>2021-03-21T13:56:32Z</time>
      </trkpt>
      <trkpt lat="45.23835" lon="5.8624">
        <ele>272.3</ele>
        <time>2021-03-21T13:56:35Z</time>
      </trkpt>
      <trkpt lat="45.2384" lon="5.86237">
        <ele>272.1</ele>
        <time>2021-03-21T13:56:38Z</time>
      </trkpt>
      <trkpt lat="45.23841" lon="5.86235">
        <ele>268.8</ele>
        <time>2021-03-21T13:56:41Z</time>
      </trkpt>
      <trkpt lat="45.23841" lon="5.86233">
        <ele>269.2</ele>
        <time>2021-03-21T13:56:43Z</time>
      </trkpt>
      <trkpt lat="45.2384" lon="5.86233">
        <ele>270.7</ele>
        <time>2021-03-21T13:56:45Z</time>
      </trkpt>
      <trkpt lat="45.2384" lon="5.86233">
        <ele>270</ele>
        <time>2021-03-21T13:56:47Z</time>
      </trkpt>
      <trkpt lat="45.2384" lon="5.86233">
        <ele>271.1</ele>
        <time>2021-03-21T13:56:49Z</time>
      </trkpt>
      <trkpt lat="45.23846" lon="5.86231">
        <ele>270.3</ele>
        <time>2021-03-21T13:56:52Z</time>
      </trkpt>
      <trkpt lat="45.23852" lon="5.86228">
        <ele>272.5</ele>
        <time>2021-03-21T13:56:54Z</time>
      </trkpt>
      <trkpt lat="45.23859" lon="5.86224">
        <ele>272.3</ele>
        <time>2021-03-21T13:56:56Z</time>
      </trkpt>
      <trkpt lat="45.23868" lon="5.86216">
        <ele>269.5</ele>
        <time>2021-03-21T13:56:59Z</time>
      </trkpt>
      <trkpt lat="45.23874" lon="5.8621">
        <ele>268.3</ele>
        <time>2021-03-21T13:57:01Z</time>
      </trkpt>
      <trkpt lat="45.23883" lon="5.86198">
        <ele>269.3</ele>
        <time>2021-03-21T13:57:04Z</time>
      </trkpt>
      <trkpt lat="45.23889" lon="5.86189">
        <ele>269</ele>
        <time>2021-03-21T13:57:06Z</time>
      </trkpt>
      <trkpt lat="45.23894" lon="5.86179">
        <ele>268.4</ele>
        <time>2021-03-21T13:57:08Z</time>
      </trkpt>
      <trkpt lat="45.23898" lon="5.86167">
        <ele>268</ele>
        <time>2021-03-21T13:57:10Z</time>
      </trkpt>
      <trkpt lat="45.23903" lon="5.86155">
        <ele>267.1</ele>
        <time>2021-03-21T13:57:12Z</time>
      </trkpt>
      <trkpt lat="45.2391" lon="5.86135">
        <ele>267.9</ele>
        <time>2021-03-21T13:57:15Z</time>
      </trkpt>
      <trkpt lat="45.23915" lon="5.86123">
        <ele>269.2</ele>
        <time>2021-03-21T13:57:17Z</time>
      </trkpt>
      <trkpt lat="45.23923" lon="5.86107">
        <ele>270.9</ele>
        <time>2021-03-21T13:57:20Z</time>
      </trkpt>
      <trkpt lat="45.2393" lon="5.86092">
        <ele>270.4</ele>
        <time>2021-03-21T13:57:23Z</time>
      </trkpt>
      <trkpt lat="45.23936" lon="5.86077">
        <ele>270.8</ele>
        <time>2021-03-21T13:57:26Z</time>
      </trkpt>
      <trkpt lat="45.23943" lon="5.86068">
        <ele>270.8</ele>
        <time>2021-03-21T13:57:28Z</time>
      </trkpt>
      <trkpt lat="45.2395" lon="5.86058">
        <ele>271.7</ele>
        <time>2021-03-21T13:57:30Z</time>
      </trkpt>
      <trkpt lat="45.2396" lon="5.86042">
        <ele>273.4</ele>
        <time>2021-03-21T13:57:33Z</time>
      </trkpt>
      <trkpt lat="45.23966" lon="5.86031">
        <ele>273</ele>
        <time>2021-03-21T13:57:35Z</time>
      </trkpt>
      <trkpt lat="45.23976" lon="5.86014">
        <ele>272.5</ele>
        <time>2021-03-21T13:57:38Z</time>
      </trkpt>
      <trkpt lat="45.23987" lon="5.85997">
        <ele>274.1</ele>
        <time>2021-03-21T13:57:41Z</time>
      </trkpt>
      <trkpt lat="45.23997" lon="5.85979">
        <ele>273.3</ele>
        <time>2021-03-21T13:57:44Z</time>
      </trkpt>
      <trkpt lat="45.24005" lon="5.85962">
        <ele>274.4</ele>
        <time>2021-03-21T13:57:47Z</time>
      </trkpt>
      <trkpt lat="45.24011" lon="5.85952">
        <ele>273.6</ele>
        <time>2021-03-21T13:57:49Z</time>
      </trkpt>
      <trkpt lat="45.24021" lon="5.85939">
        <ele>272.4</ele>
        <time>2021-03-21T13:57:52Z</time>
      </trkpt>
      <trkpt lat="45.24032" lon="5.85923">
        <ele>272.7</ele>
        <time>2021-03-21T13:57:55Z</time>
      </trkpt>
      <trkpt lat="45.24041" lon="5.85904">
        <ele>273.6</ele>
        <time>2021-03-21T13:57:58Z</time>
      </trkpt>
      <trkpt lat="45.24051" lon="5.85885">
        <ele>271.2</ele>
        <time>2021-03-21T13:58:01Z</time>
      </trkpt>
      <trkpt lat="45.2406" lon="5.85866">
        <ele>272.4</ele>
        <time>2021-03-21T13:58:04Z</time>
      </trkpt>
      <trkpt lat="45.2407" lon="5.85847">
        <ele>270</ele>
        <time>2021-03-21T13:58:07Z</time>
      </trkpt>
      <trkpt lat="45.24076" lon="5.85835">
        <ele>268.3</ele>
        <time>2021-03-21T13:58:09Z</time>
      </trkpt>
      <trkpt lat="45.24082" lon="5.85822">
        <ele>268.8</ele>
        <time>2021-03-21T13:58:11Z</time>
      </trkpt>
      <trkpt lat="45.2409" lon="5.85805">
        <ele>267.7</ele>
        <time>2021-03-21T13:58:14Z</time>
      </trkpt>
      <trkpt lat="45.24096" lon="5.85794">
        <ele>268.4</ele>
        <time>2021-03-21T13:58:16Z</time>
      </trkpt>
      <trkpt lat="45.24102" lon="5.85781">
        <ele>269.8</ele>
        <time>2021-03-21T13:58:18Z</time>
      </trkpt>
      <trkpt lat="45.2411" lon="5.85761">
        <ele>266.9</ele>
        <time>2021-03-21T13:58:21Z</time>
      </trkpt>
      <trkpt lat="45.24117" lon="5.85752">
        <ele>268.6</ele>
        <time>2021-03-21T13:58:24Z</time>
      </trkpt>
      <trkpt lat="45.24121" lon="5.85756">
        <ele>268.1</ele>
        <time>2021-03-21T13:58:27Z</time>
      </trkpt>
      <trkpt lat="45.24125" lon="5.85765">
        <ele>268.9</ele>
        <time>2021-03-21T13:58:30Z</time>
      </trkpt>
      <trkpt lat="45.24128" lon="5.85773">
        <ele>270.3</ele>
        <time>2021-03-21T13:58:33Z</time>
      </trkpt>
      <trkpt lat="45.24133" lon="5.85786">
        <ele>267.4</ele>
        <time>2021-03-21T13:58:36Z</time>
      </trkpt>
      <trkpt lat="45.24138" lon="5.85797">
        <ele>266.9</ele>
        <time>2021-03-21T13:58:38Z</time>
      </trkpt>
      <trkpt lat="45.24145" lon="5.85812">
        <ele>264.6</ele>
        <time>2021-03-21T13:58:41Z</time>
      </trkpt>
      <trkpt lat="45.2415" lon="5.85822">
        <ele>265.6</ele>
        <time>2021-03-21T13:58:43Z</time>
      </trkpt>
      <trkpt lat="45.24154" lon="5.85831">
        <ele>264.8</ele>
        <time>2021-03-21T13:58:45Z</time>
      </trkpt>
      <trkpt lat="45.24161" lon="5.85844">
        <ele>268.5</ele>
        <time>2021-03-21T13:58:48Z</time>
      </trkpt>
      <trkpt lat="45.2417" lon="5.85857">
        <ele>269.8</ele>
        <time>2021-03-21T13:58:51Z</time>
      </trkpt>
      <trkpt lat="45.24178" lon="5.8587">
        <ele>270.2</ele>
        <time>2021-03-21T13:58:54Z</time>
      </trkpt>
      <trkpt lat="45.24187" lon="5.85884">
        <ele>269.5</ele>
        <time>2021-03-21T13:58:57Z</time>
      </trkpt>
      <trkpt lat="45.24195" lon="5.85897">
        <ele>270.2</ele>
        <time>2021-03-21T13:59:00Z</time>
      </trkpt>
      <trkpt lat="45.24199" lon="5.85907">
        <ele>268.2</ele>
        <time>2021-03-21T13:59:02Z</time>
      </trkpt>
      <trkpt lat="45.24206" lon="5.85923">
        <ele>268.6</ele>
        <time>2021-03-21T13:59:05Z</time>
      </trkpt>
      <trkpt lat="45.24213" lon="5.85937">
        <ele>266.3</ele>
        <time>2021-03-21T13:59:08Z</time>
      </trkpt>
      <trkpt lat="45.24218" lon="5.85953">
        <ele>266.1</ele>
        <time>2021-03-21T13:59:11Z</time>
      </trkpt>
      <trkpt lat="45.24222" lon="5.85963">
        <ele>265</ele>
        <time>2021-03-21T13:59:13Z</time>
      </trkpt>
      <trkpt lat="45.24231" lon="5.85976">
        <ele>266.8</ele>
        <time>2021-03-21T13:59:16Z</time>
      </trkpt>
      <trkpt lat="45.24242" lon="5.85991">
        <ele>268</ele>
        <time>2021-03-21T13:59:19Z</time>
      </trkpt>
      <trkpt lat="45.24247" lon="5.86002">
        <ele>269</ele>
        <time>2021-03-21T13:59:21Z</time>
      </trkpt>
      <trkpt lat="45.24256" lon="5.8602">
        <ele>269.8</ele>
        <time>2021-03-21T13:59:24Z</time>
      </trkpt>
      <trkpt lat="45.24261" lon="5.86032">
        <ele>269.1</ele>
        <time>2021-03-21T13:59:26Z</time>
      </trkpt>
      <trkpt lat="45.24269" lon="5.8605">
        <ele>269</ele>
        <time>2021-03-21T13:59:29Z</time>
      </trkpt>
      <trkpt lat="45.24271" lon="5.86063">
        <ele>270.2</ele>
        <time>2021-03-21T13:59:31Z</time>
      </trkpt>
      <trkpt lat="45.24275" lon="5.86082">
        <ele>272</ele>
        <time>2021-03-21T13:59:34Z</time>
      </trkpt>
      <trkpt lat="45.24284" lon="5.86099">
        <ele>271.8</ele>
        <time>2021-03-21T13:59:37Z</time>
      </trkpt>
      <trkpt lat="45.24292" lon="5.86115">
        <ele>272</ele>
        <time>2021-03-21T13:59:40Z</time>
      </trkpt>
      <trkpt lat="45.24296" lon="5.86126">
        <ele>268.5</ele>
        <time>2021-03-21T13:59:42Z</time>
      </trkpt>
      <trkpt lat="45.24299" lon="5.86138">
        <ele>266.7</ele>
        <time>2021-03-21T13:59:44Z</time>
      </trkpt>
      <trkpt lat="45.24308" lon="5.86155">
        <ele>269.6</ele>
        <time>2021-03-21T13:59:47Z</time>
      </trkpt>
      <trkpt lat="45.24316" lon="5.86165">
        <ele>271.1</ele>
        <time>2021-03-21T13:59:49Z</time>
      </trkpt>
      <trkpt lat="45.24329" lon="5.86181">
        <ele>272.4</ele>
        <time>2021-03-21T13:59:52Z</time>
      </trkpt>
      <trkpt lat="45.24335" lon="5.86193">
        <ele>271.9</ele>
        <time>2021-03-21T13:59:54Z</time>
      </trkpt>
      <trkpt lat="45.24344" lon="5.86211">
        <ele>273.7</ele>
        <time>2021-03-21T13:59:57Z</time>
      </trkpt>
      <trkpt lat="45.24355" lon="5.86227">
        <ele>273.9</ele>
        <time>2021-03-21T14:00:00Z</time>
      </trkpt>
      <trkpt lat="45.24362" lon="5.86239">
        <ele>272.1</ele>
        <time>2021-03-21T14:00:02Z</time>
      </trkpt>
      <trkpt lat="45.24371" lon="5.86258">
        <ele>271.6</ele>
        <time>2021-03-21T14:00:05Z</time>
      </trkpt>
      <trkpt lat="45.24377" lon="5.86277">
        <ele>268</ele>
        <time>2021-03-21T14:00:08Z</time>
      </trkpt>
      <trkpt lat="45.24385" lon="5.86297">
        <ele>266.2</ele>
        <time>2021-03-21T14:00:11Z</time>
      </trkpt>
      <trkpt lat="45.24392" lon="5.8631">
        <ele>266</ele>
        <time>2021-03-21T14:00:13Z</time>
      </trkpt>
      <trkpt lat="45.24402" lon="5.86329">
        <ele>267.7</ele>
        <time>2021-03-21T14:00:16Z</time>
      </trkpt>
      <trkpt lat="45.24411" lon="5.86341">
        <ele>270.7</ele>
        <time>2021-03-21T14:00:18Z</time>
      </trkpt>
      <trkpt lat="45.24423" lon="5.86357">
        <ele>272.9</ele>
        <time>2021-03-21T14:00:21Z</time>
      </trkpt>
      <trkpt lat="45.24433" lon="5.86375">
        <ele>272.2</ele>
        <time>2021-03-21T14:00:24Z</time>
      </trkpt>
      <trkpt lat="45.2444" lon="5.86393">
        <ele>271.2</ele>
        <time>2021-03-21T14:00:27Z</time>
      </trkpt>
      <trkpt lat="45.24447" lon="5.86403">
        <ele>270.5</ele>
        <time>2021-03-21T14:00:29Z</time>
      </trkpt>
      <trkpt lat="45.24461" lon="5.86417">
        <ele>272.5</ele>
        <time>2021-03-21T14:00:32Z</time>
      </trkpt>
      <trkpt lat="45.24471" lon="5.86431">
        <ele>271.1</ele>
        <time>2021-03-21T14:00:35Z</time>
      </trkpt>
      <trkpt lat="45.24477" lon="5.86442">
        <ele>269.3</ele>
        <time>2021-03-21T14:00:37Z</time>
      </trkpt>
      <trkpt lat="45.24489" lon="5.86456">
        <ele>271.9</ele>
        <time>2021-03-21T14:00:40Z</time>
      </trkpt>
      <trkpt lat="45.24499" lon="5.86466">
        <ele>271.6</ele>
        <time>2021-03-21T14:00:42Z</time>
      </trkpt>
      <trkpt lat="45.24513" lon="5.86476">
        <ele>273.7</ele>
        <time>2021-03-21T14:00:45Z</time>
      </trkpt>
      <trkpt lat="45.24524" lon="5.8648">
        <ele>274.7</ele>
        <time>2021-03-21T14:00:47Z</time>
      </trkpt>
      <trkpt lat="45.24535" lon="5.86485">
        <ele>276.4</ele>
        <time>2021-03-21T14:00:49Z</time>
      </trkpt>
      <trkpt lat="45.24543" lon="5.86499">
        <ele>274.2</ele>
        <time>2021-03-21T14:00:52Z</time>
      </trkpt>
      <trkpt lat="45.24547" lon="5.86512">
        <ele>273.1</ele>
        <time>2021-03-21T14:00:54Z</time>
      </trkpt>
      <trkpt lat="45.24553" lon="5.8653">
        <ele>273.7</ele>
        <time>2021-03-21T14:00:57Z</time>
      </trkpt>
      <trkpt lat="45.24558" lon="5.86549">
        <ele>270</ele>
        <time>2021-03-21T14:01:00Z</time>
      </trkpt>
      <trkpt lat="45.24564" lon="5.86568">
        <ele>269.7</ele>
        <time>2021-03-21T14:01:03Z</time>
      </trkpt>
      <trkpt lat="45.24573" lon="5.86585">
        <ele>271.3</ele>
        <time>2021-03-21T14:01:06Z</time>
      </trkpt>
      <trkpt lat="45.24581" lon="5.86602">
        <ele>271.4</ele>
        <time>2021-03-21T14:01:09Z</time>
      </trkpt>
      <trkpt lat="45.24586" lon="5.86614">
        <ele>271.2</ele>
        <time>2021-03-21T14:01:11Z</time>
      </trkpt>
      <trkpt lat="45.24595" lon="5.86631">
        <ele>274.8</ele>
        <time>2021-03-21T14:01:14Z</time>
      </trkpt>
      <trkpt lat="45.24605" lon="5.8665">
        <ele>276.8</ele>
        <time>2021-03-21T14:01:17Z</time>
      </trkpt>
      <trkpt lat="45.24612" lon="5.86668">
        <ele>275.8</ele>
        <time>2021-03-21T14:01:20Z</time>
      </trkpt>
      <trkpt lat="45.24617" lon="5.86681">
        <ele>274.7</ele>
        <time>2021-03-21T14:01:22Z</time>
      </trkpt>
      <trkpt lat="45.24621" lon="5.86695">
        <ele>273.8</ele>
        <time>2021-03-21T14:01:24Z</time>
      </trkpt>
      <trkpt lat="45.24628" lon="5.86713">
        <ele>274</ele>
        <time>2021-03-21T14:01:27Z</time>
      </trkpt>
      <trkpt lat="45.24635" lon="5.86726">
        <ele>274.6</ele>
        <time>2021-03-21T14:01:29Z</time>
      </trkpt>
      <trkpt lat="45.24642" lon="5.86745">
        <ele>272.4</ele>
        <time>2021-03-21T14:01:32Z</time>
      </trkpt>
      <trkpt lat="45.24647" lon="5.86757">
        <ele>270.5</ele>
        <time>2021-03-21T14:01:34Z</time>
      </trkpt>
      <trkpt lat="45.2465" lon="5.8677">
        <ele>270.2</ele>
        <time>2021-03-21T14:01:36Z</time>
      </trkpt>
      <trkpt lat="45.24657" lon="5.86788">
        <ele>269.6</ele>
        <time>2021-03-21T14:01:39Z</time>
      </trkpt>
      <trkpt lat="45.24661" lon="5.868">
        <ele>266.9</ele>
        <time>2021-03-21T14:01:41Z</time>
      </trkpt>
      <trkpt lat="45.24669" lon="5.86819">
        <ele>269.3</ele>
        <time>2021-03-21T14:01:44Z</time>
      </trkpt>
      <trkpt lat="45.24679" lon="5.86834">
        <ele>270.9</ele>
        <time>2021-03-21T14:01:47Z</time>
      </trkpt>
      <trkpt lat="45.24687" lon="5.86852">
        <ele>269.6</ele>
        <time>2021-03-21T14:01:50Z</time>
      </trkpt>
      <trkpt lat="45.24693" lon="5.86863">
        <ele>270.9</ele>
        <time>2021-03-21T14:01:52Z</time>
      </trkpt>
      <trkpt lat="45.247" lon="5.86875">
        <ele>273.2</ele>
        <time>2021-03-21T14:01:54Z</time>
      </trkpt>
      <trkpt lat="45.24705" lon="5.86886">
        <ele>274.1</ele>
        <time>2021-03-21T14:01:56Z</time>
      </trkpt>
      <trkpt lat="45.24711" lon="5.86897">
        <ele>273.2</ele>
        <time>2021-03-21T14:01:58Z</time>
      </trkpt>
      <trkpt lat="45.24719" lon="5.86915">
        <ele>270.6</ele>
        <time>2021-03-21T14:02:01Z</time>
      </trkpt>
      <trkpt lat="45.24728" lon="5.86932">
        <ele>272.7</ele>
        <time>2021-03-21T14:02:04Z</time>
      </trkpt>
      <trkpt lat="45.24737" lon="5.8695">
        <ele>271.3</ele>
        <time>2021-03-21T14:02:07Z</time>
      </trkpt>
      <trkpt lat="45.24742" lon="5.86962">
        <ele>269.9</ele>
        <time>2021-03-21T14:02:09Z</time>
      </trkpt>
      <trkpt lat="45.24749" lon="5.8698">
        <ele>269.1</ele>
        <time>2021-03-21T14:02:12Z</time>
      </trkpt>
      <trkpt lat="45.24758" lon="5.86997">
        <ele>269.9</ele>
        <time>2021-03-21T14:02:15Z</time>
      </trkpt>
      <trkpt lat="45.24767" lon="5.87015">
        <ele>270</ele>
        <time>2021-03-21T14:02:18Z</time>
      </trkpt>
      <trkpt lat="45.24774" lon="5.87034">
        <ele>269</ele>
        <time>2021-03-21T14:02:21Z</time>
      </trkpt>
      <trkpt lat="45.24781" lon="5.87053">
        <ele>269.1</ele>
        <time>2021-03-21T14:02:24Z</time>
      </trkpt>
      <trkpt lat="45.24788" lon="5.87071">
        <ele>267.9</ele>
        <time>2021-03-21T14:02:27Z</time>
      </trkpt>
      <trkpt lat="45.24792" lon="5.87084">
        <ele>265.8</ele>
        <time>2021-03-21T14:02:29Z</time>
      </trkpt>
      <trkpt lat="45.24801" lon="5.87101">
        <ele>266.9</ele>
        <time>2021-03-21T14:02:32Z</time>
      </trkpt>
      <trkpt lat="45.2481" lon="5.87118">
        <ele>267.3</ele>
        <time>2021-03-21T14:02:35Z</time>
      </trkpt>
      <trkpt lat="45.24818" lon="5.87129">
        <ele>267.8</ele>
        <time>2021-03-21T14:02:37Z</time>
      </trkpt>
      <trkpt lat="45.24825" lon="5.87141">
        <ele>267.4</ele>
        <time>2021-03-21T14:02:39Z</time>
      </trkpt>
      <trkpt lat="45.24836" lon="5.87157">
        <ele>269.2</ele>
        <time>2021-03-21T14:02:42Z</time>
      </trkpt>
      <trkpt lat="45.24844" lon="5.87168">
        <ele>272.3</ele>
        <time>2021-03-21T14:02:44Z</time>
      </trkpt>
      <trkpt lat="45.24853" lon="5.87184">
        <ele>272.4</ele>
        <time>2021-03-21T14:02:47Z</time>
      </trkpt>
      <trkpt lat="45.24863" lon="5.87202">
        <ele>271.8</ele>
        <time>2021-03-21T14:02:50Z</time>
      </trkpt>
      <trkpt lat="45.24871" lon="5.87219">
        <ele>269.9</ele>
        <time>2021-03-21T14:02:53Z</time>
      </trkpt>
      <trkpt lat="45.24881" lon="5.87235">
        <ele>272.9</ele>
        <time>2021-03-21T14:02:56Z</time>
      </trkpt>
      <trkpt lat="45.24892" lon="5.8725">
        <ele>274</ele>
        <time>2021-03-21T14:02:59Z</time>
      </trkpt>
      <trkpt lat="45.24898" lon="5.87262">
        <ele>274.8</ele>
        <time>2021-03-21T14:03:01Z</time>
      </trkpt>
      <trkpt lat="45.24907" lon="5.87279">
        <ele>273.1</ele>
        <time>2021-03-21T14:03:04Z</time>
      </trkpt>
      <trkpt lat="45.24912" lon="5.87291">
        <ele>274.3</ele>
        <time>2021-03-21T14:03:06Z</time>
      </trkpt>
      <trkpt lat="45.24917" lon="5.87302">
        <ele>272.6</ele>
        <time>2021-03-21T14:03:08Z</time>
      </trkpt>
      <trkpt lat="45.24921" lon="5.87321">
        <ele>269</ele>
        <time>2021-03-21T14:03:11Z</time>
      </trkpt>
      <trkpt lat="45.24921" lon="5.87334">
        <ele>269.2</ele>
        <time>2021-03-21T14:03:13Z</time>
      </trkpt>
      <trkpt lat="45.24908" lon="5.87351">
        <ele>268.6</ele>
        <time>2021-03-21T14:03:16Z</time>
      </trkpt>
      <trkpt lat="45.24895" lon="5.87367">
        <ele>269.5</ele>
        <time>2021-03-21T14:03:19Z</time>
      </trkpt>
      <trkpt lat="45.24882" lon="5.87385">
        <ele>269.1</ele>
        <time>2021-03-21T14:03:22Z</time>
      </trkpt>
      <trkpt lat="45.2487" lon="5.87405">
        <ele>269</ele>
        <time>2021-03-21T14:03:25Z</time>
      </trkpt>
      <trkpt lat="45.24858" lon="5.87424">
        <ele>269.9</ele>
        <time>2021-03-21T14:03:28Z</time>
      </trkpt>
      <trkpt lat="45.24845" lon="5.87444">
        <ele>269.7</ele>
        <time>2021-03-21T14:03:31Z</time>
      </trkpt>
      <trkpt lat="45.24837" lon="5.87458">
        <ele>271.1</ele>
        <time>2021-03-21T14:03:33Z</time>
      </trkpt>
      <trkpt lat="45.24823" lon="5.87475">
        <ele>267.5</ele>
        <time>2021-03-21T14:03:36Z</time>
      </trkpt>
      <trkpt lat="45.2481" lon="5.87487">
        <ele>264.8</ele>
        <time>2021-03-21T14:03:39Z</time>
      </trkpt>
      <trkpt lat="45.24803" lon="5.87507">
        <ele>268.3</ele>
        <time>2021-03-21T14:03:42Z</time>
      </trkpt>
      <trkpt lat="45.2481" lon="5.87516">
        <ele>269.2</ele>
        <time>2021-03-21T14:03:44Z</time>
      </trkpt>
      <trkpt lat="45.24823" lon="5.87518">
        <ele>269.1</ele>
        <time>2021-03-21T14:03:47Z</time>
      </trkpt>
      <trkpt lat="45.24833" lon="5.87517">
        <ele>270.3</ele>
        <time>2021-03-21T14:03:49Z</time>
      </trkpt>
      <trkpt lat="45.24846" lon="5.87516">
        <ele>270.9</ele>
        <time>2021-03-21T14:03:52Z</time>
      </trkpt>
      <trkpt lat="45.24855" lon="5.87516">
        <ele>272.4</ele>
        <time>2021-03-21T14:03:54Z</time>
      </trkpt>
      <trkpt lat="45.24864" lon="5.87515">
        <ele>273.8</ele>
        <time>2021-03-21T14:03:56Z</time>
      </trkpt>
      <trkpt lat="45.24877" lon="5.87516">
        <ele>273.2</ele>
        <time>2021-03-21T14:03:59Z</time>
      </trkpt>
      <trkpt lat="45.24885" lon="5.87518">
        <ele>272.2</ele>
        <time>2021-03-21T14:04:01Z</time>
      </trkpt>
      <trkpt lat="45.24892" lon="5.87518">
        <ele>270.8</ele>
        <time>2021-03-21T14:04:03Z</time>
      </trkpt>
      <trkpt lat="45.24903" lon="5.87519">
        <ele>268.7</ele>
        <time>2021-03-21T14:04:06Z</time>
      </trkpt>
      <trkpt lat="45.24914" lon="5.87519">
        <ele>270.7</ele>
        <time>2021-03-21T14:04:09Z</time>
      </trkpt>
      <trkpt lat="45.2492" lon="5.87518">
        <ele>270.2</ele>
        <time>2021-03-21T14:04:11Z</time>
      </trkpt>
      <trkpt lat="45.24927" lon="5.87518">
        <ele>269.3</ele>
        <time>2021-03-21T14:04:13Z</time>
      </trkpt>
      <trkpt lat="45.24934" lon="5.87517">
        <ele>271</ele>
        <time>2021-03-21T14:04:15Z</time>
      </trkpt>
      <trkpt lat="45.24942" lon="5.87516">
        <ele>271.4</ele>
        <time>2021-03-21T14:04:17Z</time>
      </trkpt>
      <trkpt lat="45.24954" lon="5.87512">
        <ele>272.7</ele>
        <time>2021-03-21T14:04:20Z</time>
      </trkpt>
      <trkpt lat="45.24962" lon="5.87508">
        <ele>274.5</ele>
        <time>2021-03-21T14:04:22Z</time>
      </trkpt>
      <trkpt lat="45.24974" lon="5.87502">
        <ele>275.1</ele>
        <time>2021-03-21T14:04:25Z</time>
      </trkpt>
      <trkpt lat="45.24982" lon="5.87497">
        <ele>276.3</ele>
        <time>2021-03-21T14:04:27Z</time>
      </trkpt>
      <trkpt lat="45.24993" lon="5.87487">
        <ele>276.7</ele>
        <time>2021-03-21T14:04:30Z</time>
      </trkpt>
      <trkpt lat="45.25005" lon="5.87477">
        <ele>281.5</ele>
        <time>2021-03-21T14:04:33Z</time>
      </trkpt>
      <trkpt lat="45.25013" lon="5.8747">
        <ele>280</ele>
        <time>2021-03-21T14:04:35Z</time>
      </trkpt>
      <trkpt lat="45.25025" lon="5.87459">
        <ele>281.8</ele>
        <time>2021-03-21T14:04:38Z</time>
      </trkpt>
      <trkpt lat="45.25036" lon="5.87445">
        <ele>284.6</ele>
        <time>2021-03-21T14:04:41Z</time>
      </trkpt>
      <trkpt lat="45.25045" lon="5.87432">
        <ele>286.7</ele>
        <time>2021-03-21T14:04:44Z</time>
      </trkpt>
      <trkpt lat="45.25055" lon="5.87419">
        <ele>287.7</ele>
        <time>2021-03-21T14:04:47Z</time>
      </trkpt>
      <trkpt lat="45.25061" lon="5.87409">
        <ele>286.5</ele>
        <time>2021-03-21T14:04:49Z</time>
      </trkpt>
      <trkpt lat="45.25072" lon="5.87399">
        <ele>284.9</ele>
        <time>2021-03-21T14:04:52Z</time>
      </trkpt>
      <trkpt lat="45.25084" lon="5.87386">
        <ele>286.5</ele>
        <time>2021-03-21T14:04:55Z</time>
      </trkpt>
      <trkpt lat="45.25099" lon="5.87372">
        <ele>285.2</ele>
        <time>2021-03-21T14:04:58Z</time>
      </trkpt>
      <trkpt lat="45.25114" lon="5.87356">
        <ele>284</ele>
        <time>2021-03-21T14:05:01Z</time>
      </trkpt>
      <trkpt lat="45.25125" lon="5.87345">
        <ele>282.6</ele>
        <time>2021-03-21T14:05:03Z</time>
      </trkpt>
      <trkpt lat="45.25144" lon="5.87324">
        <ele>282.5</ele>
        <time>2021-03-21T14:05:06Z</time>
      </trkpt>
      <trkpt lat="45.25157" lon="5.87308">
        <ele>280.4</ele>
        <time>2021-03-21T14:05:08Z</time>
      </trkpt>
      <trkpt lat="45.25177" lon="5.87282">
        <ele>280.3</ele>
        <time>2021-03-21T14:05:11Z</time>
      </trkpt>
      <trkpt lat="45.2519" lon="5.87267">
        <ele>279.4</ele>
        <time>2021-03-21T14:05:13Z</time>
      </trkpt>
      <trkpt lat="45.25207" lon="5.87249">
        <ele>279.7</ele>
        <time>2021-03-21T14:05:16Z</time>
      </trkpt>
      <trkpt lat="45.25217" lon="5.87236">
        <ele>278.3</ele>
        <time>2021-03-21T14:05:18Z</time>
      </trkpt>
      <trkpt lat="45.25231" lon="5.8722">
        <ele>276.5</ele>
        <time>2021-03-21T14:05:21Z</time>
      </trkpt>
      <trkpt lat="45.2524" lon="5.8721">
        <ele>275.8</ele>
        <time>2021-03-21T14:05:23Z</time>
      </trkpt>
      <trkpt lat="45.25246" lon="5.872">
        <ele>275.6</ele>
        <time>2021-03-21T14:05:25Z</time>
      </trkpt>
      <trkpt lat="45.25253" lon="5.87183">
        <ele>277.1</ele>
        <time>2021-03-21T14:05:28Z</time>
      </trkpt>
      <trkpt lat="45.25261" lon="5.8717">
        <ele>278.3</ele>
        <time>2021-03-21T14:05:30Z</time>
      </trkpt>
      <trkpt lat="45.25272" lon="5.87151">
        <ele>277.3</ele>
        <time>2021-03-21T14:05:33Z</time>
      </trkpt>
      <trkpt lat="45.2528" lon="5.87141">
        <ele>277.6</ele>
        <time>2021-03-21T14:05:35Z</time>
      </trkpt>
      <trkpt lat="45.25291" lon="5.87128">
        <ele>277.1</ele>
        <time>2021-03-21T14:05:38Z</time>
      </trkpt>
      <trkpt lat="45.253" lon="5.87115">
        <ele>276.6</ele>
        <time>2021-03-21T14:05:40Z</time>
      </trkpt>
      <trkpt lat="45.25311" lon="5.87104">
        <ele>274.3</ele>
        <time>2021-03-21T14:05:42Z</time>
      </trkpt>
      <trkpt lat="45.25328" lon="5.87094">
        <ele>277</ele>
        <time>2021-03-21T14:05:45Z</time>
      </trkpt>
      <trkpt lat="45.25345" lon="5.87086">
        <ele>278.9</ele>
        <time>2021-03-21T14:05:48Z</time>
      </trkpt>
      <trkpt lat="45.25362" lon="5.87087">
        <ele>278.2</ele>
        <time>2021-03-21T14:05:51Z</time>
      </trkpt>
      <trkpt lat="45.25382" lon="5.87089">
        <ele>278.7</ele>
        <time>2021-03-21T14:05:54Z</time>
      </trkpt>
      <trkpt lat="45.25399" lon="5.87083">
        <ele>280.4</ele>
        <time>2021-03-21T14:05:57Z</time>
      </trkpt>
      <trkpt lat="45.25411" lon="5.87079">
        <ele>277.5</ele>
        <time>2021-03-21T14:05:59Z</time>
      </trkpt>
      <trkpt lat="45.25428" lon="5.87072">
        <ele>277.9</ele>
        <time>2021-03-21T14:06:02Z</time>
      </trkpt>
      <trkpt lat="45.25441" lon="5.87075">
        <ele>278.1</ele>
        <time>2021-03-21T14:06:05Z</time>
      </trkpt>
      <trkpt lat="45.2546" lon="5.87079">
        <ele>277.4</ele>
        <time>2021-03-21T14:06:08Z</time>
      </trkpt>
      <trkpt lat="45.25471" lon="5.87075">
        <ele>277.6</ele>
        <time>2021-03-21T14:06:10Z</time>
      </trkpt>
      <trkpt lat="45.25481" lon="5.87074">
        <ele>277.5</ele>
        <time>2021-03-21T14:06:12Z</time>
      </trkpt>
      <trkpt lat="45.25493" lon="5.8708">
        <ele>278.8</ele>
        <time>2021-03-21T14:06:15Z</time>
      </trkpt>
      <trkpt lat="45.25503" lon="5.87078">
        <ele>276.5</ele>
        <time>2021-03-21T14:06:17Z</time>
      </trkpt>
      <trkpt lat="45.25517" lon="5.8707">
        <ele>275.9</ele>
        <time>2021-03-21T14:06:19Z</time>
      </trkpt>
      <trkpt lat="45.25532" lon="5.87072">
        <ele>276</ele>
        <time>2021-03-21T14:06:22Z</time>
      </trkpt>
      <trkpt lat="45.25537" lon="5.87086">
        <ele>278.8</ele>
        <time>2021-03-21T14:06:25Z</time>
      </trkpt>
      <trkpt lat="45.25545" lon="5.87097">
        <ele>280.1</ele>
        <time>2021-03-21T14:06:28Z</time>
      </trkpt>
      <trkpt lat="45.25564" lon="5.8709">
        <ele>276.8</ele>
        <time>2021-03-21T14:06:31Z</time>
      </trkpt>
      <trkpt lat="45.25577" lon="5.8709">
        <ele>276.3</ele>
        <time>2021-03-21T14:06:33Z</time>
      </trkpt>
      <trkpt lat="45.25594" lon="5.87089">
        <ele>276.7</ele>
        <time>2021-03-21T14:06:36Z</time>
      </trkpt>
      <trkpt lat="45.25601" lon="5.87087">
        <ele>275.3</ele>
        <time>2021-03-21T14:06:38Z</time>
      </trkpt>
      <trkpt lat="45.25615" lon="5.87089">
        <ele>276.7</ele>
        <time>2021-03-21T14:06:41Z</time>
      </trkpt>
      <trkpt lat="45.25624" lon="5.87083">
        <ele>282.1</ele>
        <time>2021-03-21T14:06:44Z</time>
      </trkpt>
      <trkpt lat="45.25636" lon="5.87072">
        <ele>285.3</ele>
        <time>2021-03-21T14:06:47Z</time>
      </trkpt>
      <trkpt lat="45.25645" lon="5.87065">
        <ele>287.1</ele>
        <time>2021-03-21T14:06:49Z</time>
      </trkpt>
      <trkpt lat="45.25655" lon="5.87058">
        <ele>286.4</ele>
        <time>2021-03-21T14:06:51Z</time>
      </trkpt>
      <trkpt lat="45.25668" lon="5.8705">
        <ele>279.8</ele>
        <time>2021-03-21T14:06:54Z</time>
      </trkpt>
      <trkpt lat="45.25677" lon="5.87047">
        <ele>276.8</ele>
        <time>2021-03-21T14:06:56Z</time>
      </trkpt>
      <trkpt lat="45.25692" lon="5.87047">
        <ele>277.2</ele>
        <time>2021-03-21T14:06:59Z</time>
      </trkpt>
      <trkpt lat="45.257" lon="5.87049">
        <ele>277</ele>
        <time>2021-03-21T14:07:01Z</time>
      </trkpt>
      <trkpt lat="45.25709" lon="5.87045">
        <ele>278.8</ele>
        <time>2021-03-21T14:07:03Z</time>
      </trkpt>
      <trkpt lat="45.25722" lon="5.87036">
        <ele>278.4</ele>
        <time>2021-03-21T14:07:06Z</time>
      </trkpt>
      <trkpt lat="45.25736" lon="5.87028">
        <ele>277.9</ele>
        <time>2021-03-21T14:07:09Z</time>
      </trkpt>
      <trkpt lat="45.25749" lon="5.87017">
        <ele>280.2</ele>
        <time>2021-03-21T14:07:12Z</time>
      </trkpt>
      <trkpt lat="45.25757" lon="5.87013">
        <ele>278.4</ele>
        <time>2021-03-21T14:07:14Z</time>
      </trkpt>
      <trkpt lat="45.25768" lon="5.87004">
        <ele>278.2</ele>
        <time>2021-03-21T14:07:17Z</time>
      </trkpt>
      <trkpt lat="45.25775" lon="5.86999">
        <ele>281.1</ele>
        <time>2021-03-21T14:07:19Z</time>
      </trkpt>
      <trkpt lat="45.25787" lon="5.86994">
        <ele>281.4</ele>
        <time>2021-03-21T14:07:22Z</time>
      </trkpt>
      <trkpt lat="45.25794" lon="5.86991">
        <ele>281.4</ele>
        <time>2021-03-21T14:07:24Z</time>
      </trkpt>
      <trkpt lat="45.25803" lon="5.86988">
        <ele>280.8</ele>
        <time>2021-03-21T14:07:26Z</time>
      </trkpt>
      <trkpt lat="45.25815" lon="5.86983">
        <ele>279.7</ele>
        <time>2021-03-21T14:07:29Z</time>
      </trkpt>
      <trkpt lat="45.25828" lon="5.8698">
        <ele>283.2</ele>
        <time>2021-03-21T14:07:32Z</time>
      </trkpt>
      <trkpt lat="45.2584" lon="5.86978">
        <ele>288.5</ele>
        <time>2021-03-21T14:07:35Z</time>
      </trkpt>
      <trkpt lat="45.25848" lon="5.86978">
        <ele>288.8</ele>
        <time>2021-03-21T14:07:37Z</time>
      </trkpt>
      <trkpt lat="45.25861" lon="5.86976">
        <ele>289.1</ele>
        <time>2021-03-21T14:07:40Z</time>
      </trkpt>
      <trkpt lat="45.25874" lon="5.86976">
        <ele>288.7</ele>
        <time>2021-03-21T14:07:43Z</time>
      </trkpt>
      <trkpt lat="45.25885" lon="5.86979">
        <ele>289.8</ele>
        <time>2021-03-21T14:07:46Z</time>
      </trkpt>
      <trkpt lat="45.25897" lon="5.86981">
        <ele>292.2</ele>
        <time>2021-03-21T14:07:49Z</time>
      </trkpt>
      <trkpt lat="45.25905" lon="5.86979">
        <ele>292.5</ele>
        <time>2021-03-21T14:07:51Z</time>
      </trkpt>
      <trkpt lat="45.25915" lon="5.86969">
        <ele>292.6</ele>
        <time>2021-03-21T14:07:54Z</time>
      </trkpt>
      <trkpt lat="45.25921" lon="5.86959">
        <ele>292</ele>
        <time>2021-03-21T14:07:56Z</time>
      </trkpt>
      <trkpt lat="45.25928" lon="5.86946">
        <ele>291.6</ele>
        <time>2021-03-21T14:07:59Z</time>
      </trkpt>
      <trkpt lat="45.25935" lon="5.86936">
        <ele>292.9</ele>
        <time>2021-03-21T14:08:01Z</time>
      </trkpt>
      <trkpt lat="45.25942" lon="5.86921">
        <ele>292.5</ele>
        <time>2021-03-21T14:08:04Z</time>
      </trkpt>
      <trkpt lat="45.2595" lon="5.86906">
        <ele>295.4</ele>
        <time>2021-03-21T14:08:07Z</time>
      </trkpt>
      <trkpt lat="45.25958" lon="5.8689">
        <ele>296.5</ele>
        <time>2021-03-21T14:08:10Z</time>
      </trkpt>
      <trkpt lat="45.25967" lon="5.86879">
        <ele>296.3</ele>
        <time>2021-03-21T14:08:13Z</time>
      </trkpt>
      <trkpt lat="45.25977" lon="5.86868">
        <ele>293.3</ele>
        <time>2021-03-21T14:08:16Z</time>
      </trkpt>
      <trkpt lat="45.25985" lon="5.86857">
        <ele>295.1</ele>
        <time>2021-03-21T14:08:19Z</time>
      </trkpt>
      <trkpt lat="45.2599" lon="5.86848">
        <ele>295</ele>
        <time>2021-03-21T14:08:21Z</time>
      </trkpt>
      <trkpt lat="45.25995" lon="5.86839">
        <ele>295.8</ele>
        <time>2021-03-21T14:08:23Z</time>
      </trkpt>
      <trkpt lat="45.26" lon="5.86828">
        <ele>295.3</ele>
        <time>2021-03-21T14:08:25Z</time>
      </trkpt>
      <trkpt lat="45.26008" lon="5.8681">
        <ele>295.8</ele>
        <time>2021-03-21T14:08:28Z</time>
      </trkpt>
      <trkpt lat="45.26017" lon="5.86798">
        <ele>296.9</ele>
        <time>2021-03-21T14:08:31Z</time>
      </trkpt>
      <trkpt lat="45.26023" lon="5.86804">
        <ele>299.6</ele>
        <time>2021-03-21T14:08:34Z</time>
      </trkpt>
      <trkpt lat="45.26022" lon="5.86815">
        <ele>297.9</ele>
        <time>2021-03-21T14:08:41Z</time>
      </trkpt>
      <trkpt lat="45.26021" lon="5.86816">
        <ele>298.5</ele>
        <time>2021-03-21T14:08:44Z</time>
      </trkpt>
      <trkpt lat="45.2602" lon="5.86816">
        <ele>296.6</ele>
        <time>2021-03-21T14:08:47Z</time>
      </trkpt>
      <trkpt lat="45.2602" lon="5.86816">
        <ele>298.2</ele>
        <time>2021-03-21T14:08:49Z</time>
      </trkpt>
      <trkpt lat="45.2602" lon="5.86816">
        <ele>298.9</ele>
        <time>2021-03-21T14:08:52Z</time>
      </trkpt>
      <trkpt lat="45.2602" lon="5.86817">
        <ele>297.3</ele>
        <time>2021-03-21T14:08:55Z</time>
      </trkpt>
      <trkpt lat="45.26019" lon="5.86817">
        <ele>295.8</ele>
        <time>2021-03-21T14:08:57Z</time>
      </trkpt>
      <trkpt lat="45.26019" lon="5.86818">
        <ele>296.4</ele>
        <time>2021-03-21T14:08:59Z</time>
      </trkpt>
      <trkpt lat="45.26019" lon="5.86818">
        <ele>298.4</ele>
        <time>2021-03-21T14:09:02Z</time>
      </trkpt>
      <trkpt lat="45.2602" lon="5.86818">
        <ele>298.7</ele>
        <time>2021-03-21T14:09:04Z</time>
      </trkpt>
      <trkpt lat="45.26021" lon="5.86818">
        <ele>298.6</ele>
        <time>2021-03-21T14:09:07Z</time>
      </trkpt>
      <trkpt lat="45.26021" lon="5.86818">
        <ele>297.7</ele>
        <time>2021-03-21T14:09:10Z</time>
      </trkpt>
      <trkpt lat="45.26022" lon="5.86818">
        <ele>296.2</ele>
        <time>2021-03-21T14:09:13Z</time>
      </trkpt>
      <trkpt lat="45.26025" lon="5.86823">
        <ele>293.3</ele>
        <time>2021-03-21T14:09:16Z</time>
      </trkpt>
      <trkpt lat="45.26028" lon="5.86829">
        <ele>292.9</ele>
        <time>2021-03-21T14:09:19Z</time>
      </trkpt>
      <trkpt lat="45.26032" lon="5.86837">
        <ele>294.7</ele>
        <time>2021-03-21T14:09:22Z</time>
      </trkpt>
      <trkpt lat="45.26034" lon="5.86843">
        <ele>295</ele>
        <time>2021-03-21T14:09:25Z</time>
      </trkpt>
      <trkpt lat="45.26035" lon="5.86844">
        <ele>296.3</ele>
        <time>2021-03-21T14:09:27Z</time>
      </trkpt>
      <trkpt lat="45.26035" lon="5.86843">
        <ele>299</ele>
        <time>2021-03-21T14:09:30Z</time>
      </trkpt>
      <trkpt lat="45.26036" lon="5.86843">
        <ele>297.7</ele>
        <time>2021-03-21T14:09:33Z</time>
      </trkpt>
      <trkpt lat="45.26036" lon="5.86842">
        <ele>298.5</ele>
        <time>2021-03-21T14:09:36Z</time>
      </trkpt>
      <trkpt lat="45.26036" lon="5.86842">
        <ele>297.5</ele>
        <time>2021-03-21T14:09:38Z</time>
      </trkpt>
      <trkpt lat="45.26036" lon="5.86842">
        <ele>298.7</ele>
        <time>2021-03-21T14:09:41Z</time>
      </trkpt>
      <trkpt lat="45.26036" lon="5.86842">
        <ele>298.9</ele>
        <time>2021-03-21T14:09:43Z</time>
      </trkpt>
      <trkpt lat="45.26036" lon="5.86842">
        <ele>298.6</ele>
        <time>2021-03-21T14:09:46Z</time>
      </trkpt>
      <trkpt lat="45.26036" lon="5.86842">
        <ele>298.7</ele>
        <time>2021-03-21T14:09:48Z</time>
      </trkpt>
      <trkpt lat="45.26037" lon="5.86842">
        <ele>299.1</ele>
        <time>2021-03-21T14:09:51Z</time>
      </trkpt>
      <trkpt lat="45.26037" lon="5.86842">
        <ele>299.3</ele>
        <time>2021-03-21T14:09:54Z</time>
      </trkpt>
      <trkpt lat="45.26038" lon="5.86842">
        <ele>300.1</ele>
        <time>2021-03-21T14:09:57Z</time>
      </trkpt>
      <trkpt lat="45.26038" lon="5.86842">
        <ele>299.8</ele>
        <time>2021-03-21T14:09:59Z</time>
      </trkpt>
      <trkpt lat="45.26038" lon="5.86842">
        <ele>299.8</ele>
        <time>2021-03-21T14:10:02Z</time>
      </trkpt>
      <trkpt lat="45.26038" lon="5.86842">
        <ele>300.1</ele>
        <time>2021-03-21T14:10:05Z</time>
      </trkpt>
      <trkpt lat="45.26038" lon="5.86842">
        <ele>300.1</ele>
        <time>2021-03-21T14:10:07Z</time>
      </trkpt>
      <trkpt lat="45.26038" lon="5.86842">
        <ele>299.7</ele>
        <time>2021-03-21T14:10:09Z</time>
      </trkpt>
      <trkpt lat="45.26038" lon="5.86842">
        <ele>300.2</ele>
        <time>2021-03-21T14:10:11Z</time>
      </trkpt>
      <trkpt lat="45.26037" lon="5.86842">
        <ele>299.7</ele>
        <time>2021-03-21T14:10:14Z</time>
      </trkpt>
      <trkpt lat="45.26034" lon="5.86843">
        <ele>294.9</ele>
        <time>2021-03-21T14:10:17Z</time>
      </trkpt>
      <trkpt lat="45.26033" lon="5.86844">
        <ele>294.1</ele>
        <time>2021-03-21T14:10:20Z</time>
      </trkpt>
      <trkpt lat="45.26033" lon="5.86844">
        <ele>294.3</ele>
        <time>2021-03-21T14:10:22Z</time>
      </trkpt>
      <trkpt lat="45.26034" lon="5.86844">
        <ele>294.1</ele>
        <time>2021-03-21T14:10:24Z</time>
      </trkpt>
      <trkpt lat="45.26034" lon="5.86844">
        <ele>294</ele>
        <time>2021-03-21T14:10:26Z</time>
      </trkpt>
      <trkpt lat="45.26034" lon="5.86844">
        <ele>295.1</ele>
        <time>2021-03-21T14:10:29Z</time>
      </trkpt>
      <trkpt lat="45.26035" lon="5.86843">
        <ele>295.4</ele>
        <time>2021-03-21T14:10:31Z</time>
      </trkpt>
      <trkpt lat="45.26036" lon="5.86842">
        <ele>297.5</ele>
        <time>2021-03-21T14:10:34Z</time>
      </trkpt>
      <trkpt lat="45.26037" lon="5.86841">
        <ele>297.6</ele>
        <time>2021-03-21T14:10:37Z</time>
      </trkpt>
      <trkpt lat="45.26038" lon="5.86841">
        <ele>298.3</ele>
        <time>2021-03-21T14:10:40Z</time>
      </trkpt>
      <trkpt lat="45.2604" lon="5.86841">
        <ele>298.2</ele>
        <time>2021-03-21T14:10:42Z</time>
      </trkpt>
      <trkpt lat="45.2604" lon="5.86841">
        <ele>296.3</ele>
        <time>2021-03-21T14:10:44Z</time>
      </trkpt>
      <trkpt lat="45.2604" lon="5.86841">
        <ele>296.3</ele>
        <time>2021-03-21T14:10:47Z</time>
      </trkpt>
      <trkpt lat="45.2604" lon="5.86841">
        <ele>297.1</ele>
        <time>2021-03-21T14:10:50Z</time>
      </trkpt>
      <trkpt lat="45.26042" lon="5.8684">
        <ele>300.2</ele>
        <time>2021-03-21T14:10:53Z</time>
      </trkpt>
      <trkpt lat="45.26042" lon="5.86839">
        <ele>299.9</ele>
        <time>2021-03-21T14:10:56Z</time>
      </trkpt>
      <trkpt lat="45.26042" lon="5.8684">
        <ele>299</ele>
        <time>2021-03-21T14:10:59Z</time>
      </trkpt>
      <trkpt lat="45.26042" lon="5.86841">
        <ele>299.6</ele>
        <time>2021-03-21T14:11:01Z</time>
      </trkpt>
      <trkpt lat="45.26042" lon="5.86841">
        <ele>298.3</ele>
        <time>2021-03-21T14:11:04Z</time>
      </trkpt>
      <trkpt lat="45.26041" lon="5.86841">
        <ele>296.2</ele>
        <time>2021-03-21T14:11:06Z</time>
      </trkpt>
      <trkpt lat="45.26042" lon="5.86844">
        <ele>299.4</ele>
        <time>2021-03-21T14:11:09Z</time>
      </trkpt>
      <trkpt lat="45.26045" lon="5.86851">
        <ele>299.3</ele>
        <time>2021-03-21T14:11:12Z</time>
      </trkpt>
      <trkpt lat="45.26049" lon="5.86856">
        <ele>301.1</ele>
        <time>2021-03-21T14:11:14Z</time>
      </trkpt>
      <trkpt lat="45.26055" lon="5.86864">
        <ele>300.7</ele>
        <time>2021-03-21T14:11:17Z</time>
      </trkpt>
      <trkpt lat="45.26061" lon="5.86872">
        <ele>300.2</ele>
        <time>2021-03-21T14:11:20Z</time>
      </trkpt>
      <trkpt lat="45.26067" lon="5.86884">
        <ele>301.6</ele>
        <time>2021-03-21T14:11:23Z</time>
      </trkpt>
      <trkpt lat="45.2607" lon="5.86893">
        <ele>302.7</ele>
        <time>2021-03-21T14:11:25Z</time>
      </trkpt>
      <trkpt lat="45.26068" lon="5.86914">
        <ele>301</ele>
        <time>2021-03-21T14:11:28Z</time>
      </trkpt>
      <trkpt lat="45.26066" lon="5.86929">
        <ele>300</ele>
        <time>2021-03-21T14:11:30Z</time>
      </trkpt>
      <trkpt lat="45.26065" lon="5.86945">
        <ele>301.7</ele>
        <time>2021-03-21T14:11:32Z</time>
      </trkpt>
      <trkpt lat="45.26057" lon="5.86967">
        <ele>299.4</ele>
        <time>2021-03-21T14:11:35Z</time>
      </trkpt>
      <trkpt lat="45.26049" lon="5.86981">
        <ele>297.7</ele>
        <time>2021-03-21T14:11:37Z</time>
      </trkpt>
      <trkpt lat="45.26047" lon="5.86995">
        <ele>299</ele>
        <time>2021-03-21T14:11:39Z</time>
      </trkpt>
      <trkpt lat="45.26041" lon="5.87018">
        <ele>298.6</ele>
        <time>2021-03-21T14:11:42Z</time>
      </trkpt>
      <trkpt lat="45.26043" lon="5.87039">
        <ele>297.6</ele>
        <time>2021-03-21T14:11:45Z</time>
      </trkpt>
      <trkpt lat="45.26048" lon="5.87048">
        <ele>296.2</ele>
        <time>2021-03-21T14:11:48Z</time>
      </trkpt>
      <trkpt lat="45.26052" lon="5.87054">
        <ele>296</ele>
        <time>2021-03-21T14:11:50Z</time>
      </trkpt>
      <trkpt lat="45.26058" lon="5.87059">
        <ele>294.1</ele>
        <time>2021-03-21T14:11:52Z</time>
      </trkpt>
      <trkpt lat="45.26067" lon="5.87069">
        <ele>296.6</ele>
        <time>2021-03-21T14:11:55Z</time>
      </trkpt>
      <trkpt lat="45.26074" lon="5.87078">
        <ele>295.1</ele>
        <time>2021-03-21T14:11:57Z</time>
      </trkpt>
      <trkpt lat="45.26082" lon="5.87089">
        <ele>296.6</ele>
        <time>2021-03-21T14:12:00Z</time>
      </trkpt>
      <trkpt lat="45.26089" lon="5.87098">
        <ele>296.4</ele>
        <time>2021-03-21T14:12:02Z</time>
      </trkpt>
      <trkpt lat="45.26094" lon="5.87107">
        <ele>295.1</ele>
        <time>2021-03-21T14:12:04Z</time>
      </trkpt>
      <trkpt lat="45.26099" lon="5.87117">
        <ele>293.4</ele>
        <time>2021-03-21T14:12:06Z</time>
      </trkpt>
      <trkpt lat="45.26102" lon="5.87127">
        <ele>294.5</ele>
        <time>2021-03-21T14:12:08Z</time>
      </trkpt>
      <trkpt lat="45.26107" lon="5.87138">
        <ele>293.9</ele>
        <time>2021-03-21T14:12:10Z</time>
      </trkpt>
      <trkpt lat="45.26112" lon="5.87155">
        <ele>294.3</ele>
        <time>2021-03-21T14:12:13Z</time>
      </trkpt>
      <trkpt lat="45.26121" lon="5.8717">
        <ele>294.5</ele>
        <time>2021-03-21T14:12:16Z</time>
      </trkpt>
      <trkpt lat="45.26127" lon="5.87187">
        <ele>293.8</ele>
        <time>2021-03-21T14:12:19Z</time>
      </trkpt>
      <trkpt lat="45.26136" lon="5.872">
        <ele>297</ele>
        <time>2021-03-21T14:12:22Z</time>
      </trkpt>
      <trkpt lat="45.26141" lon="5.8721">
        <ele>294.4</ele>
        <time>2021-03-21T14:12:24Z</time>
      </trkpt>
      <trkpt lat="45.26149" lon="5.87219">
        <ele>294.2</ele>
        <time>2021-03-21T14:12:27Z</time>
      </trkpt>
      <trkpt lat="45.26157" lon="5.8723">
        <ele>295.8</ele>
        <time>2021-03-21T14:12:30Z</time>
      </trkpt>
      <trkpt lat="45.26166" lon="5.8724">
        <ele>294.4</ele>
        <time>2021-03-21T14:12:33Z</time>
      </trkpt>
      <trkpt lat="45.26171" lon="5.87246">
        <ele>293.2</ele>
        <time>2021-03-21T14:12:35Z</time>
      </trkpt>
      <trkpt lat="45.26177" lon="5.87253">
        <ele>290.3</ele>
        <time>2021-03-21T14:12:37Z</time>
      </trkpt>
      <trkpt lat="45.26185" lon="5.87264">
        <ele>289.5</ele>
        <time>2021-03-21T14:12:40Z</time>
      </trkpt>
      <trkpt lat="45.26194" lon="5.87275">
        <ele>292.6</ele>
        <time>2021-03-21T14:12:43Z</time>
      </trkpt>
      <trkpt lat="45.26204" lon="5.87287">
        <ele>291.8</ele>
        <time>2021-03-21T14:12:46Z</time>
      </trkpt>
      <trkpt lat="45.26215" lon="5.87299">
        <ele>291.8</ele>
        <time>2021-03-21T14:12:49Z</time>
      </trkpt>
      <trkpt lat="45.26222" lon="5.87306">
        <ele>291.7</ele>
        <time>2021-03-21T14:12:51Z</time>
      </trkpt>
      <trkpt lat="45.26233" lon="5.8732">
        <ele>290.9</ele>
        <time>2021-03-21T14:12:54Z</time>
      </trkpt>
      <trkpt lat="45.26241" lon="5.87331">
        <ele>289.8</ele>
        <time>2021-03-21T14:12:57Z</time>
      </trkpt>
      <trkpt lat="45.26249" lon="5.87344">
        <ele>289.7</ele>
        <time>2021-03-21T14:13:00Z</time>
      </trkpt>
      <trkpt lat="45.26255" lon="5.87354">
        <ele>289.3</ele>
        <time>2021-03-21T14:13:02Z</time>
      </trkpt>
      <trkpt lat="45.26261" lon="5.87368">
        <ele>288.6</ele>
        <time>2021-03-21T14:13:05Z</time>
      </trkpt>
      <trkpt lat="45.26264" lon="5.87376">
        <ele>287.9</ele>
        <time>2021-03-21T14:13:07Z</time>
      </trkpt>
      <trkpt lat="45.26269" lon="5.87385">
        <ele>289</ele>
        <time>2021-03-21T14:13:09Z</time>
      </trkpt>
      <trkpt lat="45.26274" lon="5.87394">
        <ele>289.9</ele>
        <time>2021-03-21T14:13:11Z</time>
      </trkpt>
      <trkpt lat="45.26279" lon="5.87403">
        <ele>289.2</ele>
        <time>2021-03-21T14:13:13Z</time>
      </trkpt>
      <trkpt lat="45.26285" lon="5.8742">
        <ele>287.9</ele>
        <time>2021-03-21T14:13:16Z</time>
      </trkpt>
      <trkpt lat="45.26291" lon="5.87431">
        <ele>287.7</ele>
        <time>2021-03-21T14:13:18Z</time>
      </trkpt>
      <trkpt lat="45.26298" lon="5.87447">
        <ele>286.6</ele>
        <time>2021-03-21T14:13:21Z</time>
      </trkpt>
      <trkpt lat="45.26301" lon="5.87466">
        <ele>286.8</ele>
        <time>2021-03-21T14:13:24Z</time>
      </trkpt>
      <trkpt lat="45.26306" lon="5.87487">
        <ele>287.1</ele>
        <time>2021-03-21T14:13:27Z</time>
      </trkpt>
      <trkpt lat="45.26312" lon="5.87508">
        <ele>285.8</ele>
        <time>2021-03-21T14:13:30Z</time>
      </trkpt>
      <trkpt lat="45.26316" lon="5.87523">
        <ele>285.7</ele>
        <time>2021-03-21T14:13:32Z</time>
      </trkpt>
      <trkpt lat="45.26321" lon="5.87537">
        <ele>282.4</ele>
        <time>2021-03-21T14:13:34Z</time>
      </trkpt>
      <trkpt lat="45.26329" lon="5.87558">
        <ele>282.2</ele>
        <time>2021-03-21T14:13:37Z</time>
      </trkpt>
      <trkpt lat="45.26335" lon="5.87576">
        <ele>283.7</ele>
        <time>2021-03-21T14:13:40Z</time>
      </trkpt>
      <trkpt lat="45.2634" lon="5.87597">
        <ele>283.2</ele>
        <time>2021-03-21T14:13:43Z</time>
      </trkpt>
      <trkpt lat="45.26342" lon="5.87615">
        <ele>282.2</ele>
        <time>2021-03-21T14:13:46Z</time>
      </trkpt>
      <trkpt lat="45.26345" lon="5.87636">
        <ele>282.4</ele>
        <time>2021-03-21T14:13:49Z</time>
      </trkpt>
      <trkpt lat="45.26353" lon="5.87654">
        <ele>281.6</ele>
        <time>2021-03-21T14:13:52Z</time>
      </trkpt>
      <trkpt lat="45.26359" lon="5.87665">
        <ele>281.9</ele>
        <time>2021-03-21T14:13:54Z</time>
      </trkpt>
      <trkpt lat="45.26366" lon="5.87676">
        <ele>283.9</ele>
        <time>2021-03-21T14:13:56Z</time>
      </trkpt>
      <trkpt lat="45.26374" lon="5.87694">
        <ele>284.8</ele>
        <time>2021-03-21T14:13:59Z</time>
      </trkpt>
      <trkpt lat="45.26381" lon="5.87706">
        <ele>285.5</ele>
        <time>2021-03-21T14:14:01Z</time>
      </trkpt>
      <trkpt lat="45.26391" lon="5.87724">
        <ele>287.5</ele>
        <time>2021-03-21T14:14:04Z</time>
      </trkpt>
      <trkpt lat="45.26401" lon="5.87743">
        <ele>287.5</ele>
        <time>2021-03-21T14:14:07Z</time>
      </trkpt>
      <trkpt lat="45.26405" lon="5.87764">
        <ele>285.2</ele>
        <time>2021-03-21T14:14:10Z</time>
      </trkpt>
      <trkpt lat="45.2641" lon="5.87778">
        <ele>286.4</ele>
        <time>2021-03-21T14:14:12Z</time>
      </trkpt>
      <trkpt lat="45.26417" lon="5.87798">
        <ele>285.7</ele>
        <time>2021-03-21T14:14:15Z</time>
      </trkpt>
      <trkpt lat="45.26421" lon="5.87815">
        <ele>283.9</ele>
        <time>2021-03-21T14:14:18Z</time>
      </trkpt>
      <trkpt lat="45.26423" lon="5.87827">
        <ele>283.6</ele>
        <time>2021-03-21T14:14:20Z</time>
      </trkpt>
      <trkpt lat="45.2642" lon="5.87845">
        <ele>281.8</ele>
        <time>2021-03-21T14:14:23Z</time>
      </trkpt>
      <trkpt lat="45.26417" lon="5.87857">
        <ele>282.6</ele>
        <time>2021-03-21T14:14:25Z</time>
      </trkpt>
      <trkpt lat="45.26422" lon="5.87868">
        <ele>280.9</ele>
        <time>2021-03-21T14:14:27Z</time>
      </trkpt>
      <trkpt lat="45.26428" lon="5.87883">
        <ele>283.6</ele>
        <time>2021-03-21T14:14:30Z</time>
      </trkpt>
      <trkpt lat="45.2643" lon="5.87899">
        <ele>282.7</ele>
        <time>2021-03-21T14:14:33Z</time>
      </trkpt>
      <trkpt lat="45.26431" lon="5.87918">
        <ele>281.6</ele>
        <time>2021-03-21T14:14:36Z</time>
      </trkpt>
      <trkpt lat="45.26433" lon="5.87938">
        <ele>281.1</ele>
        <time>2021-03-21T14:14:39Z</time>
      </trkpt>
      <trkpt lat="45.26434" lon="5.87957">
        <ele>281.7</ele>
        <time>2021-03-21T14:14:42Z</time>
      </trkpt>
      <trkpt lat="45.26435" lon="5.87976">
        <ele>282.7</ele>
        <time>2021-03-21T14:14:45Z</time>
      </trkpt>
      <trkpt lat="45.26438" lon="5.87995">
        <ele>282.6</ele>
        <time>2021-03-21T14:14:48Z</time>
      </trkpt>
      <trkpt lat="45.26439" lon="5.88006">
        <ele>283.4</ele>
        <time>2021-03-21T14:14:50Z</time>
      </trkpt>
      <trkpt lat="45.26442" lon="5.88022">
        <ele>284.7</ele>
        <time>2021-03-21T14:14:53Z</time>
      </trkpt>
      <trkpt lat="45.26447" lon="5.88038">
        <ele>286.9</ele>
        <time>2021-03-21T14:14:56Z</time>
      </trkpt>
      <trkpt lat="45.26455" lon="5.88051">
        <ele>287.7</ele>
        <time>2021-03-21T14:14:59Z</time>
      </trkpt>
      <trkpt lat="45.26459" lon="5.88062">
        <ele>287.1</ele>
        <time>2021-03-21T14:15:01Z</time>
      </trkpt>
      <trkpt lat="45.26464" lon="5.88072">
        <ele>289.9</ele>
        <time>2021-03-21T14:15:03Z</time>
      </trkpt>
      <trkpt lat="45.2647" lon="5.88083">
        <ele>289.1</ele>
        <time>2021-03-21T14:15:05Z</time>
      </trkpt>
      <trkpt lat="45.26477" lon="5.88098">
        <ele>288.5</ele>
        <time>2021-03-21T14:15:08Z</time>
      </trkpt>
      <trkpt lat="45.26483" lon="5.8811">
        <ele>288.5</ele>
        <time>2021-03-21T14:15:10Z</time>
      </trkpt>
      <trkpt lat="45.26492" lon="5.88127">
        <ele>287.8</ele>
        <time>2021-03-21T14:15:13Z</time>
      </trkpt>
      <trkpt lat="45.26499" lon="5.88138">
        <ele>285.4</ele>
        <time>2021-03-21T14:15:15Z</time>
      </trkpt>
      <trkpt lat="45.26512" lon="5.88154">
        <ele>286.4</ele>
        <time>2021-03-21T14:15:18Z</time>
      </trkpt>
      <trkpt lat="45.26524" lon="5.88168">
        <ele>283.4</ele>
        <time>2021-03-21T14:15:21Z</time>
      </trkpt>
      <trkpt lat="45.26534" lon="5.8818">
        <ele>282.2</ele>
        <time>2021-03-21T14:15:24Z</time>
      </trkpt>
      <trkpt lat="45.26543" lon="5.88191">
        <ele>283.4</ele>
        <time>2021-03-21T14:15:26Z</time>
      </trkpt>
      <trkpt lat="45.26552" lon="5.88205">
        <ele>283.7</ele>
        <time>2021-03-21T14:15:29Z</time>
      </trkpt>
      <trkpt lat="45.26559" lon="5.88214">
        <ele>282</ele>
        <time>2021-03-21T14:15:31Z</time>
      </trkpt>
      <trkpt lat="45.26566" lon="5.88222">
        <ele>280.4</ele>
        <time>2021-03-21T14:15:33Z</time>
      </trkpt>
      <trkpt lat="45.26579" lon="5.88236">
        <ele>281.9</ele>
        <time>2021-03-21T14:15:36Z</time>
      </trkpt>
      <trkpt lat="45.26588" lon="5.88251">
        <ele>281.9</ele>
        <time>2021-03-21T14:15:39Z</time>
      </trkpt>
      <trkpt lat="45.26596" lon="5.88267">
        <ele>279.5</ele>
        <time>2021-03-21T14:15:42Z</time>
      </trkpt>
      <trkpt lat="45.26602" lon="5.88277">
        <ele>281.6</ele>
        <time>2021-03-21T14:15:44Z</time>
      </trkpt>
      <trkpt lat="45.26611" lon="5.88294">
        <ele>282.4</ele>
        <time>2021-03-21T14:15:47Z</time>
      </trkpt>
      <trkpt lat="45.26614" lon="5.88307">
        <ele>284</ele>
        <time>2021-03-21T14:15:49Z</time>
      </trkpt>
      <trkpt lat="45.26617" lon="5.88319">
        <ele>280.4</ele>
        <time>2021-03-21T14:15:51Z</time>
      </trkpt>
      <trkpt lat="45.26622" lon="5.88336">
        <ele>281.7</ele>
        <time>2021-03-21T14:15:54Z</time>
      </trkpt>
      <trkpt lat="45.26626" lon="5.88347">
        <ele>283.3</ele>
        <time>2021-03-21T14:15:56Z</time>
      </trkpt>
      <trkpt lat="45.26633" lon="5.88363">
        <ele>283.4</ele>
        <time>2021-03-21T14:15:59Z</time>
      </trkpt>
      <trkpt lat="45.2664" lon="5.88378">
        <ele>283.8</ele>
        <time>2021-03-21T14:16:02Z</time>
      </trkpt>
      <trkpt lat="45.26649" lon="5.88393">
        <ele>281.4</ele>
        <time>2021-03-21T14:16:05Z</time>
      </trkpt>
      <trkpt lat="45.26655" lon="5.88402">
        <ele>281.3</ele>
        <time>2021-03-21T14:16:07Z</time>
      </trkpt>
      <trkpt lat="45.26665" lon="5.88414">
        <ele>282.1</ele>
        <time>2021-03-21T14:16:10Z</time>
      </trkpt>
      <trkpt lat="45.26673" lon="5.88422">
        <ele>283.5</ele>
        <time>2021-03-21T14:16:12Z</time>
      </trkpt>
      <trkpt lat="45.26685" lon="5.88435">
        <ele>283.2</ele>
        <time>2021-03-21T14:16:15Z</time>
      </trkpt>
      <trkpt lat="45.26691" lon="5.88453">
        <ele>283.2</ele>
        <time>2021-03-21T14:16:18Z</time>
      </trkpt>
      <trkpt lat="45.26691" lon="5.88466">
        <ele>284.1</ele>
        <time>2021-03-21T14:16:20Z</time>
      </trkpt>
      <trkpt lat="45.2669" lon="5.88477">
        <ele>281.5</ele>
        <time>2021-03-21T14:16:22Z</time>
      </trkpt>
      <trkpt lat="45.26688" lon="5.88489">
        <ele>282.6</ele>
        <time>2021-03-21T14:16:24Z</time>
      </trkpt>
      <trkpt lat="45.26686" lon="5.88508">
        <ele>279.5</ele>
        <time>2021-03-21T14:16:27Z</time>
      </trkpt>
      <trkpt lat="45.26687" lon="5.88529">
        <ele>279.2</ele>
        <time>2021-03-21T14:16:30Z</time>
      </trkpt>
      <trkpt lat="45.2669" lon="5.88542">
        <ele>278.2</ele>
        <time>2021-03-21T14:16:32Z</time>
      </trkpt>
      <trkpt lat="45.26697" lon="5.8856">
        <ele>280</ele>
        <time>2021-03-21T14:16:35Z</time>
      </trkpt>
      <trkpt lat="45.26701" lon="5.88571">
        <ele>279.8</ele>
        <time>2021-03-21T14:16:37Z</time>
      </trkpt>
      <trkpt lat="45.26708" lon="5.8858">
        <ele>283.3</ele>
        <time>2021-03-21T14:16:39Z</time>
      </trkpt>
      <trkpt lat="45.26721" lon="5.88593">
        <ele>282.1</ele>
        <time>2021-03-21T14:16:42Z</time>
      </trkpt>
      <trkpt lat="45.26732" lon="5.88607">
        <ele>281.6</ele>
        <time>2021-03-21T14:16:45Z</time>
      </trkpt>
      <trkpt lat="45.2674" lon="5.88616">
        <ele>282</ele>
        <time>2021-03-21T14:16:47Z</time>
      </trkpt>
      <trkpt lat="45.2675" lon="5.88631">
        <ele>280.3</ele>
        <time>2021-03-21T14:16:50Z</time>
      </trkpt>
      <trkpt lat="45.26752" lon="5.88645">
        <ele>281</ele>
        <time>2021-03-21T14:16:52Z</time>
      </trkpt>
      <trkpt lat="45.26749" lon="5.8866">
        <ele>278.8</ele>
        <time>2021-03-21T14:16:54Z</time>
      </trkpt>
      <trkpt lat="45.26749" lon="5.88681">
        <ele>280.3</ele>
        <time>2021-03-21T14:16:57Z</time>
      </trkpt>
      <trkpt lat="45.26751" lon="5.88695">
        <ele>277.6</ele>
        <time>2021-03-21T14:16:59Z</time>
      </trkpt>
      <trkpt lat="45.26754" lon="5.88708">
        <ele>277.9</ele>
        <time>2021-03-21T14:17:01Z</time>
      </trkpt>
      <trkpt lat="45.26762" lon="5.88718">
        <ele>276.9</ele>
        <time>2021-03-21T14:17:03Z</time>
      </trkpt>
      <trkpt lat="45.26777" lon="5.8873">
        <ele>277</ele>
        <time>2021-03-21T14:17:06Z</time>
      </trkpt>
      <trkpt lat="45.26791" lon="5.8874">
        <ele>277.4</ele>
        <time>2021-03-21T14:17:09Z</time>
      </trkpt>
      <trkpt lat="45.26808" lon="5.88748">
        <ele>279.2</ele>
        <time>2021-03-21T14:17:12Z</time>
      </trkpt>
      <trkpt lat="45.26817" lon="5.88765">
        <ele>276.3</ele>
        <time>2021-03-21T14:17:15Z</time>
      </trkpt>
      <trkpt lat="45.2682" lon="5.8878">
        <ele>276.2</ele>
        <time>2021-03-21T14:17:17Z</time>
      </trkpt>
      <trkpt lat="45.26821" lon="5.88801">
        <ele>275.3</ele>
        <time>2021-03-21T14:17:20Z</time>
      </trkpt>
      <trkpt lat="45.26823" lon="5.88815">
        <ele>274.8</ele>
        <time>2021-03-21T14:17:22Z</time>
      </trkpt>
      <trkpt lat="45.26826" lon="5.8883">
        <ele>274.3</ele>
        <time>2021-03-21T14:17:24Z</time>
      </trkpt>
      <trkpt lat="45.26829" lon="5.88852">
        <ele>274.4</ele>
        <time>2021-03-21T14:17:27Z</time>
      </trkpt>
      <trkpt lat="45.26831" lon="5.88867">
        <ele>274.1</ele>
        <time>2021-03-21T14:17:29Z</time>
      </trkpt>
      <trkpt lat="45.26833" lon="5.88887">
        <ele>274.8</ele>
        <time>2021-03-21T14:17:32Z</time>
      </trkpt>
      <trkpt lat="45.26836" lon="5.88898">
        <ele>275.6</ele>
        <time>2021-03-21T14:17:34Z</time>
      </trkpt>
      <trkpt lat="45.26839" lon="5.88913">
        <ele>273.9</ele>
        <time>2021-03-21T14:17:36Z</time>
      </trkpt>
      <trkpt lat="45.26843" lon="5.88933">
        <ele>276.2</ele>
        <time>2021-03-21T14:17:39Z</time>
      </trkpt>
      <trkpt lat="45.26848" lon="5.88945">
        <ele>276.8</ele>
        <time>2021-03-21T14:17:41Z</time>
      </trkpt>
      <trkpt lat="45.26858" lon="5.8896">
        <ele>277.7</ele>
        <time>2021-03-21T14:17:44Z</time>
      </trkpt>
      <trkpt lat="45.26866" lon="5.8897">
        <ele>279.2</ele>
        <time>2021-03-21T14:17:47Z</time>
      </trkpt>
      <trkpt lat="45.26876" lon="5.88983">
        <ele>280.5</ele>
        <time>2021-03-21T14:17:50Z</time>
      </trkpt>
      <trkpt lat="45.26883" lon="5.88991">
        <ele>279.9</ele>
        <time>2021-03-21T14:17:52Z</time>
      </trkpt>
      <trkpt lat="45.26895" lon="5.89002">
        <ele>279.1</ele>
        <time>2021-03-21T14:17:55Z</time>
      </trkpt>
      <trkpt lat="45.26901" lon="5.8901">
        <ele>278.3</ele>
        <time>2021-03-21T14:17:57Z</time>
      </trkpt>
      <trkpt lat="45.26909" lon="5.89017">
        <ele>279.8</ele>
        <time>2021-03-21T14:17:59Z</time>
      </trkpt>
      <trkpt lat="45.2692" lon="5.89029">
        <ele>279.7</ele>
        <time>2021-03-21T14:18:02Z</time>
      </trkpt>
      <trkpt lat="45.26928" lon="5.89038">
        <ele>281.2</ele>
        <time>2021-03-21T14:18:04Z</time>
      </trkpt>
      <trkpt lat="45.26939" lon="5.89049">
        <ele>282.7</ele>
        <time>2021-03-21T14:18:07Z</time>
      </trkpt>
      <trkpt lat="45.26947" lon="5.89056">
        <ele>283.9</ele>
        <time>2021-03-21T14:18:09Z</time>
      </trkpt>
      <trkpt lat="45.26957" lon="5.89068">
        <ele>282.9</ele>
        <time>2021-03-21T14:18:12Z</time>
      </trkpt>
      <trkpt lat="45.26964" lon="5.89076">
        <ele>283.5</ele>
        <time>2021-03-21T14:18:14Z</time>
      </trkpt>
      <trkpt lat="45.26971" lon="5.89086">
        <ele>281.7</ele>
        <time>2021-03-21T14:18:16Z</time>
      </trkpt>
      <trkpt lat="45.26976" lon="5.89096">
        <ele>280.9</ele>
        <time>2021-03-21T14:18:18Z</time>
      </trkpt>
      <trkpt lat="45.26985" lon="5.89108">
        <ele>281.3</ele>
        <time>2021-03-21T14:18:21Z</time>
      </trkpt>
      <trkpt lat="45.26991" lon="5.89115">
        <ele>280.4</ele>
        <time>2021-03-21T14:18:23Z</time>
      </trkpt>
      <trkpt lat="45.26999" lon="5.89125">
        <ele>279.9</ele>
        <time>2021-03-21T14:18:26Z</time>
      </trkpt>
      <trkpt lat="45.27003" lon="5.89131">
        <ele>280.1</ele>
        <time>2021-03-21T14:18:28Z</time>
      </trkpt>
      <trkpt lat="45.27008" lon="5.8914">
        <ele>278.1</ele>
        <time>2021-03-21T14:18:31Z</time>
      </trkpt>
      <trkpt lat="45.27011" lon="5.89145">
        <ele>278.6</ele>
        <time>2021-03-21T14:18:33Z</time>
      </trkpt>
      <trkpt lat="45.27014" lon="5.89155">
        <ele>279.8</ele>
        <time>2021-03-21T14:18:36Z</time>
      </trkpt>
      <trkpt lat="45.27014" lon="5.89162">
        <ele>278.5</ele>
        <time>2021-03-21T14:18:38Z</time>
      </trkpt>
      <trkpt lat="45.27013" lon="5.89166">
        <ele>278.3</ele>
        <time>2021-03-21T14:18:40Z</time>
      </trkpt>
      <trkpt lat="45.27012" lon="5.89167">
        <ele>277.6</ele>
        <time>2021-03-21T14:18:42Z</time>
      </trkpt>
      <trkpt lat="45.2701" lon="5.89167">
        <ele>277.4</ele>
        <time>2021-03-21T14:18:45Z</time>
      </trkpt>
      <trkpt lat="45.2701" lon="5.89166">
        <ele>278.8</ele>
        <time>2021-03-21T14:18:48Z</time>
      </trkpt>
      <trkpt lat="45.2701" lon="5.89166">
        <ele>279.5</ele>
        <time>2021-03-21T14:18:50Z</time>
      </trkpt>
      <trkpt lat="45.2701" lon="5.89166">
        <ele>279.9</ele>
        <time>2021-03-21T14:18:53Z</time>
      </trkpt>
      <trkpt lat="45.2701" lon="5.89166">
        <ele>280.3</ele>
        <time>2021-03-21T14:18:56Z</time>
      </trkpt>
      <trkpt lat="45.2701" lon="5.89166">
        <ele>280.8</ele>
        <time>2021-03-21T14:18:59Z</time>
      </trkpt>
      <trkpt lat="45.2701" lon="5.89166">
        <ele>279.6</ele>
        <time>2021-03-21T14:19:02Z</time>
      </trkpt>
      <trkpt lat="45.2701" lon="5.89166">
        <ele>279.7</ele>
        <time>2021-03-21T14:19:05Z</time>
      </trkpt>
      <trkpt lat="45.2701" lon="5.89167">
        <ele>279.4</ele>
        <time>2021-03-21T14:19:08Z</time>
      </trkpt>
      <trkpt lat="45.27012" lon="5.89177">
        <ele>278.4</ele>
        <time>2021-03-21T14:19:11Z</time>
      </trkpt>
      <trkpt lat="45.27015" lon="5.89193">
        <ele>278.8</ele>
        <time>2021-03-21T14:19:14Z</time>
      </trkpt>
      <trkpt lat="45.27019" lon="5.89203">
        <ele>277.3</ele>
        <time>2021-03-21T14:19:16Z</time>
      </trkpt>
      <trkpt lat="45.27026" lon="5.8921">
        <ele>278.4</ele>
        <time>2021-03-21T14:19:18Z</time>
      </trkpt>
      <trkpt lat="45.27039" lon="5.89212">
        <ele>275.2</ele>
        <time>2021-03-21T14:19:21Z</time>
      </trkpt>
      <trkpt lat="45.27053" lon="5.89212">
        <ele>273.2</ele>
        <time>2021-03-21T14:19:24Z</time>
      </trkpt>
      <trkpt lat="45.27068" lon="5.89216">
        <ele>273.1</ele>
        <time>2021-03-21T14:19:27Z</time>
      </trkpt>
      <trkpt lat="45.27081" lon="5.89224">
        <ele>274.2</ele>
        <time>2021-03-21T14:19:30Z</time>
      </trkpt>
      <trkpt lat="45.27098" lon="5.89231">
        <ele>273.2</ele>
        <time>2021-03-21T14:19:33Z</time>
      </trkpt>
      <trkpt lat="45.2712" lon="5.89237">
        <ele>275.8</ele>
        <time>2021-03-21T14:19:36Z</time>
      </trkpt>
      <trkpt lat="45.2714" lon="5.89246">
        <ele>282.5</ele>
        <time>2021-03-21T14:19:39Z</time>
      </trkpt>
      <trkpt lat="45.27156" lon="5.89257">
        <ele>285.2</ele>
        <time>2021-03-21T14:19:42Z</time>
      </trkpt>
      <trkpt lat="45.27169" lon="5.89266">
        <ele>285.5</ele>
        <time>2021-03-21T14:19:45Z</time>
      </trkpt>
      <trkpt lat="45.27181" lon="5.89272">
        <ele>288.2</ele>
        <time>2021-03-21T14:19:47Z</time>
      </trkpt>
      <trkpt lat="45.27195" lon="5.89282">
        <ele>285.4</ele>
        <time>2021-03-21T14:19:50Z</time>
      </trkpt>
      <trkpt lat="45.27209" lon="5.89291">
        <ele>284.7</ele>
        <time>2021-03-21T14:19:53Z</time>
      </trkpt>
      <trkpt lat="45.27223" lon="5.89301">
        <ele>288.9</ele>
        <time>2021-03-21T14:19:56Z</time>
      </trkpt>
      <trkpt lat="45.27237" lon="5.8931">
        <ele>288.9</ele>
        <time>2021-03-21T14:19:59Z</time>
      </trkpt>
      <trkpt lat="45.27248" lon="5.89322">
        <ele>289.1</ele>
        <time>2021-03-21T14:20:01Z</time>
      </trkpt>
      <trkpt lat="45.27247" lon="5.89346">
        <ele>285.5</ele>
        <time>2021-03-21T14:20:04Z</time>
      </trkpt>
      <trkpt lat="45.2725" lon="5.89361">
        <ele>284.1</ele>
        <time>2021-03-21T14:20:06Z</time>
      </trkpt>
      <trkpt lat="45.27261" lon="5.89373">
        <ele>284.9</ele>
        <time>2021-03-21T14:20:09Z</time>
      </trkpt>
      <trkpt lat="45.27271" lon="5.89381">
        <ele>286.1</ele>
        <time>2021-03-21T14:20:11Z</time>
      </trkpt>
      <trkpt lat="45.27282" lon="5.89395">
        <ele>285.7</ele>
        <time>2021-03-21T14:20:14Z</time>
      </trkpt>
      <trkpt lat="45.2729" lon="5.89409">
        <ele>282.2</ele>
        <time>2021-03-21T14:20:17Z</time>
      </trkpt>
      <trkpt lat="45.27301" lon="5.89422">
        <ele>281.4</ele>
        <time>2021-03-21T14:20:20Z</time>
      </trkpt>
      <trkpt lat="45.27309" lon="5.89433">
        <ele>279.3</ele>
        <time>2021-03-21T14:20:23Z</time>
      </trkpt>
      <trkpt lat="45.27313" lon="5.89442">
        <ele>280.5</ele>
        <time>2021-03-21T14:20:25Z</time>
      </trkpt>
      <trkpt lat="45.27319" lon="5.89454">
        <ele>279.8</ele>
        <time>2021-03-21T14:20:27Z</time>
      </trkpt>
      <trkpt lat="45.27328" lon="5.89469">
        <ele>282.3</ele>
        <time>2021-03-21T14:20:30Z</time>
      </trkpt>
      <trkpt lat="45.27332" lon="5.8948">
        <ele>280.4</ele>
        <time>2021-03-21T14:20:32Z</time>
      </trkpt>
      <trkpt lat="45.2734" lon="5.89495">
        <ele>280.2</ele>
        <time>2021-03-21T14:20:35Z</time>
      </trkpt>
      <trkpt lat="45.27347" lon="5.89504">
        <ele>279.1</ele>
        <time>2021-03-21T14:20:37Z</time>
      </trkpt>
      <trkpt lat="45.27361" lon="5.89517">
        <ele>282.5</ele>
        <time>2021-03-21T14:20:40Z</time>
      </trkpt>
      <trkpt lat="45.2737" lon="5.89527">
        <ele>282</ele>
        <time>2021-03-21T14:20:42Z</time>
      </trkpt>
      <trkpt lat="45.27382" lon="5.89541">
        <ele>281.8</ele>
        <time>2021-03-21T14:20:45Z</time>
      </trkpt>
      <trkpt lat="45.27386" lon="5.89551">
        <ele>277.2</ele>
        <time>2021-03-21T14:20:47Z</time>
      </trkpt>
      <trkpt lat="45.27394" lon="5.8956">
        <ele>280.3</ele>
        <time>2021-03-21T14:20:49Z</time>
      </trkpt>
      <trkpt lat="45.27405" lon="5.89573">
        <ele>276.9</ele>
        <time>2021-03-21T14:20:52Z</time>
      </trkpt>
      <trkpt lat="45.27415" lon="5.89581">
        <ele>279.8</ele>
        <time>2021-03-21T14:20:54Z</time>
      </trkpt>
      <trkpt lat="45.27427" lon="5.89594">
        <ele>278.7</ele>
        <time>2021-03-21T14:20:57Z</time>
      </trkpt>
      <trkpt lat="45.27438" lon="5.89605">
        <ele>278.2</ele>
        <time>2021-03-21T14:21:00Z</time>
      </trkpt>
      <trkpt lat="45.27444" lon="5.89614">
        <ele>277.4</ele>
        <time>2021-03-21T14:21:02Z</time>
      </trkpt>
      <trkpt lat="45.27452" lon="5.89623">
        <ele>275.6</ele>
        <time>2021-03-21T14:21:04Z</time>
      </trkpt>
      <trkpt lat="45.27462" lon="5.89639">
        <ele>274.3</ele>
        <time>2021-03-21T14:21:07Z</time>
      </trkpt>
      <trkpt lat="45.27472" lon="5.89647">
        <ele>274.8</ele>
        <time>2021-03-21T14:21:09Z</time>
      </trkpt>
      <trkpt lat="45.27488" lon="5.8966">
        <ele>277.6</ele>
        <time>2021-03-21T14:21:12Z</time>
      </trkpt>
      <trkpt lat="45.27497" lon="5.89672">
        <ele>279.1</ele>
        <time>2021-03-21T14:21:14Z</time>
      </trkpt>
      <trkpt lat="45.27506" lon="5.89679">
        <ele>275.1</ele>
        <time>2021-03-21T14:21:17Z</time>
      </trkpt>
      <trkpt lat="45.27517" lon="5.89675">
        <ele>273.5</ele>
        <time>2021-03-21T14:21:20Z</time>
      </trkpt>
      <trkpt lat="45.27524" lon="5.89654">
        <ele>274</ele>
        <time>2021-03-21T14:21:23Z</time>
      </trkpt>
      <trkpt lat="45.27533" lon="5.89634">
        <ele>273.7</ele>
        <time>2021-03-21T14:21:26Z</time>
      </trkpt>
      <trkpt lat="45.2754" lon="5.89615">
        <ele>272.4</ele>
        <time>2021-03-21T14:21:29Z</time>
      </trkpt>
      <trkpt lat="45.27552" lon="5.89599">
        <ele>271.1</ele>
        <time>2021-03-21T14:21:32Z</time>
      </trkpt>
      <trkpt lat="45.2756" lon="5.89594">
        <ele>271.9</ele>
        <time>2021-03-21T14:21:34Z</time>
      </trkpt>
      <trkpt lat="45.27573" lon="5.89595">
        <ele>269.6</ele>
        <time>2021-03-21T14:21:37Z</time>
      </trkpt>
      <trkpt lat="45.27577" lon="5.89609">
        <ele>270.7</ele>
        <time>2021-03-21T14:21:39Z</time>
      </trkpt>
      <trkpt lat="45.27584" lon="5.89619">
        <ele>275</ele>
        <time>2021-03-21T14:21:41Z</time>
      </trkpt>
      <trkpt lat="45.27597" lon="5.89632">
        <ele>276.2</ele>
        <time>2021-03-21T14:21:44Z</time>
      </trkpt>
      <trkpt lat="45.27608" lon="5.89645">
        <ele>276.3</ele>
        <time>2021-03-21T14:21:47Z</time>
      </trkpt>
      <trkpt lat="45.27621" lon="5.89647">
        <ele>278.8</ele>
        <time>2021-03-21T14:21:50Z</time>
      </trkpt>
      <trkpt lat="45.27628" lon="5.89641">
        <ele>278.1</ele>
        <time>2021-03-21T14:21:52Z</time>
      </trkpt>
      <trkpt lat="45.27634" lon="5.89633">
        <ele>279.5</ele>
        <time>2021-03-21T14:21:54Z</time>
      </trkpt>
      <trkpt lat="45.27642" lon="5.89637">
        <ele>281</ele>
        <time>2021-03-21T14:21:57Z</time>
      </trkpt>
      <trkpt lat="45.27652" lon="5.89649">
        <ele>281.5</ele>
        <time>2021-03-21T14:22:00Z</time>
      </trkpt>
      <trkpt lat="45.27663" lon="5.89661">
        <ele>277.3</ele>
        <time>2021-03-21T14:22:03Z</time>
      </trkpt>
      <trkpt lat="45.27669" lon="5.89664">
        <ele>279.1</ele>
        <time>2021-03-21T14:22:05Z</time>
      </trkpt>
      <trkpt lat="45.27678" lon="5.89656">
        <ele>281.6</ele>
        <time>2021-03-21T14:22:08Z</time>
      </trkpt>
      <trkpt lat="45.27683" lon="5.8965">
        <ele>278.7</ele>
        <time>2021-03-21T14:22:10Z</time>
      </trkpt>
      <trkpt lat="45.2769" lon="5.89643">
        <ele>278.8</ele>
        <time>2021-03-21T14:22:13Z</time>
      </trkpt>
      <trkpt lat="45.27696" lon="5.89639">
        <ele>281.7</ele>
        <time>2021-03-21T14:22:16Z</time>
      </trkpt>
      <trkpt lat="45.27701" lon="5.8964">
        <ele>281.5</ele>
        <time>2021-03-21T14:22:18Z</time>
      </trkpt>
      <trkpt lat="45.27706" lon="5.89653">
        <ele>279.2</ele>
        <time>2021-03-21T14:22:21Z</time>
      </trkpt>
      <trkpt lat="45.2771" lon="5.89664">
        <ele>278.4</ele>
        <time>2021-03-21T14:22:23Z</time>
      </trkpt>
      <trkpt lat="45.27715" lon="5.89676">
        <ele>277.8</ele>
        <time>2021-03-21T14:22:26Z</time>
      </trkpt>
      <trkpt lat="45.2772" lon="5.89685">
        <ele>278.8</ele>
        <time>2021-03-21T14:22:28Z</time>
      </trkpt>
      <trkpt lat="45.27725" lon="5.89698">
        <ele>277.4</ele>
        <time>2021-03-21T14:22:31Z</time>
      </trkpt>
      <trkpt lat="45.27733" lon="5.89711">
        <ele>274.9</ele>
        <time>2021-03-21T14:22:34Z</time>
      </trkpt>
      <trkpt lat="45.27742" lon="5.89723">
        <ele>276.1</ele>
        <time>2021-03-21T14:22:37Z</time>
      </trkpt>
      <trkpt lat="45.27748" lon="5.89731">
        <ele>276.6</ele>
        <time>2021-03-21T14:22:39Z</time>
      </trkpt>
      <trkpt lat="45.27758" lon="5.89744">
        <ele>277.4</ele>
        <time>2021-03-21T14:22:42Z</time>
      </trkpt>
      <trkpt lat="45.27768" lon="5.89758">
        <ele>276.3</ele>
        <time>2021-03-21T14:22:45Z</time>
      </trkpt>
      <trkpt lat="45.27776" lon="5.89769">
        <ele>278.2</ele>
        <time>2021-03-21T14:22:47Z</time>
      </trkpt>
      <trkpt lat="45.27785" lon="5.89782">
        <ele>277.2</ele>
        <time>2021-03-21T14:22:50Z</time>
      </trkpt>
      <trkpt lat="45.2779" lon="5.89791">
        <ele>274.9</ele>
        <time>2021-03-21T14:22:52Z</time>
      </trkpt>
      <trkpt lat="45.27796" lon="5.89799">
        <ele>275.6</ele>
        <time>2021-03-21T14:22:54Z</time>
      </trkpt>
      <trkpt lat="45.27805" lon="5.89812">
        <ele>273.6</ele>
        <time>2021-03-21T14:22:57Z</time>
      </trkpt>
      <trkpt lat="45.27815" lon="5.8982">
        <ele>272.6</ele>
        <time>2021-03-21T14:23:00Z</time>
      </trkpt>
      <trkpt lat="45.27823" lon="5.89822">
        <ele>274.3</ele>
        <time>2021-03-21T14:23:02Z</time>
      </trkpt>
      <trkpt lat="45.27831" lon="5.89826">
        <ele>273.3</ele>
        <time>2021-03-21T14:23:04Z</time>
      </trkpt>
      <trkpt lat="45.27844" lon="5.89831">
        <ele>274.5</ele>
        <time>2021-03-21T14:23:07Z</time>
      </trkpt>
      <trkpt lat="45.27851" lon="5.89835">
        <ele>272.5</ele>
        <time>2021-03-21T14:23:09Z</time>
      </trkpt>
      <trkpt lat="45.27859" lon="5.89838">
        <ele>272.4</ele>
        <time>2021-03-21T14:23:11Z</time>
      </trkpt>
      <trkpt lat="45.27866" lon="5.89844">
        <ele>273.9</ele>
        <time>2021-03-21T14:23:13Z</time>
      </trkpt>
      <trkpt lat="45.27877" lon="5.8985">
        <ele>273</ele>
        <time>2021-03-21T14:23:16Z</time>
      </trkpt>
      <trkpt lat="45.27889" lon="5.89857">
        <ele>274</ele>
        <time>2021-03-21T14:23:19Z</time>
      </trkpt>
      <trkpt lat="45.27901" lon="5.89862">
        <ele>274.3</ele>
        <time>2021-03-21T14:23:22Z</time>
      </trkpt>
      <trkpt lat="45.27909" lon="5.89867">
        <ele>275.2</ele>
        <time>2021-03-21T14:23:24Z</time>
      </trkpt>
      <trkpt lat="45.27921" lon="5.89873">
        <ele>274.5</ele>
        <time>2021-03-21T14:23:27Z</time>
      </trkpt>
      <trkpt lat="45.27933" lon="5.89877">
        <ele>273.9</ele>
        <time>2021-03-21T14:23:30Z</time>
      </trkpt>
      <trkpt lat="45.2794" lon="5.89882">
        <ele>271.8</ele>
        <time>2021-03-21T14:23:32Z</time>
      </trkpt>
      <trkpt lat="45.27952" lon="5.89891">
        <ele>272.4</ele>
        <time>2021-03-21T14:23:35Z</time>
      </trkpt>
      <trkpt lat="45.27964" lon="5.899">
        <ele>273.4</ele>
        <time>2021-03-21T14:23:38Z</time>
      </trkpt>
      <trkpt lat="45.27975" lon="5.89912">
        <ele>272.6</ele>
        <time>2021-03-21T14:23:41Z</time>
      </trkpt>
      <trkpt lat="45.27986" lon="5.89924">
        <ele>272.1</ele>
        <time>2021-03-21T14:23:44Z</time>
      </trkpt>
      <trkpt lat="45.27996" lon="5.89935">
        <ele>271.9</ele>
        <time>2021-03-21T14:23:47Z</time>
      </trkpt>
      <trkpt lat="45.28008" lon="5.89948">
        <ele>273.3</ele>
        <time>2021-03-21T14:23:50Z</time>
      </trkpt>
      <trkpt lat="45.28019" lon="5.89962">
        <ele>273</ele>
        <time>2021-03-21T14:23:53Z</time>
      </trkpt>
      <trkpt lat="45.28023" lon="5.89979">
        <ele>271.7</ele>
        <time>2021-03-21T14:23:56Z</time>
      </trkpt>
      <trkpt lat="45.28028" lon="5.8999">
        <ele>272.1</ele>
        <time>2021-03-21T14:23:58Z</time>
      </trkpt>
      <trkpt lat="45.28041" lon="5.90005">
        <ele>276.4</ele>
        <time>2021-03-21T14:24:01Z</time>
      </trkpt>
      <trkpt lat="45.28046" lon="5.90016">
        <ele>276.3</ele>
        <time>2021-03-21T14:24:03Z</time>
      </trkpt>
      <trkpt lat="45.28051" lon="5.90027">
        <ele>274.6</ele>
        <time>2021-03-21T14:24:05Z</time>
      </trkpt>
      <trkpt lat="45.28056" lon="5.90039">
        <ele>277.8</ele>
        <time>2021-03-21T14:24:07Z</time>
      </trkpt>
      <trkpt lat="45.28062" lon="5.90056">
        <ele>277.1</ele>
        <time>2021-03-21T14:24:10Z</time>
      </trkpt>
      <trkpt lat="45.28068" lon="5.90068">
        <ele>277.8</ele>
        <time>2021-03-21T14:24:12Z</time>
      </trkpt>
      <trkpt lat="45.28073" lon="5.90078">
        <ele>276</ele>
        <time>2021-03-21T14:24:14Z</time>
      </trkpt>
      <trkpt lat="45.28081" lon="5.90093">
        <ele>276.7</ele>
        <time>2021-03-21T14:24:17Z</time>
      </trkpt>
      <trkpt lat="45.2809" lon="5.9011">
        <ele>277</ele>
        <time>2021-03-21T14:24:20Z</time>
      </trkpt>
      <trkpt lat="45.28097" lon="5.9012">
        <ele>276.6</ele>
        <time>2021-03-21T14:24:22Z</time>
      </trkpt>
      <trkpt lat="45.28105" lon="5.90129">
        <ele>278.1</ele>
        <time>2021-03-21T14:24:24Z</time>
      </trkpt>
      <trkpt lat="45.28119" lon="5.9014">
        <ele>276.9</ele>
        <time>2021-03-21T14:24:27Z</time>
      </trkpt>
      <trkpt lat="45.28133" lon="5.90139">
        <ele>279.1</ele>
        <time>2021-03-21T14:24:30Z</time>
      </trkpt>
      <trkpt lat="45.28146" lon="5.90123">
        <ele>277.1</ele>
        <time>2021-03-21T14:24:33Z</time>
      </trkpt>
      <trkpt lat="45.28158" lon="5.90113">
        <ele>277.5</ele>
        <time>2021-03-21T14:24:36Z</time>
      </trkpt>
      <trkpt lat="45.28171" lon="5.90102">
        <ele>275.9</ele>
        <time>2021-03-21T14:24:39Z</time>
      </trkpt>
      <trkpt lat="45.2818" lon="5.90094">
        <ele>274.3</ele>
        <time>2021-03-21T14:24:41Z</time>
      </trkpt>
      <trkpt lat="45.28194" lon="5.90082">
        <ele>277.8</ele>
        <time>2021-03-21T14:24:44Z</time>
      </trkpt>
      <trkpt lat="45.28204" lon="5.90073">
        <ele>280.3</ele>
        <time>2021-03-21T14:24:46Z</time>
      </trkpt>
      <trkpt lat="45.28219" lon="5.90059">
        <ele>279.9</ele>
        <time>2021-03-21T14:24:49Z</time>
      </trkpt>
      <trkpt lat="45.28228" lon="5.90052">
        <ele>277.7</ele>
        <time>2021-03-21T14:24:51Z</time>
      </trkpt>
      <trkpt lat="45.28239" lon="5.90044">
        <ele>275.9</ele>
        <time>2021-03-21T14:24:53Z</time>
      </trkpt>
      <trkpt lat="45.28255" lon="5.90029">
        <ele>276.3</ele>
        <time>2021-03-21T14:24:56Z</time>
      </trkpt>
      <trkpt lat="45.28267" lon="5.90015">
        <ele>274.3</ele>
        <time>2021-03-21T14:24:59Z</time>
      </trkpt>
      <trkpt lat="45.28281" lon="5.90003">
        <ele>277.4</ele>
        <time>2021-03-21T14:25:02Z</time>
      </trkpt>
      <trkpt lat="45.28295" lon="5.89989">
        <ele>274.8</ele>
        <time>2021-03-21T14:25:05Z</time>
      </trkpt>
      <trkpt lat="45.28308" lon="5.89979">
        <ele>274.7</ele>
        <time>2021-03-21T14:25:08Z</time>
      </trkpt>
      <trkpt lat="45.28327" lon="5.89967">
        <ele>274.3</ele>
        <time>2021-03-21T14:25:11Z</time>
      </trkpt>
      <trkpt lat="45.28343" lon="5.89954">
        <ele>277.3</ele>
        <time>2021-03-21T14:25:14Z</time>
      </trkpt>
      <trkpt lat="45.28347" lon="5.89943">
        <ele>278.7</ele>
        <time>2021-03-21T14:25:16Z</time>
      </trkpt>
      <trkpt lat="45.28356" lon="5.89933">
        <ele>279.6</ele>
        <time>2021-03-21T14:25:18Z</time>
      </trkpt>
      <trkpt lat="45.28365" lon="5.89923">
        <ele>279.6</ele>
        <time>2021-03-21T14:25:20Z</time>
      </trkpt>
      <trkpt lat="45.28375" lon="5.89912">
        <ele>279.9</ele>
        <time>2021-03-21T14:25:22Z</time>
      </trkpt>
      <trkpt lat="45.28388" lon="5.89895">
        <ele>279</ele>
        <time>2021-03-21T14:25:25Z</time>
      </trkpt>
      <trkpt lat="45.28395" lon="5.89883">
        <ele>278.6</ele>
        <time>2021-03-21T14:25:27Z</time>
      </trkpt>
      <trkpt lat="45.28406" lon="5.89865">
        <ele>279.9</ele>
        <time>2021-03-21T14:25:30Z</time>
      </trkpt>
      <trkpt lat="45.28418" lon="5.89847">
        <ele>279.6</ele>
        <time>2021-03-21T14:25:33Z</time>
      </trkpt>
      <trkpt lat="45.28425" lon="5.89838">
        <ele>280.1</ele>
        <time>2021-03-21T14:25:35Z</time>
      </trkpt>
      <trkpt lat="45.28437" lon="5.89831">
        <ele>282.1</ele>
        <time>2021-03-21T14:25:38Z</time>
      </trkpt>
      <trkpt lat="45.28441" lon="5.89842">
        <ele>281.4</ele>
        <time>2021-03-21T14:25:40Z</time>
      </trkpt>
      <trkpt lat="45.28442" lon="5.89858">
        <ele>279.4</ele>
        <time>2021-03-21T14:25:43Z</time>
      </trkpt>
      <trkpt lat="45.28442" lon="5.89874">
        <ele>280</ele>
        <time>2021-03-21T14:25:46Z</time>
      </trkpt>
      <trkpt lat="45.28442" lon="5.89888">
        <ele>281</ele>
        <time>2021-03-21T14:25:48Z</time>
      </trkpt>
      <trkpt lat="45.28445" lon="5.8991">
        <ele>282</ele>
        <time>2021-03-21T14:25:51Z</time>
      </trkpt>
      <trkpt lat="45.28445" lon="5.89931">
        <ele>281.7</ele>
        <time>2021-03-21T14:25:54Z</time>
      </trkpt>
      <trkpt lat="45.28444" lon="5.89947">
        <ele>277.1</ele>
        <time>2021-03-21T14:25:57Z</time>
      </trkpt>
      <trkpt lat="45.28442" lon="5.89964">
        <ele>277.6</ele>
        <time>2021-03-21T14:26:00Z</time>
      </trkpt>
      <trkpt lat="45.28442" lon="5.89977">
        <ele>280.1</ele>
        <time>2021-03-21T14:26:02Z</time>
      </trkpt>
      <trkpt lat="45.28441" lon="5.89995">
        <ele>278.2</ele>
        <time>2021-03-21T14:26:05Z</time>
      </trkpt>
      <trkpt lat="45.28441" lon="5.90007">
        <ele>276.9</ele>
        <time>2021-03-21T14:26:07Z</time>
      </trkpt>
      <trkpt lat="45.28443" lon="5.90021">
        <ele>278.1</ele>
        <time>2021-03-21T14:26:09Z</time>
      </trkpt>
      <trkpt lat="45.28446" lon="5.90039">
        <ele>276.9</ele>
        <time>2021-03-21T14:26:12Z</time>
      </trkpt>
      <trkpt lat="45.28448" lon="5.90057">
        <ele>278</ele>
        <time>2021-03-21T14:26:15Z</time>
      </trkpt>
      <trkpt lat="45.28452" lon="5.90073">
        <ele>274.5</ele>
        <time>2021-03-21T14:26:18Z</time>
      </trkpt>
      <trkpt lat="45.28454" lon="5.90085">
        <ele>274.3</ele>
        <time>2021-03-21T14:26:20Z</time>
      </trkpt>
      <trkpt lat="45.28457" lon="5.90102">
        <ele>275.1</ele>
        <time>2021-03-21T14:26:23Z</time>
      </trkpt>
      <trkpt lat="45.28459" lon="5.90115">
        <ele>274.1</ele>
        <time>2021-03-21T14:26:25Z</time>
      </trkpt>
      <trkpt lat="45.28461" lon="5.90128">
        <ele>275.6</ele>
        <time>2021-03-21T14:26:27Z</time>
      </trkpt>
      <trkpt lat="45.28463" lon="5.90149">
        <ele>275.8</ele>
        <time>2021-03-21T14:26:30Z</time>
      </trkpt>
      <trkpt lat="45.28466" lon="5.90168">
        <ele>273.9</ele>
        <time>2021-03-21T14:26:33Z</time>
      </trkpt>
      <trkpt lat="45.28469" lon="5.90185">
        <ele>271.7</ele>
        <time>2021-03-21T14:26:36Z</time>
      </trkpt>
      <trkpt lat="45.28473" lon="5.90199">
        <ele>273.7</ele>
        <time>2021-03-21T14:26:38Z</time>
      </trkpt>
      <trkpt lat="45.28477" lon="5.90212">
        <ele>271.6</ele>
        <time>2021-03-21T14:26:40Z</time>
      </trkpt>
      <trkpt lat="45.28481" lon="5.90233">
        <ele>273.3</ele>
        <time>2021-03-21T14:26:43Z</time>
      </trkpt>
      <trkpt lat="45.28485" lon="5.90252">
        <ele>271.7</ele>
        <time>2021-03-21T14:26:46Z</time>
      </trkpt>
      <trkpt lat="45.28488" lon="5.90273">
        <ele>273.8</ele>
        <time>2021-03-21T14:26:49Z</time>
      </trkpt>
      <trkpt lat="45.2849" lon="5.90294">
        <ele>273.6</ele>
        <time>2021-03-21T14:26:52Z</time>
      </trkpt>
      <trkpt lat="45.28491" lon="5.90308">
        <ele>273.6</ele>
        <time>2021-03-21T14:26:54Z</time>
      </trkpt>
      <trkpt lat="45.28492" lon="5.90328">
        <ele>273.5</ele>
        <time>2021-03-21T14:26:57Z</time>
      </trkpt>
      <trkpt lat="45.28493" lon="5.90348">
        <ele>275.7</ele>
        <time>2021-03-21T14:27:00Z</time>
      </trkpt>
      <trkpt lat="45.28493" lon="5.90368">
        <ele>274.2</ele>
        <time>2021-03-21T14:27:03Z</time>
      </trkpt>
      <trkpt lat="45.28493" lon="5.9039">
        <ele>274.9</ele>
        <time>2021-03-21T14:27:06Z</time>
      </trkpt>
      <trkpt lat="45.28493" lon="5.90408">
        <ele>274.8</ele>
        <time>2021-03-21T14:27:09Z</time>
      </trkpt>
      <trkpt lat="45.28494" lon="5.90421">
        <ele>276.5</ele>
        <time>2021-03-21T14:27:11Z</time>
      </trkpt>
      <trkpt lat="45.28495" lon="5.90434">
        <ele>274.7</ele>
        <time>2021-03-21T14:27:13Z</time>
      </trkpt>
      <trkpt lat="45.28495" lon="5.90447">
        <ele>276.3</ele>
        <time>2021-03-21T14:27:15Z</time>
      </trkpt>
      <trkpt lat="45.28496" lon="5.90464">
        <ele>277</ele>
        <time>2021-03-21T14:27:18Z</time>
      </trkpt>
      <trkpt lat="45.28496" lon="5.90476">
        <ele>275.4</ele>
        <time>2021-03-21T14:27:20Z</time>
      </trkpt>
      <trkpt lat="45.28496" lon="5.90495">
        <ele>275.3</ele>
        <time>2021-03-21T14:27:23Z</time>
      </trkpt>
      <trkpt lat="45.28496" lon="5.90514">
        <ele>275.2</ele>
        <time>2021-03-21T14:27:26Z</time>
      </trkpt>
      <trkpt lat="45.28498" lon="5.90534">
        <ele>275.9</ele>
        <time>2021-03-21T14:27:29Z</time>
      </trkpt>
      <trkpt lat="45.2851" lon="5.90539">
        <ele>278.1</ele>
        <time>2021-03-21T14:27:32Z</time>
      </trkpt>
      <trkpt lat="45.28518" lon="5.90535">
        <ele>278.8</ele>
        <time>2021-03-21T14:27:34Z</time>
      </trkpt>
      <trkpt lat="45.28531" lon="5.90531">
        <ele>276.5</ele>
        <time>2021-03-21T14:27:37Z</time>
      </trkpt>
      <trkpt lat="45.28538" lon="5.90548">
        <ele>278.8</ele>
        <time>2021-03-21T14:27:40Z</time>
      </trkpt>
      <trkpt lat="45.28543" lon="5.90566">
        <ele>281.4</ele>
        <time>2021-03-21T14:27:43Z</time>
      </trkpt>
      <trkpt lat="45.28554" lon="5.90579">
        <ele>284.8</ele>
        <time>2021-03-21T14:27:46Z</time>
      </trkpt>
      <trkpt lat="45.28566" lon="5.90588">
        <ele>283.6</ele>
        <time>2021-03-21T14:27:49Z</time>
      </trkpt>
      <trkpt lat="45.28576" lon="5.90594">
        <ele>283</ele>
        <time>2021-03-21T14:27:51Z</time>
      </trkpt>
      <trkpt lat="45.28587" lon="5.90602">
        <ele>281</ele>
        <time>2021-03-21T14:27:54Z</time>
      </trkpt>
      <trkpt lat="45.28597" lon="5.90611">
        <ele>279.1</ele>
        <time>2021-03-21T14:27:57Z</time>
      </trkpt>
      <trkpt lat="45.28608" lon="5.9062">
        <ele>278.4</ele>
        <time>2021-03-21T14:28:00Z</time>
      </trkpt>
      <trkpt lat="45.28615" lon="5.90627">
        <ele>279.3</ele>
        <time>2021-03-21T14:28:02Z</time>
      </trkpt>
      <trkpt lat="45.28623" lon="5.90633">
        <ele>278.7</ele>
        <time>2021-03-21T14:28:04Z</time>
      </trkpt>
      <trkpt lat="45.28638" lon="5.9064">
        <ele>277.7</ele>
        <time>2021-03-21T14:28:07Z</time>
      </trkpt>
      <trkpt lat="45.28653" lon="5.90648">
        <ele>280.7</ele>
        <time>2021-03-21T14:28:10Z</time>
      </trkpt>
      <trkpt lat="45.28664" lon="5.90656">
        <ele>281</ele>
        <time>2021-03-21T14:28:13Z</time>
      </trkpt>
      <trkpt lat="45.28672" lon="5.90661">
        <ele>282</ele>
        <time>2021-03-21T14:28:15Z</time>
      </trkpt>
      <trkpt lat="45.28684" lon="5.90668">
        <ele>285.5</ele>
        <time>2021-03-21T14:28:18Z</time>
      </trkpt>
      <trkpt lat="45.28696" lon="5.90677">
        <ele>282</ele>
        <time>2021-03-21T14:28:21Z</time>
      </trkpt>
      <trkpt lat="45.28704" lon="5.90685">
        <ele>282.2</ele>
        <time>2021-03-21T14:28:24Z</time>
      </trkpt>
      <trkpt lat="45.28713" lon="5.9069">
        <ele>284.1</ele>
        <time>2021-03-21T14:28:26Z</time>
      </trkpt>
      <trkpt lat="45.28721" lon="5.90696">
        <ele>282.5</ele>
        <time>2021-03-21T14:28:28Z</time>
      </trkpt>
      <trkpt lat="45.28731" lon="5.90704">
        <ele>282</ele>
        <time>2021-03-21T14:28:31Z</time>
      </trkpt>
      <trkpt lat="45.28742" lon="5.90713">
        <ele>280.9</ele>
        <time>2021-03-21T14:28:34Z</time>
      </trkpt>
      <trkpt lat="45.2875" lon="5.90719">
        <ele>280.3</ele>
        <time>2021-03-21T14:28:36Z</time>
      </trkpt>
      <trkpt lat="45.28759" lon="5.90723">
        <ele>279.9</ele>
        <time>2021-03-21T14:28:38Z</time>
      </trkpt>
      <trkpt lat="45.28771" lon="5.90732">
        <ele>280.9</ele>
        <time>2021-03-21T14:28:41Z</time>
      </trkpt>
      <trkpt lat="45.28782" lon="5.90742">
        <ele>279.5</ele>
        <time>2021-03-21T14:28:44Z</time>
      </trkpt>
      <trkpt lat="45.28789" lon="5.9075">
        <ele>278.4</ele>
        <time>2021-03-21T14:28:46Z</time>
      </trkpt>
      <trkpt lat="45.288" lon="5.90758">
        <ele>277.8</ele>
        <time>2021-03-21T14:28:49Z</time>
      </trkpt>
      <trkpt lat="45.28808" lon="5.90764">
        <ele>277.4</ele>
        <time>2021-03-21T14:28:51Z</time>
      </trkpt>
      <trkpt lat="45.28819" lon="5.90773">
        <ele>277.8</ele>
        <time>2021-03-21T14:28:54Z</time>
      </trkpt>
      <trkpt lat="45.28831" lon="5.90783">
        <ele>274.3</ele>
        <time>2021-03-21T14:28:57Z</time>
      </trkpt>
      <trkpt lat="45.28837" lon="5.90789">
        <ele>275.9</ele>
        <time>2021-03-21T14:28:59Z</time>
      </trkpt>
      <trkpt lat="45.28849" lon="5.90797">
        <ele>276.3</ele>
        <time>2021-03-21T14:29:02Z</time>
      </trkpt>
      <trkpt lat="45.28863" lon="5.90802">
        <ele>277.2</ele>
        <time>2021-03-21T14:29:05Z</time>
      </trkpt>
      <trkpt lat="45.28876" lon="5.90811">
        <ele>277.1</ele>
        <time>2021-03-21T14:29:08Z</time>
      </trkpt>
      <trkpt lat="45.28889" lon="5.90819">
        <ele>278.8</ele>
        <time>2021-03-21T14:29:11Z</time>
      </trkpt>
      <trkpt lat="45.28903" lon="5.90826">
        <ele>279.3</ele>
        <time>2021-03-21T14:29:14Z</time>
      </trkpt>
      <trkpt lat="45.28916" lon="5.90835">
        <ele>279.8</ele>
        <time>2021-03-21T14:29:17Z</time>
      </trkpt>
      <trkpt lat="45.28923" lon="5.90843">
        <ele>278.6</ele>
        <time>2021-03-21T14:29:19Z</time>
      </trkpt>
      <trkpt lat="45.28934" lon="5.90852">
        <ele>281.3</ele>
        <time>2021-03-21T14:29:22Z</time>
      </trkpt>
      <trkpt lat="45.28947" lon="5.90862">
        <ele>280.6</ele>
        <time>2021-03-21T14:29:25Z</time>
      </trkpt>
      <trkpt lat="45.28958" lon="5.90871">
        <ele>281.4</ele>
        <time>2021-03-21T14:29:28Z</time>
      </trkpt>
      <trkpt lat="45.28966" lon="5.90877">
        <ele>281.4</ele>
        <time>2021-03-21T14:29:30Z</time>
      </trkpt>
      <trkpt lat="45.28977" lon="5.90885">
        <ele>278.8</ele>
        <time>2021-03-21T14:29:33Z</time>
      </trkpt>
      <trkpt lat="45.28988" lon="5.90888">
        <ele>280.4</ele>
        <time>2021-03-21T14:29:36Z</time>
      </trkpt>
      <trkpt lat="45.29" lon="5.90884">
        <ele>278.2</ele>
        <time>2021-03-21T14:29:39Z</time>
      </trkpt>
      <trkpt lat="45.29014" lon="5.90878">
        <ele>278.2</ele>
        <time>2021-03-21T14:29:42Z</time>
      </trkpt>
      <trkpt lat="45.29022" lon="5.90875">
        <ele>279.3</ele>
        <time>2021-03-21T14:29:44Z</time>
      </trkpt>
      <trkpt lat="45.29034" lon="5.90869">
        <ele>276.9</ele>
        <time>2021-03-21T14:29:47Z</time>
      </trkpt>
      <trkpt lat="45.29047" lon="5.90863">
        <ele>278</ele>
        <time>2021-03-21T14:29:50Z</time>
      </trkpt>
      <trkpt lat="45.29061" lon="5.90858">
        <ele>276.1</ele>
        <time>2021-03-21T14:29:53Z</time>
      </trkpt>
      <trkpt lat="45.29069" lon="5.90855">
        <ele>276.6</ele>
        <time>2021-03-21T14:29:55Z</time>
      </trkpt>
      <trkpt lat="45.29077" lon="5.90851">
        <ele>274.8</ele>
        <time>2021-03-21T14:29:57Z</time>
      </trkpt>
      <trkpt lat="45.29086" lon="5.90846">
        <ele>277</ele>
        <time>2021-03-21T14:29:59Z</time>
      </trkpt>
      <trkpt lat="45.29095" lon="5.90842">
        <ele>277.4</ele>
        <time>2021-03-21T14:30:01Z</time>
      </trkpt>
      <trkpt lat="45.29104" lon="5.90837">
        <ele>280.8</ele>
        <time>2021-03-21T14:30:03Z</time>
      </trkpt>
      <trkpt lat="45.29118" lon="5.90832">
        <ele>277.8</ele>
        <time>2021-03-21T14:30:06Z</time>
      </trkpt>
      <trkpt lat="45.29131" lon="5.90828">
        <ele>278.5</ele>
        <time>2021-03-21T14:30:09Z</time>
      </trkpt>
      <trkpt lat="45.29139" lon="5.90824">
        <ele>276</ele>
        <time>2021-03-21T14:30:11Z</time>
      </trkpt>
      <trkpt lat="45.29147" lon="5.90821">
        <ele>274</ele>
        <time>2021-03-21T14:30:13Z</time>
      </trkpt>
      <trkpt lat="45.29159" lon="5.90814">
        <ele>277.2</ele>
        <time>2021-03-21T14:30:16Z</time>
      </trkpt>
      <trkpt lat="45.29172" lon="5.90808">
        <ele>275.1</ele>
        <time>2021-03-21T14:30:19Z</time>
      </trkpt>
      <trkpt lat="45.29181" lon="5.90805">
        <ele>274.4</ele>
        <time>2021-03-21T14:30:21Z</time>
      </trkpt>
      <trkpt lat="45.29197" lon="5.90798">
        <ele>275.7</ele>
        <time>2021-03-21T14:30:24Z</time>
      </trkpt>
      <trkpt lat="45.29206" lon="5.90798">
        <ele>273.6</ele>
        <time>2021-03-21T14:30:26Z</time>
      </trkpt>
      <trkpt lat="45.29219" lon="5.90794">
        <ele>274.8</ele>
        <time>2021-03-21T14:30:29Z</time>
      </trkpt>
      <trkpt lat="45.29227" lon="5.90786">
        <ele>274.7</ele>
        <time>2021-03-21T14:30:31Z</time>
      </trkpt>
      <trkpt lat="45.29237" lon="5.90777">
        <ele>278</ele>
        <time>2021-03-21T14:30:34Z</time>
      </trkpt>
      <trkpt lat="45.29248" lon="5.90775">
        <ele>277.2</ele>
        <time>2021-03-21T14:30:36Z</time>
      </trkpt>
      <trkpt lat="45.29262" lon="5.90769">
        <ele>277.6</ele>
        <time>2021-03-21T14:30:39Z</time>
      </trkpt>
      <trkpt lat="45.29275" lon="5.90767">
        <ele>280.1</ele>
        <time>2021-03-21T14:30:42Z</time>
      </trkpt>
      <trkpt lat="45.29286" lon="5.90773">
        <ele>279.6</ele>
        <time>2021-03-21T14:30:45Z</time>
      </trkpt>
      <trkpt lat="45.29295" lon="5.90777">
        <ele>278.9</ele>
        <time>2021-03-21T14:30:47Z</time>
      </trkpt>
      <trkpt lat="45.29302" lon="5.90782">
        <ele>278.7</ele>
        <time>2021-03-21T14:30:49Z</time>
      </trkpt>
      <trkpt lat="45.29313" lon="5.90789">
        <ele>275.4</ele>
        <time>2021-03-21T14:30:52Z</time>
      </trkpt>
      <trkpt lat="45.29324" lon="5.90795">
        <ele>274.8</ele>
        <time>2021-03-21T14:30:55Z</time>
      </trkpt>
      <trkpt lat="45.29339" lon="5.90797">
        <ele>276.7</ele>
        <time>2021-03-21T14:30:58Z</time>
      </trkpt>
      <trkpt lat="45.29355" lon="5.90799">
        <ele>277.4</ele>
        <time>2021-03-21T14:31:01Z</time>
      </trkpt>
      <trkpt lat="45.29364" lon="5.90809">
        <ele>275.4</ele>
        <time>2021-03-21T14:31:04Z</time>
      </trkpt>
      <trkpt lat="45.29377" lon="5.90815">
        <ele>278.7</ele>
        <time>2021-03-21T14:31:07Z</time>
      </trkpt>
      <trkpt lat="45.2939" lon="5.90821">
        <ele>278.7</ele>
        <time>2021-03-21T14:31:10Z</time>
      </trkpt>
      <trkpt lat="45.29403" lon="5.90827">
        <ele>278.5</ele>
        <time>2021-03-21T14:31:13Z</time>
      </trkpt>
      <trkpt lat="45.29412" lon="5.90831">
        <ele>277.6</ele>
        <time>2021-03-21T14:31:15Z</time>
      </trkpt>
      <trkpt lat="45.29427" lon="5.90838">
        <ele>279.8</ele>
        <time>2021-03-21T14:31:18Z</time>
      </trkpt>
      <trkpt lat="45.29439" lon="5.90846">
        <ele>277.8</ele>
        <time>2021-03-21T14:31:21Z</time>
      </trkpt>
      <trkpt lat="45.29447" lon="5.90852">
        <ele>277.6</ele>
        <time>2021-03-21T14:31:23Z</time>
      </trkpt>
      <trkpt lat="45.29463" lon="5.90857">
        <ele>279.6</ele>
        <time>2021-03-21T14:31:26Z</time>
      </trkpt>
      <trkpt lat="45.29474" lon="5.90863">
        <ele>278.1</ele>
        <time>2021-03-21T14:31:29Z</time>
      </trkpt>
      <trkpt lat="45.29481" lon="5.90868">
        <ele>277.5</ele>
        <time>2021-03-21T14:31:31Z</time>
      </trkpt>
      <trkpt lat="45.29493" lon="5.90872">
        <ele>276.4</ele>
        <time>2021-03-21T14:31:34Z</time>
      </trkpt>
      <trkpt lat="45.29503" lon="5.90876">
        <ele>276.3</ele>
        <time>2021-03-21T14:31:36Z</time>
      </trkpt>
      <trkpt lat="45.29514" lon="5.90879">
        <ele>276.6</ele>
        <time>2021-03-21T14:31:38Z</time>
      </trkpt>
      <trkpt lat="45.29531" lon="5.90886">
        <ele>278.3</ele>
        <time>2021-03-21T14:31:41Z</time>
      </trkpt>
      <trkpt lat="45.29542" lon="5.9089">
        <ele>276.2</ele>
        <time>2021-03-21T14:31:43Z</time>
      </trkpt>
      <trkpt lat="45.29549" lon="5.90894">
        <ele>275.1</ele>
        <time>2021-03-21T14:31:45Z</time>
      </trkpt>
      <trkpt lat="45.29561" lon="5.90898">
        <ele>275.5</ele>
        <time>2021-03-21T14:31:48Z</time>
      </trkpt>
      <trkpt lat="45.2957" lon="5.90901">
        <ele>277.1</ele>
        <time>2021-03-21T14:31:50Z</time>
      </trkpt>
      <trkpt lat="45.29581" lon="5.90907">
        <ele>277.5</ele>
        <time>2021-03-21T14:31:53Z</time>
      </trkpt>
      <trkpt lat="45.29589" lon="5.90913">
        <ele>276.2</ele>
        <time>2021-03-21T14:31:55Z</time>
      </trkpt>
      <trkpt lat="45.29598" lon="5.90918">
        <ele>274</ele>
        <time>2021-03-21T14:31:57Z</time>
      </trkpt>
      <trkpt lat="45.29613" lon="5.90923">
        <ele>276.1</ele>
        <time>2021-03-21T14:32:00Z</time>
      </trkpt>
      <trkpt lat="45.29627" lon="5.90929">
        <ele>272.8</ele>
        <time>2021-03-21T14:32:03Z</time>
      </trkpt>
      <trkpt lat="45.29639" lon="5.90933">
        <ele>273.8</ele>
        <time>2021-03-21T14:32:06Z</time>
      </trkpt>
      <trkpt lat="45.29647" lon="5.90937">
        <ele>273</ele>
        <time>2021-03-21T14:32:08Z</time>
      </trkpt>
      <trkpt lat="45.29659" lon="5.9094">
        <ele>273.9</ele>
        <time>2021-03-21T14:32:10Z</time>
      </trkpt>
      <trkpt lat="45.29675" lon="5.90946">
        <ele>274.9</ele>
        <time>2021-03-21T14:32:13Z</time>
      </trkpt>
      <trkpt lat="45.29683" lon="5.9095">
        <ele>276.8</ele>
        <time>2021-03-21T14:32:15Z</time>
      </trkpt>
      <trkpt lat="45.29694" lon="5.90956">
        <ele>275.1</ele>
        <time>2021-03-21T14:32:18Z</time>
      </trkpt>
      <trkpt lat="45.29707" lon="5.9096">
        <ele>277.2</ele>
        <time>2021-03-21T14:32:21Z</time>
      </trkpt>
      <trkpt lat="45.29721" lon="5.90965">
        <ele>275.5</ele>
        <time>2021-03-21T14:32:24Z</time>
      </trkpt>
      <trkpt lat="45.29733" lon="5.90971">
        <ele>274.4</ele>
        <time>2021-03-21T14:32:27Z</time>
      </trkpt>
      <trkpt lat="45.29745" lon="5.90977">
        <ele>276.9</ele>
        <time>2021-03-21T14:32:30Z</time>
      </trkpt>
      <trkpt lat="45.29755" lon="5.90981">
        <ele>277.3</ele>
        <time>2021-03-21T14:32:32Z</time>
      </trkpt>
      <trkpt lat="45.29764" lon="5.90983">
        <ele>277.4</ele>
        <time>2021-03-21T14:32:34Z</time>
      </trkpt>
      <trkpt lat="45.29772" lon="5.90986">
        <ele>278.3</ele>
        <time>2021-03-21T14:32:36Z</time>
      </trkpt>
      <trkpt lat="45.29784" lon="5.90991">
        <ele>275.1</ele>
        <time>2021-03-21T14:32:39Z</time>
      </trkpt>
      <trkpt lat="45.29801" lon="5.90996">
        <ele>276.2</ele>
        <time>2021-03-21T14:32:42Z</time>
      </trkpt>
      <trkpt lat="45.29814" lon="5.91001">
        <ele>275</ele>
        <time>2021-03-21T14:32:45Z</time>
      </trkpt>
      <trkpt lat="45.29828" lon="5.91006">
        <ele>273.8</ele>
        <time>2021-03-21T14:32:48Z</time>
      </trkpt>
      <trkpt lat="45.29838" lon="5.9101">
        <ele>274.9</ele>
        <time>2021-03-21T14:32:50Z</time>
      </trkpt>
      <trkpt lat="45.2985" lon="5.91015">
        <ele>274.8</ele>
        <time>2021-03-21T14:32:53Z</time>
      </trkpt>
      <trkpt lat="45.29858" lon="5.91018">
        <ele>273.3</ele>
        <time>2021-03-21T14:32:55Z</time>
      </trkpt>
      <trkpt lat="45.29867" lon="5.91022">
        <ele>273.7</ele>
        <time>2021-03-21T14:32:57Z</time>
      </trkpt>
      <trkpt lat="45.29881" lon="5.91024">
        <ele>273</ele>
        <time>2021-03-21T14:33:00Z</time>
      </trkpt>
      <trkpt lat="45.29888" lon="5.91028">
        <ele>272.2</ele>
        <time>2021-03-21T14:33:02Z</time>
      </trkpt>
      <trkpt lat="45.29896" lon="5.91032">
        <ele>272.6</ele>
        <time>2021-03-21T14:33:04Z</time>
      </trkpt>
      <trkpt lat="45.29904" lon="5.91031">
        <ele>273.5</ele>
        <time>2021-03-21T14:33:06Z</time>
      </trkpt>
      <trkpt lat="45.29916" lon="5.91031">
        <ele>276.9</ele>
        <time>2021-03-21T14:33:09Z</time>
      </trkpt>
      <trkpt lat="45.2992" lon="5.91024">
        <ele>274.8</ele>
        <time>2021-03-21T14:33:12Z</time>
      </trkpt>
      <trkpt lat="45.29923" lon="5.91019">
        <ele>276.8</ele>
        <time>2021-03-21T14:33:15Z</time>
      </trkpt>
      <trkpt lat="45.29931" lon="5.91011">
        <ele>278.8</ele>
        <time>2021-03-21T14:33:18Z</time>
      </trkpt>
      <trkpt lat="45.29937" lon="5.91003">
        <ele>277.7</ele>
        <time>2021-03-21T14:33:20Z</time>
      </trkpt>
      <trkpt lat="45.29946" lon="5.90987">
        <ele>281.6</ele>
        <time>2021-03-21T14:33:23Z</time>
      </trkpt>
      <trkpt lat="45.29956" lon="5.90972">
        <ele>281.6</ele>
        <time>2021-03-21T14:33:26Z</time>
      </trkpt>
      <trkpt lat="45.29965" lon="5.90956">
        <ele>279</ele>
        <time>2021-03-21T14:33:29Z</time>
      </trkpt>
      <trkpt lat="45.29974" lon="5.90941">
        <ele>274.1</ele>
        <time>2021-03-21T14:33:32Z</time>
      </trkpt>
      <trkpt lat="45.29984" lon="5.90928">
        <ele>276</ele>
        <time>2021-03-21T14:33:35Z</time>
      </trkpt>
      <trkpt lat="45.29994" lon="5.90913">
        <ele>274.3</ele>
        <time>2021-03-21T14:33:38Z</time>
      </trkpt>
      <trkpt lat="45.3" lon="5.909">
        <ele>274.5</ele>
        <time>2021-03-21T14:33:40Z</time>
      </trkpt>
      <trkpt lat="45.30008" lon="5.90877">
        <ele>273.4</ele>
        <time>2021-03-21T14:33:43Z</time>
      </trkpt>
      <trkpt lat="45.30016" lon="5.90861">
        <ele>271.3</ele>
        <time>2021-03-21T14:33:46Z</time>
      </trkpt>
      <trkpt lat="45.30026" lon="5.90842">
        <ele>273</ele>
        <time>2021-03-21T14:33:49Z</time>
      </trkpt>
      <trkpt lat="45.30035" lon="5.90824">
        <ele>273.1</ele>
        <time>2021-03-21T14:33:52Z</time>
      </trkpt>
      <trkpt lat="45.30043" lon="5.90813">
        <ele>275.8</ele>
        <time>2021-03-21T14:33:54Z</time>
      </trkpt>
      <trkpt lat="45.30054" lon="5.90791">
        <ele>274.7</ele>
        <time>2021-03-21T14:33:57Z</time>
      </trkpt>
      <trkpt lat="45.30065" lon="5.90771">
        <ele>273</ele>
        <time>2021-03-21T14:34:00Z</time>
      </trkpt>
      <trkpt lat="45.30079" lon="5.90766">
        <ele>274.1</ele>
        <time>2021-03-21T14:34:03Z</time>
      </trkpt>
      <trkpt lat="45.30089" lon="5.90773">
        <ele>273.5</ele>
        <time>2021-03-21T14:34:05Z</time>
      </trkpt>
      <trkpt lat="45.301" lon="5.90779">
        <ele>272.1</ele>
        <time>2021-03-21T14:34:07Z</time>
      </trkpt>
      <trkpt lat="45.30116" lon="5.90784">
        <ele>273.2</ele>
        <time>2021-03-21T14:34:10Z</time>
      </trkpt>
      <trkpt lat="45.30125" lon="5.90783">
        <ele>274</ele>
        <time>2021-03-21T14:34:12Z</time>
      </trkpt>
      <trkpt lat="45.30136" lon="5.90788">
        <ele>272.7</ele>
        <time>2021-03-21T14:34:15Z</time>
      </trkpt>
      <trkpt lat="45.30144" lon="5.90792">
        <ele>273</ele>
        <time>2021-03-21T14:34:17Z</time>
      </trkpt>
      <trkpt lat="45.3015" lon="5.90796">
        <ele>268.9</ele>
        <time>2021-03-21T14:34:19Z</time>
      </trkpt>
      <trkpt lat="45.30163" lon="5.908">
        <ele>270.7</ele>
        <time>2021-03-21T14:34:22Z</time>
      </trkpt>
      <trkpt lat="45.30173" lon="5.90801">
        <ele>270.3</ele>
        <time>2021-03-21T14:34:24Z</time>
      </trkpt>
      <trkpt lat="45.30186" lon="5.90801">
        <ele>269.7</ele>
        <time>2021-03-21T14:34:27Z</time>
      </trkpt>
      <trkpt lat="45.30197" lon="5.90803">
        <ele>273.2</ele>
        <time>2021-03-21T14:34:30Z</time>
      </trkpt>
      <trkpt lat="45.30204" lon="5.90805">
        <ele>273.3</ele>
        <time>2021-03-21T14:34:33Z</time>
      </trkpt>
      <trkpt lat="45.30211" lon="5.90806">
        <ele>273.5</ele>
        <time>2021-03-21T14:34:36Z</time>
      </trkpt>
      <trkpt lat="45.30222" lon="5.90803">
        <ele>275.4</ele>
        <time>2021-03-21T14:34:39Z</time>
      </trkpt>
      <trkpt lat="45.3023" lon="5.90789">
        <ele>273.4</ele>
        <time>2021-03-21T14:34:42Z</time>
      </trkpt>
      <trkpt lat="45.30234" lon="5.90769">
        <ele>275.8</ele>
        <time>2021-03-21T14:34:45Z</time>
      </trkpt>
      <trkpt lat="45.30237" lon="5.90756">
        <ele>278.1</ele>
        <time>2021-03-21T14:34:48Z</time>
      </trkpt>
      <trkpt lat="45.30243" lon="5.90745">
        <ele>279.6</ele>
        <time>2021-03-21T14:34:51Z</time>
      </trkpt>
      <trkpt lat="45.30248" lon="5.9074">
        <ele>279.6</ele>
        <time>2021-03-21T14:34:53Z</time>
      </trkpt>
      <trkpt lat="45.30254" lon="5.90732">
        <ele>279.1</ele>
        <time>2021-03-21T14:34:56Z</time>
      </trkpt>
      <trkpt lat="45.30258" lon="5.90726">
        <ele>280.3</ele>
        <time>2021-03-21T14:34:58Z</time>
      </trkpt>
      <trkpt lat="45.30261" lon="5.90722">
        <ele>278.6</ele>
        <time>2021-03-21T14:35:00Z</time>
      </trkpt>
      <trkpt lat="45.30262" lon="5.90714">
        <ele>281.8</ele>
        <time>2021-03-21T14:35:03Z</time>
      </trkpt>
      <trkpt lat="45.30262" lon="5.90708">
        <ele>278.3</ele>
        <time>2021-03-21T14:35:05Z</time>
      </trkpt>
      <trkpt lat="45.30263" lon="5.90701">
        <ele>279.4</ele>
        <time>2021-03-21T14:35:08Z</time>
      </trkpt>
      <trkpt lat="45.30265" lon="5.90695">
        <ele>279.3</ele>
        <time>2021-03-21T14:35:10Z</time>
      </trkpt>
      <trkpt lat="45.30266" lon="5.90691">
        <ele>280.1</ele>
        <time>2021-03-21T14:35:13Z</time>
      </trkpt>
      <trkpt lat="45.30265" lon="5.90692">
        <ele>283.2</ele>
        <time>2021-03-21T14:35:16Z</time>
      </trkpt>
      <trkpt lat="45.30262" lon="5.90692">
        <ele>280.2</ele>
        <time>2021-03-21T14:35:18Z</time>
      </trkpt>
      <trkpt lat="45.30257" lon="5.90692">
        <ele>279.2</ele>
        <time>2021-03-21T14:35:21Z</time>
      </trkpt>
      <trkpt lat="45.30253" lon="5.9069">
        <ele>275.6</ele>
        <time>2021-03-21T14:35:23Z</time>
      </trkpt>
      <trkpt lat="45.30249" lon="5.90689">
        <ele>274.4</ele>
        <time>2021-03-21T14:35:26Z</time>
      </trkpt>
      <trkpt lat="45.30247" lon="5.9069">
        <ele>276.4</ele>
        <time>2021-03-21T14:35:28Z</time>
      </trkpt>
      <trkpt lat="45.30248" lon="5.90693">
        <ele>279.4</ele>
        <time>2021-03-21T14:35:31Z</time>
      </trkpt>
      <trkpt lat="45.30248" lon="5.90695">
        <ele>279.5</ele>
        <time>2021-03-21T14:35:33Z</time>
      </trkpt>
      <trkpt lat="45.3025" lon="5.90695">
        <ele>277.7</ele>
        <time>2021-03-21T14:35:35Z</time>
      </trkpt>
      <trkpt lat="45.30251" lon="5.90694">
        <ele>274.9</ele>
        <time>2021-03-21T14:35:38Z</time>
      </trkpt>
      <trkpt lat="45.30251" lon="5.90692">
        <ele>277.9</ele>
        <time>2021-03-21T14:35:41Z</time>
      </trkpt>
      <trkpt lat="45.30252" lon="5.90691">
        <ele>279.1</ele>
        <time>2021-03-21T14:35:44Z</time>
      </trkpt>
      <trkpt lat="45.30252" lon="5.9069">
        <ele>281.5</ele>
        <time>2021-03-21T14:35:47Z</time>
      </trkpt>
      <trkpt lat="45.30253" lon="5.90691">
        <ele>278.3</ele>
        <time>2021-03-21T14:35:50Z</time>
      </trkpt>
      <trkpt lat="45.30253" lon="5.90691">
        <ele>281.9</ele>
        <time>2021-03-21T14:35:53Z</time>
      </trkpt>
      <trkpt lat="45.30253" lon="5.90691">
        <ele>279.7</ele>
        <time>2021-03-21T14:35:56Z</time>
      </trkpt>
      <trkpt lat="45.30253" lon="5.90691">
        <ele>279.2</ele>
        <time>2021-03-21T14:35:58Z</time>
      </trkpt>
      <trkpt lat="45.30253" lon="5.90691">
        <ele>278.4</ele>
        <time>2021-03-21T14:36:01Z</time>
      </trkpt>
      <trkpt lat="45.30254" lon="5.90692">
        <ele>279.1</ele>
        <time>2021-03-21T14:36:03Z</time>
      </trkpt>
      <trkpt lat="45.30254" lon="5.90692">
        <ele>280.3</ele>
        <time>2021-03-21T14:36:06Z</time>
      </trkpt>
      <trkpt lat="45.30254" lon="5.90693">
        <ele>276.4</ele>
        <time>2021-03-21T14:36:09Z</time>
      </trkpt>
      <trkpt lat="45.30254" lon="5.90693">
        <ele>279.3</ele>
        <time>2021-03-21T14:36:11Z</time>
      </trkpt>
      <trkpt lat="45.30255" lon="5.90693">
        <ele>276.3</ele>
        <time>2021-03-21T14:36:14Z</time>
      </trkpt>
      <trkpt lat="45.30255" lon="5.90693">
        <ele>277.8</ele>
        <time>2021-03-21T14:36:16Z</time>
      </trkpt>
      <trkpt lat="45.30255" lon="5.90693">
        <ele>278.7</ele>
        <time>2021-03-21T14:36:19Z</time>
      </trkpt>
      <trkpt lat="45.30255" lon="5.90693">
        <ele>277.3</ele>
        <time>2021-03-21T14:36:22Z</time>
      </trkpt>
      <trkpt lat="45.30255" lon="5.90693">
        <ele>275</ele>
        <time>2021-03-21T14:36:25Z</time>
      </trkpt>
      <trkpt lat="45.30255" lon="5.90693">
        <ele>277.7</ele>
        <time>2021-03-21T14:36:27Z</time>
      </trkpt>
      <trkpt lat="45.30255" lon="5.90693">
        <ele>278.4</ele>
        <time>2021-03-21T14:36:29Z</time>
      </trkpt>
      <trkpt lat="45.30255" lon="5.90693">
        <ele>277.2</ele>
        <time>2021-03-21T14:36:32Z</time>
      </trkpt>
      <trkpt lat="45.30255" lon="5.90693">
        <ele>274.5</ele>
        <time>2021-03-21T14:36:35Z</time>
      </trkpt>
      <trkpt lat="45.30255" lon="5.90693">
        <ele>276.3</ele>
        <time>2021-03-21T14:36:37Z</time>
      </trkpt>
      <trkpt lat="45.30255" lon="5.90693">
        <ele>280</ele>
        <time>2021-03-21T14:36:39Z</time>
      </trkpt>
      <trkpt lat="45.30255" lon="5.90693">
        <ele>276</ele>
        <time>2021-03-21T14:36:42Z</time>
      </trkpt>
      <trkpt lat="45.30255" lon="5.90693">
        <ele>279.1</ele>
        <time>2021-03-21T14:36:44Z</time>
      </trkpt>
      <trkpt lat="45.30255" lon="5.90693">
        <ele>276.5</ele>
        <time>2021-03-21T14:36:46Z</time>
      </trkpt>
      <trkpt lat="45.30255" lon="5.90693">
        <ele>273.4</ele>
        <time>2021-03-21T14:36:48Z</time>
      </trkpt>
      <trkpt lat="45.30255" lon="5.90693">
        <ele>280.6</ele>
        <time>2021-03-21T14:36:51Z</time>
      </trkpt>
      <trkpt lat="45.30255" lon="5.90693">
        <ele>279.2</ele>
        <time>2021-03-21T14:36:54Z</time>
      </trkpt>
      <trkpt lat="45.30255" lon="5.90693">
        <ele>277.4</ele>
        <time>2021-03-21T14:36:56Z</time>
      </trkpt>
      <trkpt lat="45.30255" lon="5.90693">
        <ele>278.5</ele>
        <time>2021-03-21T14:36:58Z</time>
      </trkpt>
      <trkpt lat="45.30255" lon="5.90693">
        <ele>275.8</ele>
        <time>2021-03-21T14:37:01Z</time>
      </trkpt>
      <trkpt lat="45.30255" lon="5.90693">
        <ele>274.6</ele>
        <time>2021-03-21T14:37:04Z</time>
      </trkpt>
      <trkpt lat="45.30255" lon="5.90693">
        <ele>276.2</ele>
        <time>2021-03-21T14:37:07Z</time>
      </trkpt>
      <trkpt lat="45.30255" lon="5.90694">
        <ele>276.7</ele>
        <time>2021-03-21T14:37:09Z</time>
      </trkpt>
      <trkpt lat="45.30255" lon="5.90694">
        <ele>279.5</ele>
        <time>2021-03-21T14:37:11Z</time>
      </trkpt>
      <trkpt lat="45.30255" lon="5.90694">
        <ele>279.1</ele>
        <time>2021-03-21T14:37:13Z</time>
      </trkpt>
      <trkpt lat="45.30255" lon="5.90694">
        <ele>278.6</ele>
        <time>2021-03-21T14:37:16Z</time>
      </trkpt>
      <trkpt lat="45.30255" lon="5.90694">
        <ele>275.5</ele>
        <time>2021-03-21T14:37:19Z</time>
      </trkpt>
      <trkpt lat="45.30255" lon="5.90694">
        <ele>275.7</ele>
        <time>2021-03-21T14:37:22Z</time>
      </trkpt>
      <trkpt lat="45.30255" lon="5.90694">
        <ele>278.4</ele>
        <time>2021-03-21T14:37:24Z</time>
      </trkpt>
      <trkpt lat="45.30255" lon="5.90694">
        <ele>276.1</ele>
        <time>2021-03-21T14:37:26Z</time>
      </trkpt>
      <trkpt lat="45.30255" lon="5.90694">
        <ele>279.9</ele>
        <time>2021-03-21T14:37:29Z</time>
      </trkpt>
      <trkpt lat="45.30255" lon="5.90694">
        <ele>278.7</ele>
        <time>2021-03-21T14:37:31Z</time>
      </trkpt>
      <trkpt lat="45.30255" lon="5.90694">
        <ele>278.3</ele>
        <time>2021-03-21T14:37:34Z</time>
      </trkpt>
      <trkpt lat="45.30255" lon="5.90694">
        <ele>276</ele>
        <time>2021-03-21T14:37:37Z</time>
      </trkpt>
      <trkpt lat="45.30255" lon="5.90694">
        <ele>280.2</ele>
        <time>2021-03-21T14:37:40Z</time>
      </trkpt>
      <trkpt lat="45.30255" lon="5.90694">
        <ele>272.1</ele>
        <time>2021-03-21T14:37:43Z</time>
      </trkpt>
      <trkpt lat="45.30255" lon="5.90694">
        <ele>276.4</ele>
        <time>2021-03-21T14:37:46Z</time>
      </trkpt>
      <trkpt lat="45.30255" lon="5.90694">
        <ele>280.1</ele>
        <time>2021-03-21T14:37:49Z</time>
      </trkpt>
      <trkpt lat="45.30255" lon="5.90694">
        <ele>277.5</ele>
        <time>2021-03-21T14:37:51Z</time>
      </trkpt>
      <trkpt lat="45.30255" lon="5.90694">
        <ele>277.3</ele>
        <time>2021-03-21T14:37:53Z</time>
      </trkpt>
      <trkpt lat="45.30255" lon="5.90694">
        <ele>279.4</ele>
        <time>2021-03-21T14:37:56Z</time>
      </trkpt>
      <trkpt lat="45.30255" lon="5.90694">
        <ele>276.8</ele>
        <time>2021-03-21T14:37:58Z</time>
      </trkpt>
      <trkpt lat="45.30255" lon="5.90694">
        <ele>280.5</ele>
        <time>2021-03-21T14:38:01Z</time>
      </trkpt>
      <trkpt lat="45.30255" lon="5.90693">
        <ele>276.2</ele>
        <time>2021-03-21T14:38:03Z</time>
      </trkpt>
      <trkpt lat="45.30255" lon="5.90693">
        <ele>276.9</ele>
        <time>2021-03-21T14:38:06Z</time>
      </trkpt>
      <trkpt lat="45.30255" lon="5.90693">
        <ele>276</ele>
        <time>2021-03-21T14:38:08Z</time>
      </trkpt>
      <trkpt lat="45.30255" lon="5.90693">
        <ele>279.6</ele>
        <time>2021-03-21T14:38:11Z</time>
      </trkpt>
      <trkpt lat="45.30255" lon="5.90693">
        <ele>273.5</ele>
        <time>2021-03-21T14:38:14Z</time>
      </trkpt>
      <trkpt lat="45.30255" lon="5.90693">
        <ele>277.7</ele>
        <time>2021-03-21T14:38:17Z</time>
      </trkpt>
      <trkpt lat="45.30255" lon="5.90693">
        <ele>278.9</ele>
        <time>2021-03-21T14:38:19Z</time>
      </trkpt>
      <trkpt lat="45.30255" lon="5.90693">
        <ele>279</ele>
        <time>2021-03-21T14:38:22Z</time>
      </trkpt>
      <trkpt lat="45.30255" lon="5.90693">
        <ele>278.1</ele>
        <time>2021-03-21T14:38:25Z</time>
      </trkpt>
      <trkpt lat="45.30255" lon="5.90693">
        <ele>277.8</ele>
        <time>2021-03-21T14:38:27Z</time>
      </trkpt>
      <trkpt lat="45.30255" lon="5.90693">
        <ele>286.5</ele>
        <time>2021-03-21T14:38:30Z</time>
      </trkpt>
      <trkpt lat="45.30255" lon="5.90693">
        <ele>278.4</ele>
        <time>2021-03-21T14:38:32Z</time>
      </trkpt>
      <trkpt lat="45.30255" lon="5.90693">
        <ele>276.4</ele>
        <time>2021-03-21T14:38:34Z</time>
      </trkpt>
      <trkpt lat="45.30255" lon="5.90693">
        <ele>281</ele>
        <time>2021-03-21T14:38:37Z</time>
      </trkpt>
      <trkpt lat="45.30255" lon="5.90693">
        <ele>278.2</ele>
        <time>2021-03-21T14:38:39Z</time>
      </trkpt>
      <trkpt lat="45.30255" lon="5.90693">
        <ele>277.7</ele>
        <time>2021-03-21T14:38:42Z</time>
      </trkpt>
      <trkpt lat="45.30255" lon="5.90693">
        <ele>277.3</ele>
        <time>2021-03-21T14:38:45Z</time>
      </trkpt>
      <trkpt lat="45.30255" lon="5.90693">
        <ele>277.4</ele>
        <time>2021-03-21T14:38:48Z</time>
      </trkpt>
      <trkpt lat="45.30255" lon="5.90693">
        <ele>276.9</ele>
        <time>2021-03-21T14:38:51Z</time>
      </trkpt>
      <trkpt lat="45.30255" lon="5.90693">
        <ele>274.3</ele>
        <time>2021-03-21T14:38:53Z</time>
      </trkpt>
      <trkpt lat="45.30255" lon="5.90693">
        <ele>276.2</ele>
        <time>2021-03-21T14:38:55Z</time>
      </trkpt>
      <trkpt lat="45.30255" lon="5.90693">
        <ele>279.8</ele>
        <time>2021-03-21T14:38:57Z</time>
      </trkpt>
      <trkpt lat="45.30255" lon="5.90693">
        <ele>274.1</ele>
        <time>2021-03-21T14:39:00Z</time>
      </trkpt>
      <trkpt lat="45.30255" lon="5.90693">
        <ele>278.6</ele>
        <time>2021-03-21T14:39:03Z</time>
      </trkpt>
      <trkpt lat="45.30255" lon="5.90693">
        <ele>278.2</ele>
        <time>2021-03-21T14:39:05Z</time>
      </trkpt>
      <trkpt lat="45.30255" lon="5.90693">
        <ele>281.1</ele>
        <time>2021-03-21T14:39:07Z</time>
      </trkpt>
      <trkpt lat="45.30255" lon="5.90693">
        <ele>276.6</ele>
        <time>2021-03-21T14:39:09Z</time>
      </trkpt>
      <trkpt lat="45.30255" lon="5.90693">
        <ele>273.8</ele>
        <time>2021-03-21T14:39:11Z</time>
      </trkpt>
      <trkpt lat="45.30255" lon="5.90693">
        <ele>279.9</ele>
        <time>2021-03-21T14:39:13Z</time>
      </trkpt>
      <trkpt lat="45.30255" lon="5.90693">
        <ele>279.6</ele>
        <time>2021-03-21T14:39:16Z</time>
      </trkpt>
      <trkpt lat="45.30255" lon="5.90693">
        <ele>277.4</ele>
        <time>2021-03-21T14:39:19Z</time>
      </trkpt>
      <trkpt lat="45.30255" lon="5.90693">
        <ele>279.2</ele>
        <time>2021-03-21T14:39:22Z</time>
      </trkpt>
      <trkpt lat="45.30255" lon="5.90693">
        <ele>280.6</ele>
        <time>2021-03-21T14:39:24Z</time>
      </trkpt>
      <trkpt lat="45.30255" lon="5.90693">
        <ele>276.1</ele>
        <time>2021-03-21T14:39:26Z</time>
      </trkpt>
      <trkpt lat="45.30255" lon="5.90693">
        <ele>276.9</ele>
        <time>2021-03-21T14:39:29Z</time>
      </trkpt>
      <trkpt lat="45.30255" lon="5.90693">
        <ele>280.5</ele>
        <time>2021-03-21T14:39:32Z</time>
      </trkpt>
      <trkpt lat="45.30255" lon="5.90693">
        <ele>276.6</ele>
        <time>2021-03-21T14:39:35Z</time>
      </trkpt>
      <trkpt lat="45.30255" lon="5.90693">
        <ele>277.2</ele>
        <time>2021-03-21T14:39:38Z</time>
      </trkpt>
      <trkpt lat="45.30255" lon="5.90693">
        <ele>278.7</ele>
        <time>2021-03-21T14:39:41Z</time>
      </trkpt>
      <trkpt lat="45.30255" lon="5.90693">
        <ele>275.5</ele>
        <time>2021-03-21T14:39:43Z</time>
      </trkpt>
      <trkpt lat="45.30255" lon="5.90693">
        <ele>277.9</ele>
        <time>2021-03-21T14:39:45Z</time>
      </trkpt>
      <trkpt lat="45.30255" lon="5.90693">
        <ele>279.4</ele>
        <time>2021-03-21T14:39:48Z</time>
      </trkpt>
      <trkpt lat="45.30255" lon="5.90693">
        <ele>276.2</ele>
        <time>2021-03-21T14:39:50Z</time>
      </trkpt>
      <trkpt lat="45.30255" lon="5.90693">
        <ele>281.4</ele>
        <time>2021-03-21T14:39:53Z</time>
      </trkpt>
      <trkpt lat="45.30255" lon="5.90693">
        <ele>276.2</ele>
        <time>2021-03-21T14:39:56Z</time>
      </trkpt>
      <trkpt lat="45.30255" lon="5.90693">
        <ele>276.5</ele>
        <time>2021-03-21T14:39:58Z</time>
      </trkpt>
      <trkpt lat="45.30255" lon="5.90693">
        <ele>276.3</ele>
        <time>2021-03-21T14:40:01Z</time>
      </trkpt>
      <trkpt lat="45.30255" lon="5.90693">
        <ele>277.3</ele>
        <time>2021-03-21T14:40:04Z</time>
      </trkpt>
      <trkpt lat="45.30255" lon="5.90693">
        <ele>277.4</ele>
        <time>2021-03-21T14:40:06Z</time>
      </trkpt>
      <trkpt lat="45.30255" lon="5.90693">
        <ele>276.4</ele>
        <time>2021-03-21T14:40:08Z</time>
      </trkpt>
      <trkpt lat="45.30255" lon="5.90693">
        <ele>275.5</ele>
        <time>2021-03-21T14:40:10Z</time>
      </trkpt>
      <trkpt lat="45.30255" lon="5.90693">
        <ele>278.5</ele>
        <time>2021-03-21T14:40:13Z</time>
      </trkpt>
      <trkpt lat="45.30255" lon="5.90693">
        <ele>278.9</ele>
        <time>2021-03-21T14:40:15Z</time>
      </trkpt>
      <trkpt lat="45.30255" lon="5.90693">
        <ele>277.6</ele>
        <time>2021-03-21T14:40:18Z</time>
      </trkpt>
      <trkpt lat="45.30255" lon="5.90693">
        <ele>279.3</ele>
        <time>2021-03-21T14:40:21Z</time>
      </trkpt>
      <trkpt lat="45.30255" lon="5.90693">
        <ele>276.2</ele>
        <time>2021-03-21T14:40:23Z</time>
      </trkpt>
      <trkpt lat="45.30255" lon="5.90693">
        <ele>280.9</ele>
        <time>2021-03-21T14:40:26Z</time>
      </trkpt>
      <trkpt lat="45.30255" lon="5.90693">
        <ele>278.7</ele>
        <time>2021-03-21T14:40:29Z</time>
      </trkpt>
      <trkpt lat="45.30255" lon="5.90693">
        <ele>275.6</ele>
        <time>2021-03-21T14:40:31Z</time>
      </trkpt>
      <trkpt lat="45.30255" lon="5.90693">
        <ele>277.4</ele>
        <time>2021-03-21T14:40:34Z</time>
      </trkpt>
      <trkpt lat="45.30255" lon="5.90693">
        <ele>277.2</ele>
        <time>2021-03-21T14:40:37Z</time>
      </trkpt>
      <trkpt lat="45.30255" lon="5.90693">
        <ele>276.9</ele>
        <time>2021-03-21T14:40:40Z</time>
      </trkpt>
      <trkpt lat="45.30255" lon="5.90693">
        <ele>280.4</ele>
        <time>2021-03-21T14:40:43Z</time>
      </trkpt>
      <trkpt lat="45.30255" lon="5.90693">
        <ele>276.3</ele>
        <time>2021-03-21T14:40:46Z</time>
      </trkpt>
      <trkpt lat="45.30255" lon="5.90693">
        <ele>278.3</ele>
        <time>2021-03-21T14:40:49Z</time>
      </trkpt>
      <trkpt lat="45.30255" lon="5.90693">
        <ele>277.8</ele>
        <time>2021-03-21T14:40:51Z</time>
      </trkpt>
      <trkpt lat="45.30255" lon="5.90693">
        <ele>275</ele>
        <time>2021-03-21T14:40:54Z</time>
      </trkpt>
      <trkpt lat="45.30255" lon="5.90693">
        <ele>276.9</ele>
        <time>2021-03-21T14:40:57Z</time>
      </trkpt>
      <trkpt lat="45.30255" lon="5.90693">
        <ele>277.4</ele>
        <time>2021-03-21T14:41:00Z</time>
      </trkpt>
      <trkpt lat="45.30255" lon="5.90693">
        <ele>277.7</ele>
        <time>2021-03-21T14:41:03Z</time>
      </trkpt>
      <trkpt lat="45.30255" lon="5.90693">
        <ele>276.1</ele>
        <time>2021-03-21T14:41:06Z</time>
      </trkpt>
      <trkpt lat="45.30255" lon="5.90693">
        <ele>277.2</ele>
        <time>2021-03-21T14:41:09Z</time>
      </trkpt>
      <trkpt lat="45.30255" lon="5.90693">
        <ele>278</ele>
        <time>2021-03-21T14:41:11Z</time>
      </trkpt>
      <trkpt lat="45.30255" lon="5.90693">
        <ele>275.7</ele>
        <time>2021-03-21T14:41:13Z</time>
      </trkpt>
      <trkpt lat="45.30255" lon="5.90693">
        <ele>276.3</ele>
        <time>2021-03-21T14:41:15Z</time>
      </trkpt>
      <trkpt lat="45.30255" lon="5.90693">
        <ele>278.1</ele>
        <time>2021-03-21T14:41:18Z</time>
      </trkpt>
      <trkpt lat="45.30255" lon="5.90693">
        <ele>277.2</ele>
        <time>2021-03-21T14:41:20Z</time>
      </trkpt>
      <trkpt lat="45.30255" lon="5.90693">
        <ele>274.9</ele>
        <time>2021-03-21T14:41:23Z</time>
      </trkpt>
      <trkpt lat="45.30255" lon="5.90693">
        <ele>277</ele>
        <time>2021-03-21T14:41:25Z</time>
      </trkpt>
      <trkpt lat="45.30255" lon="5.90693">
        <ele>275</ele>
        <time>2021-03-21T14:41:28Z</time>
      </trkpt>
      <trkpt lat="45.30255" lon="5.90693">
        <ele>277.4</ele>
        <time>2021-03-21T14:41:30Z</time>
      </trkpt>
      <trkpt lat="45.30255" lon="5.90693">
        <ele>275.2</ele>
        <time>2021-03-21T14:41:32Z</time>
      </trkpt>
      <trkpt lat="45.30255" lon="5.90693">
        <ele>274.6</ele>
        <time>2021-03-21T14:41:35Z</time>
      </trkpt>
      <trkpt lat="45.30255" lon="5.90693">
        <ele>277.2</ele>
        <time>2021-03-21T14:41:37Z</time>
      </trkpt>
      <trkpt lat="45.30255" lon="5.90693">
        <ele>279.4</ele>
        <time>2021-03-21T14:41:40Z</time>
      </trkpt>
      <trkpt lat="45.30255" lon="5.90693">
        <ele>282.8</ele>
        <time>2021-03-21T14:41:43Z</time>
      </trkpt>
      <trkpt lat="45.30255" lon="5.90693">
        <ele>281.5</ele>
        <time>2021-03-21T14:41:46Z</time>
      </trkpt>
      <trkpt lat="45.30255" lon="5.90693">
        <ele>278.3</ele>
        <time>2021-03-21T14:41:49Z</time>
      </trkpt>
      <trkpt lat="45.30255" lon="5.90693">
        <ele>281.1</ele>
        <time>2021-03-21T14:41:51Z</time>
      </trkpt>
      <trkpt lat="45.30255" lon="5.90693">
        <ele>279.9</ele>
        <time>2021-03-21T14:41:54Z</time>
      </trkpt>
      <trkpt lat="45.30255" lon="5.90693">
        <ele>278.9</ele>
        <time>2021-03-21T14:41:56Z</time>
      </trkpt>
      <trkpt lat="45.30255" lon="5.90693">
        <ele>281.7</ele>
        <time>2021-03-21T14:41:59Z</time>
      </trkpt>
      <trkpt lat="45.30255" lon="5.90693">
        <ele>275.3</ele>
        <time>2021-03-21T14:42:02Z</time>
      </trkpt>
      <trkpt lat="45.30255" lon="5.90694">
        <ele>277.2</ele>
        <time>2021-03-21T14:42:05Z</time>
      </trkpt>
      <trkpt lat="45.30255" lon="5.90694">
        <ele>275.6</ele>
        <time>2021-03-21T14:42:08Z</time>
      </trkpt>
      <trkpt lat="45.30255" lon="5.90694">
        <ele>277.8</ele>
        <time>2021-03-21T14:42:11Z</time>
      </trkpt>
      <trkpt lat="45.30255" lon="5.90694">
        <ele>273.7</ele>
        <time>2021-03-21T14:42:13Z</time>
      </trkpt>
      <trkpt lat="45.30255" lon="5.90694">
        <ele>279</ele>
        <time>2021-03-21T14:42:16Z</time>
      </trkpt>
      <trkpt lat="45.30255" lon="5.90694">
        <ele>272.5</ele>
        <time>2021-03-21T14:42:18Z</time>
      </trkpt>
      <trkpt lat="45.30255" lon="5.90694">
        <ele>278.6</ele>
        <time>2021-03-21T14:42:21Z</time>
      </trkpt>
      <trkpt lat="45.30255" lon="5.90694">
        <ele>277.3</ele>
        <time>2021-03-21T14:42:24Z</time>
      </trkpt>
      <trkpt lat="45.30255" lon="5.90694">
        <ele>280.2</ele>
        <time>2021-03-21T14:42:26Z</time>
      </trkpt>
      <trkpt lat="45.30255" lon="5.90694">
        <ele>280.8</ele>
        <time>2021-03-21T14:42:28Z</time>
      </trkpt>
      <trkpt lat="45.30255" lon="5.90694">
        <ele>278.3</ele>
        <time>2021-03-21T14:42:30Z</time>
      </trkpt>
      <trkpt lat="45.30255" lon="5.90694">
        <ele>277.7</ele>
        <time>2021-03-21T14:42:33Z</time>
      </trkpt>
      <trkpt lat="45.30255" lon="5.90694">
        <ele>271.2</ele>
        <time>2021-03-21T14:42:35Z</time>
      </trkpt>
      <trkpt lat="45.30255" lon="5.90694">
        <ele>275</ele>
        <time>2021-03-21T14:42:38Z</time>
      </trkpt>
      <trkpt lat="45.30255" lon="5.90694">
        <ele>274.8</ele>
        <time>2021-03-21T14:42:41Z</time>
      </trkpt>
      <trkpt lat="45.30256" lon="5.90694">
        <ele>276.9</ele>
        <time>2021-03-21T14:42:43Z</time>
      </trkpt>
      <trkpt lat="45.30256" lon="5.90694">
        <ele>277.5</ele>
        <time>2021-03-21T14:42:45Z</time>
      </trkpt>
      <trkpt lat="45.30255" lon="5.90694">
        <ele>276.1</ele>
        <time>2021-03-21T14:42:47Z</time>
      </trkpt>
      <trkpt lat="45.30255" lon="5.90694">
        <ele>277.5</ele>
        <time>2021-03-21T14:42:50Z</time>
      </trkpt>
      <trkpt lat="45.30255" lon="5.90694">
        <ele>274.8</ele>
        <time>2021-03-21T14:42:52Z</time>
      </trkpt>
      <trkpt lat="45.30255" lon="5.90694">
        <ele>280.5</ele>
        <time>2021-03-21T14:42:54Z</time>
      </trkpt>
      <trkpt lat="45.30256" lon="5.90694">
        <ele>277.1</ele>
        <time>2021-03-21T14:42:57Z</time>
      </trkpt>
      <trkpt lat="45.30256" lon="5.90694">
        <ele>274.4</ele>
        <time>2021-03-21T14:43:00Z</time>
      </trkpt>
      <trkpt lat="45.30255" lon="5.90694">
        <ele>275.9</ele>
        <time>2021-03-21T14:43:03Z</time>
      </trkpt>
      <trkpt lat="45.30255" lon="5.90694">
        <ele>277.2</ele>
        <time>2021-03-21T14:43:05Z</time>
      </trkpt>
      <trkpt lat="45.30255" lon="5.90694">
        <ele>277</ele>
        <time>2021-03-21T14:43:07Z</time>
      </trkpt>
      <trkpt lat="45.30256" lon="5.90694">
        <ele>279</ele>
        <time>2021-03-21T14:43:09Z</time>
      </trkpt>
      <trkpt lat="45.30256" lon="5.90694">
        <ele>277</ele>
        <time>2021-03-21T14:43:11Z</time>
      </trkpt>
      <trkpt lat="45.30256" lon="5.90694">
        <ele>281.2</ele>
        <time>2021-03-21T14:43:13Z</time>
      </trkpt>
      <trkpt lat="45.30256" lon="5.90694">
        <ele>272.2</ele>
        <time>2021-03-21T14:43:15Z</time>
      </trkpt>
      <trkpt lat="45.30256" lon="5.90694">
        <ele>276.9</ele>
        <time>2021-03-21T14:43:18Z</time>
      </trkpt>
      <trkpt lat="45.30256" lon="5.90694">
        <ele>278.2</ele>
        <time>2021-03-21T14:43:21Z</time>
      </trkpt>
      <trkpt lat="45.30256" lon="5.90694">
        <ele>274.8</ele>
        <time>2021-03-21T14:43:24Z</time>
      </trkpt>
      <trkpt lat="45.30256" lon="5.90694">
        <ele>278</ele>
        <time>2021-03-21T14:43:27Z</time>
      </trkpt>
      <trkpt lat="45.30256" lon="5.90694">
        <ele>277.2</ele>
        <time>2021-03-21T14:43:29Z</time>
      </trkpt>
      <trkpt lat="45.30256" lon="5.90694">
        <ele>276.8</ele>
        <time>2021-03-21T14:43:32Z</time>
      </trkpt>
      <trkpt lat="45.30256" lon="5.90694">
        <ele>278.7</ele>
        <time>2021-03-21T14:43:34Z</time>
      </trkpt>
      <trkpt lat="45.30256" lon="5.90694">
        <ele>276.5</ele>
        <time>2021-03-21T14:43:37Z</time>
      </trkpt>
      <trkpt lat="45.30256" lon="5.90694">
        <ele>277.8</ele>
        <time>2021-03-21T14:43:39Z</time>
      </trkpt>
      <trkpt lat="45.30256" lon="5.90694">
        <ele>274.5</ele>
        <time>2021-03-21T14:43:42Z</time>
      </trkpt>
      <trkpt lat="45.30256" lon="5.90695">
        <ele>276.5</ele>
        <time>2021-03-21T14:43:45Z</time>
      </trkpt>
      <trkpt lat="45.30256" lon="5.90695">
        <ele>275.4</ele>
        <time>2021-03-21T14:43:47Z</time>
      </trkpt>
      <trkpt lat="45.30256" lon="5.90695">
        <ele>272.5</ele>
        <time>2021-03-21T14:43:50Z</time>
      </trkpt>
      <trkpt lat="45.30256" lon="5.90695">
        <ele>273.4</ele>
        <time>2021-03-21T14:43:52Z</time>
      </trkpt>
      <trkpt lat="45.30256" lon="5.90695">
        <ele>273.3</ele>
        <time>2021-03-21T14:43:55Z</time>
      </trkpt>
      <trkpt lat="45.30256" lon="5.90695">
        <ele>279.5</ele>
        <time>2021-03-21T14:43:57Z</time>
      </trkpt>
      <trkpt lat="45.30256" lon="5.90695">
        <ele>278.4</ele>
        <time>2021-03-21T14:44:00Z</time>
      </trkpt>
      <trkpt lat="45.30256" lon="5.90695">
        <ele>273.9</ele>
        <time>2021-03-21T14:44:02Z</time>
      </trkpt>
      <trkpt lat="45.30256" lon="5.90695">
        <ele>275.7</ele>
        <time>2021-03-21T14:44:05Z</time>
      </trkpt>
      <trkpt lat="45.30256" lon="5.90695">
        <ele>277.4</ele>
        <time>2021-03-21T14:44:08Z</time>
      </trkpt>
      <trkpt lat="45.30256" lon="5.90695">
        <ele>277.6</ele>
        <time>2021-03-21T14:44:10Z</time>
      </trkpt>
      <trkpt lat="45.30256" lon="5.90695">
        <ele>278.6</ele>
        <time>2021-03-21T14:44:13Z</time>
      </trkpt>
      <trkpt lat="45.30256" lon="5.90695">
        <ele>276</ele>
        <time>2021-03-21T14:44:16Z</time>
      </trkpt>
      <trkpt lat="45.30256" lon="5.90695">
        <ele>273</ele>
        <time>2021-03-21T14:44:18Z</time>
      </trkpt>
      <trkpt lat="45.30256" lon="5.90695">
        <ele>275.2</ele>
        <time>2021-03-21T14:44:21Z</time>
      </trkpt>
      <trkpt lat="45.30256" lon="5.90695">
        <ele>275.3</ele>
        <time>2021-03-21T14:44:24Z</time>
      </trkpt>
      <trkpt lat="45.30256" lon="5.90695">
        <ele>277.4</ele>
        <time>2021-03-21T14:44:27Z</time>
      </trkpt>
      <trkpt lat="45.30256" lon="5.90695">
        <ele>278.5</ele>
        <time>2021-03-21T14:44:30Z</time>
      </trkpt>
      <trkpt lat="45.30256" lon="5.90695">
        <ele>274.8</ele>
        <time>2021-03-21T14:44:33Z</time>
      </trkpt>
      <trkpt lat="45.30256" lon="5.90695">
        <ele>278.9</ele>
        <time>2021-03-21T14:44:36Z</time>
      </trkpt>
      <trkpt lat="45.30256" lon="5.90695">
        <ele>277.9</ele>
        <time>2021-03-21T14:44:38Z</time>
      </trkpt>
      <trkpt lat="45.30256" lon="5.90695">
        <ele>274.6</ele>
        <time>2021-03-21T14:44:40Z</time>
      </trkpt>
      <trkpt lat="45.30256" lon="5.90695">
        <ele>274.9</ele>
        <time>2021-03-21T14:44:43Z</time>
      </trkpt>
      <trkpt lat="45.30256" lon="5.90695">
        <ele>276</ele>
        <time>2021-03-21T14:44:45Z</time>
      </trkpt>
      <trkpt lat="45.30256" lon="5.90695">
        <ele>277</ele>
        <time>2021-03-21T14:44:48Z</time>
      </trkpt>
      <trkpt lat="45.30256" lon="5.90695">
        <ele>274.7</ele>
        <time>2021-03-21T14:44:50Z</time>
      </trkpt>
      <trkpt lat="45.30256" lon="5.90695">
        <ele>276.1</ele>
        <time>2021-03-21T14:44:52Z</time>
      </trkpt>
      <trkpt lat="45.30256" lon="5.90695">
        <ele>273.6</ele>
        <time>2021-03-21T14:44:55Z</time>
      </trkpt>
      <trkpt lat="45.30256" lon="5.90695">
        <ele>275.8</ele>
        <time>2021-03-21T14:44:58Z</time>
      </trkpt>
      <trkpt lat="45.30256" lon="5.90695">
        <ele>274.6</ele>
        <time>2021-03-21T14:45:01Z</time>
      </trkpt>
      <trkpt lat="45.30256" lon="5.90695">
        <ele>275.6</ele>
        <time>2021-03-21T14:45:04Z</time>
      </trkpt>
      <trkpt lat="45.30256" lon="5.90695">
        <ele>276.8</ele>
        <time>2021-03-21T14:45:07Z</time>
      </trkpt>
      <trkpt lat="45.30256" lon="5.90695">
        <ele>275.3</ele>
        <time>2021-03-21T14:45:10Z</time>
      </trkpt>
      <trkpt lat="45.30256" lon="5.90695">
        <ele>276.5</ele>
        <time>2021-03-21T14:45:13Z</time>
      </trkpt>
      <trkpt lat="45.30256" lon="5.90695">
        <ele>275</ele>
        <time>2021-03-21T14:45:16Z</time>
      </trkpt>
      <trkpt lat="45.30256" lon="5.90695">
        <ele>277.5</ele>
        <time>2021-03-21T14:45:18Z</time>
      </trkpt>
      <trkpt lat="45.30256" lon="5.90695">
        <ele>273</ele>
        <time>2021-03-21T14:45:21Z</time>
      </trkpt>
      <trkpt lat="45.30256" lon="5.90695">
        <ele>275.8</ele>
        <time>2021-03-21T14:45:23Z</time>
      </trkpt>
      <trkpt lat="45.30256" lon="5.90695">
        <ele>275.5</ele>
        <time>2021-03-21T14:45:25Z</time>
      </trkpt>
      <trkpt lat="45.30256" lon="5.90695">
        <ele>278.7</ele>
        <time>2021-03-21T14:45:28Z</time>
      </trkpt>
      <trkpt lat="45.30256" lon="5.90695">
        <ele>273.6</ele>
        <time>2021-03-21T14:45:31Z</time>
      </trkpt>
      <trkpt lat="45.30256" lon="5.90695">
        <ele>278</ele>
        <time>2021-03-21T14:45:34Z</time>
      </trkpt>
      <trkpt lat="45.30256" lon="5.90695">
        <ele>277</ele>
        <time>2021-03-21T14:45:36Z</time>
      </trkpt>
      <trkpt lat="45.30256" lon="5.90695">
        <ele>274.7</ele>
        <time>2021-03-21T14:45:39Z</time>
      </trkpt>
      <trkpt lat="45.30256" lon="5.90695">
        <ele>276.9</ele>
        <time>2021-03-21T14:45:41Z</time>
      </trkpt>
      <trkpt lat="45.30256" lon="5.90695">
        <ele>275.4</ele>
        <time>2021-03-21T14:45:43Z</time>
      </trkpt>
      <trkpt lat="45.30256" lon="5.90695">
        <ele>276.4</ele>
        <time>2021-03-21T14:45:46Z</time>
      </trkpt>
      <trkpt lat="45.30256" lon="5.90695">
        <ele>272.4</ele>
        <time>2021-03-21T14:45:48Z</time>
      </trkpt>
      <trkpt lat="45.30256" lon="5.90695">
        <ele>276.4</ele>
        <time>2021-03-21T14:45:51Z</time>
      </trkpt>
      <trkpt lat="45.30256" lon="5.90695">
        <ele>276.8</ele>
        <time>2021-03-21T14:45:54Z</time>
      </trkpt>
      <trkpt lat="45.30256" lon="5.90695">
        <ele>276.1</ele>
        <time>2021-03-21T14:45:57Z</time>
      </trkpt>
      <trkpt lat="45.30256" lon="5.90695">
        <ele>276</ele>
        <time>2021-03-21T14:45:59Z</time>
      </trkpt>
      <trkpt lat="45.30256" lon="5.90695">
        <ele>278.5</ele>
        <time>2021-03-21T14:46:02Z</time>
      </trkpt>
      <trkpt lat="45.30256" lon="5.90695">
        <ele>275.8</ele>
        <time>2021-03-21T14:46:05Z</time>
      </trkpt>
      <trkpt lat="45.30256" lon="5.90695">
        <ele>277.5</ele>
        <time>2021-03-21T14:46:07Z</time>
      </trkpt>
      <trkpt lat="45.30256" lon="5.90695">
        <ele>277.9</ele>
        <time>2021-03-21T14:46:10Z</time>
      </trkpt>
      <trkpt lat="45.30256" lon="5.90695">
        <ele>274.7</ele>
        <time>2021-03-21T14:46:12Z</time>
      </trkpt>
      <trkpt lat="45.30256" lon="5.90695">
        <ele>276.9</ele>
        <time>2021-03-21T14:46:15Z</time>
      </trkpt>
      <trkpt lat="45.30256" lon="5.90695">
        <ele>273.1</ele>
        <time>2021-03-21T14:46:18Z</time>
      </trkpt>
      <trkpt lat="45.30256" lon="5.90695">
        <ele>279.9</ele>
        <time>2021-03-21T14:46:21Z</time>
      </trkpt>
      <trkpt lat="45.30256" lon="5.90695">
        <ele>274.7</ele>
        <time>2021-03-21T14:46:23Z</time>
      </trkpt>
      <trkpt lat="45.30256" lon="5.90695">
        <ele>278.3</ele>
        <time>2021-03-21T14:46:25Z</time>
      </trkpt>
      <trkpt lat="45.30256" lon="5.90695">
        <ele>277.4</ele>
        <time>2021-03-21T14:46:28Z</time>
      </trkpt>
      <trkpt lat="45.30256" lon="5.90695">
        <ele>277.6</ele>
        <time>2021-03-21T14:46:30Z</time>
      </trkpt>
      <trkpt lat="45.30256" lon="5.90695">
        <ele>276.6</ele>
        <time>2021-03-21T14:46:32Z</time>
      </trkpt>
      <trkpt lat="45.30256" lon="5.90695">
        <ele>276</ele>
        <time>2021-03-21T14:46:35Z</time>
      </trkpt>
      <trkpt lat="45.30256" lon="5.90695">
        <ele>274.8</ele>
        <time>2021-03-21T14:46:38Z</time>
      </trkpt>
      <trkpt lat="45.30256" lon="5.90695">
        <ele>274.9</ele>
        <time>2021-03-21T14:46:41Z</time>
      </trkpt>
      <trkpt lat="45.30256" lon="5.90695">
        <ele>276.1</ele>
        <time>2021-03-21T14:46:44Z</time>
      </trkpt>
      <trkpt lat="45.30256" lon="5.90695">
        <ele>277</ele>
        <time>2021-03-21T14:46:46Z</time>
      </trkpt>
      <trkpt lat="45.30256" lon="5.90695">
        <ele>276</ele>
        <time>2021-03-21T14:46:48Z</time>
      </trkpt>
      <trkpt lat="45.30256" lon="5.90695">
        <ele>276.8</ele>
        <time>2021-03-21T14:46:51Z</time>
      </trkpt>
      <trkpt lat="45.30256" lon="5.90695">
        <ele>276.2</ele>
        <time>2021-03-21T14:46:54Z</time>
      </trkpt>
      <trkpt lat="45.30256" lon="5.90695">
        <ele>277.2</ele>
        <time>2021-03-21T14:46:57Z</time>
      </trkpt>
      <trkpt lat="45.30256" lon="5.90695">
        <ele>276.8</ele>
        <time>2021-03-21T14:46:59Z</time>
      </trkpt>
      <trkpt lat="45.30256" lon="5.90695">
        <ele>275.1</ele>
        <time>2021-03-21T14:47:02Z</time>
      </trkpt>
      <trkpt lat="45.30256" lon="5.90695">
        <ele>276.3</ele>
        <time>2021-03-21T14:47:05Z</time>
      </trkpt>
      <trkpt lat="45.30256" lon="5.90695">
        <ele>275.6</ele>
        <time>2021-03-21T14:47:08Z</time>
      </trkpt>
      <trkpt lat="45.30256" lon="5.90695">
        <ele>275.7</ele>
        <time>2021-03-21T14:47:11Z</time>
      </trkpt>
      <trkpt lat="45.30256" lon="5.90695">
        <ele>275.2</ele>
        <time>2021-03-21T14:47:14Z</time>
      </trkpt>
      <trkpt lat="45.30256" lon="5.90695">
        <ele>276.1</ele>
        <time>2021-03-21T14:47:17Z</time>
      </trkpt>
      <trkpt lat="45.30256" lon="5.90695">
        <ele>276.4</ele>
        <time>2021-03-21T14:47:20Z</time>
      </trkpt>
      <trkpt lat="45.30256" lon="5.90695">
        <ele>277.3</ele>
        <time>2021-03-21T14:47:23Z</time>
      </trkpt>
      <trkpt lat="45.30256" lon="5.90695">
        <ele>276.7</ele>
        <time>2021-03-21T14:47:25Z</time>
      </trkpt>
      <trkpt lat="45.30256" lon="5.90695">
        <ele>274.7</ele>
        <time>2021-03-21T14:47:28Z</time>
      </trkpt>
      <trkpt lat="45.30256" lon="5.90695">
        <ele>275.9</ele>
        <time>2021-03-21T14:47:31Z</time>
      </trkpt>
      <trkpt lat="45.30256" lon="5.90695">
        <ele>275.9</ele>
        <time>2021-03-21T14:47:33Z</time>
      </trkpt>
      <trkpt lat="45.30256" lon="5.90695">
        <ele>274</ele>
        <time>2021-03-21T14:47:35Z</time>
      </trkpt>
      <trkpt lat="45.30256" lon="5.90695">
        <ele>277.1</ele>
        <time>2021-03-21T14:47:38Z</time>
      </trkpt>
      <trkpt lat="45.30256" lon="5.90695">
        <ele>274.8</ele>
        <time>2021-03-21T14:47:41Z</time>
      </trkpt>
      <trkpt lat="45.30256" lon="5.90695">
        <ele>277.4</ele>
        <time>2021-03-21T14:47:43Z</time>
      </trkpt>
      <trkpt lat="45.30256" lon="5.90695">
        <ele>279</ele>
        <time>2021-03-21T14:47:46Z</time>
      </trkpt>
      <trkpt lat="45.30256" lon="5.90695">
        <ele>275.1</ele>
        <time>2021-03-21T14:47:49Z</time>
      </trkpt>
      <trkpt lat="45.30256" lon="5.90695">
        <ele>274.5</ele>
        <time>2021-03-21T14:47:51Z</time>
      </trkpt>
      <trkpt lat="45.30256" lon="5.90695">
        <ele>274.8</ele>
        <time>2021-03-21T14:47:53Z</time>
      </trkpt>
      <trkpt lat="45.30256" lon="5.90695">
        <ele>274.6</ele>
        <time>2021-03-21T14:47:56Z</time>
      </trkpt>
      <trkpt lat="45.30256" lon="5.90695">
        <ele>279.1</ele>
        <time>2021-03-21T14:47:59Z</time>
      </trkpt>
      <trkpt lat="45.30256" lon="5.90695">
        <ele>275.8</ele>
        <time>2021-03-21T14:48:01Z</time>
      </trkpt>
      <trkpt lat="45.30256" lon="5.90695">
        <ele>273.4</ele>
        <time>2021-03-21T14:48:04Z</time>
      </trkpt>
      <trkpt lat="45.30256" lon="5.90695">
        <ele>275.3</ele>
        <time>2021-03-21T14:48:07Z</time>
      </trkpt>
      <trkpt lat="45.30256" lon="5.90695">
        <ele>276.2</ele>
        <time>2021-03-21T14:48:09Z</time>
      </trkpt>
      <trkpt lat="45.30256" lon="5.90695">
        <ele>279.4</ele>
        <time>2021-03-21T14:48:11Z</time>
      </trkpt>
      <trkpt lat="45.30256" lon="5.90695">
        <ele>274.6</ele>
        <time>2021-03-21T14:48:14Z</time>
      </trkpt>
      <trkpt lat="45.30256" lon="5.90695">
        <ele>275</ele>
        <time>2021-03-21T14:48:16Z</time>
      </trkpt>
      <trkpt lat="45.30256" lon="5.90695">
        <ele>275.4</ele>
        <time>2021-03-21T14:48:18Z</time>
      </trkpt>
      <trkpt lat="45.30256" lon="5.90695">
        <ele>275.8</ele>
        <time>2021-03-21T14:48:20Z</time>
      </trkpt>
      <trkpt lat="45.30256" lon="5.90695">
        <ele>275.1</ele>
        <time>2021-03-21T14:48:23Z</time>
      </trkpt>
      <trkpt lat="45.30256" lon="5.90695">
        <ele>275</ele>
        <time>2021-03-21T14:48:26Z</time>
      </trkpt>
      <trkpt lat="45.30256" lon="5.90695">
        <ele>275.1</ele>
        <time>2021-03-21T14:48:28Z</time>
      </trkpt>
      <trkpt lat="45.30256" lon="5.90695">
        <ele>274.8</ele>
        <time>2021-03-21T14:48:31Z</time>
      </trkpt>
      <trkpt lat="45.30256" lon="5.90695">
        <ele>276</ele>
        <time>2021-03-21T14:48:34Z</time>
      </trkpt>
      <trkpt lat="45.30256" lon="5.90695">
        <ele>277.9</ele>
        <time>2021-03-21T14:48:36Z</time>
      </trkpt>
      <trkpt lat="45.30256" lon="5.90695">
        <ele>276.1</ele>
        <time>2021-03-21T14:48:39Z</time>
      </trkpt>
      <trkpt lat="45.30256" lon="5.90695">
        <ele>274.2</ele>
        <time>2021-03-21T14:48:42Z</time>
      </trkpt>
      <trkpt lat="45.30257" lon="5.90695">
        <ele>277.3</ele>
        <time>2021-03-21T14:48:45Z</time>
      </trkpt>
      <trkpt lat="45.30257" lon="5.90695">
        <ele>276.8</ele>
        <time>2021-03-21T14:48:48Z</time>
      </trkpt>
      <trkpt lat="45.30257" lon="5.90695">
        <ele>278.2</ele>
        <time>2021-03-21T14:48:51Z</time>
      </trkpt>
      <trkpt lat="45.30257" lon="5.90695">
        <ele>278.2</ele>
        <time>2021-03-21T14:48:54Z</time>
      </trkpt>
      <trkpt lat="45.30257" lon="5.90695">
        <ele>277.1</ele>
        <time>2021-03-21T14:48:57Z</time>
      </trkpt>
      <trkpt lat="45.30257" lon="5.90695">
        <ele>274.6</ele>
        <time>2021-03-21T14:49:00Z</time>
      </trkpt>
      <trkpt lat="45.30257" lon="5.90695">
        <ele>276.8</ele>
        <time>2021-03-21T14:49:02Z</time>
      </trkpt>
      <trkpt lat="45.30257" lon="5.90695">
        <ele>274.1</ele>
        <time>2021-03-21T14:49:05Z</time>
      </trkpt>
      <trkpt lat="45.30257" lon="5.90695">
        <ele>276.7</ele>
        <time>2021-03-21T14:49:08Z</time>
      </trkpt>
      <trkpt lat="45.30257" lon="5.90695">
        <ele>274</ele>
        <time>2021-03-21T14:49:10Z</time>
      </trkpt>
      <trkpt lat="45.30257" lon="5.90695">
        <ele>275.6</ele>
        <time>2021-03-21T14:49:13Z</time>
      </trkpt>
      <trkpt lat="45.30257" lon="5.90695">
        <ele>271.4</ele>
        <time>2021-03-21T14:49:15Z</time>
      </trkpt>
      <trkpt lat="45.30257" lon="5.90695">
        <ele>277.7</ele>
        <time>2021-03-21T14:49:18Z</time>
      </trkpt>
      <trkpt lat="45.30257" lon="5.90696">
        <ele>276.4</ele>
        <time>2021-03-21T14:49:21Z</time>
      </trkpt>
      <trkpt lat="45.30257" lon="5.90696">
        <ele>275.1</ele>
        <time>2021-03-21T14:49:24Z</time>
      </trkpt>
      <trkpt lat="45.30257" lon="5.90696">
        <ele>274.9</ele>
        <time>2021-03-21T14:49:26Z</time>
      </trkpt>
      <trkpt lat="45.30257" lon="5.90696">
        <ele>274</ele>
        <time>2021-03-21T14:49:29Z</time>
      </trkpt>
      <trkpt lat="45.30257" lon="5.90696">
        <ele>274</ele>
        <time>2021-03-21T14:49:32Z</time>
      </trkpt>
      <trkpt lat="45.30257" lon="5.90696">
        <ele>277.9</ele>
        <time>2021-03-21T14:49:34Z</time>
      </trkpt>
      <trkpt lat="45.30257" lon="5.90696">
        <ele>275.1</ele>
        <time>2021-03-21T14:49:37Z</time>
      </trkpt>
      <trkpt lat="45.30257" lon="5.90696">
        <ele>277.4</ele>
        <time>2021-03-21T14:49:39Z</time>
      </trkpt>
      <trkpt lat="45.30257" lon="5.90696">
        <ele>275.3</ele>
        <time>2021-03-21T14:49:41Z</time>
      </trkpt>
      <trkpt lat="45.30257" lon="5.90696">
        <ele>275.3</ele>
        <time>2021-03-21T14:49:44Z</time>
      </trkpt>
      <trkpt lat="45.30257" lon="5.90696">
        <ele>275.8</ele>
        <time>2021-03-21T14:49:47Z</time>
      </trkpt>
      <trkpt lat="45.30257" lon="5.90696">
        <ele>275.2</ele>
        <time>2021-03-21T14:49:50Z</time>
      </trkpt>
      <trkpt lat="45.30257" lon="5.90696">
        <ele>275.7</ele>
        <time>2021-03-21T14:49:53Z</time>
      </trkpt>
      <trkpt lat="45.30257" lon="5.90696">
        <ele>274.5</ele>
        <time>2021-03-21T14:49:56Z</time>
      </trkpt>
      <trkpt lat="45.30257" lon="5.90696">
        <ele>275.7</ele>
        <time>2021-03-21T14:49:59Z</time>
      </trkpt>
      <trkpt lat="45.30257" lon="5.90696">
        <ele>273.3</ele>
        <time>2021-03-21T14:50:02Z</time>
      </trkpt>
      <trkpt lat="45.30257" lon="5.90696">
        <ele>275.9</ele>
        <time>2021-03-21T14:50:05Z</time>
      </trkpt>
      <trkpt lat="45.30257" lon="5.90696">
        <ele>277.1</ele>
        <time>2021-03-21T14:50:07Z</time>
      </trkpt>
      <trkpt lat="45.30257" lon="5.90696">
        <ele>274.1</ele>
        <time>2021-03-21T14:50:10Z</time>
      </trkpt>
      <trkpt lat="45.30257" lon="5.90696">
        <ele>274.8</ele>
        <time>2021-03-21T14:50:12Z</time>
      </trkpt>
      <trkpt lat="45.30257" lon="5.90696">
        <ele>275.3</ele>
        <time>2021-03-21T14:50:15Z</time>
      </trkpt>
      <trkpt lat="45.30257" lon="5.90696">
        <ele>276.1</ele>
        <time>2021-03-21T14:50:17Z</time>
      </trkpt>
      <trkpt lat="45.30257" lon="5.90696">
        <ele>275.3</ele>
        <time>2021-03-21T14:50:20Z</time>
      </trkpt>
      <trkpt lat="45.30257" lon="5.90696">
        <ele>276.8</ele>
        <time>2021-03-21T14:50:23Z</time>
      </trkpt>
      <trkpt lat="45.30257" lon="5.90696">
        <ele>273.2</ele>
        <time>2021-03-21T14:50:25Z</time>
      </trkpt>
      <trkpt lat="45.30257" lon="5.90696">
        <ele>275.8</ele>
        <time>2021-03-21T14:50:28Z</time>
      </trkpt>
      <trkpt lat="45.30257" lon="5.90696">
        <ele>276</ele>
        <time>2021-03-21T14:50:30Z</time>
      </trkpt>
      <trkpt lat="45.30257" lon="5.90696">
        <ele>272.8</ele>
        <time>2021-03-21T14:50:33Z</time>
      </trkpt>
      <trkpt lat="45.30257" lon="5.90696">
        <ele>275.4</ele>
        <time>2021-03-21T14:50:35Z</time>
      </trkpt>
      <trkpt lat="45.30257" lon="5.90696">
        <ele>274.2</ele>
        <time>2021-03-21T14:50:38Z</time>
      </trkpt>
      <trkpt lat="45.30257" lon="5.90696">
        <ele>274.7</ele>
        <time>2021-03-21T14:50:40Z</time>
      </trkpt>
      <trkpt lat="45.30257" lon="5.90696">
        <ele>274.3</ele>
        <time>2021-03-21T14:50:43Z</time>
      </trkpt>
      <trkpt lat="45.30257" lon="5.90696">
        <ele>275.2</ele>
        <time>2021-03-21T14:50:45Z</time>
      </trkpt>
      <trkpt lat="45.30257" lon="5.90696">
        <ele>275.7</ele>
        <time>2021-03-21T14:50:47Z</time>
      </trkpt>
      <trkpt lat="45.30257" lon="5.90696">
        <ele>274.5</ele>
        <time>2021-03-21T14:50:50Z</time>
      </trkpt>
      <trkpt lat="45.30257" lon="5.90696">
        <ele>274.9</ele>
        <time>2021-03-21T14:50:52Z</time>
      </trkpt>
      <trkpt lat="45.30257" lon="5.90696">
        <ele>276.6</ele>
        <time>2021-03-21T14:50:54Z</time>
      </trkpt>
      <trkpt lat="45.30257" lon="5.90696">
        <ele>275.8</ele>
        <time>2021-03-21T14:50:57Z</time>
      </trkpt>
      <trkpt lat="45.30257" lon="5.90696">
        <ele>275.6</ele>
        <time>2021-03-21T14:50:59Z</time>
      </trkpt>
      <trkpt lat="45.30257" lon="5.90696">
        <ele>273.8</ele>
        <time>2021-03-21T14:51:02Z</time>
      </trkpt>
      <trkpt lat="45.30257" lon="5.90696">
        <ele>274.5</ele>
        <time>2021-03-21T14:51:05Z</time>
      </trkpt>
      <trkpt lat="45.30257" lon="5.90696">
        <ele>274.3</ele>
        <time>2021-03-21T14:51:07Z</time>
      </trkpt>
      <trkpt lat="45.30257" lon="5.90696">
        <ele>274.3</ele>
        <time>2021-03-21T14:51:09Z</time>
      </trkpt>
      <trkpt lat="45.30257" lon="5.90696">
        <ele>273.8</ele>
        <time>2021-03-21T14:51:12Z</time>
      </trkpt>
      <trkpt lat="45.30257" lon="5.90696">
        <ele>273.7</ele>
        <time>2021-03-21T14:51:14Z</time>
      </trkpt>
      <trkpt lat="45.30257" lon="5.90696">
        <ele>277.8</ele>
        <time>2021-03-21T14:51:17Z</time>
      </trkpt>
      <trkpt lat="45.30257" lon="5.90696">
        <ele>276</ele>
        <time>2021-03-21T14:51:20Z</time>
      </trkpt>
      <trkpt lat="45.30257" lon="5.90696">
        <ele>276.2</ele>
        <time>2021-03-21T14:51:22Z</time>
      </trkpt>
      <trkpt lat="45.30257" lon="5.90696">
        <ele>272.9</ele>
        <time>2021-03-21T14:51:25Z</time>
      </trkpt>
      <trkpt lat="45.30257" lon="5.90696">
        <ele>273.4</ele>
        <time>2021-03-21T14:51:28Z</time>
      </trkpt>
      <trkpt lat="45.30257" lon="5.90696">
        <ele>276.3</ele>
        <time>2021-03-21T14:51:31Z</time>
      </trkpt>
      <trkpt lat="45.30257" lon="5.90696">
        <ele>274.8</ele>
        <time>2021-03-21T14:51:34Z</time>
      </trkpt>
      <trkpt lat="45.30257" lon="5.90696">
        <ele>275.4</ele>
        <time>2021-03-21T14:51:36Z</time>
      </trkpt>
      <trkpt lat="45.30257" lon="5.90696">
        <ele>274.7</ele>
        <time>2021-03-21T14:51:38Z</time>
      </trkpt>
      <trkpt lat="45.30257" lon="5.90696">
        <ele>274.8</ele>
        <time>2021-03-21T14:51:41Z</time>
      </trkpt>
      <trkpt lat="45.30257" lon="5.90696">
        <ele>275</ele>
        <time>2021-03-21T14:51:43Z</time>
      </trkpt>
      <trkpt lat="45.30257" lon="5.90696">
        <ele>275.6</ele>
        <time>2021-03-21T14:51:45Z</time>
      </trkpt>
      <trkpt lat="45.30257" lon="5.90696">
        <ele>276.1</ele>
        <time>2021-03-21T14:51:48Z</time>
      </trkpt>
      <trkpt lat="45.30257" lon="5.90696">
        <ele>274.5</ele>
        <time>2021-03-21T14:51:50Z</time>
      </trkpt>
      <trkpt lat="45.30257" lon="5.90696">
        <ele>276.1</ele>
        <time>2021-03-21T14:51:53Z</time>
      </trkpt>
      <trkpt lat="45.30257" lon="5.90696">
        <ele>278.1</ele>
        <time>2021-03-21T14:51:56Z</time>
      </trkpt>
      <trkpt lat="45.30257" lon="5.90696">
        <ele>276.9</ele>
        <time>2021-03-21T14:51:58Z</time>
      </trkpt>
      <trkpt lat="45.30257" lon="5.90696">
        <ele>272.3</ele>
        <time>2021-03-21T14:52:01Z</time>
      </trkpt>
      <trkpt lat="45.30257" lon="5.90696">
        <ele>273.3</ele>
        <time>2021-03-21T14:52:03Z</time>
      </trkpt>
      <trkpt lat="45.30257" lon="5.90696">
        <ele>274.2</ele>
        <time>2021-03-21T14:52:06Z</time>
      </trkpt>
      <trkpt lat="45.30257" lon="5.90696">
        <ele>272.5</ele>
        <time>2021-03-21T14:52:09Z</time>
      </trkpt>
      <trkpt lat="45.30257" lon="5.90696">
        <ele>274.2</ele>
        <time>2021-03-21T14:52:11Z</time>
      </trkpt>
      <trkpt lat="45.30257" lon="5.90696">
        <ele>274.8</ele>
        <time>2021-03-21T14:52:13Z</time>
      </trkpt>
      <trkpt lat="45.30257" lon="5.90696">
        <ele>275.9</ele>
        <time>2021-03-21T14:52:16Z</time>
      </trkpt>
      <trkpt lat="45.30257" lon="5.90696">
        <ele>278.1</ele>
        <time>2021-03-21T14:52:19Z</time>
      </trkpt>
      <trkpt lat="45.30257" lon="5.90696">
        <ele>273.8</ele>
        <time>2021-03-21T14:52:22Z</time>
      </trkpt>
      <trkpt lat="45.30257" lon="5.90696">
        <ele>277</ele>
        <time>2021-03-21T14:52:24Z</time>
      </trkpt>
      <trkpt lat="45.30257" lon="5.90696">
        <ele>278.4</ele>
        <time>2021-03-21T14:52:27Z</time>
      </trkpt>
      <trkpt lat="45.30257" lon="5.90696">
        <ele>276.1</ele>
        <time>2021-03-21T14:52:30Z</time>
      </trkpt>
      <trkpt lat="45.30257" lon="5.90696">
        <ele>280.2</ele>
        <time>2021-03-21T14:52:33Z</time>
      </trkpt>
      <trkpt lat="45.30257" lon="5.90696">
        <ele>274.3</ele>
        <time>2021-03-21T14:52:36Z</time>
      </trkpt>
      <trkpt lat="45.30257" lon="5.90696">
        <ele>277</ele>
        <time>2021-03-21T14:52:38Z</time>
      </trkpt>
      <trkpt lat="45.30257" lon="5.90696">
        <ele>276.6</ele>
        <time>2021-03-21T14:52:40Z</time>
      </trkpt>
      <trkpt lat="45.30257" lon="5.90696">
        <ele>272.2</ele>
        <time>2021-03-21T14:52:43Z</time>
      </trkpt>
      <trkpt lat="45.30257" lon="5.90696">
        <ele>276.4</ele>
        <time>2021-03-21T14:52:45Z</time>
      </trkpt>
      <trkpt lat="45.30257" lon="5.90696">
        <ele>277.1</ele>
        <time>2021-03-21T14:52:48Z</time>
      </trkpt>
      <trkpt lat="45.30257" lon="5.90696">
        <ele>276.6</ele>
        <time>2021-03-21T14:52:50Z</time>
      </trkpt>
      <trkpt lat="45.30257" lon="5.90696">
        <ele>277.1</ele>
        <time>2021-03-21T14:52:53Z</time>
      </trkpt>
      <trkpt lat="45.30257" lon="5.90696">
        <ele>274.1</ele>
        <time>2021-03-21T14:52:56Z</time>
      </trkpt>
      <trkpt lat="45.30257" lon="5.90696">
        <ele>279.9</ele>
        <time>2021-03-21T14:52:59Z</time>
      </trkpt>
      <trkpt lat="45.30257" lon="5.90696">
        <ele>275</ele>
        <time>2021-03-21T14:53:02Z</time>
      </trkpt>
      <trkpt lat="45.30257" lon="5.90696">
        <ele>275</ele>
        <time>2021-03-21T14:53:04Z</time>
      </trkpt>
      <trkpt lat="45.30257" lon="5.90696">
        <ele>274.1</ele>
        <time>2021-03-21T14:53:07Z</time>
      </trkpt>
      <trkpt lat="45.30257" lon="5.90696">
        <ele>274.2</ele>
        <time>2021-03-21T14:53:09Z</time>
      </trkpt>
      <trkpt lat="45.30257" lon="5.90696">
        <ele>276.1</ele>
        <time>2021-03-21T14:53:11Z</time>
      </trkpt>
      <trkpt lat="45.30257" lon="5.90696">
        <ele>273.3</ele>
        <time>2021-03-21T14:53:14Z</time>
      </trkpt>
      <trkpt lat="45.30257" lon="5.90696">
        <ele>272.4</ele>
        <time>2021-03-21T14:53:17Z</time>
      </trkpt>
      <trkpt lat="45.30257" lon="5.90696">
        <ele>272</ele>
        <time>2021-03-21T14:53:20Z</time>
      </trkpt>
      <trkpt lat="45.30257" lon="5.90696">
        <ele>276.4</ele>
        <time>2021-03-21T14:53:22Z</time>
      </trkpt>
      <trkpt lat="45.30257" lon="5.90696">
        <ele>272</ele>
        <time>2021-03-21T14:53:25Z</time>
      </trkpt>
      <trkpt lat="45.30257" lon="5.90696">
        <ele>277</ele>
        <time>2021-03-21T14:53:28Z</time>
      </trkpt>
      <trkpt lat="45.30257" lon="5.90696">
        <ele>272.8</ele>
        <time>2021-03-21T14:53:31Z</time>
      </trkpt>
      <trkpt lat="45.30257" lon="5.90696">
        <ele>275.3</ele>
        <time>2021-03-21T14:53:33Z</time>
      </trkpt>
      <trkpt lat="45.30257" lon="5.90696">
        <ele>275.8</ele>
        <time>2021-03-21T14:53:36Z</time>
      </trkpt>
      <trkpt lat="45.30257" lon="5.90696">
        <ele>275.2</ele>
        <time>2021-03-21T14:53:39Z</time>
      </trkpt>
      <trkpt lat="45.30257" lon="5.90696">
        <ele>276.7</ele>
        <time>2021-03-21T14:53:41Z</time>
      </trkpt>
      <trkpt lat="45.30257" lon="5.90696">
        <ele>272.5</ele>
        <time>2021-03-21T14:53:44Z</time>
      </trkpt>
      <trkpt lat="45.30257" lon="5.90696">
        <ele>271.5</ele>
        <time>2021-03-21T14:53:47Z</time>
      </trkpt>
      <trkpt lat="45.30257" lon="5.90696">
        <ele>274.9</ele>
        <time>2021-03-21T14:53:50Z</time>
      </trkpt>
      <trkpt lat="45.30257" lon="5.90696">
        <ele>275.5</ele>
        <time>2021-03-21T14:53:53Z</time>
      </trkpt>
      <trkpt lat="45.30257" lon="5.90696">
        <ele>276.1</ele>
        <time>2021-03-21T14:53:55Z</time>
      </trkpt>
      <trkpt lat="45.30257" lon="5.90696">
        <ele>273.4</ele>
        <time>2021-03-21T14:53:57Z</time>
      </trkpt>
      <trkpt lat="45.30257" lon="5.90696">
        <ele>276.9</ele>
        <time>2021-03-21T14:54:00Z</time>
      </trkpt>
      <trkpt lat="45.30257" lon="5.90696">
        <ele>280.8</ele>
        <time>2021-03-21T14:54:03Z</time>
      </trkpt>
      <trkpt lat="45.30257" lon="5.90696">
        <ele>276.6</ele>
        <time>2021-03-21T14:54:06Z</time>
      </trkpt>
      <trkpt lat="45.30257" lon="5.90696">
        <ele>273.3</ele>
        <time>2021-03-21T14:54:09Z</time>
      </trkpt>
      <trkpt lat="45.30257" lon="5.90696">
        <ele>274.5</ele>
        <time>2021-03-21T14:54:12Z</time>
      </trkpt>
      <trkpt lat="45.30257" lon="5.90696">
        <ele>276.5</ele>
        <time>2021-03-21T14:54:14Z</time>
      </trkpt>
      <trkpt lat="45.30257" lon="5.90696">
        <ele>274.3</ele>
        <time>2021-03-21T14:54:16Z</time>
      </trkpt>
      <trkpt lat="45.30257" lon="5.90696">
        <ele>272.7</ele>
        <time>2021-03-21T14:54:18Z</time>
      </trkpt>
      <trkpt lat="45.30257" lon="5.90696">
        <ele>278.3</ele>
        <time>2021-03-21T14:54:21Z</time>
      </trkpt>
      <trkpt lat="45.30257" lon="5.90696">
        <ele>274.2</ele>
        <time>2021-03-21T14:54:23Z</time>
      </trkpt>
      <trkpt lat="45.30257" lon="5.90696">
        <ele>275.2</ele>
        <time>2021-03-21T14:54:25Z</time>
      </trkpt>
      <trkpt lat="45.30257" lon="5.90696">
        <ele>275.6</ele>
        <time>2021-03-21T14:54:28Z</time>
      </trkpt>
      <trkpt lat="45.30257" lon="5.90696">
        <ele>274.1</ele>
        <time>2021-03-21T14:54:31Z</time>
      </trkpt>
      <trkpt lat="45.30257" lon="5.90696">
        <ele>273.4</ele>
        <time>2021-03-21T14:54:34Z</time>
      </trkpt>
      <trkpt lat="45.30257" lon="5.90696">
        <ele>273.6</ele>
        <time>2021-03-21T14:54:37Z</time>
      </trkpt>
      <trkpt lat="45.30257" lon="5.90696">
        <ele>272.1</ele>
        <time>2021-03-21T14:54:40Z</time>
      </trkpt>
      <trkpt lat="45.30257" lon="5.90696">
        <ele>276.5</ele>
        <time>2021-03-21T14:54:43Z</time>
      </trkpt>
      <trkpt lat="45.30257" lon="5.90696">
        <ele>276.1</ele>
        <time>2021-03-21T14:54:46Z</time>
      </trkpt>
      <trkpt lat="45.30257" lon="5.90696">
        <ele>272.8</ele>
        <time>2021-03-21T14:54:49Z</time>
      </trkpt>
      <trkpt lat="45.30257" lon="5.90696">
        <ele>276.7</ele>
        <time>2021-03-21T14:54:51Z</time>
      </trkpt>
      <trkpt lat="45.30257" lon="5.90696">
        <ele>275</ele>
        <time>2021-03-21T14:54:54Z</time>
      </trkpt>
      <trkpt lat="45.30257" lon="5.90696">
        <ele>271.8</ele>
        <time>2021-03-21T14:54:57Z</time>
      </trkpt>
      <trkpt lat="45.30257" lon="5.90696">
        <ele>273.5</ele>
        <time>2021-03-21T14:55:00Z</time>
      </trkpt>
      <trkpt lat="45.30257" lon="5.90696">
        <ele>273.6</ele>
        <time>2021-03-21T14:55:02Z</time>
      </trkpt>
      <trkpt lat="45.30257" lon="5.90696">
        <ele>272.2</ele>
        <time>2021-03-21T14:55:05Z</time>
      </trkpt>
      <trkpt lat="45.30257" lon="5.90696">
        <ele>279.6</ele>
        <time>2021-03-21T14:55:07Z</time>
      </trkpt>
      <trkpt lat="45.30257" lon="5.90696">
        <ele>278.1</ele>
        <time>2021-03-21T14:55:10Z</time>
      </trkpt>
      <trkpt lat="45.30257" lon="5.90696">
        <ele>272.3</ele>
        <time>2021-03-21T14:55:12Z</time>
      </trkpt>
      <trkpt lat="45.30257" lon="5.90696">
        <ele>272.8</ele>
        <time>2021-03-21T14:55:15Z</time>
      </trkpt>
      <trkpt lat="45.30257" lon="5.90696">
        <ele>269.4</ele>
        <time>2021-03-21T14:55:17Z</time>
      </trkpt>
      <trkpt lat="45.30257" lon="5.90696">
        <ele>276.7</ele>
        <time>2021-03-21T14:55:20Z</time>
      </trkpt>
      <trkpt lat="45.30257" lon="5.90696">
        <ele>277</ele>
        <time>2021-03-21T14:55:22Z</time>
      </trkpt>
      <trkpt lat="45.30257" lon="5.90696">
        <ele>278</ele>
        <time>2021-03-21T14:55:24Z</time>
      </trkpt>
      <trkpt lat="45.30257" lon="5.90696">
        <ele>276</ele>
        <time>2021-03-21T14:55:27Z</time>
      </trkpt>
      <trkpt lat="45.30257" lon="5.90696">
        <ele>272.8</ele>
        <time>2021-03-21T14:55:30Z</time>
      </trkpt>
      <trkpt lat="45.30257" lon="5.90696">
        <ele>275.6</ele>
        <time>2021-03-21T14:55:32Z</time>
      </trkpt>
      <trkpt lat="45.30257" lon="5.90696">
        <ele>271.9</ele>
        <time>2021-03-21T14:55:35Z</time>
      </trkpt>
      <trkpt lat="45.30257" lon="5.90696">
        <ele>276.2</ele>
        <time>2021-03-21T14:55:37Z</time>
      </trkpt>
      <trkpt lat="45.30257" lon="5.90696">
        <ele>279.7</ele>
        <time>2021-03-21T14:55:40Z</time>
      </trkpt>
      <trkpt lat="45.30257" lon="5.90696">
        <ele>271</ele>
        <time>2021-03-21T14:55:42Z</time>
      </trkpt>
      <trkpt lat="45.30257" lon="5.90696">
        <ele>271.9</ele>
        <time>2021-03-21T14:55:45Z</time>
      </trkpt>
      <trkpt lat="45.30257" lon="5.90696">
        <ele>272.2</ele>
        <time>2021-03-21T14:55:47Z</time>
      </trkpt>
      <trkpt lat="45.30257" lon="5.90696">
        <ele>274.5</ele>
        <time>2021-03-21T14:55:49Z</time>
      </trkpt>
      <trkpt lat="45.30257" lon="5.90696">
        <ele>272.9</ele>
        <time>2021-03-21T14:55:52Z</time>
      </trkpt>
      <trkpt lat="45.30257" lon="5.90696">
        <ele>271.9</ele>
        <time>2021-03-21T14:55:55Z</time>
      </trkpt>
      <trkpt lat="45.30257" lon="5.90696">
        <ele>274.4</ele>
        <time>2021-03-21T14:55:58Z</time>
      </trkpt>
      <trkpt lat="45.30257" lon="5.90696">
        <ele>272.9</ele>
        <time>2021-03-21T14:56:01Z</time>
      </trkpt>
      <trkpt lat="45.30257" lon="5.90696">
        <ele>272.7</ele>
        <time>2021-03-21T14:56:03Z</time>
      </trkpt>
      <trkpt lat="45.30257" lon="5.90696">
        <ele>275.8</ele>
        <time>2021-03-21T14:56:06Z</time>
      </trkpt>
      <trkpt lat="45.30257" lon="5.90696">
        <ele>276</ele>
        <time>2021-03-21T14:56:09Z</time>
      </trkpt>
      <trkpt lat="45.30257" lon="5.90696">
        <ele>277.9</ele>
        <time>2021-03-21T14:56:12Z</time>
      </trkpt>
      <trkpt lat="45.30257" lon="5.90696">
        <ele>274.3</ele>
        <time>2021-03-21T14:56:14Z</time>
      </trkpt>
      <trkpt lat="45.30257" lon="5.90696">
        <ele>276.4</ele>
        <time>2021-03-21T14:56:17Z</time>
      </trkpt>
      <trkpt lat="45.30257" lon="5.90696">
        <ele>272.4</ele>
        <time>2021-03-21T14:56:19Z</time>
      </trkpt>
      <trkpt lat="45.30257" lon="5.90696">
        <ele>281.2</ele>
        <time>2021-03-21T14:56:21Z</time>
      </trkpt>
      <trkpt lat="45.30257" lon="5.90696">
        <ele>280.7</ele>
        <time>2021-03-21T14:56:24Z</time>
      </trkpt>
      <trkpt lat="45.30257" lon="5.90696">
        <ele>276.9</ele>
        <time>2021-03-21T14:56:26Z</time>
      </trkpt>
      <trkpt lat="45.30257" lon="5.90696">
        <ele>276.7</ele>
        <time>2021-03-21T14:56:29Z</time>
      </trkpt>
      <trkpt lat="45.30257" lon="5.90696">
        <ele>272.7</ele>
        <time>2021-03-21T14:56:31Z</time>
      </trkpt>
      <trkpt lat="45.30257" lon="5.90696">
        <ele>272.6</ele>
        <time>2021-03-21T14:56:34Z</time>
      </trkpt>
      <trkpt lat="45.30257" lon="5.90696">
        <ele>277.4</ele>
        <time>2021-03-21T14:56:37Z</time>
      </trkpt>
      <trkpt lat="45.30257" lon="5.90696">
        <ele>277.6</ele>
        <time>2021-03-21T14:56:40Z</time>
      </trkpt>
      <trkpt lat="45.30257" lon="5.90696">
        <ele>273.9</ele>
        <time>2021-03-21T14:56:42Z</time>
      </trkpt>
      <trkpt lat="45.30257" lon="5.90696">
        <ele>280.2</ele>
        <time>2021-03-21T14:56:45Z</time>
      </trkpt>
      <trkpt lat="45.30257" lon="5.90696">
        <ele>280.9</ele>
        <time>2021-03-21T14:56:48Z</time>
      </trkpt>
      <trkpt lat="45.30257" lon="5.90696">
        <ele>278</ele>
        <time>2021-03-21T14:56:51Z</time>
      </trkpt>
      <trkpt lat="45.30258" lon="5.90696">
        <ele>276.3</ele>
        <time>2021-03-21T14:56:54Z</time>
      </trkpt>
      <trkpt lat="45.30258" lon="5.90696">
        <ele>274.6</ele>
        <time>2021-03-21T14:56:56Z</time>
      </trkpt>
      <trkpt lat="45.30257" lon="5.90696">
        <ele>270.2</ele>
        <time>2021-03-21T14:56:59Z</time>
      </trkpt>
      <trkpt lat="45.30257" lon="5.90696">
        <ele>278</ele>
        <time>2021-03-21T14:57:02Z</time>
      </trkpt>
      <trkpt lat="45.30257" lon="5.90696">
        <ele>277.6</ele>
        <time>2021-03-21T14:57:05Z</time>
      </trkpt>
      <trkpt lat="45.30257" lon="5.90696">
        <ele>275.8</ele>
        <time>2021-03-21T14:57:08Z</time>
      </trkpt>
      <trkpt lat="45.30257" lon="5.90696">
        <ele>278.3</ele>
        <time>2021-03-21T14:57:11Z</time>
      </trkpt>
      <trkpt lat="45.30257" lon="5.90696">
        <ele>277.1</ele>
        <time>2021-03-21T14:57:14Z</time>
      </trkpt>
      <trkpt lat="45.30257" lon="5.90696">
        <ele>274</ele>
        <time>2021-03-21T14:57:16Z</time>
      </trkpt>
      <trkpt lat="45.30258" lon="5.90696">
        <ele>275.7</ele>
        <time>2021-03-21T14:57:19Z</time>
      </trkpt>
      <trkpt lat="45.30258" lon="5.90696">
        <ele>271</ele>
        <time>2021-03-21T14:57:21Z</time>
      </trkpt>
      <trkpt lat="45.30258" lon="5.90696">
        <ele>277.5</ele>
        <time>2021-03-21T14:57:24Z</time>
      </trkpt>
      <trkpt lat="45.30258" lon="5.90696">
        <ele>276.3</ele>
        <time>2021-03-21T14:57:27Z</time>
      </trkpt>
      <trkpt lat="45.30258" lon="5.90696">
        <ele>272.7</ele>
        <time>2021-03-21T14:57:30Z</time>
      </trkpt>
      <trkpt lat="45.30258" lon="5.90696">
        <ele>274.4</ele>
        <time>2021-03-21T14:57:32Z</time>
      </trkpt>
      <trkpt lat="45.30258" lon="5.90696">
        <ele>275.1</ele>
        <time>2021-03-21T14:57:34Z</time>
      </trkpt>
      <trkpt lat="45.30258" lon="5.90696">
        <ele>272.3</ele>
        <time>2021-03-21T14:57:37Z</time>
      </trkpt>
      <trkpt lat="45.30258" lon="5.90696">
        <ele>276.1</ele>
        <time>2021-03-21T14:57:40Z</time>
      </trkpt>
      <trkpt lat="45.30258" lon="5.90696">
        <ele>276.1</ele>
        <time>2021-03-21T14:57:43Z</time>
      </trkpt>
      <trkpt lat="45.30258" lon="5.90696">
        <ele>274.1</ele>
        <time>2021-03-21T14:57:46Z</time>
      </trkpt>
      <trkpt lat="45.30258" lon="5.90696">
        <ele>272.1</ele>
        <time>2021-03-21T14:57:49Z</time>
      </trkpt>
      <trkpt lat="45.30258" lon="5.90696">
        <ele>276.5</ele>
        <time>2021-03-21T14:57:52Z</time>
      </trkpt>
      <trkpt lat="45.30258" lon="5.90696">
        <ele>275.1</ele>
        <time>2021-03-21T14:57:54Z</time>
      </trkpt>
      <trkpt lat="45.30258" lon="5.90696">
        <ele>274.6</ele>
        <time>2021-03-21T14:57:57Z</time>
      </trkpt>
      <trkpt lat="45.30258" lon="5.90696">
        <ele>274.4</ele>
        <time>2021-03-21T14:57:59Z</time>
      </trkpt>
      <trkpt lat="45.30258" lon="5.90696">
        <ele>272.5</ele>
        <time>2021-03-21T14:58:02Z</time>
      </trkpt>
      <trkpt lat="45.30258" lon="5.90696">
        <ele>276.9</ele>
        <time>2021-03-21T14:58:05Z</time>
      </trkpt>
      <trkpt lat="45.30258" lon="5.90696">
        <ele>275</ele>
        <time>2021-03-21T14:58:07Z</time>
      </trkpt>
      <trkpt lat="45.30258" lon="5.90696">
        <ele>275.4</ele>
        <time>2021-03-21T14:58:10Z</time>
      </trkpt>
      <trkpt lat="45.30258" lon="5.90696">
        <ele>274.5</ele>
        <time>2021-03-21T14:58:12Z</time>
      </trkpt>
      <trkpt lat="45.30258" lon="5.90696">
        <ele>276.4</ele>
        <time>2021-03-21T14:58:14Z</time>
      </trkpt>
      <trkpt lat="45.30258" lon="5.90696">
        <ele>275.6</ele>
        <time>2021-03-21T14:58:17Z</time>
      </trkpt>
      <trkpt lat="45.30258" lon="5.90696">
        <ele>275.2</ele>
        <time>2021-03-21T14:58:19Z</time>
      </trkpt>
      <trkpt lat="45.30256" lon="5.90706">
        <ele>273.7</ele>
        <time>2021-03-21T14:58:22Z</time>
      </trkpt>
      <trkpt lat="45.30254" lon="5.90713">
        <ele>275.2</ele>
        <time>2021-03-21T14:58:24Z</time>
      </trkpt>
      <trkpt lat="45.30251" lon="5.90718">
        <ele>275</ele>
        <time>2021-03-21T14:58:26Z</time>
      </trkpt>
      <trkpt lat="45.30246" lon="5.90726">
        <ele>274</ele>
        <time>2021-03-21T14:58:29Z</time>
      </trkpt>
      <trkpt lat="45.3024" lon="5.90737">
        <ele>276.9</ele>
        <time>2021-03-21T14:58:32Z</time>
      </trkpt>
      <trkpt lat="45.30232" lon="5.90748">
        <ele>276.6</ele>
        <time>2021-03-21T14:58:35Z</time>
      </trkpt>
      <trkpt lat="45.30227" lon="5.90755">
        <ele>276.5</ele>
        <time>2021-03-21T14:58:37Z</time>
      </trkpt>
      <trkpt lat="45.3022" lon="5.90769">
        <ele>276.4</ele>
        <time>2021-03-21T14:58:40Z</time>
      </trkpt>
      <trkpt lat="45.30217" lon="5.9078">
        <ele>276.6</ele>
        <time>2021-03-21T14:58:42Z</time>
      </trkpt>
      <trkpt lat="45.30217" lon="5.90795">
        <ele>277.4</ele>
        <time>2021-03-21T14:58:45Z</time>
      </trkpt>
      <trkpt lat="45.30209" lon="5.908">
        <ele>278.8</ele>
        <time>2021-03-21T14:58:48Z</time>
      </trkpt>
      <trkpt lat="45.30204" lon="5.90797">
        <ele>276.6</ele>
        <time>2021-03-21T14:58:51Z</time>
      </trkpt>
      <trkpt lat="45.302" lon="5.90792">
        <ele>276.8</ele>
        <time>2021-03-21T14:58:53Z</time>
      </trkpt>
      <trkpt lat="45.30193" lon="5.9079">
        <ele>277.2</ele>
        <time>2021-03-21T14:58:56Z</time>
      </trkpt>
      <trkpt lat="45.30184" lon="5.90789">
        <ele>278.2</ele>
        <time>2021-03-21T14:58:59Z</time>
      </trkpt>
      <trkpt lat="45.30175" lon="5.90786">
        <ele>278.1</ele>
        <time>2021-03-21T14:59:02Z</time>
      </trkpt>
      <trkpt lat="45.30169" lon="5.90785">
        <ele>278</ele>
        <time>2021-03-21T14:59:04Z</time>
      </trkpt>
      <trkpt lat="45.30161" lon="5.90784">
        <ele>278</ele>
        <time>2021-03-21T14:59:07Z</time>
      </trkpt>
      <trkpt lat="45.30152" lon="5.90783">
        <ele>279.2</ele>
        <time>2021-03-21T14:59:10Z</time>
      </trkpt>
      <trkpt lat="45.30144" lon="5.90781">
        <ele>279.7</ele>
        <time>2021-03-21T14:59:13Z</time>
      </trkpt>
      <trkpt lat="45.30134" lon="5.9078">
        <ele>278.9</ele>
        <time>2021-03-21T14:59:16Z</time>
      </trkpt>
      <trkpt lat="45.30121" lon="5.90778">
        <ele>279.6</ele>
        <time>2021-03-21T14:59:19Z</time>
      </trkpt>
      <trkpt lat="45.30109" lon="5.90777">
        <ele>278.3</ele>
        <time>2021-03-21T14:59:22Z</time>
      </trkpt>
      <trkpt lat="45.30102" lon="5.90775">
        <ele>277.3</ele>
        <time>2021-03-21T14:59:24Z</time>
      </trkpt>
      <trkpt lat="45.3009" lon="5.90772">
        <ele>280.9</ele>
        <time>2021-03-21T14:59:27Z</time>
      </trkpt>
      <trkpt lat="45.30076" lon="5.90772">
        <ele>282</ele>
        <time>2021-03-21T14:59:30Z</time>
      </trkpt>
      <trkpt lat="45.30067" lon="5.90775">
        <ele>283.3</ele>
        <time>2021-03-21T14:59:32Z</time>
      </trkpt>
      <trkpt lat="45.30057" lon="5.90783">
        <ele>284.3</ele>
        <time>2021-03-21T14:59:35Z</time>
      </trkpt>
      <trkpt lat="45.30048" lon="5.90799">
        <ele>281.5</ele>
        <time>2021-03-21T14:59:38Z</time>
      </trkpt>
      <trkpt lat="45.30041" lon="5.90811">
        <ele>282.1</ele>
        <time>2021-03-21T14:59:40Z</time>
      </trkpt>
      <trkpt lat="45.30033" lon="5.90829">
        <ele>281.8</ele>
        <time>2021-03-21T14:59:43Z</time>
      </trkpt>
      <trkpt lat="45.30028" lon="5.90841">
        <ele>281.3</ele>
        <time>2021-03-21T14:59:45Z</time>
      </trkpt>
      <trkpt lat="45.30022" lon="5.90853">
        <ele>281.4</ele>
        <time>2021-03-21T14:59:47Z</time>
      </trkpt>
      <trkpt lat="45.30016" lon="5.90867">
        <ele>283.2</ele>
        <time>2021-03-21T14:59:49Z</time>
      </trkpt>
      <trkpt lat="45.3001" lon="5.90875">
        <ele>279.3</ele>
        <time>2021-03-21T14:59:51Z</time>
      </trkpt>
      <trkpt lat="45.30003" lon="5.90887">
        <ele>278.7</ele>
        <time>2021-03-21T14:59:54Z</time>
      </trkpt>
      <trkpt lat="45.29993" lon="5.909">
        <ele>276.6</ele>
        <time>2021-03-21T14:59:57Z</time>
      </trkpt>
      <trkpt lat="45.29987" lon="5.90908">
        <ele>278.9</ele>
        <time>2021-03-21T14:59:59Z</time>
      </trkpt>
      <trkpt lat="45.29979" lon="5.90925">
        <ele>279.7</ele>
        <time>2021-03-21T15:00:02Z</time>
      </trkpt>
      <trkpt lat="45.29974" lon="5.90935">
        <ele>281</ele>
        <time>2021-03-21T15:00:04Z</time>
      </trkpt>
      <trkpt lat="45.29968" lon="5.90945">
        <ele>279.2</ele>
        <time>2021-03-21T15:00:06Z</time>
      </trkpt>
      <trkpt lat="45.2996" lon="5.9096">
        <ele>278</ele>
        <time>2021-03-21T15:00:09Z</time>
      </trkpt>
      <trkpt lat="45.29951" lon="5.90977">
        <ele>280.5</ele>
        <time>2021-03-21T15:00:12Z</time>
      </trkpt>
      <trkpt lat="45.29942" lon="5.90994">
        <ele>279.3</ele>
        <time>2021-03-21T15:00:15Z</time>
      </trkpt>
      <trkpt lat="45.29937" lon="5.91006">
        <ele>276.7</ele>
        <time>2021-03-21T15:00:17Z</time>
      </trkpt>
      <trkpt lat="45.29929" lon="5.91022">
        <ele>276.7</ele>
        <time>2021-03-21T15:00:20Z</time>
      </trkpt>
      <trkpt lat="45.29923" lon="5.91028">
        <ele>278.5</ele>
        <time>2021-03-21T15:00:23Z</time>
      </trkpt>
      <trkpt lat="45.29918" lon="5.91033">
        <ele>278.3</ele>
        <time>2021-03-21T15:00:26Z</time>
      </trkpt>
      <trkpt lat="45.29908" lon="5.91035">
        <ele>280.6</ele>
        <time>2021-03-21T15:00:29Z</time>
      </trkpt>
      <trkpt lat="45.29896" lon="5.9103">
        <ele>280.1</ele>
        <time>2021-03-21T15:00:32Z</time>
      </trkpt>
      <trkpt lat="45.29882" lon="5.91023">
        <ele>279.3</ele>
        <time>2021-03-21T15:00:35Z</time>
      </trkpt>
      <trkpt lat="45.2987" lon="5.91021">
        <ele>279.6</ele>
        <time>2021-03-21T15:00:37Z</time>
      </trkpt>
      <trkpt lat="45.29858" lon="5.91015">
        <ele>278.8</ele>
        <time>2021-03-21T15:00:40Z</time>
      </trkpt>
      <trkpt lat="45.29845" lon="5.91009">
        <ele>278.3</ele>
        <time>2021-03-21T15:00:43Z</time>
      </trkpt>
      <trkpt lat="45.29833" lon="5.91004">
        <ele>280.6</ele>
        <time>2021-03-21T15:00:46Z</time>
      </trkpt>
      <trkpt lat="45.29823" lon="5.90997">
        <ele>280.5</ele>
        <time>2021-03-21T15:00:48Z</time>
      </trkpt>
      <trkpt lat="45.29813" lon="5.9099">
        <ele>281.7</ele>
        <time>2021-03-21T15:00:50Z</time>
      </trkpt>
      <trkpt lat="45.298" lon="5.90988">
        <ele>285.1</ele>
        <time>2021-03-21T15:00:53Z</time>
      </trkpt>
      <trkpt lat="45.29789" lon="5.9098">
        <ele>283.6</ele>
        <time>2021-03-21T15:00:56Z</time>
      </trkpt>
      <trkpt lat="45.29781" lon="5.90981">
        <ele>283.9</ele>
        <time>2021-03-21T15:00:58Z</time>
      </trkpt>
      <trkpt lat="45.2977" lon="5.90981">
        <ele>283.6</ele>
        <time>2021-03-21T15:01:00Z</time>
      </trkpt>
      <trkpt lat="45.29754" lon="5.90977">
        <ele>283.8</ele>
        <time>2021-03-21T15:01:03Z</time>
      </trkpt>
      <trkpt lat="45.29742" lon="5.90971">
        <ele>285.1</ele>
        <time>2021-03-21T15:01:05Z</time>
      </trkpt>
      <trkpt lat="45.29726" lon="5.90964">
        <ele>286.9</ele>
        <time>2021-03-21T15:01:08Z</time>
      </trkpt>
      <trkpt lat="45.2971" lon="5.90958">
        <ele>285.2</ele>
        <time>2021-03-21T15:01:11Z</time>
      </trkpt>
      <trkpt lat="45.29699" lon="5.90955">
        <ele>286.7</ele>
        <time>2021-03-21T15:01:13Z</time>
      </trkpt>
      <trkpt lat="45.29689" lon="5.90952">
        <ele>285.4</ele>
        <time>2021-03-21T15:01:15Z</time>
      </trkpt>
      <trkpt lat="45.29675" lon="5.90941">
        <ele>286.8</ele>
        <time>2021-03-21T15:01:18Z</time>
      </trkpt>
      <trkpt lat="45.29663" lon="5.90934">
        <ele>289.3</ele>
        <time>2021-03-21T15:01:20Z</time>
      </trkpt>
      <trkpt lat="45.29653" lon="5.9093">
        <ele>285.1</ele>
        <time>2021-03-21T15:01:23Z</time>
      </trkpt>
      <trkpt lat="45.29639" lon="5.90926">
        <ele>283.4</ele>
        <time>2021-03-21T15:01:26Z</time>
      </trkpt>
      <trkpt lat="45.29632" lon="5.90924">
        <ele>286.2</ele>
        <time>2021-03-21T15:01:28Z</time>
      </trkpt>
      <trkpt lat="45.2962" lon="5.90922">
        <ele>286.1</ele>
        <time>2021-03-21T15:01:31Z</time>
      </trkpt>
      <trkpt lat="45.2961" lon="5.90915">
        <ele>285.9</ele>
        <time>2021-03-21T15:01:33Z</time>
      </trkpt>
      <trkpt lat="45.29589" lon="5.90906">
        <ele>286.2</ele>
        <time>2021-03-21T15:01:36Z</time>
      </trkpt>
      <trkpt lat="45.29572" lon="5.90902">
        <ele>281.3</ele>
        <time>2021-03-21T15:01:39Z</time>
      </trkpt>
      <trkpt lat="45.29553" lon="5.90896">
        <ele>283.8</ele>
        <time>2021-03-21T15:01:42Z</time>
      </trkpt>
      <trkpt lat="45.29538" lon="5.90887">
        <ele>282.8</ele>
        <time>2021-03-21T15:01:45Z</time>
      </trkpt>
      <trkpt lat="45.2953" lon="5.90879">
        <ele>283.5</ele>
        <time>2021-03-21T15:01:47Z</time>
      </trkpt>
      <trkpt lat="45.29513" lon="5.90875">
        <ele>284.7</ele>
        <time>2021-03-21T15:01:50Z</time>
      </trkpt>
      <trkpt lat="45.29502" lon="5.90872">
        <ele>285.5</ele>
        <time>2021-03-21T15:01:52Z</time>
      </trkpt>
      <trkpt lat="45.29484" lon="5.90866">
        <ele>286.1</ele>
        <time>2021-03-21T15:01:55Z</time>
      </trkpt>
      <trkpt lat="45.29475" lon="5.9086">
        <ele>288</ele>
        <time>2021-03-21T15:01:57Z</time>
      </trkpt>
      <trkpt lat="45.29464" lon="5.90862">
        <ele>285.6</ele>
        <time>2021-03-21T15:02:00Z</time>
      </trkpt>
      <trkpt lat="45.29449" lon="5.90862">
        <ele>285.8</ele>
        <time>2021-03-21T15:02:03Z</time>
      </trkpt>
      <trkpt lat="45.29431" lon="5.90847">
        <ele>283.9</ele>
        <time>2021-03-21T15:02:06Z</time>
      </trkpt>
      <trkpt lat="45.29421" lon="5.90838">
        <ele>282.5</ele>
        <time>2021-03-21T15:02:08Z</time>
      </trkpt>
      <trkpt lat="45.29406" lon="5.90829">
        <ele>283.5</ele>
        <time>2021-03-21T15:02:11Z</time>
      </trkpt>
      <trkpt lat="45.29398" lon="5.90821">
        <ele>284.4</ele>
        <time>2021-03-21T15:02:13Z</time>
      </trkpt>
      <trkpt lat="45.2939" lon="5.90812">
        <ele>283.3</ele>
        <time>2021-03-21T15:02:15Z</time>
      </trkpt>
      <trkpt lat="45.29372" lon="5.90809">
        <ele>284.2</ele>
        <time>2021-03-21T15:02:18Z</time>
      </trkpt>
      <trkpt lat="45.29359" lon="5.90806">
        <ele>285.8</ele>
        <time>2021-03-21T15:02:20Z</time>
      </trkpt>
      <trkpt lat="45.29346" lon="5.90806">
        <ele>284</ele>
        <time>2021-03-21T15:02:22Z</time>
      </trkpt>
      <trkpt lat="45.29336" lon="5.908">
        <ele>282.3</ele>
        <time>2021-03-21T15:02:24Z</time>
      </trkpt>
      <trkpt lat="45.29319" lon="5.90789">
        <ele>283.2</ele>
        <time>2021-03-21T15:02:27Z</time>
      </trkpt>
      <trkpt lat="45.29308" lon="5.90784">
        <ele>284.7</ele>
        <time>2021-03-21T15:02:29Z</time>
      </trkpt>
      <trkpt lat="45.29296" lon="5.90782">
        <ele>285.8</ele>
        <time>2021-03-21T15:02:31Z</time>
      </trkpt>
      <trkpt lat="45.29273" lon="5.90772">
        <ele>285.8</ele>
        <time>2021-03-21T15:02:34Z</time>
      </trkpt>
      <trkpt lat="45.29261" lon="5.90768">
        <ele>284.7</ele>
        <time>2021-03-21T15:02:36Z</time>
      </trkpt>
      <trkpt lat="45.29247" lon="5.90775">
        <ele>281.4</ele>
        <time>2021-03-21T15:02:39Z</time>
      </trkpt>
      <trkpt lat="45.29233" lon="5.90784">
        <ele>282.7</ele>
        <time>2021-03-21T15:02:42Z</time>
      </trkpt>
      <trkpt lat="45.29218" lon="5.90792">
        <ele>285.8</ele>
        <time>2021-03-21T15:02:45Z</time>
      </trkpt>
      <trkpt lat="45.29207" lon="5.90797">
        <ele>284</ele>
        <time>2021-03-21T15:02:47Z</time>
      </trkpt>
      <trkpt lat="45.29192" lon="5.90803">
        <ele>284.6</ele>
        <time>2021-03-21T15:02:50Z</time>
      </trkpt>
      <trkpt lat="45.29175" lon="5.90808">
        <ele>284.9</ele>
        <time>2021-03-21T15:02:53Z</time>
      </trkpt>
      <trkpt lat="45.29163" lon="5.90813">
        <ele>283.4</ele>
        <time>2021-03-21T15:02:55Z</time>
      </trkpt>
      <trkpt lat="45.29149" lon="5.90817">
        <ele>280.9</ele>
        <time>2021-03-21T15:02:58Z</time>
      </trkpt>
      <trkpt lat="45.2914" lon="5.90819">
        <ele>283</ele>
        <time>2021-03-21T15:03:00Z</time>
      </trkpt>
      <trkpt lat="45.2913" lon="5.90824">
        <ele>283.4</ele>
        <time>2021-03-21T15:03:02Z</time>
      </trkpt>
      <trkpt lat="45.29115" lon="5.90829">
        <ele>281.3</ele>
        <time>2021-03-21T15:03:05Z</time>
      </trkpt>
      <trkpt lat="45.291" lon="5.90835">
        <ele>280.1</ele>
        <time>2021-03-21T15:03:08Z</time>
      </trkpt>
      <trkpt lat="45.29089" lon="5.90841">
        <ele>281</ele>
        <time>2021-03-21T15:03:10Z</time>
      </trkpt>
      <trkpt lat="45.29074" lon="5.90848">
        <ele>280.1</ele>
        <time>2021-03-21T15:03:13Z</time>
      </trkpt>
      <trkpt lat="45.29064" lon="5.90852">
        <ele>279.7</ele>
        <time>2021-03-21T15:03:15Z</time>
      </trkpt>
      <trkpt lat="45.2905" lon="5.90857">
        <ele>279.8</ele>
        <time>2021-03-21T15:03:18Z</time>
      </trkpt>
      <trkpt lat="45.29034" lon="5.90863">
        <ele>281.1</ele>
        <time>2021-03-21T15:03:21Z</time>
      </trkpt>
      <trkpt lat="45.29019" lon="5.90869">
        <ele>281.7</ele>
        <time>2021-03-21T15:03:24Z</time>
      </trkpt>
      <trkpt lat="45.29004" lon="5.90876">
        <ele>281.7</ele>
        <time>2021-03-21T15:03:27Z</time>
      </trkpt>
      <trkpt lat="45.28994" lon="5.90882">
        <ele>282</ele>
        <time>2021-03-21T15:03:29Z</time>
      </trkpt>
      <trkpt lat="45.28979" lon="5.90883">
        <ele>282.5</ele>
        <time>2021-03-21T15:03:32Z</time>
      </trkpt>
      <trkpt lat="45.2897" lon="5.90879">
        <ele>281.5</ele>
        <time>2021-03-21T15:03:34Z</time>
      </trkpt>
      <trkpt lat="45.28956" lon="5.90864">
        <ele>282.6</ele>
        <time>2021-03-21T15:03:37Z</time>
      </trkpt>
      <trkpt lat="45.28941" lon="5.90853">
        <ele>283.8</ele>
        <time>2021-03-21T15:03:40Z</time>
      </trkpt>
      <trkpt lat="45.28926" lon="5.90843">
        <ele>285.1</ele>
        <time>2021-03-21T15:03:43Z</time>
      </trkpt>
      <trkpt lat="45.2891" lon="5.90831">
        <ele>284.9</ele>
        <time>2021-03-21T15:03:46Z</time>
      </trkpt>
      <trkpt lat="45.28899" lon="5.90823">
        <ele>284.8</ele>
        <time>2021-03-21T15:03:48Z</time>
      </trkpt>
      <trkpt lat="45.28885" lon="5.90814">
        <ele>282.8</ele>
        <time>2021-03-21T15:03:51Z</time>
      </trkpt>
      <trkpt lat="45.2887" lon="5.90803">
        <ele>283.4</ele>
        <time>2021-03-21T15:03:54Z</time>
      </trkpt>
      <trkpt lat="45.28856" lon="5.90795">
        <ele>286.3</ele>
        <time>2021-03-21T15:03:57Z</time>
      </trkpt>
      <trkpt lat="45.28847" lon="5.90788">
        <ele>287.5</ele>
        <time>2021-03-21T15:03:59Z</time>
      </trkpt>
      <trkpt lat="45.28832" lon="5.90775">
        <ele>283.9</ele>
        <time>2021-03-21T15:04:02Z</time>
      </trkpt>
      <trkpt lat="45.28817" lon="5.90766">
        <ele>282.5</ele>
        <time>2021-03-21T15:04:05Z</time>
      </trkpt>
      <trkpt lat="45.28807" lon="5.90758">
        <ele>281.5</ele>
        <time>2021-03-21T15:04:07Z</time>
      </trkpt>
      <trkpt lat="45.28797" lon="5.9075">
        <ele>280</ele>
        <time>2021-03-21T15:04:09Z</time>
      </trkpt>
      <trkpt lat="45.28781" lon="5.90739">
        <ele>281.2</ele>
        <time>2021-03-21T15:04:12Z</time>
      </trkpt>
      <trkpt lat="45.28765" lon="5.9073">
        <ele>283</ele>
        <time>2021-03-21T15:04:15Z</time>
      </trkpt>
      <trkpt lat="45.28752" lon="5.90716">
        <ele>284.4</ele>
        <time>2021-03-21T15:04:18Z</time>
      </trkpt>
      <trkpt lat="45.28736" lon="5.90705">
        <ele>289.6</ele>
        <time>2021-03-21T15:04:21Z</time>
      </trkpt>
      <trkpt lat="45.28723" lon="5.90692">
        <ele>289.4</ele>
        <time>2021-03-21T15:04:24Z</time>
      </trkpt>
      <trkpt lat="45.28707" lon="5.90679">
        <ele>290.9</ele>
        <time>2021-03-21T15:04:27Z</time>
      </trkpt>
      <trkpt lat="45.28688" lon="5.90667">
        <ele>290.2</ele>
        <time>2021-03-21T15:04:30Z</time>
      </trkpt>
      <trkpt lat="45.28677" lon="5.90657">
        <ele>286.9</ele>
        <time>2021-03-21T15:04:32Z</time>
      </trkpt>
      <trkpt lat="45.28659" lon="5.90643">
        <ele>287</ele>
        <time>2021-03-21T15:04:35Z</time>
      </trkpt>
      <trkpt lat="45.28647" lon="5.90636">
        <ele>288.1</ele>
        <time>2021-03-21T15:04:37Z</time>
      </trkpt>
      <trkpt lat="45.28627" lon="5.90629">
        <ele>283.1</ele>
        <time>2021-03-21T15:04:40Z</time>
      </trkpt>
      <trkpt lat="45.28613" lon="5.90622">
        <ele>284.6</ele>
        <time>2021-03-21T15:04:42Z</time>
      </trkpt>
      <trkpt lat="45.28601" lon="5.90613">
        <ele>281.8</ele>
        <time>2021-03-21T15:04:44Z</time>
      </trkpt>
      <trkpt lat="45.28585" lon="5.90601">
        <ele>285.8</ele>
        <time>2021-03-21T15:04:47Z</time>
      </trkpt>
      <trkpt lat="45.28574" lon="5.90592">
        <ele>283.5</ele>
        <time>2021-03-21T15:04:49Z</time>
      </trkpt>
      <trkpt lat="45.28561" lon="5.90581">
        <ele>283.2</ele>
        <time>2021-03-21T15:04:52Z</time>
      </trkpt>
      <trkpt lat="45.28545" lon="5.90571">
        <ele>281.6</ele>
        <time>2021-03-21T15:04:55Z</time>
      </trkpt>
      <trkpt lat="45.28527" lon="5.90552">
        <ele>280.9</ele>
        <time>2021-03-21T15:04:58Z</time>
      </trkpt>
      <trkpt lat="45.2852" lon="5.90529">
        <ele>280.8</ele>
        <time>2021-03-21T15:05:01Z</time>
      </trkpt>
      <trkpt lat="45.28508" lon="5.90529">
        <ele>278</ele>
        <time>2021-03-21T15:05:04Z</time>
      </trkpt>
      <trkpt lat="45.28499" lon="5.90537">
        <ele>277.4</ele>
        <time>2021-03-21T15:05:06Z</time>
      </trkpt>
      <trkpt lat="45.28489" lon="5.90553">
        <ele>277.2</ele>
        <time>2021-03-21T15:05:09Z</time>
      </trkpt>
      <trkpt lat="45.28483" lon="5.90566">
        <ele>276.4</ele>
        <time>2021-03-21T15:05:11Z</time>
      </trkpt>
      <trkpt lat="45.28475" lon="5.9058">
        <ele>277.5</ele>
        <time>2021-03-21T15:05:14Z</time>
      </trkpt>
      <trkpt lat="45.28468" lon="5.90588">
        <ele>277</ele>
        <time>2021-03-21T15:05:16Z</time>
      </trkpt>
      <trkpt lat="45.28461" lon="5.90598">
        <ele>279.2</ele>
        <time>2021-03-21T15:05:18Z</time>
      </trkpt>
      <trkpt lat="45.2845" lon="5.90612">
        <ele>277.2</ele>
        <time>2021-03-21T15:05:21Z</time>
      </trkpt>
      <trkpt lat="45.28442" lon="5.90621">
        <ele>278.6</ele>
        <time>2021-03-21T15:05:23Z</time>
      </trkpt>
      <trkpt lat="45.28431" lon="5.90639">
        <ele>283.2</ele>
        <time>2021-03-21T15:05:26Z</time>
      </trkpt>
      <trkpt lat="45.28421" lon="5.90657">
        <ele>280.5</ele>
        <time>2021-03-21T15:05:29Z</time>
      </trkpt>
      <trkpt lat="45.28415" lon="5.90667">
        <ele>281.8</ele>
        <time>2021-03-21T15:05:31Z</time>
      </trkpt>
      <trkpt lat="45.28403" lon="5.90684">
        <ele>280</ele>
        <time>2021-03-21T15:05:34Z</time>
      </trkpt>
      <trkpt lat="45.28396" lon="5.90693">
        <ele>281.8</ele>
        <time>2021-03-21T15:05:36Z</time>
      </trkpt>
      <trkpt lat="45.28386" lon="5.90711">
        <ele>280.2</ele>
        <time>2021-03-21T15:05:39Z</time>
      </trkpt>
      <trkpt lat="45.2838" lon="5.90728">
        <ele>280.5</ele>
        <time>2021-03-21T15:05:42Z</time>
      </trkpt>
      <trkpt lat="45.28372" lon="5.90748">
        <ele>279.8</ele>
        <time>2021-03-21T15:05:45Z</time>
      </trkpt>
      <trkpt lat="45.28366" lon="5.90761">
        <ele>283.6</ele>
        <time>2021-03-21T15:05:47Z</time>
      </trkpt>
      <trkpt lat="45.2836" lon="5.90772">
        <ele>281.9</ele>
        <time>2021-03-21T15:05:49Z</time>
      </trkpt>
      <trkpt lat="45.2835" lon="5.90791">
        <ele>283.9</ele>
        <time>2021-03-21T15:05:52Z</time>
      </trkpt>
      <trkpt lat="45.28339" lon="5.9081">
        <ele>284.1</ele>
        <time>2021-03-21T15:05:55Z</time>
      </trkpt>
      <trkpt lat="45.28328" lon="5.90828">
        <ele>289</ele>
        <time>2021-03-21T15:05:58Z</time>
      </trkpt>
      <trkpt lat="45.28319" lon="5.90844">
        <ele>287.7</ele>
        <time>2021-03-21T15:06:01Z</time>
      </trkpt>
      <trkpt lat="45.28311" lon="5.90858">
        <ele>286.1</ele>
        <time>2021-03-21T15:06:04Z</time>
      </trkpt>
      <trkpt lat="45.28301" lon="5.9088">
        <ele>288.8</ele>
        <time>2021-03-21T15:06:07Z</time>
      </trkpt>
      <trkpt lat="45.28294" lon="5.90897">
        <ele>286.1</ele>
        <time>2021-03-21T15:06:10Z</time>
      </trkpt>
      <trkpt lat="45.28285" lon="5.90909">
        <ele>285.6</ele>
        <time>2021-03-21T15:06:13Z</time>
      </trkpt>
      <trkpt lat="45.28274" lon="5.90926">
        <ele>286.3</ele>
        <time>2021-03-21T15:06:16Z</time>
      </trkpt>
      <trkpt lat="45.28261" lon="5.90951">
        <ele>289.2</ele>
        <time>2021-03-21T15:06:19Z</time>
      </trkpt>
      <trkpt lat="45.28252" lon="5.90962">
        <ele>290.3</ele>
        <time>2021-03-21T15:06:22Z</time>
      </trkpt>
      <trkpt lat="45.28243" lon="5.90978">
        <ele>292.2</ele>
        <time>2021-03-21T15:06:25Z</time>
      </trkpt>
      <trkpt lat="45.28236" lon="5.90991">
        <ele>289.6</ele>
        <time>2021-03-21T15:06:28Z</time>
      </trkpt>
      <trkpt lat="45.28228" lon="5.91001">
        <ele>291.1</ele>
        <time>2021-03-21T15:06:31Z</time>
      </trkpt>
      <trkpt lat="45.28224" lon="5.91017">
        <ele>297.2</ele>
        <time>2021-03-21T15:06:34Z</time>
      </trkpt>
      <trkpt lat="45.28219" lon="5.91032">
        <ele>298.6</ele>
        <time>2021-03-21T15:06:36Z</time>
      </trkpt>
      <trkpt lat="45.28209" lon="5.91056">
        <ele>300.4</ele>
        <time>2021-03-21T15:06:39Z</time>
      </trkpt>
      <trkpt lat="45.28201" lon="5.91077">
        <ele>301.8</ele>
        <time>2021-03-21T15:06:42Z</time>
      </trkpt>
      <trkpt lat="45.28191" lon="5.91097">
        <ele>300.7</ele>
        <time>2021-03-21T15:06:45Z</time>
      </trkpt>
      <trkpt lat="45.28181" lon="5.91115">
        <ele>299</ele>
        <time>2021-03-21T15:06:48Z</time>
      </trkpt>
      <trkpt lat="45.28173" lon="5.91126">
        <ele>298.4</ele>
        <time>2021-03-21T15:06:50Z</time>
      </trkpt>
      <trkpt lat="45.2816" lon="5.91147">
        <ele>300.6</ele>
        <time>2021-03-21T15:06:53Z</time>
      </trkpt>
      <trkpt lat="45.28151" lon="5.91166">
        <ele>297.2</ele>
        <time>2021-03-21T15:06:55Z</time>
      </trkpt>
      <trkpt lat="45.28142" lon="5.91186">
        <ele>296.1</ele>
        <time>2021-03-21T15:06:57Z</time>
      </trkpt>
      <trkpt lat="45.28134" lon="5.91206">
        <ele>295</ele>
        <time>2021-03-21T15:06:59Z</time>
      </trkpt>
      <trkpt lat="45.28124" lon="5.91229">
        <ele>292.7</ele>
        <time>2021-03-21T15:07:02Z</time>
      </trkpt>
      <trkpt lat="45.28118" lon="5.91238">
        <ele>292.3</ele>
        <time>2021-03-21T15:07:04Z</time>
      </trkpt>
      <trkpt lat="45.28104" lon="5.91236">
        <ele>291.9</ele>
        <time>2021-03-21T15:07:07Z</time>
      </trkpt>
      <trkpt lat="45.28099" lon="5.9123">
        <ele>289.1</ele>
        <time>2021-03-21T15:07:09Z</time>
      </trkpt>
      <trkpt lat="45.2811" lon="5.91213">
        <ele>288.8</ele>
        <time>2021-03-21T15:07:12Z</time>
      </trkpt>
      <trkpt lat="45.28127" lon="5.91189">
        <ele>286.6</ele>
        <time>2021-03-21T15:07:15Z</time>
      </trkpt>
      <trkpt lat="45.28145" lon="5.91168">
        <ele>293</ele>
        <time>2021-03-21T15:07:18Z</time>
      </trkpt>
      <trkpt lat="45.28159" lon="5.9115">
        <ele>290.1</ele>
        <time>2021-03-21T15:07:21Z</time>
      </trkpt>
      <trkpt lat="45.28171" lon="5.91126">
        <ele>290.8</ele>
        <time>2021-03-21T15:07:24Z</time>
      </trkpt>
      <trkpt lat="45.28179" lon="5.91111">
        <ele>291.9</ele>
        <time>2021-03-21T15:07:26Z</time>
      </trkpt>
      <trkpt lat="45.28193" lon="5.91094">
        <ele>296.6</ele>
        <time>2021-03-21T15:07:29Z</time>
      </trkpt>
      <trkpt lat="45.28197" lon="5.91074">
        <ele>297</ele>
        <time>2021-03-21T15:07:31Z</time>
      </trkpt>
      <trkpt lat="45.28194" lon="5.91044">
        <ele>301</ele>
        <time>2021-03-21T15:07:34Z</time>
      </trkpt>
      <trkpt lat="45.28173" lon="5.91027">
        <ele>298.9</ele>
        <time>2021-03-21T15:07:37Z</time>
      </trkpt>
      <trkpt lat="45.28158" lon="5.91018">
        <ele>299.4</ele>
        <time>2021-03-21T15:07:39Z</time>
      </trkpt>
      <trkpt lat="45.2814" lon="5.91005">
        <ele>298.5</ele>
        <time>2021-03-21T15:07:42Z</time>
      </trkpt>
      <trkpt lat="45.28129" lon="5.90996">
        <ele>292.8</ele>
        <time>2021-03-21T15:07:44Z</time>
      </trkpt>
      <trkpt lat="45.28112" lon="5.90983">
        <ele>290</ele>
        <time>2021-03-21T15:07:47Z</time>
      </trkpt>
      <trkpt lat="45.28101" lon="5.90974">
        <ele>291.8</ele>
        <time>2021-03-21T15:07:49Z</time>
      </trkpt>
      <trkpt lat="45.2809" lon="5.90965">
        <ele>290.7</ele>
        <time>2021-03-21T15:07:51Z</time>
      </trkpt>
      <trkpt lat="45.28064" lon="5.90944">
        <ele>290.7</ele>
        <time>2021-03-21T15:07:57Z</time>
      </trkpt>
      <trkpt lat="45.28049" lon="5.9093">
        <ele>293.1</ele>
        <time>2021-03-21T15:08:00Z</time>
      </trkpt>
      <trkpt lat="45.2803" lon="5.90912">
        <ele>289.7</ele>
        <time>2021-03-21T15:08:03Z</time>
      </trkpt>
      <trkpt lat="45.28019" lon="5.90902">
        <ele>289.8</ele>
        <time>2021-03-21T15:08:05Z</time>
      </trkpt>
      <trkpt lat="45.28008" lon="5.90894">
        <ele>289</ele>
        <time>2021-03-21T15:08:07Z</time>
      </trkpt>
      <trkpt lat="45.2799" lon="5.90881">
        <ele>286.4</ele>
        <time>2021-03-21T15:08:10Z</time>
      </trkpt>
      <trkpt lat="45.2798" lon="5.90872">
        <ele>288.5</ele>
        <time>2021-03-21T15:08:12Z</time>
      </trkpt>
      <trkpt lat="45.27969" lon="5.90862">
        <ele>286.6</ele>
        <time>2021-03-21T15:08:14Z</time>
      </trkpt>
      <trkpt lat="45.27955" lon="5.90846">
        <ele>287.5</ele>
        <time>2021-03-21T15:08:17Z</time>
      </trkpt>
      <trkpt lat="45.27946" lon="5.90836">
        <ele>287.6</ele>
        <time>2021-03-21T15:08:19Z</time>
      </trkpt>
      <trkpt lat="45.27937" lon="5.9082">
        <ele>289.5</ele>
        <time>2021-03-21T15:08:21Z</time>
      </trkpt>
      <trkpt lat="45.2792" lon="5.90806">
        <ele>287.5</ele>
        <time>2021-03-21T15:08:24Z</time>
      </trkpt>
      <trkpt lat="45.27909" lon="5.90799">
        <ele>289.9</ele>
        <time>2021-03-21T15:08:26Z</time>
      </trkpt>
      <trkpt lat="45.27894" lon="5.90795">
        <ele>287.6</ele>
        <time>2021-03-21T15:08:28Z</time>
      </trkpt>
      <trkpt lat="45.27874" lon="5.90785">
        <ele>288.1</ele>
        <time>2021-03-21T15:08:31Z</time>
      </trkpt>
      <trkpt lat="45.27861" lon="5.90769">
        <ele>286.1</ele>
        <time>2021-03-21T15:08:34Z</time>
      </trkpt>
      <trkpt lat="45.27851" lon="5.90759">
        <ele>288.5</ele>
        <time>2021-03-21T15:08:36Z</time>
      </trkpt>
      <trkpt lat="45.27835" lon="5.90742">
        <ele>282.5</ele>
        <time>2021-03-21T15:08:39Z</time>
      </trkpt>
      <trkpt lat="45.27822" lon="5.90728">
        <ele>281.9</ele>
        <time>2021-03-21T15:08:41Z</time>
      </trkpt>
      <trkpt lat="45.27807" lon="5.90712">
        <ele>281.8</ele>
        <time>2021-03-21T15:08:44Z</time>
      </trkpt>
      <trkpt lat="45.27794" lon="5.90694">
        <ele>285.6</ele>
        <time>2021-03-21T15:08:47Z</time>
      </trkpt>
      <trkpt lat="45.27787" lon="5.90682">
        <ele>283.5</ele>
        <time>2021-03-21T15:08:49Z</time>
      </trkpt>
      <trkpt lat="45.27774" lon="5.90667">
        <ele>287.5</ele>
        <time>2021-03-21T15:08:52Z</time>
      </trkpt>
      <trkpt lat="45.27759" lon="5.90654">
        <ele>286.3</ele>
        <time>2021-03-21T15:08:55Z</time>
      </trkpt>
      <trkpt lat="45.27748" lon="5.90646">
        <ele>288</ele>
        <time>2021-03-21T15:08:57Z</time>
      </trkpt>
      <trkpt lat="45.27738" lon="5.90637">
        <ele>286.5</ele>
        <time>2021-03-21T15:08:59Z</time>
      </trkpt>
      <trkpt lat="45.27729" lon="5.90626">
        <ele>287.3</ele>
        <time>2021-03-21T15:09:01Z</time>
      </trkpt>
      <trkpt lat="45.27716" lon="5.90618">
        <ele>291</ele>
        <time>2021-03-21T15:09:03Z</time>
      </trkpt>
      <trkpt lat="45.277" lon="5.90599">
        <ele>292.4</ele>
        <time>2021-03-21T15:09:06Z</time>
      </trkpt>
      <trkpt lat="45.27684" lon="5.90584">
        <ele>291.8</ele>
        <time>2021-03-21T15:09:09Z</time>
      </trkpt>
      <trkpt lat="45.27667" lon="5.90568">
        <ele>292.5</ele>
        <time>2021-03-21T15:09:12Z</time>
      </trkpt>
      <trkpt lat="45.27649" lon="5.90557">
        <ele>290</ele>
        <time>2021-03-21T15:09:15Z</time>
      </trkpt>
      <trkpt lat="45.27633" lon="5.90548">
        <ele>294.2</ele>
        <time>2021-03-21T15:09:18Z</time>
      </trkpt>
      <trkpt lat="45.27622" lon="5.90539">
        <ele>291.7</ele>
        <time>2021-03-21T15:09:20Z</time>
      </trkpt>
      <trkpt lat="45.27609" lon="5.90523">
        <ele>289.4</ele>
        <time>2021-03-21T15:09:23Z</time>
      </trkpt>
      <trkpt lat="45.27601" lon="5.90513">
        <ele>289.6</ele>
        <time>2021-03-21T15:09:25Z</time>
      </trkpt>
      <trkpt lat="45.27592" lon="5.905">
        <ele>293.8</ele>
        <time>2021-03-21T15:09:27Z</time>
      </trkpt>
      <trkpt lat="45.27581" lon="5.90488">
        <ele>292.2</ele>
        <time>2021-03-21T15:09:29Z</time>
      </trkpt>
      <trkpt lat="45.27568" lon="5.90479">
        <ele>293.5</ele>
        <time>2021-03-21T15:09:31Z</time>
      </trkpt>
      <trkpt lat="45.27551" lon="5.90463">
        <ele>290.6</ele>
        <time>2021-03-21T15:09:34Z</time>
      </trkpt>
      <trkpt lat="45.2754" lon="5.90453">
        <ele>295.3</ele>
        <time>2021-03-21T15:09:36Z</time>
      </trkpt>
      <trkpt lat="45.27528" lon="5.9044">
        <ele>295.8</ele>
        <time>2021-03-21T15:09:39Z</time>
      </trkpt>
      <trkpt lat="45.27514" lon="5.90428">
        <ele>296.9</ele>
        <time>2021-03-21T15:09:42Z</time>
      </trkpt>
      <trkpt lat="45.27501" lon="5.90416">
        <ele>296.9</ele>
        <time>2021-03-21T15:09:45Z</time>
      </trkpt>
      <trkpt lat="45.27487" lon="5.90403">
        <ele>298.5</ele>
        <time>2021-03-21T15:09:48Z</time>
      </trkpt>
      <trkpt lat="45.27477" lon="5.90395">
        <ele>301.7</ele>
        <time>2021-03-21T15:09:50Z</time>
      </trkpt>
      <trkpt lat="45.27462" lon="5.90385">
        <ele>298.6</ele>
        <time>2021-03-21T15:09:53Z</time>
      </trkpt>
      <trkpt lat="45.27452" lon="5.90375">
        <ele>295.5</ele>
        <time>2021-03-21T15:09:55Z</time>
      </trkpt>
      <trkpt lat="45.2744" lon="5.90363">
        <ele>298.5</ele>
        <time>2021-03-21T15:09:57Z</time>
      </trkpt>
      <trkpt lat="45.2743" lon="5.90352">
        <ele>298.7</ele>
        <time>2021-03-21T15:09:59Z</time>
      </trkpt>
      <trkpt lat="45.27421" lon="5.90343">
        <ele>298.5</ele>
        <time>2021-03-21T15:10:01Z</time>
      </trkpt>
      <trkpt lat="45.27404" lon="5.90328">
        <ele>298.3</ele>
        <time>2021-03-21T15:10:04Z</time>
      </trkpt>
      <trkpt lat="45.27389" lon="5.90323">
        <ele>292.2</ele>
        <time>2021-03-21T15:10:07Z</time>
      </trkpt>
      <trkpt lat="45.27378" lon="5.9032">
        <ele>294.7</ele>
        <time>2021-03-21T15:10:09Z</time>
      </trkpt>
      <trkpt lat="45.27367" lon="5.90317">
        <ele>293.3</ele>
        <time>2021-03-21T15:10:11Z</time>
      </trkpt>
      <trkpt lat="45.2735" lon="5.9031">
        <ele>296.7</ele>
        <time>2021-03-21T15:10:14Z</time>
      </trkpt>
      <trkpt lat="45.2733" lon="5.90303">
        <ele>295.7</ele>
        <time>2021-03-21T15:10:17Z</time>
      </trkpt>
      <trkpt lat="45.2731" lon="5.90299">
        <ele>296.1</ele>
        <time>2021-03-21T15:10:20Z</time>
      </trkpt>
      <trkpt lat="45.27298" lon="5.90292">
        <ele>296.1</ele>
        <time>2021-03-21T15:10:22Z</time>
      </trkpt>
      <trkpt lat="45.27281" lon="5.9028">
        <ele>300.1</ele>
        <time>2021-03-21T15:10:25Z</time>
      </trkpt>
      <trkpt lat="45.27267" lon="5.90266">
        <ele>299.1</ele>
        <time>2021-03-21T15:10:28Z</time>
      </trkpt>
      <trkpt lat="45.27251" lon="5.9025">
        <ele>296.5</ele>
        <time>2021-03-21T15:10:31Z</time>
      </trkpt>
      <trkpt lat="45.27233" lon="5.90235">
        <ele>297.8</ele>
        <time>2021-03-21T15:10:34Z</time>
      </trkpt>
      <trkpt lat="45.27216" lon="5.90223">
        <ele>299.9</ele>
        <time>2021-03-21T15:10:37Z</time>
      </trkpt>
      <trkpt lat="45.27202" lon="5.90212">
        <ele>304.6</ele>
        <time>2021-03-21T15:10:40Z</time>
      </trkpt>
      <trkpt lat="45.27187" lon="5.902">
        <ele>298.9</ele>
        <time>2021-03-21T15:10:43Z</time>
      </trkpt>
      <trkpt lat="45.2717" lon="5.90189">
        <ele>303.7</ele>
        <time>2021-03-21T15:10:46Z</time>
      </trkpt>
      <trkpt lat="45.27159" lon="5.90179">
        <ele>304.3</ele>
        <time>2021-03-21T15:10:48Z</time>
      </trkpt>
      <trkpt lat="45.27148" lon="5.90167">
        <ele>305.2</ele>
        <time>2021-03-21T15:10:50Z</time>
      </trkpt>
      <trkpt lat="45.27136" lon="5.90147">
        <ele>306.3</ele>
        <time>2021-03-21T15:10:53Z</time>
      </trkpt>
      <trkpt lat="45.27124" lon="5.90126">
        <ele>305.1</ele>
        <time>2021-03-21T15:10:56Z</time>
      </trkpt>
      <trkpt lat="45.27116" lon="5.90113">
        <ele>302.9</ele>
        <time>2021-03-21T15:10:58Z</time>
      </trkpt>
      <trkpt lat="45.27105" lon="5.90095">
        <ele>304.5</ele>
        <time>2021-03-21T15:11:01Z</time>
      </trkpt>
      <trkpt lat="45.27094" lon="5.90078">
        <ele>298.2</ele>
        <time>2021-03-21T15:11:03Z</time>
      </trkpt>
      <trkpt lat="45.27084" lon="5.90058">
        <ele>314.8</ele>
        <time>2021-03-21T15:11:06Z</time>
      </trkpt>
      <trkpt lat="45.27075" lon="5.90039">
        <ele>315.5</ele>
        <time>2021-03-21T15:11:09Z</time>
      </trkpt>
      <trkpt lat="45.27064" lon="5.90027">
        <ele>312.3</ele>
        <time>2021-03-21T15:11:11Z</time>
      </trkpt>
      <trkpt lat="45.27047" lon="5.90008">
        <ele>311.3</ele>
        <time>2021-03-21T15:11:14Z</time>
      </trkpt>
      <trkpt lat="45.27038" lon="5.89996">
        <ele>308.3</ele>
        <time>2021-03-21T15:11:16Z</time>
      </trkpt>
      <trkpt lat="45.27022" lon="5.89978">
        <ele>310.9</ele>
        <time>2021-03-21T15:11:19Z</time>
      </trkpt>
      <trkpt lat="45.27011" lon="5.89965">
        <ele>304.2</ele>
        <time>2021-03-21T15:11:21Z</time>
      </trkpt>
      <trkpt lat="45.26994" lon="5.89946">
        <ele>304.5</ele>
        <time>2021-03-21T15:11:24Z</time>
      </trkpt>
      <trkpt lat="45.26979" lon="5.89931">
        <ele>304.7</ele>
        <time>2021-03-21T15:11:27Z</time>
      </trkpt>
      <trkpt lat="45.26971" lon="5.89919">
        <ele>302.1</ele>
        <time>2021-03-21T15:11:29Z</time>
      </trkpt>
      <trkpt lat="45.26963" lon="5.89906">
        <ele>310.4</ele>
        <time>2021-03-21T15:11:31Z</time>
      </trkpt>
      <trkpt lat="45.26951" lon="5.89889">
        <ele>308.4</ele>
        <time>2021-03-21T15:11:34Z</time>
      </trkpt>
      <trkpt lat="45.26945" lon="5.89883">
        <ele>305.3</ele>
        <time>2021-03-21T15:11:36Z</time>
      </trkpt>
      <trkpt lat="45.26939" lon="5.89876">
        <ele>307.5</ele>
        <time>2021-03-21T15:11:38Z</time>
      </trkpt>
      <trkpt lat="45.26928" lon="5.89868">
        <ele>312.3</ele>
        <time>2021-03-21T15:11:41Z</time>
      </trkpt>
      <trkpt lat="45.26913" lon="5.89858">
        <ele>307.1</ele>
        <time>2021-03-21T15:11:44Z</time>
      </trkpt>
      <trkpt lat="45.269" lon="5.89848">
        <ele>307.9</ele>
        <time>2021-03-21T15:11:46Z</time>
      </trkpt>
      <trkpt lat="45.26875" lon="5.89836">
        <ele>310</ele>
        <time>2021-03-21T15:11:49Z</time>
      </trkpt>
      <trkpt lat="45.2686" lon="5.89829">
        <ele>307</ele>
        <time>2021-03-21T15:11:51Z</time>
      </trkpt>
      <trkpt lat="45.26849" lon="5.89825">
        <ele>307.3</ele>
        <time>2021-03-21T15:11:53Z</time>
      </trkpt>
      <trkpt lat="45.26831" lon="5.8982">
        <ele>306.1</ele>
        <time>2021-03-21T15:11:56Z</time>
      </trkpt>
      <trkpt lat="45.26815" lon="5.89818">
        <ele>307.7</ele>
        <time>2021-03-21T15:11:59Z</time>
      </trkpt>
      <trkpt lat="45.26797" lon="5.8982">
        <ele>306.4</ele>
        <time>2021-03-21T15:12:02Z</time>
      </trkpt>
      <trkpt lat="45.26787" lon="5.8982">
        <ele>306.5</ele>
        <time>2021-03-21T15:12:04Z</time>
      </trkpt>
      <trkpt lat="45.26775" lon="5.8982">
        <ele>309.5</ele>
        <time>2021-03-21T15:12:06Z</time>
      </trkpt>
      <trkpt lat="45.26752" lon="5.89816">
        <ele>307.5</ele>
        <time>2021-03-21T15:12:09Z</time>
      </trkpt>
      <trkpt lat="45.26738" lon="5.89811">
        <ele>306.3</ele>
        <time>2021-03-21T15:12:11Z</time>
      </trkpt>
      <trkpt lat="45.26717" lon="5.898">
        <ele>309.1</ele>
        <time>2021-03-21T15:12:14Z</time>
      </trkpt>
      <trkpt lat="45.26704" lon="5.89795">
        <ele>306.7</ele>
        <time>2021-03-21T15:12:16Z</time>
      </trkpt>
      <trkpt lat="45.26683" lon="5.89786">
        <ele>311.1</ele>
        <time>2021-03-21T15:12:19Z</time>
      </trkpt>
      <trkpt lat="45.2666" lon="5.89787">
        <ele>306.3</ele>
        <time>2021-03-21T15:12:22Z</time>
      </trkpt>
      <trkpt lat="45.26644" lon="5.89797">
        <ele>306.1</ele>
        <time>2021-03-21T15:12:25Z</time>
      </trkpt>
      <trkpt lat="45.26634" lon="5.89816">
        <ele>305.2</ele>
        <time>2021-03-21T15:12:28Z</time>
      </trkpt>
      <trkpt lat="45.26628" lon="5.89828">
        <ele>302.6</ele>
        <time>2021-03-21T15:12:30Z</time>
      </trkpt>
      <trkpt lat="45.26621" lon="5.89835">
        <ele>299.3</ele>
        <time>2021-03-21T15:12:32Z</time>
      </trkpt>
      <trkpt lat="45.26611" lon="5.89844">
        <ele>297.5</ele>
        <time>2021-03-21T15:12:35Z</time>
      </trkpt>
      <trkpt lat="45.26601" lon="5.89846">
        <ele>295.1</ele>
        <time>2021-03-21T15:12:37Z</time>
      </trkpt>
      <trkpt lat="45.26589" lon="5.89849">
        <ele>295</ele>
        <time>2021-03-21T15:12:40Z</time>
      </trkpt>
      <trkpt lat="45.26583" lon="5.89854">
        <ele>296</ele>
        <time>2021-03-21T15:12:42Z</time>
      </trkpt>
      <trkpt lat="45.26576" lon="5.89866">
        <ele>294.9</ele>
        <time>2021-03-21T15:12:45Z</time>
      </trkpt>
      <trkpt lat="45.26565" lon="5.89874">
        <ele>292.4</ele>
        <time>2021-03-21T15:12:48Z</time>
      </trkpt>
      <trkpt lat="45.26557" lon="5.89887">
        <ele>293.6</ele>
        <time>2021-03-21T15:12:51Z</time>
      </trkpt>
      <trkpt lat="45.26553" lon="5.89893">
        <ele>292.9</ele>
        <time>2021-03-21T15:12:53Z</time>
      </trkpt>
      <trkpt lat="45.26552" lon="5.89894">
        <ele>287</ele>
        <time>2021-03-21T15:12:56Z</time>
      </trkpt>
      <trkpt lat="45.26551" lon="5.89894">
        <ele>287.9</ele>
        <time>2021-03-21T15:12:59Z</time>
      </trkpt>
      <trkpt lat="45.26549" lon="5.89895">
        <ele>285.5</ele>
        <time>2021-03-21T15:13:02Z</time>
      </trkpt>
      <trkpt lat="45.2655" lon="5.89893">
        <ele>285.6</ele>
        <time>2021-03-21T15:13:05Z</time>
      </trkpt>
      <trkpt lat="45.26552" lon="5.89891">
        <ele>285.9</ele>
        <time>2021-03-21T15:13:07Z</time>
      </trkpt>
      <trkpt lat="45.26553" lon="5.8989">
        <ele>284.4</ele>
        <time>2021-03-21T15:13:09Z</time>
      </trkpt>
      <trkpt lat="45.26553" lon="5.8989">
        <ele>283.4</ele>
        <time>2021-03-21T15:13:12Z</time>
      </trkpt>
      <trkpt lat="45.26553" lon="5.8989">
        <ele>283.5</ele>
        <time>2021-03-21T15:13:15Z</time>
      </trkpt>
      <trkpt lat="45.26553" lon="5.8989">
        <ele>284.3</ele>
        <time>2021-03-21T15:13:18Z</time>
      </trkpt>
      <trkpt lat="45.26553" lon="5.8989">
        <ele>284</ele>
        <time>2021-03-21T15:13:20Z</time>
      </trkpt>
      <trkpt lat="45.26553" lon="5.8989">
        <ele>284.6</ele>
        <time>2021-03-21T15:13:23Z</time>
      </trkpt>
      <trkpt lat="45.26551" lon="5.89892">
        <ele>285.5</ele>
        <time>2021-03-21T15:13:26Z</time>
      </trkpt>
      <trkpt lat="45.26546" lon="5.89897">
        <ele>287.6</ele>
        <time>2021-03-21T15:13:29Z</time>
      </trkpt>
      <trkpt lat="45.26543" lon="5.89899">
        <ele>290.1</ele>
        <time>2021-03-21T15:13:31Z</time>
      </trkpt>
      <trkpt lat="45.26539" lon="5.89904">
        <ele>290.9</ele>
        <time>2021-03-21T15:13:34Z</time>
      </trkpt>
      <trkpt lat="45.26536" lon="5.89907">
        <ele>290.6</ele>
        <time>2021-03-21T15:13:36Z</time>
      </trkpt>
      <trkpt lat="45.26532" lon="5.89909">
        <ele>290.9</ele>
        <time>2021-03-21T15:13:39Z</time>
      </trkpt>
      <trkpt lat="45.26529" lon="5.89913">
        <ele>294.1</ele>
        <time>2021-03-21T15:13:41Z</time>
      </trkpt>
      <trkpt lat="45.26527" lon="5.89917">
        <ele>292.5</ele>
        <time>2021-03-21T15:13:43Z</time>
      </trkpt>
      <trkpt lat="45.26524" lon="5.89922">
        <ele>297.2</ele>
        <time>2021-03-21T15:13:46Z</time>
      </trkpt>
      <trkpt lat="45.26522" lon="5.89926">
        <ele>295.3</ele>
        <time>2021-03-21T15:13:48Z</time>
      </trkpt>
      <trkpt lat="45.26519" lon="5.89932">
        <ele>297.5</ele>
        <time>2021-03-21T15:13:51Z</time>
      </trkpt>
      <trkpt lat="45.26516" lon="5.89936">
        <ele>294.5</ele>
        <time>2021-03-21T15:13:54Z</time>
      </trkpt>
      <trkpt lat="45.26514" lon="5.8994">
        <ele>297.7</ele>
        <time>2021-03-21T15:13:56Z</time>
      </trkpt>
      <trkpt lat="45.26509" lon="5.89946">
        <ele>301.4</ele>
        <time>2021-03-21T15:13:59Z</time>
      </trkpt>
      <trkpt lat="45.26506" lon="5.89951">
        <ele>299.6</ele>
        <time>2021-03-21T15:14:02Z</time>
      </trkpt>
      <trkpt lat="45.26503" lon="5.89957">
        <ele>298.8</ele>
        <time>2021-03-21T15:14:05Z</time>
      </trkpt>
      <trkpt lat="45.26498" lon="5.89962">
        <ele>303.1</ele>
        <time>2021-03-21T15:14:08Z</time>
      </trkpt>
      <trkpt lat="45.26495" lon="5.89966">
        <ele>303.6</ele>
        <time>2021-03-21T15:14:10Z</time>
      </trkpt>
      <trkpt lat="45.26492" lon="5.89973">
        <ele>305</ele>
        <time>2021-03-21T15:14:13Z</time>
      </trkpt>
      <trkpt lat="45.2649" lon="5.8998">
        <ele>299.2</ele>
        <time>2021-03-21T15:14:16Z</time>
      </trkpt>
      <trkpt lat="45.26487" lon="5.89985">
        <ele>302.4</ele>
        <time>2021-03-21T15:14:18Z</time>
      </trkpt>
      <trkpt lat="45.26485" lon="5.89989">
        <ele>299.6</ele>
        <time>2021-03-21T15:14:20Z</time>
      </trkpt>
      <trkpt lat="45.26482" lon="5.89991">
        <ele>304.9</ele>
        <time>2021-03-21T15:14:23Z</time>
      </trkpt>
      <trkpt lat="45.26481" lon="5.89995">
        <ele>302.9</ele>
        <time>2021-03-21T15:14:26Z</time>
      </trkpt>
      <trkpt lat="45.26479" lon="5.89997">
        <ele>302.7</ele>
        <time>2021-03-21T15:14:28Z</time>
      </trkpt>
      <trkpt lat="45.26476" lon="5.90004">
        <ele>300.7</ele>
        <time>2021-03-21T15:14:31Z</time>
      </trkpt>
      <trkpt lat="45.26471" lon="5.90011">
        <ele>298</ele>
        <time>2021-03-21T15:14:34Z</time>
      </trkpt>
      <trkpt lat="45.26464" lon="5.90013">
        <ele>299.1</ele>
        <time>2021-03-21T15:14:37Z</time>
      </trkpt>
      <trkpt lat="45.26454" lon="5.90009">
        <ele>299</ele>
        <time>2021-03-21T15:14:40Z</time>
      </trkpt>
      <trkpt lat="45.26447" lon="5.90003">
        <ele>296</ele>
        <time>2021-03-21T15:14:42Z</time>
      </trkpt>
      <trkpt lat="45.26439" lon="5.89999">
        <ele>299.6</ele>
        <time>2021-03-21T15:14:44Z</time>
      </trkpt>
      <trkpt lat="45.26426" lon="5.90009">
        <ele>297.6</ele>
        <time>2021-03-21T15:14:47Z</time>
      </trkpt>
      <trkpt lat="45.26421" lon="5.90033">
        <ele>298.2</ele>
        <time>2021-03-21T15:14:50Z</time>
      </trkpt>
      <trkpt lat="45.2642" lon="5.90047">
        <ele>299.5</ele>
        <time>2021-03-21T15:14:52Z</time>
      </trkpt>
      <trkpt lat="45.26416" lon="5.90057">
        <ele>297.4</ele>
        <time>2021-03-21T15:14:54Z</time>
      </trkpt>
      <trkpt lat="45.26408" lon="5.90074">
        <ele>298.9</ele>
        <time>2021-03-21T15:14:57Z</time>
      </trkpt>
      <trkpt lat="45.26401" lon="5.90083">
        <ele>297.4</ele>
        <time>2021-03-21T15:14:59Z</time>
      </trkpt>
      <trkpt lat="45.26394" lon="5.90094">
        <ele>298.7</ele>
        <time>2021-03-21T15:15:02Z</time>
      </trkpt>
      <trkpt lat="45.26386" lon="5.90096">
        <ele>296.1</ele>
        <time>2021-03-21T15:15:04Z</time>
      </trkpt>
      <trkpt lat="45.2637" lon="5.90101">
        <ele>297.6</ele>
        <time>2021-03-21T15:15:07Z</time>
      </trkpt>
      <trkpt lat="45.26364" lon="5.90105">
        <ele>298.6</ele>
        <time>2021-03-21T15:15:09Z</time>
      </trkpt>
      <trkpt lat="45.26357" lon="5.90119">
        <ele>302.2</ele>
        <time>2021-03-21T15:15:12Z</time>
      </trkpt>
      <trkpt lat="45.26353" lon="5.90128">
        <ele>301.8</ele>
        <time>2021-03-21T15:15:14Z</time>
      </trkpt>
      <trkpt lat="45.26345" lon="5.90142">
        <ele>305</ele>
        <time>2021-03-21T15:15:17Z</time>
      </trkpt>
      <trkpt lat="45.26343" lon="5.90147">
        <ele>301.4</ele>
        <time>2021-03-21T15:15:19Z</time>
      </trkpt>
      <trkpt lat="45.2634" lon="5.90157">
        <ele>300</ele>
        <time>2021-03-21T15:15:22Z</time>
      </trkpt>
      <trkpt lat="45.26331" lon="5.90166">
        <ele>300.8</ele>
        <time>2021-03-21T15:15:25Z</time>
      </trkpt>
      <trkpt lat="45.26324" lon="5.90172">
        <ele>300.9</ele>
        <time>2021-03-21T15:15:27Z</time>
      </trkpt>
      <trkpt lat="45.26317" lon="5.90178">
        <ele>299.1</ele>
        <time>2021-03-21T15:15:29Z</time>
      </trkpt>
      <trkpt lat="45.26306" lon="5.90188">
        <ele>297.6</ele>
        <time>2021-03-21T15:15:32Z</time>
      </trkpt>
      <trkpt lat="45.26296" lon="5.90198">
        <ele>295.1</ele>
        <time>2021-03-21T15:15:35Z</time>
      </trkpt>
      <trkpt lat="45.26291" lon="5.90203">
        <ele>291.6</ele>
        <time>2021-03-21T15:15:37Z</time>
      </trkpt>
      <trkpt lat="45.2628" lon="5.90207">
        <ele>290.5</ele>
        <time>2021-03-21T15:15:40Z</time>
      </trkpt>
      <trkpt lat="45.26273" lon="5.90211">
        <ele>288.7</ele>
        <time>2021-03-21T15:15:42Z</time>
      </trkpt>
      <trkpt lat="45.26265" lon="5.90219">
        <ele>289.6</ele>
        <time>2021-03-21T15:15:45Z</time>
      </trkpt>
      <trkpt lat="45.26259" lon="5.90224">
        <ele>290</ele>
        <time>2021-03-21T15:15:47Z</time>
      </trkpt>
      <trkpt lat="45.26252" lon="5.90229">
        <ele>287.8</ele>
        <time>2021-03-21T15:15:50Z</time>
      </trkpt>
      <trkpt lat="45.26247" lon="5.9023">
        <ele>284.7</ele>
        <time>2021-03-21T15:15:52Z</time>
      </trkpt>
      <trkpt lat="45.2624" lon="5.90227">
        <ele>283.8</ele>
        <time>2021-03-21T15:15:54Z</time>
      </trkpt>
      <trkpt lat="45.26227" lon="5.90211">
        <ele>285.5</ele>
        <time>2021-03-21T15:15:57Z</time>
      </trkpt>
      <trkpt lat="45.26212" lon="5.90196">
        <ele>287.2</ele>
        <time>2021-03-21T15:16:00Z</time>
      </trkpt>
      <trkpt lat="45.26204" lon="5.90187">
        <ele>285.6</ele>
        <time>2021-03-21T15:16:02Z</time>
      </trkpt>
      <trkpt lat="45.26192" lon="5.90172">
        <ele>287.6</ele>
        <time>2021-03-21T15:16:05Z</time>
      </trkpt>
      <trkpt lat="45.2618" lon="5.90155">
        <ele>289.1</ele>
        <time>2021-03-21T15:16:08Z</time>
      </trkpt>
      <trkpt lat="45.26167" lon="5.9014">
        <ele>289.2</ele>
        <time>2021-03-21T15:16:11Z</time>
      </trkpt>
      <trkpt lat="45.26161" lon="5.9013">
        <ele>287.9</ele>
        <time>2021-03-21T15:16:13Z</time>
      </trkpt>
      <trkpt lat="45.26148" lon="5.90113">
        <ele>292.4</ele>
        <time>2021-03-21T15:16:16Z</time>
      </trkpt>
      <trkpt lat="45.26138" lon="5.90098">
        <ele>288.1</ele>
        <time>2021-03-21T15:16:19Z</time>
      </trkpt>
      <trkpt lat="45.26131" lon="5.90084">
        <ele>291.8</ele>
        <time>2021-03-21T15:16:22Z</time>
      </trkpt>
      <trkpt lat="45.26125" lon="5.90072">
        <ele>288.9</ele>
        <time>2021-03-21T15:16:25Z</time>
      </trkpt>
      <trkpt lat="45.26115" lon="5.90057">
        <ele>289.4</ele>
        <time>2021-03-21T15:16:28Z</time>
      </trkpt>
      <trkpt lat="45.26112" lon="5.90052">
        <ele>289.6</ele>
        <time>2021-03-21T15:16:30Z</time>
      </trkpt>
      <trkpt lat="45.26109" lon="5.90046">
        <ele>287.2</ele>
        <time>2021-03-21T15:16:32Z</time>
      </trkpt>
      <trkpt lat="45.26104" lon="5.90039">
        <ele>289.7</ele>
        <time>2021-03-21T15:16:34Z</time>
      </trkpt>
      <trkpt lat="45.26093" lon="5.90027">
        <ele>288.2</ele>
        <time>2021-03-21T15:16:37Z</time>
      </trkpt>
      <trkpt lat="45.26085" lon="5.9002">
        <ele>286.7</ele>
        <time>2021-03-21T15:16:39Z</time>
      </trkpt>
      <trkpt lat="45.26075" lon="5.90008">
        <ele>290.2</ele>
        <time>2021-03-21T15:16:42Z</time>
      </trkpt>
      <trkpt lat="45.26064" lon="5.89993">
        <ele>296</ele>
        <time>2021-03-21T15:16:45Z</time>
      </trkpt>
      <trkpt lat="45.26053" lon="5.8998">
        <ele>292.5</ele>
        <time>2021-03-21T15:16:48Z</time>
      </trkpt>
      <trkpt lat="45.26044" lon="5.8997">
        <ele>293.2</ele>
        <time>2021-03-21T15:16:50Z</time>
      </trkpt>
      <trkpt lat="45.26035" lon="5.89961">
        <ele>292.2</ele>
        <time>2021-03-21T15:16:52Z</time>
      </trkpt>
      <trkpt lat="45.26028" lon="5.89952">
        <ele>289.6</ele>
        <time>2021-03-21T15:16:54Z</time>
      </trkpt>
      <trkpt lat="45.26014" lon="5.89935">
        <ele>287.7</ele>
        <time>2021-03-21T15:16:57Z</time>
      </trkpt>
      <trkpt lat="45.25999" lon="5.89919">
        <ele>289</ele>
        <time>2021-03-21T15:17:00Z</time>
      </trkpt>
      <trkpt lat="45.25991" lon="5.89909">
        <ele>289.3</ele>
        <time>2021-03-21T15:17:02Z</time>
      </trkpt>
      <trkpt lat="45.25975" lon="5.89893">
        <ele>291.5</ele>
        <time>2021-03-21T15:17:05Z</time>
      </trkpt>
      <trkpt lat="45.25966" lon="5.89891">
        <ele>289.6</ele>
        <time>2021-03-21T15:17:07Z</time>
      </trkpt>
      <trkpt lat="45.25958" lon="5.89901">
        <ele>291.3</ele>
        <time>2021-03-21T15:17:09Z</time>
      </trkpt>
      <trkpt lat="45.25948" lon="5.89916">
        <ele>286.7</ele>
        <time>2021-03-21T15:17:12Z</time>
      </trkpt>
      <trkpt lat="45.25944" lon="5.89928">
        <ele>282</ele>
        <time>2021-03-21T15:17:14Z</time>
      </trkpt>
      <trkpt lat="45.25939" lon="5.89947">
        <ele>281.3</ele>
        <time>2021-03-21T15:17:17Z</time>
      </trkpt>
      <trkpt lat="45.25933" lon="5.89962">
        <ele>286</ele>
        <time>2021-03-21T15:17:20Z</time>
      </trkpt>
      <trkpt lat="45.25928" lon="5.89973">
        <ele>285.5</ele>
        <time>2021-03-21T15:17:22Z</time>
      </trkpt>
      <trkpt lat="45.2592" lon="5.89988">
        <ele>286.4</ele>
        <time>2021-03-21T15:17:25Z</time>
      </trkpt>
      <trkpt lat="45.25913" lon="5.89998">
        <ele>285.5</ele>
        <time>2021-03-21T15:17:27Z</time>
      </trkpt>
      <trkpt lat="45.25906" lon="5.90018">
        <ele>283.3</ele>
        <time>2021-03-21T15:17:30Z</time>
      </trkpt>
      <trkpt lat="45.25895" lon="5.90049">
        <ele>288.2</ele>
        <time>2021-03-21T15:17:36Z</time>
      </trkpt>
      <trkpt lat="45.25886" lon="5.90067">
        <ele>287.2</ele>
        <time>2021-03-21T15:17:38Z</time>
      </trkpt>
      <trkpt lat="45.25876" lon="5.90091">
        <ele>286.4</ele>
        <time>2021-03-21T15:17:41Z</time>
      </trkpt>
      <trkpt lat="45.25869" lon="5.90105">
        <ele>287.3</ele>
        <time>2021-03-21T15:17:43Z</time>
      </trkpt>
      <trkpt lat="45.25864" lon="5.90119">
        <ele>286.9</ele>
        <time>2021-03-21T15:17:45Z</time>
      </trkpt>
      <trkpt lat="45.25856" lon="5.9014">
        <ele>284.1</ele>
        <time>2021-03-21T15:17:48Z</time>
      </trkpt>
      <trkpt lat="45.25848" lon="5.90157">
        <ele>284.7</ele>
        <time>2021-03-21T15:17:51Z</time>
      </trkpt>
      <trkpt lat="45.25843" lon="5.9017">
        <ele>284.9</ele>
        <time>2021-03-21T15:17:53Z</time>
      </trkpt>
      <trkpt lat="45.25833" lon="5.90187">
        <ele>286.3</ele>
        <time>2021-03-21T15:17:56Z</time>
      </trkpt>
      <trkpt lat="45.25825" lon="5.90208">
        <ele>286.8</ele>
        <time>2021-03-21T15:17:59Z</time>
      </trkpt>
      <trkpt lat="45.25816" lon="5.90227">
        <ele>287.8</ele>
        <time>2021-03-21T15:18:02Z</time>
      </trkpt>
      <trkpt lat="45.25808" lon="5.90235">
        <ele>290.7</ele>
        <time>2021-03-21T15:18:04Z</time>
      </trkpt>
      <trkpt lat="45.25795" lon="5.90247">
        <ele>290.8</ele>
        <time>2021-03-21T15:18:07Z</time>
      </trkpt>
      <trkpt lat="45.25788" lon="5.90256">
        <ele>289.7</ele>
        <time>2021-03-21T15:18:09Z</time>
      </trkpt>
      <trkpt lat="45.25781" lon="5.90267">
        <ele>286.8</ele>
        <time>2021-03-21T15:18:11Z</time>
      </trkpt>
      <trkpt lat="45.25771" lon="5.90283">
        <ele>282.8</ele>
        <time>2021-03-21T15:18:14Z</time>
      </trkpt>
      <trkpt lat="45.25761" lon="5.90301">
        <ele>285</ele>
        <time>2021-03-21T15:18:17Z</time>
      </trkpt>
      <trkpt lat="45.25751" lon="5.90315">
        <ele>284.4</ele>
        <time>2021-03-21T15:18:20Z</time>
      </trkpt>
      <trkpt lat="45.25745" lon="5.90327">
        <ele>282.2</ele>
        <time>2021-03-21T15:18:22Z</time>
      </trkpt>
      <trkpt lat="45.25739" lon="5.9034">
        <ele>280.3</ele>
        <time>2021-03-21T15:18:24Z</time>
      </trkpt>
      <trkpt lat="45.25733" lon="5.90352">
        <ele>280.8</ele>
        <time>2021-03-21T15:18:26Z</time>
      </trkpt>
      <trkpt lat="45.25724" lon="5.90371">
        <ele>280.3</ele>
        <time>2021-03-21T15:18:29Z</time>
      </trkpt>
      <trkpt lat="45.25718" lon="5.9038">
        <ele>280.3</ele>
        <time>2021-03-21T15:18:31Z</time>
      </trkpt>
      <trkpt lat="45.25709" lon="5.90384">
        <ele>280.1</ele>
        <time>2021-03-21T15:18:33Z</time>
      </trkpt>
      <trkpt lat="45.25695" lon="5.90391">
        <ele>275.6</ele>
        <time>2021-03-21T15:18:36Z</time>
      </trkpt>
      <trkpt lat="45.25691" lon="5.90407">
        <ele>277.4</ele>
        <time>2021-03-21T15:18:38Z</time>
      </trkpt>
      <trkpt lat="45.25689" lon="5.9042">
        <ele>277.9</ele>
        <time>2021-03-21T15:18:40Z</time>
      </trkpt>
      <trkpt lat="45.25682" lon="5.90436">
        <ele>275.6</ele>
        <time>2021-03-21T15:18:43Z</time>
      </trkpt>
      <trkpt lat="45.25676" lon="5.90446">
        <ele>278.4</ele>
        <time>2021-03-21T15:18:45Z</time>
      </trkpt>
      <trkpt lat="45.2567" lon="5.90456">
        <ele>278.4</ele>
        <time>2021-03-21T15:18:47Z</time>
      </trkpt>
      <trkpt lat="45.25659" lon="5.90474">
        <ele>277.3</ele>
        <time>2021-03-21T15:18:50Z</time>
      </trkpt>
      <trkpt lat="45.25653" lon="5.90485">
        <ele>283.6</ele>
        <time>2021-03-21T15:18:52Z</time>
      </trkpt>
      <trkpt lat="45.25645" lon="5.90495">
        <ele>284.8</ele>
        <time>2021-03-21T15:18:55Z</time>
      </trkpt>
      <trkpt lat="45.25638" lon="5.90505">
        <ele>285</ele>
        <time>2021-03-21T15:18:57Z</time>
      </trkpt>
      <trkpt lat="45.25633" lon="5.90515">
        <ele>283.8</ele>
        <time>2021-03-21T15:18:59Z</time>
      </trkpt>
      <trkpt lat="45.25626" lon="5.90528">
        <ele>288</ele>
        <time>2021-03-21T15:19:02Z</time>
      </trkpt>
      <trkpt lat="45.25619" lon="5.90542">
        <ele>287.8</ele>
        <time>2021-03-21T15:19:05Z</time>
      </trkpt>
      <trkpt lat="45.25616" lon="5.90552">
        <ele>287.5</ele>
        <time>2021-03-21T15:19:07Z</time>
      </trkpt>
      <trkpt lat="45.25613" lon="5.90561">
        <ele>289.2</ele>
        <time>2021-03-21T15:19:09Z</time>
      </trkpt>
      <trkpt lat="45.25605" lon="5.90571">
        <ele>285.3</ele>
        <time>2021-03-21T15:19:12Z</time>
      </trkpt>
      <trkpt lat="45.25595" lon="5.90571">
        <ele>288</ele>
        <time>2021-03-21T15:19:15Z</time>
      </trkpt>
      <trkpt lat="45.25588" lon="5.90558">
        <ele>288.5</ele>
        <time>2021-03-21T15:19:18Z</time>
      </trkpt>
      <trkpt lat="45.2558" lon="5.90545">
        <ele>289.2</ele>
        <time>2021-03-21T15:19:21Z</time>
      </trkpt>
      <trkpt lat="45.25573" lon="5.90538">
        <ele>290.4</ele>
        <time>2021-03-21T15:19:23Z</time>
      </trkpt>
      <trkpt lat="45.25565" lon="5.90531">
        <ele>292.9</ele>
        <time>2021-03-21T15:19:25Z</time>
      </trkpt>
      <trkpt lat="45.25557" lon="5.90522">
        <ele>290.8</ele>
        <time>2021-03-21T15:19:27Z</time>
      </trkpt>
      <trkpt lat="45.25543" lon="5.90506">
        <ele>287.4</ele>
        <time>2021-03-21T15:19:30Z</time>
      </trkpt>
      <trkpt lat="45.25535" lon="5.90496">
        <ele>290</ele>
        <time>2021-03-21T15:19:32Z</time>
      </trkpt>
      <trkpt lat="45.25521" lon="5.90481">
        <ele>287.6</ele>
        <time>2021-03-21T15:19:35Z</time>
      </trkpt>
      <trkpt lat="45.25505" lon="5.90465">
        <ele>288</ele>
        <time>2021-03-21T15:19:38Z</time>
      </trkpt>
      <trkpt lat="45.2549" lon="5.90444">
        <ele>285.2</ele>
        <time>2021-03-21T15:19:41Z</time>
      </trkpt>
      <trkpt lat="45.2548" lon="5.90432">
        <ele>286.3</ele>
        <time>2021-03-21T15:19:43Z</time>
      </trkpt>
      <trkpt lat="45.25465" lon="5.90417">
        <ele>283.4</ele>
        <time>2021-03-21T15:19:46Z</time>
      </trkpt>
      <trkpt lat="45.25449" lon="5.90402">
        <ele>284.8</ele>
        <time>2021-03-21T15:19:49Z</time>
      </trkpt>
      <trkpt lat="45.2544" lon="5.90391">
        <ele>284.1</ele>
        <time>2021-03-21T15:19:51Z</time>
      </trkpt>
      <trkpt lat="45.25433" lon="5.90382">
        <ele>281.6</ele>
        <time>2021-03-21T15:19:53Z</time>
      </trkpt>
      <trkpt lat="45.25421" lon="5.90372">
        <ele>284.4</ele>
        <time>2021-03-21T15:19:56Z</time>
      </trkpt>
      <trkpt lat="45.25413" lon="5.90362">
        <ele>286.8</ele>
        <time>2021-03-21T15:19:59Z</time>
      </trkpt>
      <trkpt lat="45.25404" lon="5.90352">
        <ele>287.3</ele>
        <time>2021-03-21T15:20:02Z</time>
      </trkpt>
      <trkpt lat="45.25395" lon="5.90337">
        <ele>290.1</ele>
        <time>2021-03-21T15:20:05Z</time>
      </trkpt>
      <trkpt lat="45.25384" lon="5.90323">
        <ele>290.6</ele>
        <time>2021-03-21T15:20:08Z</time>
      </trkpt>
      <trkpt lat="45.25373" lon="5.90313">
        <ele>294.7</ele>
        <time>2021-03-21T15:20:11Z</time>
      </trkpt>
      <trkpt lat="45.25363" lon="5.90304">
        <ele>293.1</ele>
        <time>2021-03-21T15:20:14Z</time>
      </trkpt>
      <trkpt lat="45.25356" lon="5.90296">
        <ele>295.7</ele>
        <time>2021-03-21T15:20:16Z</time>
      </trkpt>
      <trkpt lat="45.25348" lon="5.90288">
        <ele>296.3</ele>
        <time>2021-03-21T15:20:18Z</time>
      </trkpt>
      <trkpt lat="45.25335" lon="5.90277">
        <ele>302.3</ele>
        <time>2021-03-21T15:20:21Z</time>
      </trkpt>
      <trkpt lat="45.25327" lon="5.90269">
        <ele>299.8</ele>
        <time>2021-03-21T15:20:23Z</time>
      </trkpt>
      <trkpt lat="45.25322" lon="5.90259">
        <ele>301.8</ele>
        <time>2021-03-21T15:20:25Z</time>
      </trkpt>
      <trkpt lat="45.25312" lon="5.90248">
        <ele>304.7</ele>
        <time>2021-03-21T15:20:28Z</time>
      </trkpt>
      <trkpt lat="45.25305" lon="5.90242">
        <ele>303.2</ele>
        <time>2021-03-21T15:20:30Z</time>
      </trkpt>
      <trkpt lat="45.25297" lon="5.90233">
        <ele>304.6</ele>
        <time>2021-03-21T15:20:32Z</time>
      </trkpt>
      <trkpt lat="45.25284" lon="5.9022">
        <ele>306.9</ele>
        <time>2021-03-21T15:20:35Z</time>
      </trkpt>
      <trkpt lat="45.25271" lon="5.90209">
        <ele>307.5</ele>
        <time>2021-03-21T15:20:38Z</time>
      </trkpt>
      <trkpt lat="45.2526" lon="5.90198">
        <ele>307.5</ele>
        <time>2021-03-21T15:20:41Z</time>
      </trkpt>
      <trkpt lat="45.25252" lon="5.90191">
        <ele>306.1</ele>
        <time>2021-03-21T15:20:43Z</time>
      </trkpt>
      <trkpt lat="45.25241" lon="5.90179">
        <ele>310.3</ele>
        <time>2021-03-21T15:20:46Z</time>
      </trkpt>
      <trkpt lat="45.25229" lon="5.90168">
        <ele>306.8</ele>
        <time>2021-03-21T15:20:49Z</time>
      </trkpt>
      <trkpt lat="45.25224" lon="5.90159">
        <ele>308.5</ele>
        <time>2021-03-21T15:20:51Z</time>
      </trkpt>
      <trkpt lat="45.25213" lon="5.90144">
        <ele>311</ele>
        <time>2021-03-21T15:20:54Z</time>
      </trkpt>
      <trkpt lat="45.25205" lon="5.90136">
        <ele>312.2</ele>
        <time>2021-03-21T15:20:56Z</time>
      </trkpt>
      <trkpt lat="45.25195" lon="5.90125">
        <ele>309.2</ele>
        <time>2021-03-21T15:20:59Z</time>
      </trkpt>
      <trkpt lat="45.25188" lon="5.90117">
        <ele>308.3</ele>
        <time>2021-03-21T15:21:01Z</time>
      </trkpt>
      <trkpt lat="45.25177" lon="5.90103">
        <ele>313.1</ele>
        <time>2021-03-21T15:21:04Z</time>
      </trkpt>
      <trkpt lat="45.25165" lon="5.90088">
        <ele>307.5</ele>
        <time>2021-03-21T15:21:07Z</time>
      </trkpt>
      <trkpt lat="45.25155" lon="5.90077">
        <ele>307.9</ele>
        <time>2021-03-21T15:21:10Z</time>
      </trkpt>
      <trkpt lat="45.25149" lon="5.90068">
        <ele>308.3</ele>
        <time>2021-03-21T15:21:12Z</time>
      </trkpt>
      <trkpt lat="45.25148" lon="5.90058">
        <ele>305.9</ele>
        <time>2021-03-21T15:21:15Z</time>
      </trkpt>
      <trkpt lat="45.25147" lon="5.9005">
        <ele>309.2</ele>
        <time>2021-03-21T15:21:17Z</time>
      </trkpt>
      <trkpt lat="45.25139" lon="5.9004">
        <ele>304.2</ele>
        <time>2021-03-21T15:21:20Z</time>
      </trkpt>
      <trkpt lat="45.25125" lon="5.90036">
        <ele>298.8</ele>
        <time>2021-03-21T15:21:23Z</time>
      </trkpt>
      <trkpt lat="45.25115" lon="5.90036">
        <ele>302.1</ele>
        <time>2021-03-21T15:21:25Z</time>
      </trkpt>
      <trkpt lat="45.25107" lon="5.90031">
        <ele>301.9</ele>
        <time>2021-03-21T15:21:27Z</time>
      </trkpt>
      <trkpt lat="45.25096" lon="5.90019">
        <ele>305.3</ele>
        <time>2021-03-21T15:21:30Z</time>
      </trkpt>
      <trkpt lat="45.25088" lon="5.90011">
        <ele>302.3</ele>
        <time>2021-03-21T15:21:32Z</time>
      </trkpt>
      <trkpt lat="45.25077" lon="5.9">
        <ele>302.6</ele>
        <time>2021-03-21T15:21:35Z</time>
      </trkpt>
      <trkpt lat="45.25069" lon="5.89994">
        <ele>303.4</ele>
        <time>2021-03-21T15:21:37Z</time>
      </trkpt>
      <trkpt lat="45.25061" lon="5.89987">
        <ele>301.9</ele>
        <time>2021-03-21T15:21:39Z</time>
      </trkpt>
      <trkpt lat="45.2505" lon="5.89977">
        <ele>301.2</ele>
        <time>2021-03-21T15:21:42Z</time>
      </trkpt>
      <trkpt lat="45.25043" lon="5.89967">
        <ele>297</ele>
        <time>2021-03-21T15:21:44Z</time>
      </trkpt>
      <trkpt lat="45.25035" lon="5.89951">
        <ele>294.8</ele>
        <time>2021-03-21T15:21:47Z</time>
      </trkpt>
      <trkpt lat="45.25027" lon="5.89935">
        <ele>292</ele>
        <time>2021-03-21T15:21:50Z</time>
      </trkpt>
      <trkpt lat="45.25017" lon="5.89916">
        <ele>291.9</ele>
        <time>2021-03-21T15:21:53Z</time>
      </trkpt>
      <trkpt lat="45.2501" lon="5.89901">
        <ele>292</ele>
        <time>2021-03-21T15:21:56Z</time>
      </trkpt>
      <trkpt lat="45.25013" lon="5.8989">
        <ele>288.1</ele>
        <time>2021-03-21T15:21:58Z</time>
      </trkpt>
      <trkpt lat="45.25022" lon="5.89877">
        <ele>288.2</ele>
        <time>2021-03-21T15:22:01Z</time>
      </trkpt>
      <trkpt lat="45.25025" lon="5.89873">
        <ele>290.3</ele>
        <time>2021-03-21T15:22:04Z</time>
      </trkpt>
      <trkpt lat="45.25023" lon="5.8987">
        <ele>291.3</ele>
        <time>2021-03-21T15:22:06Z</time>
      </trkpt>
      <trkpt lat="45.25015" lon="5.89859">
        <ele>291.6</ele>
        <time>2021-03-21T15:22:08Z</time>
      </trkpt>
      <trkpt lat="45.24998" lon="5.89852">
        <ele>296.6</ele>
        <time>2021-03-21T15:22:11Z</time>
      </trkpt>
      <trkpt lat="45.24981" lon="5.89856">
        <ele>294.6</ele>
        <time>2021-03-21T15:22:14Z</time>
      </trkpt>
      <trkpt lat="45.24965" lon="5.89864">
        <ele>297.8</ele>
        <time>2021-03-21T15:22:17Z</time>
      </trkpt>
      <trkpt lat="45.24954" lon="5.89869">
        <ele>301.4</ele>
        <time>2021-03-21T15:22:19Z</time>
      </trkpt>
      <trkpt lat="45.24939" lon="5.8986">
        <ele>298.7</ele>
        <time>2021-03-21T15:22:22Z</time>
      </trkpt>
      <trkpt lat="45.24927" lon="5.8985">
        <ele>301.4</ele>
        <time>2021-03-21T15:22:25Z</time>
      </trkpt>
      <trkpt lat="45.24917" lon="5.89835">
        <ele>304.5</ele>
        <time>2021-03-21T15:22:28Z</time>
      </trkpt>
      <trkpt lat="45.2491" lon="5.89826">
        <ele>306.8</ele>
        <time>2021-03-21T15:22:30Z</time>
      </trkpt>
      <trkpt lat="45.24901" lon="5.89818">
        <ele>306.7</ele>
        <time>2021-03-21T15:22:32Z</time>
      </trkpt>
      <trkpt lat="45.24885" lon="5.89799">
        <ele>309.4</ele>
        <time>2021-03-21T15:22:38Z</time>
      </trkpt>
      <trkpt lat="45.2487" lon="5.89786">
        <ele>316</ele>
        <time>2021-03-21T15:22:40Z</time>
      </trkpt>
      <trkpt lat="45.2486" lon="5.89775">
        <ele>313.7</ele>
        <time>2021-03-21T15:22:42Z</time>
      </trkpt>
      <trkpt lat="45.24843" lon="5.89759">
        <ele>314.8</ele>
        <time>2021-03-21T15:22:45Z</time>
      </trkpt>
      <trkpt lat="45.24834" lon="5.8975">
        <ele>315.3</ele>
        <time>2021-03-21T15:22:47Z</time>
      </trkpt>
      <trkpt lat="45.24822" lon="5.89738">
        <ele>315.1</ele>
        <time>2021-03-21T15:22:50Z</time>
      </trkpt>
      <trkpt lat="45.24806" lon="5.89721">
        <ele>315.8</ele>
        <time>2021-03-21T15:22:53Z</time>
      </trkpt>
      <trkpt lat="45.24793" lon="5.89702">
        <ele>320</ele>
        <time>2021-03-21T15:22:56Z</time>
      </trkpt>
      <trkpt lat="45.24784" lon="5.89689">
        <ele>319</ele>
        <time>2021-03-21T15:22:58Z</time>
      </trkpt>
      <trkpt lat="45.24772" lon="5.89673">
        <ele>318.4</ele>
        <time>2021-03-21T15:23:01Z</time>
      </trkpt>
      <trkpt lat="45.24764" lon="5.89666">
        <ele>317.3</ele>
        <time>2021-03-21T15:23:03Z</time>
      </trkpt>
      <trkpt lat="45.24757" lon="5.89658">
        <ele>315.8</ele>
        <time>2021-03-21T15:23:05Z</time>
      </trkpt>
      <trkpt lat="45.24749" lon="5.8965">
        <ele>312.8</ele>
        <time>2021-03-21T15:23:07Z</time>
      </trkpt>
      <trkpt lat="45.24743" lon="5.89639">
        <ele>310.2</ele>
        <time>2021-03-21T15:23:09Z</time>
      </trkpt>
      <trkpt lat="45.24735" lon="5.8963">
        <ele>306.6</ele>
        <time>2021-03-21T15:23:11Z</time>
      </trkpt>
      <trkpt lat="45.24723" lon="5.89617">
        <ele>307</ele>
        <time>2021-03-21T15:23:14Z</time>
      </trkpt>
      <trkpt lat="45.24715" lon="5.89608">
        <ele>309.7</ele>
        <time>2021-03-21T15:23:16Z</time>
      </trkpt>
      <trkpt lat="45.247" lon="5.89598">
        <ele>310</ele>
        <time>2021-03-21T15:23:19Z</time>
      </trkpt>
      <trkpt lat="45.24692" lon="5.89592">
        <ele>310.5</ele>
        <time>2021-03-21T15:23:22Z</time>
      </trkpt>
      <trkpt lat="45.24684" lon="5.89586">
        <ele>306.8</ele>
        <time>2021-03-21T15:23:25Z</time>
      </trkpt>
      <trkpt lat="45.24671" lon="5.89578">
        <ele>308.6</ele>
        <time>2021-03-21T15:23:28Z</time>
      </trkpt>
      <trkpt lat="45.24659" lon="5.89578">
        <ele>312.2</ele>
        <time>2021-03-21T15:23:31Z</time>
      </trkpt>
      <trkpt lat="45.24653" lon="5.89575">
        <ele>307.2</ele>
        <time>2021-03-21T15:23:33Z</time>
      </trkpt>
      <trkpt lat="45.24648" lon="5.89569">
        <ele>307.9</ele>
        <time>2021-03-21T15:23:36Z</time>
      </trkpt>
      <trkpt lat="45.24648" lon="5.8957">
        <ele>308</ele>
        <time>2021-03-21T15:23:39Z</time>
      </trkpt>
      <trkpt lat="45.24649" lon="5.89576">
        <ele>311.6</ele>
        <time>2021-03-21T15:23:42Z</time>
      </trkpt>
      <trkpt lat="45.24649" lon="5.89581">
        <ele>308.9</ele>
        <time>2021-03-21T15:23:45Z</time>
      </trkpt>
      <trkpt lat="45.24647" lon="5.89581">
        <ele>308.7</ele>
        <time>2021-03-21T15:23:47Z</time>
      </trkpt>
      <trkpt lat="45.24646" lon="5.89581">
        <ele>306.3</ele>
        <time>2021-03-21T15:23:49Z</time>
      </trkpt>
      <trkpt lat="45.24646" lon="5.8958">
        <ele>307.7</ele>
        <time>2021-03-21T15:23:51Z</time>
      </trkpt>
      <trkpt lat="45.24646" lon="5.8958">
        <ele>305.7</ele>
        <time>2021-03-21T15:23:54Z</time>
      </trkpt>
      <trkpt lat="45.24645" lon="5.8958">
        <ele>306</ele>
        <time>2021-03-21T15:23:56Z</time>
      </trkpt>
      <trkpt lat="45.24644" lon="5.89577">
        <ele>304.8</ele>
        <time>2021-03-21T15:23:59Z</time>
      </trkpt>
      <trkpt lat="45.24639" lon="5.8957">
        <ele>305.4</ele>
        <time>2021-03-21T15:24:02Z</time>
      </trkpt>
      <trkpt lat="45.24633" lon="5.89564">
        <ele>303.4</ele>
        <time>2021-03-21T15:24:04Z</time>
      </trkpt>
      <trkpt lat="45.24624" lon="5.89556">
        <ele>306.4</ele>
        <time>2021-03-21T15:24:07Z</time>
      </trkpt>
      <trkpt lat="45.24617" lon="5.89552">
        <ele>307</ele>
        <time>2021-03-21T15:24:09Z</time>
      </trkpt>
      <trkpt lat="45.24606" lon="5.89545">
        <ele>307.1</ele>
        <time>2021-03-21T15:24:12Z</time>
      </trkpt>
      <trkpt lat="45.24593" lon="5.89535">
        <ele>308.2</ele>
        <time>2021-03-21T15:24:15Z</time>
      </trkpt>
      <trkpt lat="45.24579" lon="5.89525">
        <ele>306.3</ele>
        <time>2021-03-21T15:24:18Z</time>
      </trkpt>
      <trkpt lat="45.24563" lon="5.89514">
        <ele>309.6</ele>
        <time>2021-03-21T15:24:21Z</time>
      </trkpt>
      <trkpt lat="45.24547" lon="5.89501">
        <ele>309</ele>
        <time>2021-03-21T15:24:24Z</time>
      </trkpt>
      <trkpt lat="45.2453" lon="5.89488">
        <ele>308.8</ele>
        <time>2021-03-21T15:24:27Z</time>
      </trkpt>
      <trkpt lat="45.24513" lon="5.89475">
        <ele>306.8</ele>
        <time>2021-03-21T15:24:30Z</time>
      </trkpt>
      <trkpt lat="45.24495" lon="5.89462">
        <ele>309.1</ele>
        <time>2021-03-21T15:24:33Z</time>
      </trkpt>
      <trkpt lat="45.24483" lon="5.8945">
        <ele>312.1</ele>
        <time>2021-03-21T15:24:35Z</time>
      </trkpt>
      <trkpt lat="45.24465" lon="5.89434">
        <ele>309.7</ele>
        <time>2021-03-21T15:24:38Z</time>
      </trkpt>
      <trkpt lat="45.24446" lon="5.89416">
        <ele>312.8</ele>
        <time>2021-03-21T15:24:41Z</time>
      </trkpt>
      <trkpt lat="45.24423" lon="5.89401">
        <ele>314.9</ele>
        <time>2021-03-21T15:24:44Z</time>
      </trkpt>
      <trkpt lat="45.244" lon="5.89385">
        <ele>313.8</ele>
        <time>2021-03-21T15:24:47Z</time>
      </trkpt>
      <trkpt lat="45.24384" lon="5.89375">
        <ele>310.2</ele>
        <time>2021-03-21T15:24:49Z</time>
      </trkpt>
      <trkpt lat="45.24368" lon="5.89364">
        <ele>308.1</ele>
        <time>2021-03-21T15:24:51Z</time>
      </trkpt>
      <trkpt lat="45.24355" lon="5.89352">
        <ele>307</ele>
        <time>2021-03-21T15:24:53Z</time>
      </trkpt>
      <trkpt lat="45.24337" lon="5.89333">
        <ele>306.4</ele>
        <time>2021-03-21T15:24:56Z</time>
      </trkpt>
      <trkpt lat="45.24324" lon="5.89317">
        <ele>303.1</ele>
        <time>2021-03-21T15:24:58Z</time>
      </trkpt>
      <trkpt lat="45.24306" lon="5.89292">
        <ele>302.1</ele>
        <time>2021-03-21T15:25:01Z</time>
      </trkpt>
      <trkpt lat="45.24293" lon="5.89275">
        <ele>304.9</ele>
        <time>2021-03-21T15:25:03Z</time>
      </trkpt>
      <trkpt lat="45.2427" lon="5.89247">
        <ele>305.8</ele>
        <time>2021-03-21T15:25:06Z</time>
      </trkpt>
      <trkpt lat="45.24255" lon="5.89225">
        <ele>305.2</ele>
        <time>2021-03-21T15:25:08Z</time>
      </trkpt>
      <trkpt lat="45.24233" lon="5.89195">
        <ele>304.5</ele>
        <time>2021-03-21T15:25:11Z</time>
      </trkpt>
      <trkpt lat="45.2421" lon="5.89172">
        <ele>305.4</ele>
        <time>2021-03-21T15:25:14Z</time>
      </trkpt>
      <trkpt lat="45.24186" lon="5.89154">
        <ele>304.5</ele>
        <time>2021-03-21T15:25:17Z</time>
      </trkpt>
      <trkpt lat="45.24171" lon="5.89143">
        <ele>304.5</ele>
        <time>2021-03-21T15:25:19Z</time>
      </trkpt>
      <trkpt lat="45.24149" lon="5.89129">
        <ele>303.6</ele>
        <time>2021-03-21T15:25:22Z</time>
      </trkpt>
      <trkpt lat="45.24136" lon="5.89118">
        <ele>300.5</ele>
        <time>2021-03-21T15:25:24Z</time>
      </trkpt>
      <trkpt lat="45.24121" lon="5.89107">
        <ele>299.8</ele>
        <time>2021-03-21T15:25:27Z</time>
      </trkpt>
      <trkpt lat="45.24111" lon="5.89101">
        <ele>300.9</ele>
        <time>2021-03-21T15:25:30Z</time>
      </trkpt>
      <trkpt lat="45.24105" lon="5.89096">
        <ele>299.1</ele>
        <time>2021-03-21T15:25:32Z</time>
      </trkpt>
      <trkpt lat="45.24099" lon="5.89093">
        <ele>296.1</ele>
        <time>2021-03-21T15:25:34Z</time>
      </trkpt>
      <trkpt lat="45.24099" lon="5.89094">
        <ele>294.8</ele>
        <time>2021-03-21T15:25:36Z</time>
      </trkpt>
      <trkpt lat="45.24097" lon="5.8909">
        <ele>296.1</ele>
        <time>2021-03-21T15:25:39Z</time>
      </trkpt>
      <trkpt lat="45.24095" lon="5.89084">
        <ele>293.9</ele>
        <time>2021-03-21T15:25:41Z</time>
      </trkpt>
      <trkpt lat="45.24092" lon="5.8908">
        <ele>290.2</ele>
        <time>2021-03-21T15:25:44Z</time>
      </trkpt>
      <trkpt lat="45.24091" lon="5.89083">
        <ele>294.9</ele>
        <time>2021-03-21T15:25:46Z</time>
      </trkpt>
      <trkpt lat="45.24087" lon="5.89088">
        <ele>296.2</ele>
        <time>2021-03-21T15:25:49Z</time>
      </trkpt>
      <trkpt lat="45.24079" lon="5.89086">
        <ele>295.4</ele>
        <time>2021-03-21T15:25:52Z</time>
      </trkpt>
      <trkpt lat="45.2407" lon="5.89082">
        <ele>290.3</ele>
        <time>2021-03-21T15:25:55Z</time>
      </trkpt>
      <trkpt lat="45.24059" lon="5.89075">
        <ele>291.1</ele>
        <time>2021-03-21T15:25:58Z</time>
      </trkpt>
      <trkpt lat="45.24044" lon="5.89062">
        <ele>293.1</ele>
        <time>2021-03-21T15:26:01Z</time>
      </trkpt>
      <trkpt lat="45.24029" lon="5.89052">
        <ele>289.8</ele>
        <time>2021-03-21T15:26:04Z</time>
      </trkpt>
      <trkpt lat="45.24012" lon="5.89041">
        <ele>292.8</ele>
        <time>2021-03-21T15:26:07Z</time>
      </trkpt>
      <trkpt lat="45.23994" lon="5.89024">
        <ele>292.3</ele>
        <time>2021-03-21T15:26:10Z</time>
      </trkpt>
      <trkpt lat="45.23981" lon="5.89011">
        <ele>296.9</ele>
        <time>2021-03-21T15:26:12Z</time>
      </trkpt>
      <trkpt lat="45.23963" lon="5.88994">
        <ele>293.2</ele>
        <time>2021-03-21T15:26:15Z</time>
      </trkpt>
      <trkpt lat="45.23951" lon="5.8898">
        <ele>295.3</ele>
        <time>2021-03-21T15:26:17Z</time>
      </trkpt>
      <trkpt lat="45.23935" lon="5.88951">
        <ele>300.2</ele>
        <time>2021-03-21T15:26:20Z</time>
      </trkpt>
      <trkpt lat="45.23917" lon="5.8893">
        <ele>303.6</ele>
        <time>2021-03-21T15:26:23Z</time>
      </trkpt>
      <trkpt lat="45.23907" lon="5.88913">
        <ele>302.1</ele>
        <time>2021-03-21T15:26:25Z</time>
      </trkpt>
      <trkpt lat="45.23894" lon="5.8889">
        <ele>303.5</ele>
        <time>2021-03-21T15:26:28Z</time>
      </trkpt>
      <trkpt lat="45.23881" lon="5.88869">
        <ele>304.6</ele>
        <time>2021-03-21T15:26:31Z</time>
      </trkpt>
      <trkpt lat="45.23864" lon="5.88857">
        <ele>304.4</ele>
        <time>2021-03-21T15:26:34Z</time>
      </trkpt>
      <trkpt lat="45.23849" lon="5.88842">
        <ele>302.5</ele>
        <time>2021-03-21T15:26:37Z</time>
      </trkpt>
      <trkpt lat="45.2384" lon="5.88832">
        <ele>304.1</ele>
        <time>2021-03-21T15:26:39Z</time>
      </trkpt>
      <trkpt lat="45.23831" lon="5.88823">
        <ele>306.1</ele>
        <time>2021-03-21T15:26:41Z</time>
      </trkpt>
      <trkpt lat="45.23823" lon="5.88811">
        <ele>304.5</ele>
        <time>2021-03-21T15:26:43Z</time>
      </trkpt>
      <trkpt lat="45.23807" lon="5.88799">
        <ele>304.1</ele>
        <time>2021-03-21T15:26:46Z</time>
      </trkpt>
      <trkpt lat="45.23798" lon="5.88792">
        <ele>298.6</ele>
        <time>2021-03-21T15:26:48Z</time>
      </trkpt>
      <trkpt lat="45.23794" lon="5.88781">
        <ele>295.5</ele>
        <time>2021-03-21T15:26:50Z</time>
      </trkpt>
      <trkpt lat="45.23787" lon="5.88769">
        <ele>295</ele>
        <time>2021-03-21T15:26:52Z</time>
      </trkpt>
      <trkpt lat="45.23778" lon="5.88758">
        <ele>294.5</ele>
        <time>2021-03-21T15:26:54Z</time>
      </trkpt>
      <trkpt lat="45.23767" lon="5.88746">
        <ele>291.2</ele>
        <time>2021-03-21T15:26:57Z</time>
      </trkpt>
      <trkpt lat="45.2376" lon="5.88734">
        <ele>295.2</ele>
        <time>2021-03-21T15:27:00Z</time>
      </trkpt>
      <trkpt lat="45.23754" lon="5.88722">
        <ele>299.6</ele>
        <time>2021-03-21T15:27:02Z</time>
      </trkpt>
      <trkpt lat="45.23742" lon="5.88706">
        <ele>305.5</ele>
        <time>2021-03-21T15:27:05Z</time>
      </trkpt>
      <trkpt lat="45.23737" lon="5.88697">
        <ele>302.6</ele>
        <time>2021-03-21T15:27:07Z</time>
      </trkpt>
      <trkpt lat="45.23726" lon="5.88684">
        <ele>298.4</ele>
        <time>2021-03-21T15:27:10Z</time>
      </trkpt>
      <trkpt lat="45.23715" lon="5.88669">
        <ele>299.7</ele>
        <time>2021-03-21T15:27:13Z</time>
      </trkpt>
      <trkpt lat="45.23708" lon="5.88653">
        <ele>303.3</ele>
        <time>2021-03-21T15:27:16Z</time>
      </trkpt>
      <trkpt lat="45.23695" lon="5.88638">
        <ele>296.8</ele>
        <time>2021-03-21T15:27:19Z</time>
      </trkpt>
      <trkpt lat="45.23687" lon="5.88626">
        <ele>299.6</ele>
        <time>2021-03-21T15:27:21Z</time>
      </trkpt>
      <trkpt lat="45.23678" lon="5.88608">
        <ele>300.7</ele>
        <time>2021-03-21T15:27:24Z</time>
      </trkpt>
      <trkpt lat="45.23667" lon="5.88592">
        <ele>298.8</ele>
        <time>2021-03-21T15:27:27Z</time>
      </trkpt>
      <trkpt lat="45.2366" lon="5.88581">
        <ele>299.3</ele>
        <time>2021-03-21T15:27:29Z</time>
      </trkpt>
      <trkpt lat="45.23651" lon="5.8857">
        <ele>292.6</ele>
        <time>2021-03-21T15:27:32Z</time>
      </trkpt>
      <trkpt lat="45.23645" lon="5.88559">
        <ele>297.5</ele>
        <time>2021-03-21T15:27:35Z</time>
      </trkpt>
      <trkpt lat="45.23638" lon="5.88545">
        <ele>299.7</ele>
        <time>2021-03-21T15:27:38Z</time>
      </trkpt>
      <trkpt lat="45.23625" lon="5.88529">
        <ele>302.4</ele>
        <time>2021-03-21T15:27:41Z</time>
      </trkpt>
      <trkpt lat="45.23615" lon="5.88514">
        <ele>299.9</ele>
        <time>2021-03-21T15:27:44Z</time>
      </trkpt>
      <trkpt lat="45.23608" lon="5.88504">
        <ele>304.8</ele>
        <time>2021-03-21T15:27:46Z</time>
      </trkpt>
      <trkpt lat="45.23598" lon="5.88491">
        <ele>302.3</ele>
        <time>2021-03-21T15:27:49Z</time>
      </trkpt>
      <trkpt lat="45.23592" lon="5.88482">
        <ele>303.9</ele>
        <time>2021-03-21T15:27:51Z</time>
      </trkpt>
      <trkpt lat="45.23582" lon="5.88469">
        <ele>304.8</ele>
        <time>2021-03-21T15:27:54Z</time>
      </trkpt>
      <trkpt lat="45.23575" lon="5.8846">
        <ele>303.3</ele>
        <time>2021-03-21T15:27:56Z</time>
      </trkpt>
      <trkpt lat="45.23567" lon="5.88449">
        <ele>302.9</ele>
        <time>2021-03-21T15:27:58Z</time>
      </trkpt>
      <trkpt lat="45.2356" lon="5.88439">
        <ele>300.4</ele>
        <time>2021-03-21T15:28:00Z</time>
      </trkpt>
      <trkpt lat="45.23545" lon="5.88423">
        <ele>299.1</ele>
        <time>2021-03-21T15:28:03Z</time>
      </trkpt>
      <trkpt lat="45.23537" lon="5.8841">
        <ele>306.3</ele>
        <time>2021-03-21T15:28:05Z</time>
      </trkpt>
      <trkpt lat="45.23524" lon="5.8839">
        <ele>298.2</ele>
        <time>2021-03-21T15:28:08Z</time>
      </trkpt>
      <trkpt lat="45.2351" lon="5.88372">
        <ele>299.3</ele>
        <time>2021-03-21T15:28:11Z</time>
      </trkpt>
      <trkpt lat="45.23501" lon="5.88359">
        <ele>297.8</ele>
        <time>2021-03-21T15:28:13Z</time>
      </trkpt>
      <trkpt lat="45.23488" lon="5.88341">
        <ele>298.4</ele>
        <time>2021-03-21T15:28:16Z</time>
      </trkpt>
      <trkpt lat="45.23472" lon="5.88326">
        <ele>298.6</ele>
        <time>2021-03-21T15:28:19Z</time>
      </trkpt>
      <trkpt lat="45.23463" lon="5.88315">
        <ele>295.6</ele>
        <time>2021-03-21T15:28:21Z</time>
      </trkpt>
      <trkpt lat="45.2345" lon="5.883">
        <ele>301.9</ele>
        <time>2021-03-21T15:28:24Z</time>
      </trkpt>
      <trkpt lat="45.23434" lon="5.88286">
        <ele>300.7</ele>
        <time>2021-03-21T15:28:27Z</time>
      </trkpt>
      <trkpt lat="45.23428" lon="5.88283">
        <ele>302.9</ele>
        <time>2021-03-21T15:28:29Z</time>
      </trkpt>
      <trkpt lat="45.23425" lon="5.88281">
        <ele>301.5</ele>
        <time>2021-03-21T15:28:31Z</time>
      </trkpt>
      <trkpt lat="45.23422" lon="5.88278">
        <ele>305.2</ele>
        <time>2021-03-21T15:28:34Z</time>
      </trkpt>
      <trkpt lat="45.23423" lon="5.88275">
        <ele>304.3</ele>
        <time>2021-03-21T15:28:37Z</time>
      </trkpt>
      <trkpt lat="45.23424" lon="5.88273">
        <ele>305.1</ele>
        <time>2021-03-21T15:28:40Z</time>
      </trkpt>
      <trkpt lat="45.23425" lon="5.88272">
        <ele>305.1</ele>
        <time>2021-03-21T15:28:42Z</time>
      </trkpt>
      <trkpt lat="45.23425" lon="5.88271">
        <ele>306.4</ele>
        <time>2021-03-21T15:28:45Z</time>
      </trkpt>
      <trkpt lat="45.23422" lon="5.88267">
        <ele>305.5</ele>
        <time>2021-03-21T15:28:47Z</time>
      </trkpt>
      <trkpt lat="45.23419" lon="5.88264">
        <ele>304.9</ele>
        <time>2021-03-21T15:28:49Z</time>
      </trkpt>
      <trkpt lat="45.23415" lon="5.88261">
        <ele>304.6</ele>
        <time>2021-03-21T15:28:52Z</time>
      </trkpt>
      <trkpt lat="45.23411" lon="5.88256">
        <ele>308.5</ele>
        <time>2021-03-21T15:28:55Z</time>
      </trkpt>
      <trkpt lat="45.23411" lon="5.88257">
        <ele>310.9</ele>
        <time>2021-03-21T15:28:57Z</time>
      </trkpt>
      <trkpt lat="45.23413" lon="5.88264">
        <ele>310.4</ele>
        <time>2021-03-21T15:28:59Z</time>
      </trkpt>
      <trkpt lat="45.23417" lon="5.88273">
        <ele>311.3</ele>
        <time>2021-03-21T15:29:02Z</time>
      </trkpt>
      <trkpt lat="45.23416" lon="5.88274">
        <ele>310.5</ele>
        <time>2021-03-21T15:29:04Z</time>
      </trkpt>
      <trkpt lat="45.23405" lon="5.8828">
        <ele>305.1</ele>
        <time>2021-03-21T15:29:07Z</time>
      </trkpt>
      <trkpt lat="45.23398" lon="5.88285">
        <ele>308.8</ele>
        <time>2021-03-21T15:29:09Z</time>
      </trkpt>
      <trkpt lat="45.23389" lon="5.88295">
        <ele>300.7</ele>
        <time>2021-03-21T15:29:12Z</time>
      </trkpt>
      <trkpt lat="45.23378" lon="5.88308">
        <ele>301.1</ele>
        <time>2021-03-21T15:29:15Z</time>
      </trkpt>
      <trkpt lat="45.23369" lon="5.88318">
        <ele>297.3</ele>
        <time>2021-03-21T15:29:17Z</time>
      </trkpt>
      <trkpt lat="45.23356" lon="5.8833">
        <ele>293</ele>
        <time>2021-03-21T15:29:20Z</time>
      </trkpt>
      <trkpt lat="45.23348" lon="5.88339">
        <ele>293.4</ele>
        <time>2021-03-21T15:29:22Z</time>
      </trkpt>
      <trkpt lat="45.23336" lon="5.8835">
        <ele>290.1</ele>
        <time>2021-03-21T15:29:25Z</time>
      </trkpt>
      <trkpt lat="45.23329" lon="5.88357">
        <ele>291.2</ele>
        <time>2021-03-21T15:29:27Z</time>
      </trkpt>
      <trkpt lat="45.23322" lon="5.88363">
        <ele>290.6</ele>
        <time>2021-03-21T15:29:29Z</time>
      </trkpt>
      <trkpt lat="45.23311" lon="5.88372">
        <ele>290.2</ele>
        <time>2021-03-21T15:29:32Z</time>
      </trkpt>
      <trkpt lat="45.23303" lon="5.88378">
        <ele>290.3</ele>
        <time>2021-03-21T15:29:34Z</time>
      </trkpt>
      <trkpt lat="45.23292" lon="5.8839">
        <ele>290.6</ele>
        <time>2021-03-21T15:29:37Z</time>
      </trkpt>
      <trkpt lat="45.23285" lon="5.88398">
        <ele>293</ele>
        <time>2021-03-21T15:29:39Z</time>
      </trkpt>
      <trkpt lat="45.23277" lon="5.88413">
        <ele>290.6</ele>
        <time>2021-03-21T15:29:42Z</time>
      </trkpt>
      <trkpt lat="45.23273" lon="5.88431">
        <ele>288.1</ele>
        <time>2021-03-21T15:29:45Z</time>
      </trkpt>
      <trkpt lat="45.23271" lon="5.8845">
        <ele>287.3</ele>
        <time>2021-03-21T15:29:48Z</time>
      </trkpt>
      <trkpt lat="45.23272" lon="5.88461">
        <ele>285.4</ele>
        <time>2021-03-21T15:29:50Z</time>
      </trkpt>
      <trkpt lat="45.23273" lon="5.88477">
        <ele>288.6</ele>
        <time>2021-03-21T15:29:53Z</time>
      </trkpt>
      <trkpt lat="45.23274" lon="5.88488">
        <ele>289.9</ele>
        <time>2021-03-21T15:29:55Z</time>
      </trkpt>
      <trkpt lat="45.23277" lon="5.88498">
        <ele>292.2</ele>
        <time>2021-03-21T15:29:57Z</time>
      </trkpt>
      <trkpt lat="45.23288" lon="5.8851">
        <ele>294.7</ele>
        <time>2021-03-21T15:30:00Z</time>
      </trkpt>
      <trkpt lat="45.23296" lon="5.88515">
        <ele>296.8</ele>
        <time>2021-03-21T15:30:02Z</time>
      </trkpt>
      <trkpt lat="45.23303" lon="5.88521">
        <ele>296.5</ele>
        <time>2021-03-21T15:30:04Z</time>
      </trkpt>
      <trkpt lat="45.23315" lon="5.8853">
        <ele>297.5</ele>
        <time>2021-03-21T15:30:07Z</time>
      </trkpt>
      <trkpt lat="45.23323" lon="5.88536">
        <ele>296.9</ele>
        <time>2021-03-21T15:30:09Z</time>
      </trkpt>
      <trkpt lat="45.23334" lon="5.88547">
        <ele>299</ele>
        <time>2021-03-21T15:30:12Z</time>
      </trkpt>
      <trkpt lat="45.2334" lon="5.88553">
        <ele>302.1</ele>
        <time>2021-03-21T15:30:14Z</time>
      </trkpt>
      <trkpt lat="45.2335" lon="5.88563">
        <ele>301.7</ele>
        <time>2021-03-21T15:30:17Z</time>
      </trkpt>
      <trkpt lat="45.23354" lon="5.8857">
        <ele>303.7</ele>
        <time>2021-03-21T15:30:19Z</time>
      </trkpt>
      <trkpt lat="45.23363" lon="5.8858">
        <ele>306.7</ele>
        <time>2021-03-21T15:30:22Z</time>
      </trkpt>
      <trkpt lat="45.23371" lon="5.8859">
        <ele>307.9</ele>
        <time>2021-03-21T15:30:25Z</time>
      </trkpt>
      <trkpt lat="45.23378" lon="5.88595">
        <ele>308.5</ele>
        <time>2021-03-21T15:30:27Z</time>
      </trkpt>
      <trkpt lat="45.23385" lon="5.886">
        <ele>308.8</ele>
        <time>2021-03-21T15:30:29Z</time>
      </trkpt>
      <trkpt lat="45.23396" lon="5.88608">
        <ele>309.7</ele>
        <time>2021-03-21T15:30:32Z</time>
      </trkpt>
      <trkpt lat="45.23402" lon="5.88615">
        <ele>308.9</ele>
        <time>2021-03-21T15:30:34Z</time>
      </trkpt>
      <trkpt lat="45.23408" lon="5.88623">
        <ele>310</ele>
        <time>2021-03-21T15:30:36Z</time>
      </trkpt>
      <trkpt lat="45.23415" lon="5.88636">
        <ele>308.8</ele>
        <time>2021-03-21T15:30:39Z</time>
      </trkpt>
      <trkpt lat="45.23417" lon="5.88648">
        <ele>306.7</ele>
        <time>2021-03-21T15:30:41Z</time>
      </trkpt>
      <trkpt lat="45.2342" lon="5.88665">
        <ele>306.3</ele>
        <time>2021-03-21T15:30:44Z</time>
      </trkpt>
      <trkpt lat="45.23421" lon="5.88677">
        <ele>308.3</ele>
        <time>2021-03-21T15:30:46Z</time>
      </trkpt>
      <trkpt lat="45.23423" lon="5.88695">
        <ele>309.4</ele>
        <time>2021-03-21T15:30:49Z</time>
      </trkpt>
      <trkpt lat="45.23426" lon="5.88712">
        <ele>309.7</ele>
        <time>2021-03-21T15:30:52Z</time>
      </trkpt>
      <trkpt lat="45.23432" lon="5.88727">
        <ele>311.3</ele>
        <time>2021-03-21T15:30:55Z</time>
      </trkpt>
      <trkpt lat="45.23441" lon="5.88737">
        <ele>313.8</ele>
        <time>2021-03-21T15:30:58Z</time>
      </trkpt>
      <trkpt lat="45.2345" lon="5.88747">
        <ele>310.6</ele>
        <time>2021-03-21T15:31:01Z</time>
      </trkpt>
      <trkpt lat="45.23458" lon="5.88759">
        <ele>309.7</ele>
        <time>2021-03-21T15:31:04Z</time>
      </trkpt>
      <trkpt lat="45.23467" lon="5.88771">
        <ele>309.1</ele>
        <time>2021-03-21T15:31:07Z</time>
      </trkpt>
      <trkpt lat="45.23476" lon="5.88784">
        <ele>308.8</ele>
        <time>2021-03-21T15:31:10Z</time>
      </trkpt>
      <trkpt lat="45.23482" lon="5.8879">
        <ele>309</ele>
        <time>2021-03-21T15:31:12Z</time>
      </trkpt>
      <trkpt lat="45.23487" lon="5.88794">
        <ele>309.9</ele>
        <time>2021-03-21T15:31:14Z</time>
      </trkpt>
      <trkpt lat="45.23495" lon="5.888">
        <ele>312.6</ele>
        <time>2021-03-21T15:31:17Z</time>
      </trkpt>
      <trkpt lat="45.23502" lon="5.88805">
        <ele>312.9</ele>
        <time>2021-03-21T15:31:19Z</time>
      </trkpt>
      <trkpt lat="45.23511" lon="5.88811">
        <ele>319.9</ele>
        <time>2021-03-21T15:31:22Z</time>
      </trkpt>
      <trkpt lat="45.23521" lon="5.88819">
        <ele>319.6</ele>
        <time>2021-03-21T15:31:25Z</time>
      </trkpt>
      <trkpt lat="45.23529" lon="5.88826">
        <ele>319.7</ele>
        <time>2021-03-21T15:31:28Z</time>
      </trkpt>
      <trkpt lat="45.23534" lon="5.88832">
        <ele>321</ele>
        <time>2021-03-21T15:31:30Z</time>
      </trkpt>
      <trkpt lat="45.2354" lon="5.88841">
        <ele>319</ele>
        <time>2021-03-21T15:31:33Z</time>
      </trkpt>
      <trkpt lat="45.23549" lon="5.88851">
        <ele>319.6</ele>
        <time>2021-03-21T15:31:36Z</time>
      </trkpt>
      <trkpt lat="45.23555" lon="5.88858">
        <ele>322.7</ele>
        <time>2021-03-21T15:31:38Z</time>
      </trkpt>
      <trkpt lat="45.23562" lon="5.88865">
        <ele>322.8</ele>
        <time>2021-03-21T15:31:40Z</time>
      </trkpt>
      <trkpt lat="45.23571" lon="5.88874">
        <ele>326.8</ele>
        <time>2021-03-21T15:31:43Z</time>
      </trkpt>
      <trkpt lat="45.23576" lon="5.88879">
        <ele>327.8</ele>
        <time>2021-03-21T15:31:45Z</time>
      </trkpt>
      <trkpt lat="45.23584" lon="5.88887">
        <ele>330.2</ele>
        <time>2021-03-21T15:31:48Z</time>
      </trkpt>
      <trkpt lat="45.23589" lon="5.88892">
        <ele>332.4</ele>
        <time>2021-03-21T15:31:50Z</time>
      </trkpt>
      <trkpt lat="45.23593" lon="5.88898">
        <ele>329.7</ele>
        <time>2021-03-21T15:31:52Z</time>
      </trkpt>
      <trkpt lat="45.23597" lon="5.88905">
        <ele>329.4</ele>
        <time>2021-03-21T15:31:54Z</time>
      </trkpt>
      <trkpt lat="45.23603" lon="5.88917">
        <ele>328.8</ele>
        <time>2021-03-21T15:31:57Z</time>
      </trkpt>
      <trkpt lat="45.23609" lon="5.88927">
        <ele>331.5</ele>
        <time>2021-03-21T15:32:00Z</time>
      </trkpt>
      <trkpt lat="45.23615" lon="5.88937">
        <ele>330.9</ele>
        <time>2021-03-21T15:32:03Z</time>
      </trkpt>
      <trkpt lat="45.23619" lon="5.88948">
        <ele>333.6</ele>
        <time>2021-03-21T15:32:06Z</time>
      </trkpt>
      <trkpt lat="45.23626" lon="5.88957">
        <ele>334.2</ele>
        <time>2021-03-21T15:32:09Z</time>
      </trkpt>
      <trkpt lat="45.23633" lon="5.88967">
        <ele>334.6</ele>
        <time>2021-03-21T15:32:12Z</time>
      </trkpt>
      <trkpt lat="45.23641" lon="5.88977">
        <ele>331.7</ele>
        <time>2021-03-21T15:32:15Z</time>
      </trkpt>
      <trkpt lat="45.23647" lon="5.88983">
        <ele>335.7</ele>
        <time>2021-03-21T15:32:17Z</time>
      </trkpt>
      <trkpt lat="45.23654" lon="5.88991">
        <ele>335.8</ele>
        <time>2021-03-21T15:32:20Z</time>
      </trkpt>
      <trkpt lat="45.23661" lon="5.89">
        <ele>338.5</ele>
        <time>2021-03-21T15:32:23Z</time>
      </trkpt>
      <trkpt lat="45.23666" lon="5.89006">
        <ele>339.6</ele>
        <time>2021-03-21T15:32:25Z</time>
      </trkpt>
      <trkpt lat="45.23671" lon="5.89012">
        <ele>340.8</ele>
        <time>2021-03-21T15:32:27Z</time>
      </trkpt>
      <trkpt lat="45.23681" lon="5.89022">
        <ele>340.3</ele>
        <time>2021-03-21T15:32:30Z</time>
      </trkpt>
      <trkpt lat="45.23692" lon="5.89033">
        <ele>343.9</ele>
        <time>2021-03-21T15:32:33Z</time>
      </trkpt>
      <trkpt lat="45.23698" lon="5.8904">
        <ele>343.2</ele>
        <time>2021-03-21T15:32:35Z</time>
      </trkpt>
      <trkpt lat="45.23708" lon="5.8905">
        <ele>346.2</ele>
        <time>2021-03-21T15:32:38Z</time>
      </trkpt>
      <trkpt lat="45.23718" lon="5.8906">
        <ele>344.3</ele>
        <time>2021-03-21T15:32:41Z</time>
      </trkpt>
      <trkpt lat="45.23728" lon="5.89068">
        <ele>340</ele>
        <time>2021-03-21T15:32:44Z</time>
      </trkpt>
      <trkpt lat="45.23738" lon="5.89077">
        <ele>342.9</ele>
        <time>2021-03-21T15:32:47Z</time>
      </trkpt>
      <trkpt lat="45.23746" lon="5.89087">
        <ele>342</ele>
        <time>2021-03-21T15:32:50Z</time>
      </trkpt>
      <trkpt lat="45.23752" lon="5.89096">
        <ele>340.3</ele>
        <time>2021-03-21T15:32:53Z</time>
      </trkpt>
      <trkpt lat="45.23756" lon="5.89109">
        <ele>341</ele>
        <time>2021-03-21T15:32:56Z</time>
      </trkpt>
      <trkpt lat="45.23759" lon="5.89124">
        <ele>348.4</ele>
        <time>2021-03-21T15:32:59Z</time>
      </trkpt>
      <trkpt lat="45.23761" lon="5.89135">
        <ele>348</ele>
        <time>2021-03-21T15:33:01Z</time>
      </trkpt>
      <trkpt lat="45.23764" lon="5.89149">
        <ele>349.8</ele>
        <time>2021-03-21T15:33:04Z</time>
      </trkpt>
      <trkpt lat="45.23768" lon="5.89157">
        <ele>351.1</ele>
        <time>2021-03-21T15:33:06Z</time>
      </trkpt>
      <trkpt lat="45.2377" lon="5.89165">
        <ele>347.6</ele>
        <time>2021-03-21T15:33:08Z</time>
      </trkpt>
      <trkpt lat="45.23773" lon="5.89174">
        <ele>348.8</ele>
        <time>2021-03-21T15:33:10Z</time>
      </trkpt>
      <trkpt lat="45.23776" lon="5.89182">
        <ele>350.5</ele>
        <time>2021-03-21T15:33:12Z</time>
      </trkpt>
      <trkpt lat="45.23781" lon="5.89194">
        <ele>348.8</ele>
        <time>2021-03-21T15:33:15Z</time>
      </trkpt>
      <trkpt lat="45.23788" lon="5.89205">
        <ele>348.7</ele>
        <time>2021-03-21T15:33:18Z</time>
      </trkpt>
      <trkpt lat="45.23796" lon="5.89213">
        <ele>347</ele>
        <time>2021-03-21T15:33:21Z</time>
      </trkpt>
      <trkpt lat="45.23798" lon="5.89221">
        <ele>350</ele>
        <time>2021-03-21T15:33:23Z</time>
      </trkpt>
      <trkpt lat="45.23802" lon="5.89234">
        <ele>351.1</ele>
        <time>2021-03-21T15:33:26Z</time>
      </trkpt>
      <trkpt lat="45.2381" lon="5.89247">
        <ele>352.8</ele>
        <time>2021-03-21T15:33:29Z</time>
      </trkpt>
      <trkpt lat="45.23815" lon="5.89253">
        <ele>352.9</ele>
        <time>2021-03-21T15:33:31Z</time>
      </trkpt>
      <trkpt lat="45.23823" lon="5.89263">
        <ele>354</ele>
        <time>2021-03-21T15:33:34Z</time>
      </trkpt>
      <trkpt lat="45.23827" lon="5.89271">
        <ele>356.7</ele>
        <time>2021-03-21T15:33:36Z</time>
      </trkpt>
      <trkpt lat="45.23834" lon="5.89279">
        <ele>359.8</ele>
        <time>2021-03-21T15:33:39Z</time>
      </trkpt>
      <trkpt lat="45.23844" lon="5.89289">
        <ele>362.6</ele>
        <time>2021-03-21T15:33:42Z</time>
      </trkpt>
      <trkpt lat="45.23851" lon="5.89296">
        <ele>360.8</ele>
        <time>2021-03-21T15:33:44Z</time>
      </trkpt>
      <trkpt lat="45.23859" lon="5.89303">
        <ele>364.7</ele>
        <time>2021-03-21T15:33:46Z</time>
      </trkpt>
      <trkpt lat="45.23867" lon="5.89313">
        <ele>367.4</ele>
        <time>2021-03-21T15:33:49Z</time>
      </trkpt>
      <trkpt lat="45.23874" lon="5.89325">
        <ele>368.1</ele>
        <time>2021-03-21T15:33:52Z</time>
      </trkpt>
      <trkpt lat="45.23877" lon="5.89333">
        <ele>368.8</ele>
        <time>2021-03-21T15:33:54Z</time>
      </trkpt>
      <trkpt lat="45.23881" lon="5.89342">
        <ele>367.2</ele>
        <time>2021-03-21T15:33:56Z</time>
      </trkpt>
      <trkpt lat="45.2389" lon="5.89352">
        <ele>371.1</ele>
        <time>2021-03-21T15:33:59Z</time>
      </trkpt>
      <trkpt lat="45.239" lon="5.8936">
        <ele>368.4</ele>
        <time>2021-03-21T15:34:02Z</time>
      </trkpt>
      <trkpt lat="45.23907" lon="5.89365">
        <ele>366</ele>
        <time>2021-03-21T15:34:04Z</time>
      </trkpt>
      <trkpt lat="45.23916" lon="5.89374">
        <ele>368.1</ele>
        <time>2021-03-21T15:34:07Z</time>
      </trkpt>
      <trkpt lat="45.23922" lon="5.89385">
        <ele>370.5</ele>
        <time>2021-03-21T15:34:10Z</time>
      </trkpt>
      <trkpt lat="45.23928" lon="5.89398">
        <ele>370.6</ele>
        <time>2021-03-21T15:34:13Z</time>
      </trkpt>
      <trkpt lat="45.23932" lon="5.89405">
        <ele>372.2</ele>
        <time>2021-03-21T15:34:15Z</time>
      </trkpt>
      <trkpt lat="45.23937" lon="5.89411">
        <ele>372.5</ele>
        <time>2021-03-21T15:34:17Z</time>
      </trkpt>
      <trkpt lat="45.23945" lon="5.89419">
        <ele>374.4</ele>
        <time>2021-03-21T15:34:20Z</time>
      </trkpt>
      <trkpt lat="45.23954" lon="5.89426">
        <ele>375.2</ele>
        <time>2021-03-21T15:34:23Z</time>
      </trkpt>
      <trkpt lat="45.2396" lon="5.8943">
        <ele>377.8</ele>
        <time>2021-03-21T15:34:25Z</time>
      </trkpt>
      <trkpt lat="45.23967" lon="5.89434">
        <ele>380.4</ele>
        <time>2021-03-21T15:34:27Z</time>
      </trkpt>
      <trkpt lat="45.23978" lon="5.89442">
        <ele>382.3</ele>
        <time>2021-03-21T15:34:30Z</time>
      </trkpt>
      <trkpt lat="45.23987" lon="5.89448">
        <ele>383.1</ele>
        <time>2021-03-21T15:34:32Z</time>
      </trkpt>
      <trkpt lat="45.24" lon="5.89455">
        <ele>382.9</ele>
        <time>2021-03-21T15:34:35Z</time>
      </trkpt>
      <trkpt lat="45.24012" lon="5.89464">
        <ele>381.4</ele>
        <time>2021-03-21T15:34:38Z</time>
      </trkpt>
      <trkpt lat="45.24022" lon="5.89473">
        <ele>385.8</ele>
        <time>2021-03-21T15:34:41Z</time>
      </trkpt>
      <trkpt lat="45.2403" lon="5.89482">
        <ele>383.5</ele>
        <time>2021-03-21T15:34:44Z</time>
      </trkpt>
      <trkpt lat="45.24037" lon="5.89491">
        <ele>385.3</ele>
        <time>2021-03-21T15:34:47Z</time>
      </trkpt>
      <trkpt lat="45.24045" lon="5.895">
        <ele>385.9</ele>
        <time>2021-03-21T15:34:50Z</time>
      </trkpt>
      <trkpt lat="45.24051" lon="5.89506">
        <ele>386.6</ele>
        <time>2021-03-21T15:34:52Z</time>
      </trkpt>
      <trkpt lat="45.24059" lon="5.89516">
        <ele>387</ele>
        <time>2021-03-21T15:34:55Z</time>
      </trkpt>
      <trkpt lat="45.24067" lon="5.89525">
        <ele>388.8</ele>
        <time>2021-03-21T15:34:58Z</time>
      </trkpt>
      <trkpt lat="45.24075" lon="5.89531">
        <ele>390.8</ele>
        <time>2021-03-21T15:35:01Z</time>
      </trkpt>
      <trkpt lat="45.24084" lon="5.89538">
        <ele>390</ele>
        <time>2021-03-21T15:35:04Z</time>
      </trkpt>
      <trkpt lat="45.24089" lon="5.89543">
        <ele>391.8</ele>
        <time>2021-03-21T15:35:06Z</time>
      </trkpt>
      <trkpt lat="45.24097" lon="5.89551">
        <ele>394.5</ele>
        <time>2021-03-21T15:35:09Z</time>
      </trkpt>
      <trkpt lat="45.24102" lon="5.89556">
        <ele>394.4</ele>
        <time>2021-03-21T15:35:11Z</time>
      </trkpt>
      <trkpt lat="45.24109" lon="5.89567">
        <ele>396.2</ele>
        <time>2021-03-21T15:35:14Z</time>
      </trkpt>
      <trkpt lat="45.24115" lon="5.89579">
        <ele>395.9</ele>
        <time>2021-03-21T15:35:17Z</time>
      </trkpt>
      <trkpt lat="45.24119" lon="5.89586">
        <ele>397.1</ele>
        <time>2021-03-21T15:35:19Z</time>
      </trkpt>
      <trkpt lat="45.24121" lon="5.89594">
        <ele>394.7</ele>
        <time>2021-03-21T15:35:21Z</time>
      </trkpt>
      <trkpt lat="45.24124" lon="5.89603">
        <ele>394.2</ele>
        <time>2021-03-21T15:35:23Z</time>
      </trkpt>
      <trkpt lat="45.24126" lon="5.89617">
        <ele>397.9</ele>
        <time>2021-03-21T15:35:26Z</time>
      </trkpt>
      <trkpt lat="45.24128" lon="5.89626">
        <ele>396.9</ele>
        <time>2021-03-21T15:35:28Z</time>
      </trkpt>
      <trkpt lat="45.24132" lon="5.8964">
        <ele>400.7</ele>
        <time>2021-03-21T15:35:31Z</time>
      </trkpt>
      <trkpt lat="45.24136" lon="5.89655">
        <ele>402.1</ele>
        <time>2021-03-21T15:35:34Z</time>
      </trkpt>
      <trkpt lat="45.2414" lon="5.89663">
        <ele>401</ele>
        <time>2021-03-21T15:35:36Z</time>
      </trkpt>
      <trkpt lat="45.2415" lon="5.89673">
        <ele>403.2</ele>
        <time>2021-03-21T15:35:39Z</time>
      </trkpt>
      <trkpt lat="45.24158" lon="5.89683">
        <ele>403.9</ele>
        <time>2021-03-21T15:35:42Z</time>
      </trkpt>
      <trkpt lat="45.24163" lon="5.89694">
        <ele>406.3</ele>
        <time>2021-03-21T15:35:45Z</time>
      </trkpt>
      <trkpt lat="45.24165" lon="5.89701">
        <ele>406.2</ele>
        <time>2021-03-21T15:35:47Z</time>
      </trkpt>
      <trkpt lat="45.24167" lon="5.8971">
        <ele>407.2</ele>
        <time>2021-03-21T15:35:49Z</time>
      </trkpt>
      <trkpt lat="45.24171" lon="5.89722">
        <ele>406.9</ele>
        <time>2021-03-21T15:35:52Z</time>
      </trkpt>
      <trkpt lat="45.24176" lon="5.89734">
        <ele>407.4</ele>
        <time>2021-03-21T15:35:55Z</time>
      </trkpt>
      <trkpt lat="45.24179" lon="5.89743">
        <ele>406.8</ele>
        <time>2021-03-21T15:35:57Z</time>
      </trkpt>
      <trkpt lat="45.24183" lon="5.89751">
        <ele>409.6</ele>
        <time>2021-03-21T15:35:59Z</time>
      </trkpt>
      <trkpt lat="45.24186" lon="5.89759">
        <ele>408</ele>
        <time>2021-03-21T15:36:01Z</time>
      </trkpt>
      <trkpt lat="45.24192" lon="5.89772">
        <ele>408.3</ele>
        <time>2021-03-21T15:36:04Z</time>
      </trkpt>
      <trkpt lat="45.242" lon="5.89785">
        <ele>410.4</ele>
        <time>2021-03-21T15:36:07Z</time>
      </trkpt>
      <trkpt lat="45.24205" lon="5.89792">
        <ele>410</ele>
        <time>2021-03-21T15:36:09Z</time>
      </trkpt>
      <trkpt lat="45.24211" lon="5.89799">
        <ele>409.2</ele>
        <time>2021-03-21T15:36:11Z</time>
      </trkpt>
      <trkpt lat="45.2422" lon="5.89809">
        <ele>412.1</ele>
        <time>2021-03-21T15:36:14Z</time>
      </trkpt>
      <trkpt lat="45.24227" lon="5.89816">
        <ele>414.7</ele>
        <time>2021-03-21T15:36:16Z</time>
      </trkpt>
      <trkpt lat="45.24234" lon="5.89823">
        <ele>422.3</ele>
        <time>2021-03-21T15:36:18Z</time>
      </trkpt>
      <trkpt lat="45.24241" lon="5.89834">
        <ele>423.3</ele>
        <time>2021-03-21T15:36:21Z</time>
      </trkpt>
      <trkpt lat="45.24238" lon="5.89839">
        <ele>420.6</ele>
        <time>2021-03-21T15:36:23Z</time>
      </trkpt>
      <trkpt lat="45.24227" lon="5.8983">
        <ele>424.3</ele>
        <time>2021-03-21T15:36:26Z</time>
      </trkpt>
      <trkpt lat="45.24221" lon="5.8982">
        <ele>422.7</ele>
        <time>2021-03-21T15:36:28Z</time>
      </trkpt>
      <trkpt lat="45.24215" lon="5.89805">
        <ele>424.6</ele>
        <time>2021-03-21T15:36:31Z</time>
      </trkpt>
      <trkpt lat="45.24208" lon="5.89792">
        <ele>424.2</ele>
        <time>2021-03-21T15:36:34Z</time>
      </trkpt>
      <trkpt lat="45.24203" lon="5.89786">
        <ele>426.6</ele>
        <time>2021-03-21T15:36:36Z</time>
      </trkpt>
      <trkpt lat="45.24195" lon="5.89777">
        <ele>426.1</ele>
        <time>2021-03-21T15:36:39Z</time>
      </trkpt>
      <trkpt lat="45.24188" lon="5.89767">
        <ele>428.9</ele>
        <time>2021-03-21T15:36:42Z</time>
      </trkpt>
      <trkpt lat="45.24183" lon="5.89761">
        <ele>429.6</ele>
        <time>2021-03-21T15:36:44Z</time>
      </trkpt>
      <trkpt lat="45.24178" lon="5.89754">
        <ele>432.2</ele>
        <time>2021-03-21T15:36:46Z</time>
      </trkpt>
      <trkpt lat="45.24172" lon="5.89746">
        <ele>433.5</ele>
        <time>2021-03-21T15:36:48Z</time>
      </trkpt>
      <trkpt lat="45.24164" lon="5.89735">
        <ele>432.4</ele>
        <time>2021-03-21T15:36:51Z</time>
      </trkpt>
      <trkpt lat="45.24159" lon="5.8973">
        <ele>434.1</ele>
        <time>2021-03-21T15:36:53Z</time>
      </trkpt>
      <trkpt lat="45.2415" lon="5.89722">
        <ele>438.2</ele>
        <time>2021-03-21T15:36:56Z</time>
      </trkpt>
      <trkpt lat="45.2414" lon="5.89714">
        <ele>438.8</ele>
        <time>2021-03-21T15:36:59Z</time>
      </trkpt>
      <trkpt lat="45.24131" lon="5.89713">
        <ele>438.7</ele>
        <time>2021-03-21T15:37:01Z</time>
      </trkpt>
      <trkpt lat="45.24122" lon="5.89711">
        <ele>440.2</ele>
        <time>2021-03-21T15:37:03Z</time>
      </trkpt>
      <trkpt lat="45.24111" lon="5.89708">
        <ele>444.2</ele>
        <time>2021-03-21T15:37:06Z</time>
      </trkpt>
      <trkpt lat="45.24105" lon="5.89704">
        <ele>445.4</ele>
        <time>2021-03-21T15:37:08Z</time>
      </trkpt>
      <trkpt lat="45.24096" lon="5.89696">
        <ele>443.1</ele>
        <time>2021-03-21T15:37:11Z</time>
      </trkpt>
      <trkpt lat="45.2409" lon="5.89694">
        <ele>442.7</ele>
        <time>2021-03-21T15:37:13Z</time>
      </trkpt>
      <trkpt lat="45.24081" lon="5.8969">
        <ele>448.1</ele>
        <time>2021-03-21T15:37:16Z</time>
      </trkpt>
      <trkpt lat="45.24071" lon="5.89689">
        <ele>450.5</ele>
        <time>2021-03-21T15:37:19Z</time>
      </trkpt>
      <trkpt lat="45.24064" lon="5.89689">
        <ele>450.7</ele>
        <time>2021-03-21T15:37:21Z</time>
      </trkpt>
      <trkpt lat="45.24054" lon="5.89687">
        <ele>450.3</ele>
        <time>2021-03-21T15:37:24Z</time>
      </trkpt>
      <trkpt lat="45.24044" lon="5.89686">
        <ele>453.8</ele>
        <time>2021-03-21T15:37:27Z</time>
      </trkpt>
      <trkpt lat="45.24034" lon="5.89683">
        <ele>460</ele>
        <time>2021-03-21T15:37:30Z</time>
      </trkpt>
      <trkpt lat="45.24027" lon="5.89681">
        <ele>455.9</ele>
        <time>2021-03-21T15:37:32Z</time>
      </trkpt>
      <trkpt lat="45.24022" lon="5.89679">
        <ele>460.1</ele>
        <time>2021-03-21T15:37:34Z</time>
      </trkpt>
      <trkpt lat="45.24013" lon="5.89675">
        <ele>459.8</ele>
        <time>2021-03-21T15:37:37Z</time>
      </trkpt>
      <trkpt lat="45.24008" lon="5.89672">
        <ele>457.6</ele>
        <time>2021-03-21T15:37:39Z</time>
      </trkpt>
      <trkpt lat="45.24002" lon="5.89671">
        <ele>456.3</ele>
        <time>2021-03-21T15:37:41Z</time>
      </trkpt>
      <trkpt lat="45.23996" lon="5.89669">
        <ele>455.3</ele>
        <time>2021-03-21T15:37:43Z</time>
      </trkpt>
      <trkpt lat="45.23987" lon="5.89666">
        <ele>457.8</ele>
        <time>2021-03-21T15:37:46Z</time>
      </trkpt>
      <trkpt lat="45.23981" lon="5.89662">
        <ele>459.3</ele>
        <time>2021-03-21T15:37:48Z</time>
      </trkpt>
      <trkpt lat="45.23971" lon="5.89654">
        <ele>460.9</ele>
        <time>2021-03-21T15:37:51Z</time>
      </trkpt>
      <trkpt lat="45.23963" lon="5.89646">
        <ele>464.1</ele>
        <time>2021-03-21T15:37:54Z</time>
      </trkpt>
      <trkpt lat="45.23953" lon="5.8964">
        <ele>465.7</ele>
        <time>2021-03-21T15:37:57Z</time>
      </trkpt>
      <trkpt lat="45.23944" lon="5.89636">
        <ele>468.7</ele>
        <time>2021-03-21T15:38:00Z</time>
      </trkpt>
      <trkpt lat="45.23935" lon="5.89629">
        <ele>466.5</ele>
        <time>2021-03-21T15:38:03Z</time>
      </trkpt>
      <trkpt lat="45.23929" lon="5.89625">
        <ele>464.2</ele>
        <time>2021-03-21T15:38:05Z</time>
      </trkpt>
      <trkpt lat="45.23918" lon="5.8962">
        <ele>466.2</ele>
        <time>2021-03-21T15:38:08Z</time>
      </trkpt>
      <trkpt lat="45.23906" lon="5.89618">
        <ele>467.9</ele>
        <time>2021-03-21T15:38:11Z</time>
      </trkpt>
      <trkpt lat="45.23895" lon="5.89616">
        <ele>468.4</ele>
        <time>2021-03-21T15:38:14Z</time>
      </trkpt>
      <trkpt lat="45.23887" lon="5.8961">
        <ele>468.5</ele>
        <time>2021-03-21T15:38:17Z</time>
      </trkpt>
      <trkpt lat="45.23879" lon="5.89604">
        <ele>470.1</ele>
        <time>2021-03-21T15:38:20Z</time>
      </trkpt>
      <trkpt lat="45.23869" lon="5.89599">
        <ele>468.3</ele>
        <time>2021-03-21T15:38:23Z</time>
      </trkpt>
      <trkpt lat="45.23858" lon="5.89598">
        <ele>468.3</ele>
        <time>2021-03-21T15:38:26Z</time>
      </trkpt>
      <trkpt lat="45.2385" lon="5.89595">
        <ele>466.8</ele>
        <time>2021-03-21T15:38:29Z</time>
      </trkpt>
      <trkpt lat="45.23843" lon="5.89592">
        <ele>463.3</ele>
        <time>2021-03-21T15:38:31Z</time>
      </trkpt>
      <trkpt lat="45.23837" lon="5.89589">
        <ele>463.1</ele>
        <time>2021-03-21T15:38:33Z</time>
      </trkpt>
      <trkpt lat="45.23827" lon="5.89584">
        <ele>468.5</ele>
        <time>2021-03-21T15:38:36Z</time>
      </trkpt>
      <trkpt lat="45.23816" lon="5.89575">
        <ele>466.5</ele>
        <time>2021-03-21T15:38:39Z</time>
      </trkpt>
      <trkpt lat="45.23806" lon="5.89567">
        <ele>468.5</ele>
        <time>2021-03-21T15:38:42Z</time>
      </trkpt>
      <trkpt lat="45.23797" lon="5.89559">
        <ele>469</ele>
        <time>2021-03-21T15:38:45Z</time>
      </trkpt>
      <trkpt lat="45.2379" lon="5.89554">
        <ele>474.6</ele>
        <time>2021-03-21T15:38:47Z</time>
      </trkpt>
      <trkpt lat="45.2378" lon="5.8955">
        <ele>474.8</ele>
        <time>2021-03-21T15:38:50Z</time>
      </trkpt>
      <trkpt lat="45.23773" lon="5.89549">
        <ele>477.8</ele>
        <time>2021-03-21T15:38:52Z</time>
      </trkpt>
      <trkpt lat="45.23766" lon="5.89546">
        <ele>479.4</ele>
        <time>2021-03-21T15:38:54Z</time>
      </trkpt>
      <trkpt lat="45.23756" lon="5.89538">
        <ele>476.7</ele>
        <time>2021-03-21T15:38:57Z</time>
      </trkpt>
      <trkpt lat="45.2375" lon="5.89532">
        <ele>477.6</ele>
        <time>2021-03-21T15:38:59Z</time>
      </trkpt>
      <trkpt lat="45.23745" lon="5.89526">
        <ele>483.4</ele>
        <time>2021-03-21T15:39:01Z</time>
      </trkpt>
      <trkpt lat="45.23737" lon="5.89515">
        <ele>484.2</ele>
        <time>2021-03-21T15:39:04Z</time>
      </trkpt>
      <trkpt lat="45.23728" lon="5.89504">
        <ele>483.3</ele>
        <time>2021-03-21T15:39:07Z</time>
      </trkpt>
      <trkpt lat="45.23716" lon="5.89493">
        <ele>481.3</ele>
        <time>2021-03-21T15:39:10Z</time>
      </trkpt>
      <trkpt lat="45.23703" lon="5.89487">
        <ele>485.1</ele>
        <time>2021-03-21T15:39:13Z</time>
      </trkpt>
      <trkpt lat="45.23692" lon="5.89476">
        <ele>493.9</ele>
        <time>2021-03-21T15:39:16Z</time>
      </trkpt>
      <trkpt lat="45.23686" lon="5.89475">
        <ele>493.3</ele>
        <time>2021-03-21T15:39:18Z</time>
      </trkpt>
      <trkpt lat="45.23675" lon="5.89472">
        <ele>491.4</ele>
        <time>2021-03-21T15:39:21Z</time>
      </trkpt>
      <trkpt lat="45.23665" lon="5.89466">
        <ele>491.6</ele>
        <time>2021-03-21T15:39:24Z</time>
      </trkpt>
      <trkpt lat="45.23659" lon="5.89462">
        <ele>490.1</ele>
        <time>2021-03-21T15:39:26Z</time>
      </trkpt>
      <trkpt lat="45.23655" lon="5.89458">
        <ele>490.3</ele>
        <time>2021-03-21T15:39:28Z</time>
      </trkpt>
      <trkpt lat="45.23647" lon="5.89454">
        <ele>490.5</ele>
        <time>2021-03-21T15:39:31Z</time>
      </trkpt>
      <trkpt lat="45.23643" lon="5.89461">
        <ele>491.5</ele>
        <time>2021-03-21T15:39:34Z</time>
      </trkpt>
      <trkpt lat="45.23642" lon="5.89479">
        <ele>498.1</ele>
        <time>2021-03-21T15:39:37Z</time>
      </trkpt>
      <trkpt lat="45.23649" lon="5.89491">
        <ele>500.9</ele>
        <time>2021-03-21T15:39:40Z</time>
      </trkpt>
      <trkpt lat="45.23657" lon="5.89497">
        <ele>500.4</ele>
        <time>2021-03-21T15:39:42Z</time>
      </trkpt>
      <trkpt lat="45.23668" lon="5.89503">
        <ele>497.7</ele>
        <time>2021-03-21T15:39:45Z</time>
      </trkpt>
      <trkpt lat="45.23675" lon="5.89508">
        <ele>499.5</ele>
        <time>2021-03-21T15:39:47Z</time>
      </trkpt>
      <trkpt lat="45.23686" lon="5.89517">
        <ele>496.5</ele>
        <time>2021-03-21T15:39:50Z</time>
      </trkpt>
      <trkpt lat="45.23696" lon="5.89527">
        <ele>501</ele>
        <time>2021-03-21T15:39:53Z</time>
      </trkpt>
      <trkpt lat="45.23706" lon="5.89538">
        <ele>503.5</ele>
        <time>2021-03-21T15:39:56Z</time>
      </trkpt>
      <trkpt lat="45.23714" lon="5.8955">
        <ele>504.9</ele>
        <time>2021-03-21T15:39:59Z</time>
      </trkpt>
      <trkpt lat="45.23722" lon="5.89562">
        <ele>505.1</ele>
        <time>2021-03-21T15:40:02Z</time>
      </trkpt>
      <trkpt lat="45.23731" lon="5.89572">
        <ele>510.3</ele>
        <time>2021-03-21T15:40:05Z</time>
      </trkpt>
      <trkpt lat="45.23736" lon="5.89579">
        <ele>510.2</ele>
        <time>2021-03-21T15:40:07Z</time>
      </trkpt>
      <trkpt lat="45.23744" lon="5.89588">
        <ele>511.1</ele>
        <time>2021-03-21T15:40:10Z</time>
      </trkpt>
      <trkpt lat="45.23751" lon="5.89598">
        <ele>511.4</ele>
        <time>2021-03-21T15:40:13Z</time>
      </trkpt>
      <trkpt lat="45.23759" lon="5.89608">
        <ele>512.6</ele>
        <time>2021-03-21T15:40:16Z</time>
      </trkpt>
      <trkpt lat="45.23765" lon="5.89618">
        <ele>514.4</ele>
        <time>2021-03-21T15:40:19Z</time>
      </trkpt>
      <trkpt lat="45.2377" lon="5.89628">
        <ele>513.4</ele>
        <time>2021-03-21T15:40:22Z</time>
      </trkpt>
      <trkpt lat="45.23776" lon="5.89636">
        <ele>515.9</ele>
        <time>2021-03-21T15:40:24Z</time>
      </trkpt>
      <trkpt lat="45.23781" lon="5.89644">
        <ele>515.6</ele>
        <time>2021-03-21T15:40:26Z</time>
      </trkpt>
      <trkpt lat="45.23784" lon="5.89651">
        <ele>516.9</ele>
        <time>2021-03-21T15:40:28Z</time>
      </trkpt>
      <trkpt lat="45.2379" lon="5.8966">
        <ele>515.7</ele>
        <time>2021-03-21T15:40:31Z</time>
      </trkpt>
      <trkpt lat="45.23794" lon="5.89665">
        <ele>515.7</ele>
        <time>2021-03-21T15:40:33Z</time>
      </trkpt>
      <trkpt lat="45.23799" lon="5.89671">
        <ele>513.2</ele>
        <time>2021-03-21T15:40:35Z</time>
      </trkpt>
      <trkpt lat="45.23807" lon="5.89681">
        <ele>511.7</ele>
        <time>2021-03-21T15:40:38Z</time>
      </trkpt>
      <trkpt lat="45.23815" lon="5.89691">
        <ele>512.4</ele>
        <time>2021-03-21T15:40:41Z</time>
      </trkpt>
      <trkpt lat="45.23823" lon="5.897">
        <ele>514.5</ele>
        <time>2021-03-21T15:40:44Z</time>
      </trkpt>
      <trkpt lat="45.2383" lon="5.89704">
        <ele>514</ele>
        <time>2021-03-21T15:40:46Z</time>
      </trkpt>
      <trkpt lat="45.23841" lon="5.89711">
        <ele>520.6</ele>
        <time>2021-03-21T15:40:49Z</time>
      </trkpt>
      <trkpt lat="45.23853" lon="5.89719">
        <ele>524.2</ele>
        <time>2021-03-21T15:40:52Z</time>
      </trkpt>
      <trkpt lat="45.2386" lon="5.89725">
        <ele>524.9</ele>
        <time>2021-03-21T15:40:54Z</time>
      </trkpt>
      <trkpt lat="45.23869" lon="5.89736">
        <ele>526.4</ele>
        <time>2021-03-21T15:40:57Z</time>
      </trkpt>
      <trkpt lat="45.23878" lon="5.89746">
        <ele>529.9</ele>
        <time>2021-03-21T15:41:00Z</time>
      </trkpt>
      <trkpt lat="45.23885" lon="5.89757">
        <ele>529.9</ele>
        <time>2021-03-21T15:41:03Z</time>
      </trkpt>
      <trkpt lat="45.23891" lon="5.8977">
        <ele>536.6</ele>
        <time>2021-03-21T15:41:06Z</time>
      </trkpt>
      <trkpt lat="45.23898" lon="5.8978">
        <ele>535.8</ele>
        <time>2021-03-21T15:41:09Z</time>
      </trkpt>
      <trkpt lat="45.23904" lon="5.89792">
        <ele>533.9</ele>
        <time>2021-03-21T15:41:12Z</time>
      </trkpt>
      <trkpt lat="45.23907" lon="5.898">
        <ele>535.4</ele>
        <time>2021-03-21T15:41:14Z</time>
      </trkpt>
      <trkpt lat="45.23908" lon="5.89814">
        <ele>535.1</ele>
        <time>2021-03-21T15:41:17Z</time>
      </trkpt>
      <trkpt lat="45.23912" lon="5.89823">
        <ele>537.5</ele>
        <time>2021-03-21T15:41:19Z</time>
      </trkpt>
      <trkpt lat="45.23916" lon="5.8983">
        <ele>536.9</ele>
        <time>2021-03-21T15:41:21Z</time>
      </trkpt>
      <trkpt lat="45.23923" lon="5.8984">
        <ele>534.9</ele>
        <time>2021-03-21T15:41:24Z</time>
      </trkpt>
      <trkpt lat="45.23926" lon="5.89847">
        <ele>533.8</ele>
        <time>2021-03-21T15:41:26Z</time>
      </trkpt>
      <trkpt lat="45.23929" lon="5.89858">
        <ele>530</ele>
        <time>2021-03-21T15:41:29Z</time>
      </trkpt>
      <trkpt lat="45.23931" lon="5.89866">
        <ele>533.4</ele>
        <time>2021-03-21T15:41:31Z</time>
      </trkpt>
      <trkpt lat="45.23935" lon="5.89879">
        <ele>534.8</ele>
        <time>2021-03-21T15:41:34Z</time>
      </trkpt>
      <trkpt lat="45.2394" lon="5.89893">
        <ele>534.8</ele>
        <time>2021-03-21T15:41:37Z</time>
      </trkpt>
      <trkpt lat="45.23943" lon="5.89902">
        <ele>538.9</ele>
        <time>2021-03-21T15:41:39Z</time>
      </trkpt>
      <trkpt lat="45.23946" lon="5.89915">
        <ele>536.4</ele>
        <time>2021-03-21T15:41:42Z</time>
      </trkpt>
      <trkpt lat="45.23948" lon="5.89927">
        <ele>534.1</ele>
        <time>2021-03-21T15:41:45Z</time>
      </trkpt>
      <trkpt lat="45.23953" lon="5.89935">
        <ele>536.1</ele>
        <time>2021-03-21T15:41:47Z</time>
      </trkpt>
      <trkpt lat="45.23962" lon="5.89944">
        <ele>538.8</ele>
        <time>2021-03-21T15:41:50Z</time>
      </trkpt>
      <trkpt lat="45.23966" lon="5.89949">
        <ele>538.6</ele>
        <time>2021-03-21T15:41:52Z</time>
      </trkpt>
      <trkpt lat="45.23971" lon="5.89963">
        <ele>538.4</ele>
        <time>2021-03-21T15:41:55Z</time>
      </trkpt>
      <trkpt lat="45.23977" lon="5.8997">
        <ele>538.8</ele>
        <time>2021-03-21T15:41:57Z</time>
      </trkpt>
      <trkpt lat="45.23986" lon="5.8998">
        <ele>537.2</ele>
        <time>2021-03-21T15:42:00Z</time>
      </trkpt>
      <trkpt lat="45.23994" lon="5.89986">
        <ele>543</ele>
        <time>2021-03-21T15:42:02Z</time>
      </trkpt>
      <trkpt lat="45.24006" lon="5.89996">
        <ele>544.6</ele>
        <time>2021-03-21T15:42:05Z</time>
      </trkpt>
      <trkpt lat="45.24019" lon="5.90005">
        <ele>544.7</ele>
        <time>2021-03-21T15:42:08Z</time>
      </trkpt>
      <trkpt lat="45.24027" lon="5.90012">
        <ele>546.3</ele>
        <time>2021-03-21T15:42:10Z</time>
      </trkpt>
      <trkpt lat="45.24037" lon="5.90021">
        <ele>548.7</ele>
        <time>2021-03-21T15:42:13Z</time>
      </trkpt>
      <trkpt lat="45.24047" lon="5.90032">
        <ele>546.3</ele>
        <time>2021-03-21T15:42:16Z</time>
      </trkpt>
      <trkpt lat="45.24058" lon="5.9004">
        <ele>550.4</ele>
        <time>2021-03-21T15:42:19Z</time>
      </trkpt>
      <trkpt lat="45.24069" lon="5.90047">
        <ele>552.9</ele>
        <time>2021-03-21T15:42:22Z</time>
      </trkpt>
      <trkpt lat="45.24076" lon="5.90053">
        <ele>553.7</ele>
        <time>2021-03-21T15:42:24Z</time>
      </trkpt>
      <trkpt lat="45.24082" lon="5.9006">
        <ele>551.7</ele>
        <time>2021-03-21T15:42:26Z</time>
      </trkpt>
      <trkpt lat="45.2409" lon="5.90071">
        <ele>551.2</ele>
        <time>2021-03-21T15:42:29Z</time>
      </trkpt>
      <trkpt lat="45.24093" lon="5.9008">
        <ele>551.2</ele>
        <time>2021-03-21T15:42:31Z</time>
      </trkpt>
      <trkpt lat="45.24092" lon="5.90091">
        <ele>551</ele>
        <time>2021-03-21T15:42:33Z</time>
      </trkpt>
      <trkpt lat="45.2409" lon="5.90099">
        <ele>553.3</ele>
        <time>2021-03-21T15:42:35Z</time>
      </trkpt>
      <trkpt lat="45.24081" lon="5.90105">
        <ele>557.6</ele>
        <time>2021-03-21T15:42:38Z</time>
      </trkpt>
      <trkpt lat="45.24075" lon="5.90108">
        <ele>557.2</ele>
        <time>2021-03-21T15:42:40Z</time>
      </trkpt>
      <trkpt lat="45.2407" lon="5.9011">
        <ele>555.9</ele>
        <time>2021-03-21T15:42:42Z</time>
      </trkpt>
      <trkpt lat="45.24063" lon="5.90114">
        <ele>556.5</ele>
        <time>2021-03-21T15:42:45Z</time>
      </trkpt>
      <trkpt lat="45.24058" lon="5.90118">
        <ele>560.3</ele>
        <time>2021-03-21T15:42:47Z</time>
      </trkpt>
      <trkpt lat="45.24051" lon="5.90125">
        <ele>563</ele>
        <time>2021-03-21T15:42:50Z</time>
      </trkpt>
      <trkpt lat="45.24046" lon="5.90127">
        <ele>564.6</ele>
        <time>2021-03-21T15:42:53Z</time>
      </trkpt>
      <trkpt lat="45.24044" lon="5.90129">
        <ele>566.3</ele>
        <time>2021-03-21T15:42:55Z</time>
      </trkpt>
      <trkpt lat="45.24039" lon="5.90138">
        <ele>566.6</ele>
        <time>2021-03-21T15:42:58Z</time>
      </trkpt>
      <trkpt lat="45.24036" lon="5.90148">
        <ele>566.9</ele>
        <time>2021-03-21T15:43:01Z</time>
      </trkpt>
      <trkpt lat="45.24032" lon="5.90164">
        <ele>567.9</ele>
        <time>2021-03-21T15:43:04Z</time>
      </trkpt>
      <trkpt lat="45.24031" lon="5.90175">
        <ele>568.8</ele>
        <time>2021-03-21T15:43:06Z</time>
      </trkpt>
      <trkpt lat="45.24029" lon="5.90188">
        <ele>570.3</ele>
        <time>2021-03-21T15:43:08Z</time>
      </trkpt>
      <trkpt lat="45.24028" lon="5.90203">
        <ele>570.6</ele>
        <time>2021-03-21T15:43:11Z</time>
      </trkpt>
      <trkpt lat="45.24025" lon="5.90215">
        <ele>573.9</ele>
        <time>2021-03-21T15:43:14Z</time>
      </trkpt>
      <trkpt lat="45.24011" lon="5.90251">
        <ele>570</ele>
        <time>2021-03-21T15:43:23Z</time>
      </trkpt>
      <trkpt lat="45.24001" lon="5.9026">
        <ele>568.7</ele>
        <time>2021-03-21T15:43:26Z</time>
      </trkpt>
      <trkpt lat="45.23991" lon="5.90268">
        <ele>568.6</ele>
        <time>2021-03-21T15:43:29Z</time>
      </trkpt>
      <trkpt lat="45.23985" lon="5.90273">
        <ele>568.3</ele>
        <time>2021-03-21T15:43:31Z</time>
      </trkpt>
      <trkpt lat="45.23976" lon="5.90279">
        <ele>572.3</ele>
        <time>2021-03-21T15:43:34Z</time>
      </trkpt>
      <trkpt lat="45.23966" lon="5.90283">
        <ele>570.2</ele>
        <time>2021-03-21T15:43:37Z</time>
      </trkpt>
      <trkpt lat="45.23958" lon="5.90285">
        <ele>571.8</ele>
        <time>2021-03-21T15:43:39Z</time>
      </trkpt>
      <trkpt lat="45.23947" lon="5.9029">
        <ele>574.2</ele>
        <time>2021-03-21T15:43:42Z</time>
      </trkpt>
      <trkpt lat="45.23939" lon="5.90298">
        <ele>579.2</ele>
        <time>2021-03-21T15:43:45Z</time>
      </trkpt>
      <trkpt lat="45.23932" lon="5.90307">
        <ele>576.5</ele>
        <time>2021-03-21T15:43:48Z</time>
      </trkpt>
      <trkpt lat="45.23927" lon="5.90315">
        <ele>579.6</ele>
        <time>2021-03-21T15:43:50Z</time>
      </trkpt>
      <trkpt lat="45.2392" lon="5.90325">
        <ele>584.4</ele>
        <time>2021-03-21T15:43:53Z</time>
      </trkpt>
      <trkpt lat="45.23917" lon="5.90329">
        <ele>585.4</ele>
        <time>2021-03-21T15:43:55Z</time>
      </trkpt>
      <trkpt lat="45.23916" lon="5.90333">
        <ele>582.8</ele>
        <time>2021-03-21T15:43:58Z</time>
      </trkpt>
      <trkpt lat="45.23915" lon="5.90335">
        <ele>584.7</ele>
        <time>2021-03-21T15:44:00Z</time>
      </trkpt>
      <trkpt lat="45.23915" lon="5.90338">
        <ele>581.2</ele>
        <time>2021-03-21T15:44:03Z</time>
      </trkpt>
      <trkpt lat="45.23916" lon="5.90339">
        <ele>586.9</ele>
        <time>2021-03-21T15:44:06Z</time>
      </trkpt>
      <trkpt lat="45.23916" lon="5.90345">
        <ele>586.9</ele>
        <time>2021-03-21T15:44:09Z</time>
      </trkpt>
      <trkpt lat="45.23916" lon="5.90349">
        <ele>589</ele>
        <time>2021-03-21T15:44:12Z</time>
      </trkpt>
      <trkpt lat="45.23916" lon="5.9035">
        <ele>588.1</ele>
        <time>2021-03-21T15:44:15Z</time>
      </trkpt>
      <trkpt lat="45.23916" lon="5.9035">
        <ele>590.4</ele>
        <time>2021-03-21T15:44:17Z</time>
      </trkpt>
      <trkpt lat="45.23916" lon="5.90351">
        <ele>590.1</ele>
        <time>2021-03-21T15:44:19Z</time>
      </trkpt>
      <trkpt lat="45.23916" lon="5.90351">
        <ele>591.2</ele>
        <time>2021-03-21T15:44:21Z</time>
      </trkpt>
      <trkpt lat="45.23916" lon="5.90351">
        <ele>590.5</ele>
        <time>2021-03-21T15:44:23Z</time>
      </trkpt>
      <trkpt lat="45.23916" lon="5.90351">
        <ele>591.3</ele>
        <time>2021-03-21T15:44:25Z</time>
      </trkpt>
      <trkpt lat="45.23916" lon="5.90351">
        <ele>589.8</ele>
        <time>2021-03-21T15:44:27Z</time>
      </trkpt>
      <trkpt lat="45.23916" lon="5.90351">
        <ele>592.2</ele>
        <time>2021-03-21T15:44:30Z</time>
      </trkpt>
      <trkpt lat="45.23916" lon="5.90351">
        <ele>591.9</ele>
        <time>2021-03-21T15:44:32Z</time>
      </trkpt>
      <trkpt lat="45.23916" lon="5.90351">
        <ele>590.8</ele>
        <time>2021-03-21T15:44:35Z</time>
      </trkpt>
      <trkpt lat="45.23916" lon="5.90351">
        <ele>591.2</ele>
        <time>2021-03-21T15:44:38Z</time>
      </trkpt>
      <trkpt lat="45.23916" lon="5.9035">
        <ele>591.8</ele>
        <time>2021-03-21T15:44:41Z</time>
      </trkpt>
      <trkpt lat="45.23916" lon="5.9035">
        <ele>591.8</ele>
        <time>2021-03-21T15:44:44Z</time>
      </trkpt>
      <trkpt lat="45.23916" lon="5.9035">
        <ele>591.4</ele>
        <time>2021-03-21T15:44:46Z</time>
      </trkpt>
      <trkpt lat="45.23916" lon="5.9035">
        <ele>590.7</ele>
        <time>2021-03-21T15:44:49Z</time>
      </trkpt>
      <trkpt lat="45.23916" lon="5.9035">
        <ele>592.2</ele>
        <time>2021-03-21T15:44:51Z</time>
      </trkpt>
      <trkpt lat="45.23916" lon="5.9035">
        <ele>591.3</ele>
        <time>2021-03-21T15:44:54Z</time>
      </trkpt>
      <trkpt lat="45.23916" lon="5.9035">
        <ele>593.4</ele>
        <time>2021-03-21T15:44:56Z</time>
      </trkpt>
      <trkpt lat="45.23916" lon="5.9035">
        <ele>591.1</ele>
        <time>2021-03-21T15:44:58Z</time>
      </trkpt>
      <trkpt lat="45.23916" lon="5.9035">
        <ele>593.2</ele>
        <time>2021-03-21T15:45:00Z</time>
      </trkpt>
      <trkpt lat="45.23916" lon="5.9035">
        <ele>592.4</ele>
        <time>2021-03-21T15:45:03Z</time>
      </trkpt>
      <trkpt lat="45.23916" lon="5.9035">
        <ele>591.3</ele>
        <time>2021-03-21T15:45:07Z</time>
      </trkpt>
      <trkpt lat="45.23916" lon="5.9035">
        <ele>593.2</ele>
        <time>2021-03-21T15:45:09Z</time>
      </trkpt>
      <trkpt lat="45.23916" lon="5.9035">
        <ele>592</ele>
        <time>2021-03-21T15:45:12Z</time>
      </trkpt>
      <trkpt lat="45.23916" lon="5.9035">
        <ele>592</ele>
        <time>2021-03-21T15:45:14Z</time>
      </trkpt>
      <trkpt lat="45.23916" lon="5.9035">
        <ele>590.6</ele>
        <time>2021-03-21T15:45:17Z</time>
      </trkpt>
      <trkpt lat="45.23916" lon="5.9035">
        <ele>591.9</ele>
        <time>2021-03-21T15:45:20Z</time>
      </trkpt>
      <trkpt lat="45.23916" lon="5.9035">
        <ele>592.9</ele>
        <time>2021-03-21T15:45:23Z</time>
      </trkpt>
      <trkpt lat="45.23916" lon="5.9035">
        <ele>592.3</ele>
        <time>2021-03-21T15:45:26Z</time>
      </trkpt>
      <trkpt lat="45.23916" lon="5.9035">
        <ele>591.4</ele>
        <time>2021-03-21T15:45:29Z</time>
      </trkpt>
      <trkpt lat="45.23916" lon="5.9035">
        <ele>590.3</ele>
        <time>2021-03-21T15:45:32Z</time>
      </trkpt>
      <trkpt lat="45.23916" lon="5.9035">
        <ele>591.2</ele>
        <time>2021-03-21T15:45:35Z</time>
      </trkpt>
      <trkpt lat="45.23916" lon="5.9035">
        <ele>591.7</ele>
        <time>2021-03-21T15:45:38Z</time>
      </trkpt>
      <trkpt lat="45.23916" lon="5.9035">
        <ele>591.8</ele>
        <time>2021-03-21T15:45:41Z</time>
      </trkpt>
      <trkpt lat="45.23916" lon="5.9035">
        <ele>591.4</ele>
        <time>2021-03-21T15:45:43Z</time>
      </trkpt>
      <trkpt lat="45.23916" lon="5.9035">
        <ele>591.3</ele>
        <time>2021-03-21T15:45:46Z</time>
      </trkpt>
      <trkpt lat="45.23916" lon="5.9035">
        <ele>592.2</ele>
        <time>2021-03-21T15:45:49Z</time>
      </trkpt>
      <trkpt lat="45.23916" lon="5.9035">
        <ele>592.2</ele>
        <time>2021-03-21T15:45:52Z</time>
      </trkpt>
      <trkpt lat="45.23916" lon="5.9035">
        <ele>591.7</ele>
        <time>2021-03-21T15:45:54Z</time>
      </trkpt>
      <trkpt lat="45.23916" lon="5.9035">
        <ele>591.3</ele>
        <time>2021-03-21T15:45:57Z</time>
      </trkpt>
      <trkpt lat="45.23916" lon="5.9035">
        <ele>590.3</ele>
        <time>2021-03-21T15:45:59Z</time>
      </trkpt>
      <trkpt lat="45.23916" lon="5.9035">
        <ele>592.2</ele>
        <time>2021-03-21T15:46:01Z</time>
      </trkpt>
      <trkpt lat="45.23916" lon="5.9035">
        <ele>592.1</ele>
        <time>2021-03-21T15:46:04Z</time>
      </trkpt>
      <trkpt lat="45.23911" lon="5.90351">
        <ele>590.7</ele>
        <time>2021-03-21T15:46:06Z</time>
      </trkpt>
      <trkpt lat="45.239" lon="5.90355">
        <ele>584.1</ele>
        <time>2021-03-21T15:46:09Z</time>
      </trkpt>
      <trkpt lat="45.2389" lon="5.9036">
        <ele>583.5</ele>
        <time>2021-03-21T15:46:12Z</time>
      </trkpt>
      <trkpt lat="45.23883" lon="5.90363">
        <ele>586.3</ele>
        <time>2021-03-21T15:46:14Z</time>
      </trkpt>
      <trkpt lat="45.23872" lon="5.90367">
        <ele>587.9</ele>
        <time>2021-03-21T15:46:17Z</time>
      </trkpt>
      <trkpt lat="45.23864" lon="5.9037">
        <ele>585.9</ele>
        <time>2021-03-21T15:46:19Z</time>
      </trkpt>
      <trkpt lat="45.23856" lon="5.90373">
        <ele>588.7</ele>
        <time>2021-03-21T15:46:21Z</time>
      </trkpt>
      <trkpt lat="45.23844" lon="5.90379">
        <ele>593.5</ele>
        <time>2021-03-21T15:46:24Z</time>
      </trkpt>
      <trkpt lat="45.23832" lon="5.90384">
        <ele>594.6</ele>
        <time>2021-03-21T15:46:27Z</time>
      </trkpt>
      <trkpt lat="45.23826" lon="5.90388">
        <ele>594.1</ele>
        <time>2021-03-21T15:46:29Z</time>
      </trkpt>
      <trkpt lat="45.23816" lon="5.90396">
        <ele>593.5</ele>
        <time>2021-03-21T15:46:32Z</time>
      </trkpt>
      <trkpt lat="45.2381" lon="5.90408">
        <ele>598.4</ele>
        <time>2021-03-21T15:46:35Z</time>
      </trkpt>
      <trkpt lat="45.23804" lon="5.90423">
        <ele>602.8</ele>
        <time>2021-03-21T15:46:38Z</time>
      </trkpt>
      <trkpt lat="45.23801" lon="5.90432">
        <ele>604.7</ele>
        <time>2021-03-21T15:46:40Z</time>
      </trkpt>
      <trkpt lat="45.23798" lon="5.90441">
        <ele>607.1</ele>
        <time>2021-03-21T15:46:42Z</time>
      </trkpt>
      <trkpt lat="45.23793" lon="5.90457">
        <ele>605.8</ele>
        <time>2021-03-21T15:46:45Z</time>
      </trkpt>
      <trkpt lat="45.23788" lon="5.9047">
        <ele>604.7</ele>
        <time>2021-03-21T15:46:48Z</time>
      </trkpt>
      <trkpt lat="45.23782" lon="5.90485">
        <ele>606.8</ele>
        <time>2021-03-21T15:46:51Z</time>
      </trkpt>
      <trkpt lat="45.23778" lon="5.905">
        <ele>605.6</ele>
        <time>2021-03-21T15:46:54Z</time>
      </trkpt>
      <trkpt lat="45.23775" lon="5.90511">
        <ele>605.6</ele>
        <time>2021-03-21T15:46:56Z</time>
      </trkpt>
      <trkpt lat="45.2377" lon="5.90521">
        <ele>605.9</ele>
        <time>2021-03-21T15:46:58Z</time>
      </trkpt>
      <trkpt lat="45.23763" lon="5.90534">
        <ele>609.4</ele>
        <time>2021-03-21T15:47:01Z</time>
      </trkpt>
      <trkpt lat="45.23757" lon="5.90548">
        <ele>608.7</ele>
        <time>2021-03-21T15:47:04Z</time>
      </trkpt>
      <trkpt lat="45.23755" lon="5.90554">
        <ele>612</ele>
        <time>2021-03-21T15:47:06Z</time>
      </trkpt>
      <trkpt lat="45.23752" lon="5.90566">
        <ele>614.5</ele>
        <time>2021-03-21T15:47:09Z</time>
      </trkpt>
      <trkpt lat="45.23746" lon="5.90583">
        <ele>614.8</ele>
        <time>2021-03-21T15:47:12Z</time>
      </trkpt>
      <trkpt lat="45.23742" lon="5.90598">
        <ele>614.6</ele>
        <time>2021-03-21T15:47:15Z</time>
      </trkpt>
      <trkpt lat="45.23741" lon="5.90611">
        <ele>617.2</ele>
        <time>2021-03-21T15:47:18Z</time>
      </trkpt>
      <trkpt lat="45.23741" lon="5.90619">
        <ele>619.8</ele>
        <time>2021-03-21T15:47:20Z</time>
      </trkpt>
      <trkpt lat="45.2374" lon="5.90635">
        <ele>617.8</ele>
        <time>2021-03-21T15:47:23Z</time>
      </trkpt>
      <trkpt lat="45.23741" lon="5.90645">
        <ele>620.8</ele>
        <time>2021-03-21T15:47:25Z</time>
      </trkpt>
      <trkpt lat="45.2374" lon="5.9066">
        <ele>621.9</ele>
        <time>2021-03-21T15:47:28Z</time>
      </trkpt>
      <trkpt lat="45.23736" lon="5.90674">
        <ele>618.3</ele>
        <time>2021-03-21T15:47:31Z</time>
      </trkpt>
      <trkpt lat="45.23733" lon="5.90681">
        <ele>618.4</ele>
        <time>2021-03-21T15:47:33Z</time>
      </trkpt>
      <trkpt lat="45.23729" lon="5.9069">
        <ele>617.7</ele>
        <time>2021-03-21T15:47:35Z</time>
      </trkpt>
      <trkpt lat="45.23725" lon="5.90702">
        <ele>619</ele>
        <time>2021-03-21T15:47:38Z</time>
      </trkpt>
      <trkpt lat="45.23719" lon="5.90716">
        <ele>619.8</ele>
        <time>2021-03-21T15:47:41Z</time>
      </trkpt>
      <trkpt lat="45.23714" lon="5.90727">
        <ele>622.5</ele>
        <time>2021-03-21T15:47:43Z</time>
      </trkpt>
      <trkpt lat="45.23706" lon="5.90739">
        <ele>620</ele>
        <time>2021-03-21T15:47:46Z</time>
      </trkpt>
      <trkpt lat="45.23701" lon="5.90749">
        <ele>618.1</ele>
        <time>2021-03-21T15:47:48Z</time>
      </trkpt>
      <trkpt lat="45.23693" lon="5.90763">
        <ele>622.2</ele>
        <time>2021-03-21T15:47:51Z</time>
      </trkpt>
      <trkpt lat="45.23685" lon="5.90776">
        <ele>622.3</ele>
        <time>2021-03-21T15:47:54Z</time>
      </trkpt>
      <trkpt lat="45.23681" lon="5.90785">
        <ele>621.3</ele>
        <time>2021-03-21T15:47:56Z</time>
      </trkpt>
      <trkpt lat="45.23676" lon="5.90792">
        <ele>619.9</ele>
        <time>2021-03-21T15:47:58Z</time>
      </trkpt>
      <trkpt lat="45.23668" lon="5.90803">
        <ele>622.1</ele>
        <time>2021-03-21T15:48:01Z</time>
      </trkpt>
      <trkpt lat="45.23661" lon="5.90812">
        <ele>621.6</ele>
        <time>2021-03-21T15:48:04Z</time>
      </trkpt>
      <trkpt lat="45.23658" lon="5.90817">
        <ele>622.9</ele>
        <time>2021-03-21T15:48:06Z</time>
      </trkpt>
      <trkpt lat="45.23652" lon="5.90823">
        <ele>620</ele>
        <time>2021-03-21T15:48:09Z</time>
      </trkpt>
      <trkpt lat="45.23645" lon="5.90831">
        <ele>617.5</ele>
        <time>2021-03-21T15:48:12Z</time>
      </trkpt>
      <trkpt lat="45.23642" lon="5.90839">
        <ele>619.6</ele>
        <time>2021-03-21T15:48:14Z</time>
      </trkpt>
      <trkpt lat="45.23638" lon="5.90848">
        <ele>620.6</ele>
        <time>2021-03-21T15:48:16Z</time>
      </trkpt>
      <trkpt lat="45.23636" lon="5.90858">
        <ele>622.1</ele>
        <time>2021-03-21T15:48:18Z</time>
      </trkpt>
      <trkpt lat="45.2363" lon="5.90872">
        <ele>628</ele>
        <time>2021-03-21T15:48:21Z</time>
      </trkpt>
      <trkpt lat="45.23627" lon="5.90879">
        <ele>628.7</ele>
        <time>2021-03-21T15:48:23Z</time>
      </trkpt>
      <trkpt lat="45.23624" lon="5.90887">
        <ele>630.3</ele>
        <time>2021-03-21T15:48:25Z</time>
      </trkpt>
      <trkpt lat="45.23619" lon="5.909">
        <ele>629.4</ele>
        <time>2021-03-21T15:48:28Z</time>
      </trkpt>
      <trkpt lat="45.23613" lon="5.90917">
        <ele>633.5</ele>
        <time>2021-03-21T15:48:31Z</time>
      </trkpt>
      <trkpt lat="45.23607" lon="5.90931">
        <ele>638.8</ele>
        <time>2021-03-21T15:48:34Z</time>
      </trkpt>
      <trkpt lat="45.23599" lon="5.90945">
        <ele>640.2</ele>
        <time>2021-03-21T15:48:37Z</time>
      </trkpt>
      <trkpt lat="45.23592" lon="5.9096">
        <ele>645</ele>
        <time>2021-03-21T15:48:40Z</time>
      </trkpt>
      <trkpt lat="45.23585" lon="5.90972">
        <ele>648.5</ele>
        <time>2021-03-21T15:48:42Z</time>
      </trkpt>
      <trkpt lat="45.23575" lon="5.90986">
        <ele>647.1</ele>
        <time>2021-03-21T15:48:45Z</time>
      </trkpt>
      <trkpt lat="45.23569" lon="5.90993">
        <ele>650.2</ele>
        <time>2021-03-21T15:48:47Z</time>
      </trkpt>
      <trkpt lat="45.23563" lon="5.90999">
        <ele>653.8</ele>
        <time>2021-03-21T15:48:49Z</time>
      </trkpt>
      <trkpt lat="45.23553" lon="5.91008">
        <ele>654.8</ele>
        <time>2021-03-21T15:48:52Z</time>
      </trkpt>
      <trkpt lat="45.23548" lon="5.91014">
        <ele>655.8</ele>
        <time>2021-03-21T15:48:54Z</time>
      </trkpt>
      <trkpt lat="45.23543" lon="5.9102">
        <ele>656.5</ele>
        <time>2021-03-21T15:48:56Z</time>
      </trkpt>
      <trkpt lat="45.23537" lon="5.9103">
        <ele>656.8</ele>
        <time>2021-03-21T15:48:59Z</time>
      </trkpt>
      <trkpt lat="45.23533" lon="5.91037">
        <ele>656.7</ele>
        <time>2021-03-21T15:49:01Z</time>
      </trkpt>
      <trkpt lat="45.23526" lon="5.91049">
        <ele>657</ele>
        <time>2021-03-21T15:49:04Z</time>
      </trkpt>
      <trkpt lat="45.23522" lon="5.91058">
        <ele>659.5</ele>
        <time>2021-03-21T15:49:06Z</time>
      </trkpt>
      <trkpt lat="45.23517" lon="5.91067">
        <ele>658.9</ele>
        <time>2021-03-21T15:49:08Z</time>
      </trkpt>
      <trkpt lat="45.2351" lon="5.91081">
        <ele>658.4</ele>
        <time>2021-03-21T15:49:11Z</time>
      </trkpt>
      <trkpt lat="45.23504" lon="5.9109">
        <ele>660.6</ele>
        <time>2021-03-21T15:49:13Z</time>
      </trkpt>
      <trkpt lat="45.23498" lon="5.91099">
        <ele>663.2</ele>
        <time>2021-03-21T15:49:15Z</time>
      </trkpt>
      <trkpt lat="45.23491" lon="5.91112">
        <ele>658.9</ele>
        <time>2021-03-21T15:49:18Z</time>
      </trkpt>
      <trkpt lat="45.23486" lon="5.91119">
        <ele>661.3</ele>
        <time>2021-03-21T15:49:20Z</time>
      </trkpt>
      <trkpt lat="45.23478" lon="5.91131">
        <ele>660.1</ele>
        <time>2021-03-21T15:49:23Z</time>
      </trkpt>
      <trkpt lat="45.23471" lon="5.91144">
        <ele>664.3</ele>
        <time>2021-03-21T15:49:26Z</time>
      </trkpt>
      <trkpt lat="45.23466" lon="5.9115">
        <ele>668.2</ele>
        <time>2021-03-21T15:49:28Z</time>
      </trkpt>
      <trkpt lat="45.2346" lon="5.91158">
        <ele>668.4</ele>
        <time>2021-03-21T15:49:30Z</time>
      </trkpt>
      <trkpt lat="45.23451" lon="5.91165">
        <ele>664.9</ele>
        <time>2021-03-21T15:49:33Z</time>
      </trkpt>
      <trkpt lat="45.23441" lon="5.9117">
        <ele>666.7</ele>
        <time>2021-03-21T15:49:36Z</time>
      </trkpt>
      <trkpt lat="45.2343" lon="5.91171">
        <ele>665</ele>
        <time>2021-03-21T15:49:39Z</time>
      </trkpt>
      <trkpt lat="45.2342" lon="5.9117">
        <ele>664.7</ele>
        <time>2021-03-21T15:49:42Z</time>
      </trkpt>
      <trkpt lat="45.23413" lon="5.91168">
        <ele>664</ele>
        <time>2021-03-21T15:49:44Z</time>
      </trkpt>
      <trkpt lat="45.23408" lon="5.91167">
        <ele>666.5</ele>
        <time>2021-03-21T15:49:46Z</time>
      </trkpt>
      <trkpt lat="45.23401" lon="5.91174">
        <ele>668.4</ele>
        <time>2021-03-21T15:49:49Z</time>
      </trkpt>
      <trkpt lat="45.23397" lon="5.91191">
        <ele>667</ele>
        <time>2021-03-21T15:49:51Z</time>
      </trkpt>
      <trkpt lat="45.23396" lon="5.91215">
        <ele>669.7</ele>
        <time>2021-03-21T15:49:54Z</time>
      </trkpt>
      <trkpt lat="45.23395" lon="5.91237">
        <ele>670.8</ele>
        <time>2021-03-21T15:49:57Z</time>
      </trkpt>
      <trkpt lat="45.23391" lon="5.91253">
        <ele>674.9</ele>
        <time>2021-03-21T15:50:00Z</time>
      </trkpt>
      <trkpt lat="45.23387" lon="5.91263">
        <ele>677.3</ele>
        <time>2021-03-21T15:50:02Z</time>
      </trkpt>
      <trkpt lat="45.23381" lon="5.91278">
        <ele>678.7</ele>
        <time>2021-03-21T15:50:05Z</time>
      </trkpt>
      <trkpt lat="45.23376" lon="5.91288">
        <ele>677.5</ele>
        <time>2021-03-21T15:50:07Z</time>
      </trkpt>
      <trkpt lat="45.2337" lon="5.91299">
        <ele>677.6</ele>
        <time>2021-03-21T15:50:10Z</time>
      </trkpt>
      <trkpt lat="45.23366" lon="5.91309">
        <ele>678.9</ele>
        <time>2021-03-21T15:50:12Z</time>
      </trkpt>
      <trkpt lat="45.2336" lon="5.91321">
        <ele>676.4</ele>
        <time>2021-03-21T15:50:15Z</time>
      </trkpt>
      <trkpt lat="45.23355" lon="5.91331">
        <ele>675.6</ele>
        <time>2021-03-21T15:50:17Z</time>
      </trkpt>
      <trkpt lat="45.2335" lon="5.91341">
        <ele>677.1</ele>
        <time>2021-03-21T15:50:19Z</time>
      </trkpt>
      <trkpt lat="45.23344" lon="5.91352">
        <ele>676.4</ele>
        <time>2021-03-21T15:50:21Z</time>
      </trkpt>
      <trkpt lat="45.23334" lon="5.91367">
        <ele>679.8</ele>
        <time>2021-03-21T15:50:24Z</time>
      </trkpt>
      <trkpt lat="45.23327" lon="5.91377">
        <ele>679.2</ele>
        <time>2021-03-21T15:50:26Z</time>
      </trkpt>
      <trkpt lat="45.23317" lon="5.91388">
        <ele>681.5</ele>
        <time>2021-03-21T15:50:29Z</time>
      </trkpt>
      <trkpt lat="45.23305" lon="5.91392">
        <ele>685.2</ele>
        <time>2021-03-21T15:50:32Z</time>
      </trkpt>
      <trkpt lat="45.23298" lon="5.91393">
        <ele>684</ele>
        <time>2021-03-21T15:50:34Z</time>
      </trkpt>
      <trkpt lat="45.23287" lon="5.9139">
        <ele>684.1</ele>
        <time>2021-03-21T15:50:37Z</time>
      </trkpt>
      <trkpt lat="45.23282" lon="5.91386">
        <ele>683.4</ele>
        <time>2021-03-21T15:50:39Z</time>
      </trkpt>
      <trkpt lat="45.23273" lon="5.91378">
        <ele>684.8</ele>
        <time>2021-03-21T15:50:42Z</time>
      </trkpt>
      <trkpt lat="45.23267" lon="5.91374">
        <ele>685.5</ele>
        <time>2021-03-21T15:50:44Z</time>
      </trkpt>
      <trkpt lat="45.23256" lon="5.91373">
        <ele>687</ele>
        <time>2021-03-21T15:50:47Z</time>
      </trkpt>
      <trkpt lat="45.23247" lon="5.91376">
        <ele>685.5</ele>
        <time>2021-03-21T15:50:50Z</time>
      </trkpt>
      <trkpt lat="45.23235" lon="5.91379">
        <ele>685.8</ele>
        <time>2021-03-21T15:50:53Z</time>
      </trkpt>
      <trkpt lat="45.23226" lon="5.91378">
        <ele>683.3</ele>
        <time>2021-03-21T15:50:55Z</time>
      </trkpt>
      <trkpt lat="45.23214" lon="5.91375">
        <ele>685.7</ele>
        <time>2021-03-21T15:50:58Z</time>
      </trkpt>
      <trkpt lat="45.23206" lon="5.91374">
        <ele>687.4</ele>
        <time>2021-03-21T15:51:00Z</time>
      </trkpt>
      <trkpt lat="45.23199" lon="5.91374">
        <ele>685.7</ele>
        <time>2021-03-21T15:51:02Z</time>
      </trkpt>
      <trkpt lat="45.2319" lon="5.91379">
        <ele>688.3</ele>
        <time>2021-03-21T15:51:05Z</time>
      </trkpt>
      <trkpt lat="45.23184" lon="5.91383">
        <ele>689.9</ele>
        <time>2021-03-21T15:51:07Z</time>
      </trkpt>
      <trkpt lat="45.23176" lon="5.91391">
        <ele>688.1</ele>
        <time>2021-03-21T15:51:10Z</time>
      </trkpt>
      <trkpt lat="45.2317" lon="5.91397">
        <ele>687.7</ele>
        <time>2021-03-21T15:51:12Z</time>
      </trkpt>
      <trkpt lat="45.23163" lon="5.914">
        <ele>687.3</ele>
        <time>2021-03-21T15:51:14Z</time>
      </trkpt>
      <trkpt lat="45.23152" lon="5.91405">
        <ele>690.9</ele>
        <time>2021-03-21T15:51:17Z</time>
      </trkpt>
      <trkpt lat="45.23138" lon="5.91409">
        <ele>690.3</ele>
        <time>2021-03-21T15:51:20Z</time>
      </trkpt>
      <trkpt lat="45.23126" lon="5.91412">
        <ele>691.1</ele>
        <time>2021-03-21T15:51:23Z</time>
      </trkpt>
      <trkpt lat="45.23119" lon="5.91414">
        <ele>692</ele>
        <time>2021-03-21T15:51:25Z</time>
      </trkpt>
      <trkpt lat="45.23114" lon="5.91419">
        <ele>691.1</ele>
        <time>2021-03-21T15:51:27Z</time>
      </trkpt>
      <trkpt lat="45.23107" lon="5.91431">
        <ele>693.8</ele>
        <time>2021-03-21T15:51:30Z</time>
      </trkpt>
      <trkpt lat="45.23101" lon="5.91449">
        <ele>692.4</ele>
        <time>2021-03-21T15:51:33Z</time>
      </trkpt>
      <trkpt lat="45.23097" lon="5.91468">
        <ele>693.9</ele>
        <time>2021-03-21T15:51:36Z</time>
      </trkpt>
      <trkpt lat="45.23094" lon="5.91482">
        <ele>690.2</ele>
        <time>2021-03-21T15:51:38Z</time>
      </trkpt>
      <trkpt lat="45.2309" lon="5.91504">
        <ele>693.9</ele>
        <time>2021-03-21T15:51:41Z</time>
      </trkpt>
      <trkpt lat="45.23092" lon="5.91523">
        <ele>701.2</ele>
        <time>2021-03-21T15:51:44Z</time>
      </trkpt>
      <trkpt lat="45.23095" lon="5.91535">
        <ele>697.8</ele>
        <time>2021-03-21T15:51:46Z</time>
      </trkpt>
      <trkpt lat="45.23098" lon="5.91547">
        <ele>699</ele>
        <time>2021-03-21T15:51:48Z</time>
      </trkpt>
      <trkpt lat="45.23102" lon="5.91565">
        <ele>700.1</ele>
        <time>2021-03-21T15:51:51Z</time>
      </trkpt>
      <trkpt lat="45.23105" lon="5.9158">
        <ele>701.9</ele>
        <time>2021-03-21T15:51:54Z</time>
      </trkpt>
      <trkpt lat="45.23108" lon="5.91592">
        <ele>699.3</ele>
        <time>2021-03-21T15:51:56Z</time>
      </trkpt>
      <trkpt lat="45.23114" lon="5.91609">
        <ele>701.7</ele>
        <time>2021-03-21T15:51:59Z</time>
      </trkpt>
      <trkpt lat="45.23117" lon="5.91621">
        <ele>699.6</ele>
        <time>2021-03-21T15:52:01Z</time>
      </trkpt>
      <trkpt lat="45.23121" lon="5.91639">
        <ele>697.7</ele>
        <time>2021-03-21T15:52:04Z</time>
      </trkpt>
      <trkpt lat="45.23121" lon="5.91659">
        <ele>695.5</ele>
        <time>2021-03-21T15:52:07Z</time>
      </trkpt>
      <trkpt lat="45.23118" lon="5.91675">
        <ele>698</ele>
        <time>2021-03-21T15:52:10Z</time>
      </trkpt>
      <trkpt lat="45.23114" lon="5.91686">
        <ele>702</ele>
        <time>2021-03-21T15:52:12Z</time>
      </trkpt>
      <trkpt lat="45.23107" lon="5.91702">
        <ele>702.6</ele>
        <time>2021-03-21T15:52:15Z</time>
      </trkpt>
      <trkpt lat="45.231" lon="5.91717">
        <ele>704.1</ele>
        <time>2021-03-21T15:52:18Z</time>
      </trkpt>
      <trkpt lat="45.23095" lon="5.91726">
        <ele>704.4</ele>
        <time>2021-03-21T15:52:20Z</time>
      </trkpt>
      <trkpt lat="45.23087" lon="5.91739">
        <ele>708.4</ele>
        <time>2021-03-21T15:52:23Z</time>
      </trkpt>
      <trkpt lat="45.2308" lon="5.91754">
        <ele>702.3</ele>
        <time>2021-03-21T15:52:26Z</time>
      </trkpt>
      <trkpt lat="45.23075" lon="5.91764">
        <ele>702.6</ele>
        <time>2021-03-21T15:52:28Z</time>
      </trkpt>
      <trkpt lat="45.23071" lon="5.91774">
        <ele>705.7</ele>
        <time>2021-03-21T15:52:30Z</time>
      </trkpt>
      <trkpt lat="45.23068" lon="5.91783">
        <ele>707</ele>
        <time>2021-03-21T15:52:32Z</time>
      </trkpt>
      <trkpt lat="45.23064" lon="5.91793">
        <ele>705.9</ele>
        <time>2021-03-21T15:52:34Z</time>
      </trkpt>
      <trkpt lat="45.23059" lon="5.91808">
        <ele>704.5</ele>
        <time>2021-03-21T15:52:37Z</time>
      </trkpt>
      <trkpt lat="45.23054" lon="5.91823">
        <ele>706.2</ele>
        <time>2021-03-21T15:52:40Z</time>
      </trkpt>
      <trkpt lat="45.2305" lon="5.91834">
        <ele>705.7</ele>
        <time>2021-03-21T15:52:42Z</time>
      </trkpt>
      <trkpt lat="45.23045" lon="5.91851">
        <ele>710.8</ele>
        <time>2021-03-21T15:52:45Z</time>
      </trkpt>
      <trkpt lat="45.23042" lon="5.91862">
        <ele>709.7</ele>
        <time>2021-03-21T15:52:47Z</time>
      </trkpt>
      <trkpt lat="45.23039" lon="5.91873">
        <ele>711</ele>
        <time>2021-03-21T15:52:49Z</time>
      </trkpt>
      <trkpt lat="45.23034" lon="5.91889">
        <ele>712.6</ele>
        <time>2021-03-21T15:52:52Z</time>
      </trkpt>
      <trkpt lat="45.2303" lon="5.91905">
        <ele>719.1</ele>
        <time>2021-03-21T15:52:55Z</time>
      </trkpt>
      <trkpt lat="45.23026" lon="5.91922">
        <ele>724.9</ele>
        <time>2021-03-21T15:52:58Z</time>
      </trkpt>
      <trkpt lat="45.23021" lon="5.91935">
        <ele>727.4</ele>
        <time>2021-03-21T15:53:01Z</time>
      </trkpt>
      <trkpt lat="45.23017" lon="5.91944">
        <ele>726</ele>
        <time>2021-03-21T15:53:03Z</time>
      </trkpt>
      <trkpt lat="45.23013" lon="5.91954">
        <ele>731.4</ele>
        <time>2021-03-21T15:53:05Z</time>
      </trkpt>
      <trkpt lat="45.23006" lon="5.91967">
        <ele>733</ele>
        <time>2021-03-21T15:53:08Z</time>
      </trkpt>
      <trkpt lat="45.22997" lon="5.91982">
        <ele>733.5</ele>
        <time>2021-03-21T15:53:11Z</time>
      </trkpt>
      <trkpt lat="45.2299" lon="5.91995">
        <ele>733.8</ele>
        <time>2021-03-21T15:53:14Z</time>
      </trkpt>
      <trkpt lat="45.22984" lon="5.92004">
        <ele>733.6</ele>
        <time>2021-03-21T15:53:16Z</time>
      </trkpt>
      <trkpt lat="45.22976" lon="5.92015">
        <ele>736.4</ele>
        <time>2021-03-21T15:53:19Z</time>
      </trkpt>
      <trkpt lat="45.22971" lon="5.92022">
        <ele>737.6</ele>
        <time>2021-03-21T15:53:21Z</time>
      </trkpt>
      <trkpt lat="45.22963" lon="5.9203">
        <ele>739.3</ele>
        <time>2021-03-21T15:53:23Z</time>
      </trkpt>
      <trkpt lat="45.22954" lon="5.9204">
        <ele>742.9</ele>
        <time>2021-03-21T15:53:26Z</time>
      </trkpt>
      <trkpt lat="45.22945" lon="5.92053">
        <ele>743.9</ele>
        <time>2021-03-21T15:53:29Z</time>
      </trkpt>
      <trkpt lat="45.22934" lon="5.92064">
        <ele>749.2</ele>
        <time>2021-03-21T15:53:32Z</time>
      </trkpt>
      <trkpt lat="45.22927" lon="5.92069">
        <ele>747.8</ele>
        <time>2021-03-21T15:53:34Z</time>
      </trkpt>
      <trkpt lat="45.22913" lon="5.92075">
        <ele>746.7</ele>
        <time>2021-03-21T15:53:37Z</time>
      </trkpt>
      <trkpt lat="45.22902" lon="5.92071">
        <ele>746</ele>
        <time>2021-03-21T15:53:40Z</time>
      </trkpt>
      <trkpt lat="45.2289" lon="5.92065">
        <ele>746.1</ele>
        <time>2021-03-21T15:53:43Z</time>
      </trkpt>
      <trkpt lat="45.22879" lon="5.92058">
        <ele>746.8</ele>
        <time>2021-03-21T15:53:46Z</time>
      </trkpt>
      <trkpt lat="45.22873" lon="5.92054">
        <ele>745.4</ele>
        <time>2021-03-21T15:53:48Z</time>
      </trkpt>
      <trkpt lat="45.22862" lon="5.9205">
        <ele>748.8</ele>
        <time>2021-03-21T15:53:51Z</time>
      </trkpt>
      <trkpt lat="45.22851" lon="5.92052">
        <ele>750.6</ele>
        <time>2021-03-21T15:53:54Z</time>
      </trkpt>
      <trkpt lat="45.22841" lon="5.92065">
        <ele>750.3</ele>
        <time>2021-03-21T15:53:57Z</time>
      </trkpt>
      <trkpt lat="45.22838" lon="5.92078">
        <ele>751.2</ele>
        <time>2021-03-21T15:53:59Z</time>
      </trkpt>
      <trkpt lat="45.22838" lon="5.92099">
        <ele>753.8</ele>
        <time>2021-03-21T15:54:02Z</time>
      </trkpt>
      <trkpt lat="45.22839" lon="5.92119">
        <ele>752.5</ele>
        <time>2021-03-21T15:54:05Z</time>
      </trkpt>
      <trkpt lat="45.22837" lon="5.92138">
        <ele>755.6</ele>
        <time>2021-03-21T15:54:08Z</time>
      </trkpt>
      <trkpt lat="45.22831" lon="5.92152">
        <ele>756.8</ele>
        <time>2021-03-21T15:54:11Z</time>
      </trkpt>
      <trkpt lat="45.22826" lon="5.92161">
        <ele>754.6</ele>
        <time>2021-03-21T15:54:13Z</time>
      </trkpt>
      <trkpt lat="45.22819" lon="5.9217">
        <ele>756.6</ele>
        <time>2021-03-21T15:54:15Z</time>
      </trkpt>
      <trkpt lat="45.22811" lon="5.92184">
        <ele>759.5</ele>
        <time>2021-03-21T15:54:18Z</time>
      </trkpt>
      <trkpt lat="45.22805" lon="5.92193">
        <ele>761.7</ele>
        <time>2021-03-21T15:54:20Z</time>
      </trkpt>
      <trkpt lat="45.22798" lon="5.92206">
        <ele>762.8</ele>
        <time>2021-03-21T15:54:23Z</time>
      </trkpt>
      <trkpt lat="45.22789" lon="5.9222">
        <ele>764.5</ele>
        <time>2021-03-21T15:54:26Z</time>
      </trkpt>
      <trkpt lat="45.22783" lon="5.92229">
        <ele>764.8</ele>
        <time>2021-03-21T15:54:28Z</time>
      </trkpt>
      <trkpt lat="45.22775" lon="5.92243">
        <ele>767.3</ele>
        <time>2021-03-21T15:54:31Z</time>
      </trkpt>
      <trkpt lat="45.22769" lon="5.92252">
        <ele>769.2</ele>
        <time>2021-03-21T15:54:33Z</time>
      </trkpt>
      <trkpt lat="45.22763" lon="5.9227">
        <ele>772.9</ele>
        <time>2021-03-21T15:54:36Z</time>
      </trkpt>
      <trkpt lat="45.22756" lon="5.92282">
        <ele>771</ele>
        <time>2021-03-21T15:54:39Z</time>
      </trkpt>
      <trkpt lat="45.22751" lon="5.9229">
        <ele>773.1</ele>
        <time>2021-03-21T15:54:41Z</time>
      </trkpt>
      <trkpt lat="45.22744" lon="5.92298">
        <ele>773.1</ele>
        <time>2021-03-21T15:54:44Z</time>
      </trkpt>
      <trkpt lat="45.22737" lon="5.9231">
        <ele>773.7</ele>
        <time>2021-03-21T15:54:47Z</time>
      </trkpt>
      <trkpt lat="45.22729" lon="5.92322">
        <ele>772.7</ele>
        <time>2021-03-21T15:54:50Z</time>
      </trkpt>
      <trkpt lat="45.22719" lon="5.92337">
        <ele>774.2</ele>
        <time>2021-03-21T15:54:53Z</time>
      </trkpt>
      <trkpt lat="45.22713" lon="5.92352">
        <ele>773.9</ele>
        <time>2021-03-21T15:54:56Z</time>
      </trkpt>
      <trkpt lat="45.22711" lon="5.92364">
        <ele>775.3</ele>
        <time>2021-03-21T15:54:58Z</time>
      </trkpt>
      <trkpt lat="45.22708" lon="5.92376">
        <ele>775.2</ele>
        <time>2021-03-21T15:55:00Z</time>
      </trkpt>
      <trkpt lat="45.22703" lon="5.92392">
        <ele>775.7</ele>
        <time>2021-03-21T15:55:03Z</time>
      </trkpt>
      <trkpt lat="45.227" lon="5.92401">
        <ele>771.5</ele>
        <time>2021-03-21T15:55:05Z</time>
      </trkpt>
      <trkpt lat="45.22691" lon="5.92416">
        <ele>775.4</ele>
        <time>2021-03-21T15:55:08Z</time>
      </trkpt>
      <trkpt lat="45.22686" lon="5.92425">
        <ele>776.1</ele>
        <time>2021-03-21T15:55:10Z</time>
      </trkpt>
      <trkpt lat="45.22678" lon="5.92436">
        <ele>775.4</ele>
        <time>2021-03-21T15:55:13Z</time>
      </trkpt>
      <trkpt lat="45.22669" lon="5.92446">
        <ele>775.5</ele>
        <time>2021-03-21T15:55:16Z</time>
      </trkpt>
      <trkpt lat="45.22659" lon="5.9245">
        <ele>777.4</ele>
        <time>2021-03-21T15:55:19Z</time>
      </trkpt>
      <trkpt lat="45.22653" lon="5.92455">
        <ele>775.9</ele>
        <time>2021-03-21T15:55:21Z</time>
      </trkpt>
      <trkpt lat="45.22644" lon="5.92465">
        <ele>779</ele>
        <time>2021-03-21T15:55:24Z</time>
      </trkpt>
      <trkpt lat="45.2264" lon="5.92473">
        <ele>779.9</ele>
        <time>2021-03-21T15:55:26Z</time>
      </trkpt>
      <trkpt lat="45.22637" lon="5.92486">
        <ele>781.4</ele>
        <time>2021-03-21T15:55:29Z</time>
      </trkpt>
      <trkpt lat="45.22638" lon="5.92504">
        <ele>780.4</ele>
        <time>2021-03-21T15:55:32Z</time>
      </trkpt>
      <trkpt lat="45.22638" lon="5.92519">
        <ele>782.4</ele>
        <time>2021-03-21T15:55:34Z</time>
      </trkpt>
      <trkpt lat="45.22637" lon="5.9254">
        <ele>784</ele>
        <time>2021-03-21T15:55:37Z</time>
      </trkpt>
      <trkpt lat="45.22635" lon="5.92553">
        <ele>784.1</ele>
        <time>2021-03-21T15:55:39Z</time>
      </trkpt>
      <trkpt lat="45.22626" lon="5.92569">
        <ele>785.4</ele>
        <time>2021-03-21T15:55:42Z</time>
      </trkpt>
      <trkpt lat="45.22616" lon="5.92581">
        <ele>783.3</ele>
        <time>2021-03-21T15:55:45Z</time>
      </trkpt>
      <trkpt lat="45.22609" lon="5.92596">
        <ele>783.7</ele>
        <time>2021-03-21T15:55:48Z</time>
      </trkpt>
      <trkpt lat="45.22609" lon="5.92614">
        <ele>783.6</ele>
        <time>2021-03-21T15:55:51Z</time>
      </trkpt>
      <trkpt lat="45.22609" lon="5.9263">
        <ele>784.9</ele>
        <time>2021-03-21T15:55:54Z</time>
      </trkpt>
      <trkpt lat="45.22604" lon="5.92645">
        <ele>787.5</ele>
        <time>2021-03-21T15:55:57Z</time>
      </trkpt>
      <trkpt lat="45.22599" lon="5.92653">
        <ele>786.9</ele>
        <time>2021-03-21T15:55:59Z</time>
      </trkpt>
      <trkpt lat="45.2259" lon="5.92657">
        <ele>790.9</ele>
        <time>2021-03-21T15:56:02Z</time>
      </trkpt>
      <trkpt lat="45.22586" lon="5.92643">
        <ele>790.5</ele>
        <time>2021-03-21T15:56:05Z</time>
      </trkpt>
      <trkpt lat="45.22588" lon="5.92629">
        <ele>788.8</ele>
        <time>2021-03-21T15:56:07Z</time>
      </trkpt>
      <trkpt lat="45.22589" lon="5.92615">
        <ele>791.2</ele>
        <time>2021-03-21T15:56:09Z</time>
      </trkpt>
      <trkpt lat="45.22588" lon="5.92598">
        <ele>790</ele>
        <time>2021-03-21T15:56:12Z</time>
      </trkpt>
      <trkpt lat="45.22587" lon="5.92583">
        <ele>792</ele>
        <time>2021-03-21T15:56:15Z</time>
      </trkpt>
      <trkpt lat="45.22586" lon="5.92569">
        <ele>796.3</ele>
        <time>2021-03-21T15:56:18Z</time>
      </trkpt>
      <trkpt lat="45.22585" lon="5.92556">
        <ele>796.8</ele>
        <time>2021-03-21T15:56:21Z</time>
      </trkpt>
      <trkpt lat="45.22587" lon="5.92542">
        <ele>794.4</ele>
        <time>2021-03-21T15:56:24Z</time>
      </trkpt>
      <trkpt lat="45.22591" lon="5.92507">
        <ele>799.4</ele>
        <time>2021-03-21T15:56:31Z</time>
      </trkpt>
      <trkpt lat="45.22594" lon="5.92495">
        <ele>795.9</ele>
        <time>2021-03-21T15:56:33Z</time>
      </trkpt>
      <trkpt lat="45.22596" lon="5.92481">
        <ele>798.8</ele>
        <time>2021-03-21T15:56:36Z</time>
      </trkpt>
      <trkpt lat="45.22598" lon="5.92466">
        <ele>798.9</ele>
        <time>2021-03-21T15:56:39Z</time>
      </trkpt>
      <trkpt lat="45.22602" lon="5.92451">
        <ele>802.2</ele>
        <time>2021-03-21T15:56:42Z</time>
      </trkpt>
      <trkpt lat="45.22605" lon="5.92441">
        <ele>803.1</ele>
        <time>2021-03-21T15:56:44Z</time>
      </trkpt>
      <trkpt lat="45.22607" lon="5.92425">
        <ele>804.5</ele>
        <time>2021-03-21T15:56:47Z</time>
      </trkpt>
      <trkpt lat="45.2261" lon="5.92408">
        <ele>805.1</ele>
        <time>2021-03-21T15:56:50Z</time>
      </trkpt>
      <trkpt lat="45.22614" lon="5.92394">
        <ele>804.5</ele>
        <time>2021-03-21T15:56:53Z</time>
      </trkpt>
      <trkpt lat="45.22616" lon="5.92384">
        <ele>804.9</ele>
        <time>2021-03-21T15:56:55Z</time>
      </trkpt>
      <trkpt lat="45.2262" lon="5.9237">
        <ele>804</ele>
        <time>2021-03-21T15:56:58Z</time>
      </trkpt>
      <trkpt lat="45.22623" lon="5.92358">
        <ele>803.4</ele>
        <time>2021-03-21T15:57:00Z</time>
      </trkpt>
      <trkpt lat="45.22628" lon="5.92342">
        <ele>806.2</ele>
        <time>2021-03-21T15:57:03Z</time>
      </trkpt>
      <trkpt lat="45.22632" lon="5.9233">
        <ele>804.4</ele>
        <time>2021-03-21T15:57:05Z</time>
      </trkpt>
      <trkpt lat="45.2264" lon="5.92309">
        <ele>804.8</ele>
        <time>2021-03-21T15:57:08Z</time>
      </trkpt>
      <trkpt lat="45.2265" lon="5.92289">
        <ele>806.8</ele>
        <time>2021-03-21T15:57:11Z</time>
      </trkpt>
      <trkpt lat="45.22658" lon="5.92275">
        <ele>807</ele>
        <time>2021-03-21T15:57:13Z</time>
      </trkpt>
      <trkpt lat="45.22673" lon="5.92255">
        <ele>804.5</ele>
        <time>2021-03-21T15:57:16Z</time>
      </trkpt>
      <trkpt lat="45.22683" lon="5.92242">
        <ele>804.7</ele>
        <time>2021-03-21T15:57:18Z</time>
      </trkpt>
      <trkpt lat="45.22698" lon="5.92218">
        <ele>804.7</ele>
        <time>2021-03-21T15:57:21Z</time>
      </trkpt>
      <trkpt lat="45.22709" lon="5.92199">
        <ele>803.8</ele>
        <time>2021-03-21T15:57:23Z</time>
      </trkpt>
      <trkpt lat="45.22726" lon="5.92168">
        <ele>802.9</ele>
        <time>2021-03-21T15:57:26Z</time>
      </trkpt>
      <trkpt lat="45.22736" lon="5.92145">
        <ele>801.8</ele>
        <time>2021-03-21T15:57:28Z</time>
      </trkpt>
      <trkpt lat="45.22751" lon="5.92112">
        <ele>802.9</ele>
        <time>2021-03-21T15:57:31Z</time>
      </trkpt>
      <trkpt lat="45.2276" lon="5.92091">
        <ele>801.2</ele>
        <time>2021-03-21T15:57:33Z</time>
      </trkpt>
      <trkpt lat="45.22771" lon="5.92061">
        <ele>806.3</ele>
        <time>2021-03-21T15:57:36Z</time>
      </trkpt>
      <trkpt lat="45.22773" lon="5.92028">
        <ele>804.2</ele>
        <time>2021-03-21T15:57:39Z</time>
      </trkpt>
      <trkpt lat="45.2277" lon="5.91997">
        <ele>799.2</ele>
        <time>2021-03-21T15:57:42Z</time>
      </trkpt>
      <trkpt lat="45.22773" lon="5.91976">
        <ele>800.3</ele>
        <time>2021-03-21T15:57:44Z</time>
      </trkpt>
      <trkpt lat="45.2279" lon="5.91957">
        <ele>803.6</ele>
        <time>2021-03-21T15:57:47Z</time>
      </trkpt>
      <trkpt lat="45.22803" lon="5.91952">
        <ele>800.8</ele>
        <time>2021-03-21T15:57:49Z</time>
      </trkpt>
      <trkpt lat="45.22813" lon="5.91949">
        <ele>796.3</ele>
        <time>2021-03-21T15:57:51Z</time>
      </trkpt>
      <trkpt lat="45.22829" lon="5.91943">
        <ele>794.6</ele>
        <time>2021-03-21T15:57:54Z</time>
      </trkpt>
      <trkpt lat="45.22838" lon="5.91937">
        <ele>790.8</ele>
        <time>2021-03-21T15:57:56Z</time>
      </trkpt>
      <trkpt lat="45.22851" lon="5.91923">
        <ele>788.6</ele>
        <time>2021-03-21T15:57:59Z</time>
      </trkpt>
      <trkpt lat="45.22858" lon="5.91913">
        <ele>784.5</ele>
        <time>2021-03-21T15:58:01Z</time>
      </trkpt>
      <trkpt lat="45.22867" lon="5.91903">
        <ele>788.4</ele>
        <time>2021-03-21T15:58:03Z</time>
      </trkpt>
      <trkpt lat="45.22878" lon="5.91887">
        <ele>789.7</ele>
        <time>2021-03-21T15:58:06Z</time>
      </trkpt>
      <trkpt lat="45.2289" lon="5.91871">
        <ele>790.8</ele>
        <time>2021-03-21T15:58:09Z</time>
      </trkpt>
      <trkpt lat="45.22901" lon="5.91856">
        <ele>790.1</ele>
        <time>2021-03-21T15:58:12Z</time>
      </trkpt>
      <trkpt lat="45.22912" lon="5.91843">
        <ele>790.3</ele>
        <time>2021-03-21T15:58:15Z</time>
      </trkpt>
      <trkpt lat="45.22916" lon="5.91834">
        <ele>790.6</ele>
        <time>2021-03-21T15:58:17Z</time>
      </trkpt>
      <trkpt lat="45.22923" lon="5.91822">
        <ele>792.9</ele>
        <time>2021-03-21T15:58:20Z</time>
      </trkpt>
      <trkpt lat="45.22928" lon="5.91813">
        <ele>790.6</ele>
        <time>2021-03-21T15:58:22Z</time>
      </trkpt>
      <trkpt lat="45.22938" lon="5.91799">
        <ele>792.8</ele>
        <time>2021-03-21T15:58:25Z</time>
      </trkpt>
      <trkpt lat="45.22945" lon="5.91787">
        <ele>789.4</ele>
        <time>2021-03-21T15:58:27Z</time>
      </trkpt>
      <trkpt lat="45.22952" lon="5.91777">
        <ele>791.8</ele>
        <time>2021-03-21T15:58:29Z</time>
      </trkpt>
      <trkpt lat="45.22962" lon="5.91759">
        <ele>790.6</ele>
        <time>2021-03-21T15:58:32Z</time>
      </trkpt>
      <trkpt lat="45.22969" lon="5.9174">
        <ele>785.1</ele>
        <time>2021-03-21T15:58:35Z</time>
      </trkpt>
      <trkpt lat="45.22972" lon="5.91728">
        <ele>788</ele>
        <time>2021-03-21T15:58:37Z</time>
      </trkpt>
      <trkpt lat="45.22977" lon="5.91707">
        <ele>787.6</ele>
        <time>2021-03-21T15:58:40Z</time>
      </trkpt>
      <trkpt lat="45.22979" lon="5.91695">
        <ele>785.3</ele>
        <time>2021-03-21T15:58:42Z</time>
      </trkpt>
      <trkpt lat="45.2298" lon="5.91682">
        <ele>787.8</ele>
        <time>2021-03-21T15:58:44Z</time>
      </trkpt>
      <trkpt lat="45.22981" lon="5.91669">
        <ele>789.1</ele>
        <time>2021-03-21T15:58:46Z</time>
      </trkpt>
      <trkpt lat="45.22982" lon="5.91652">
        <ele>787.3</ele>
        <time>2021-03-21T15:58:49Z</time>
      </trkpt>
      <trkpt lat="45.22982" lon="5.9164">
        <ele>789.8</ele>
        <time>2021-03-21T15:58:51Z</time>
      </trkpt>
      <trkpt lat="45.22981" lon="5.91621">
        <ele>793.2</ele>
        <time>2021-03-21T15:58:54Z</time>
      </trkpt>
      <trkpt lat="45.22979" lon="5.91606">
        <ele>793.8</ele>
        <time>2021-03-21T15:58:57Z</time>
      </trkpt>
      <trkpt lat="45.22976" lon="5.91591">
        <ele>791.7</ele>
        <time>2021-03-21T15:59:00Z</time>
      </trkpt>
      <trkpt lat="45.22972" lon="5.9158">
        <ele>788.5</ele>
        <time>2021-03-21T15:59:02Z</time>
      </trkpt>
      <trkpt lat="45.22966" lon="5.91564">
        <ele>792.9</ele>
        <time>2021-03-21T15:59:05Z</time>
      </trkpt>
      <trkpt lat="45.22957" lon="5.91548">
        <ele>792.5</ele>
        <time>2021-03-21T15:59:08Z</time>
      </trkpt>
      <trkpt lat="45.22951" lon="5.9153">
        <ele>795</ele>
        <time>2021-03-21T15:59:11Z</time>
      </trkpt>
      <trkpt lat="45.22949" lon="5.91516">
        <ele>795.9</ele>
        <time>2021-03-21T15:59:13Z</time>
      </trkpt>
      <trkpt lat="45.22948" lon="5.91493">
        <ele>798.1</ele>
        <time>2021-03-21T15:59:16Z</time>
      </trkpt>
      <trkpt lat="45.22949" lon="5.91477">
        <ele>797</ele>
        <time>2021-03-21T15:59:18Z</time>
      </trkpt>
      <trkpt lat="45.22952" lon="5.91454">
        <ele>799.8</ele>
        <time>2021-03-21T15:59:21Z</time>
      </trkpt>
      <trkpt lat="45.22954" lon="5.91442">
        <ele>804.3</ele>
        <time>2021-03-21T15:59:23Z</time>
      </trkpt>
      <trkpt lat="45.2296" lon="5.9143">
        <ele>808.2</ele>
        <time>2021-03-21T15:59:26Z</time>
      </trkpt>
      <trkpt lat="45.22967" lon="5.91422">
        <ele>809.3</ele>
        <time>2021-03-21T15:59:28Z</time>
      </trkpt>
      <trkpt lat="45.22975" lon="5.91413">
        <ele>809.8</ele>
        <time>2021-03-21T15:59:31Z</time>
      </trkpt>
      <trkpt lat="45.22979" lon="5.91406">
        <ele>810.5</ele>
        <time>2021-03-21T15:59:33Z</time>
      </trkpt>
      <trkpt lat="45.22984" lon="5.91397">
        <ele>813.7</ele>
        <time>2021-03-21T15:59:35Z</time>
      </trkpt>
      <trkpt lat="45.22989" lon="5.91383">
        <ele>812.3</ele>
        <time>2021-03-21T15:59:38Z</time>
      </trkpt>
      <trkpt lat="45.22998" lon="5.91363">
        <ele>817.7</ele>
        <time>2021-03-21T15:59:41Z</time>
      </trkpt>
      <trkpt lat="45.23003" lon="5.91349">
        <ele>812.1</ele>
        <time>2021-03-21T15:59:43Z</time>
      </trkpt>
      <trkpt lat="45.23018" lon="5.91328">
        <ele>815.3</ele>
        <time>2021-03-21T15:59:46Z</time>
      </trkpt>
      <trkpt lat="45.2303" lon="5.91315">
        <ele>815.2</ele>
        <time>2021-03-21T15:59:48Z</time>
      </trkpt>
      <trkpt lat="45.23046" lon="5.91293">
        <ele>816.5</ele>
        <time>2021-03-21T15:59:51Z</time>
      </trkpt>
      <trkpt lat="45.23058" lon="5.91279">
        <ele>816.8</ele>
        <time>2021-03-21T15:59:53Z</time>
      </trkpt>
      <trkpt lat="45.23077" lon="5.91256">
        <ele>817.7</ele>
        <time>2021-03-21T15:59:56Z</time>
      </trkpt>
      <trkpt lat="45.23094" lon="5.91242">
        <ele>819.6</ele>
        <time>2021-03-21T15:59:58Z</time>
      </trkpt>
      <trkpt lat="45.23124" lon="5.91221">
        <ele>821.9</ele>
        <time>2021-03-21T16:00:01Z</time>
      </trkpt>
      <trkpt lat="45.23144" lon="5.91208">
        <ele>816.8</ele>
        <time>2021-03-21T16:00:03Z</time>
      </trkpt>
      <trkpt lat="45.23178" lon="5.91191">
        <ele>813.7</ele>
        <time>2021-03-21T16:00:06Z</time>
      </trkpt>
      <trkpt lat="45.23199" lon="5.91174">
        <ele>810.8</ele>
        <time>2021-03-21T16:00:08Z</time>
      </trkpt>
      <trkpt lat="45.23217" lon="5.91146">
        <ele>804.9</ele>
        <time>2021-03-21T16:00:10Z</time>
      </trkpt>
      <trkpt lat="45.23234" lon="5.91099">
        <ele>804.8</ele>
        <time>2021-03-21T16:00:13Z</time>
      </trkpt>
      <trkpt lat="45.23247" lon="5.91069">
        <ele>806.1</ele>
        <time>2021-03-21T16:00:15Z</time>
      </trkpt>
      <trkpt lat="45.23278" lon="5.91038">
        <ele>810.8</ele>
        <time>2021-03-21T16:00:18Z</time>
      </trkpt>
      <trkpt lat="45.23299" lon="5.91016">
        <ele>811.7</ele>
        <time>2021-03-21T16:00:20Z</time>
      </trkpt>
      <trkpt lat="45.23328" lon="5.90978">
        <ele>807.4</ele>
        <time>2021-03-21T16:00:23Z</time>
      </trkpt>
      <trkpt lat="45.23353" lon="5.90928">
        <ele>801.3</ele>
        <time>2021-03-21T16:00:26Z</time>
      </trkpt>
      <trkpt lat="45.23368" lon="5.90891">
        <ele>802.8</ele>
        <time>2021-03-21T16:00:28Z</time>
      </trkpt>
      <trkpt lat="45.23388" lon="5.90837">
        <ele>799.4</ele>
        <time>2021-03-21T16:00:31Z</time>
      </trkpt>
      <trkpt lat="45.23403" lon="5.90801">
        <ele>800.5</ele>
        <time>2021-03-21T16:00:33Z</time>
      </trkpt>
      <trkpt lat="45.23428" lon="5.90747">
        <ele>793.4</ele>
        <time>2021-03-21T16:00:36Z</time>
      </trkpt>
      <trkpt lat="45.23445" lon="5.90713">
        <ele>796.9</ele>
        <time>2021-03-21T16:00:38Z</time>
      </trkpt>
      <trkpt lat="45.23457" lon="5.9068">
        <ele>795.1</ele>
        <time>2021-03-21T16:00:40Z</time>
      </trkpt>
      <trkpt lat="45.23469" lon="5.90632">
        <ele>794.2</ele>
        <time>2021-03-21T16:00:43Z</time>
      </trkpt>
      <trkpt lat="45.23474" lon="5.90598">
        <ele>785.6</ele>
        <time>2021-03-21T16:00:45Z</time>
      </trkpt>
      <trkpt lat="45.23479" lon="5.90562">
        <ele>784.5</ele>
        <time>2021-03-21T16:00:47Z</time>
      </trkpt>
      <trkpt lat="45.23487" lon="5.90512">
        <ele>779.2</ele>
        <time>2021-03-21T16:00:50Z</time>
      </trkpt>
      <trkpt lat="45.23491" lon="5.90485">
        <ele>780.3</ele>
        <time>2021-03-21T16:00:52Z</time>
      </trkpt>
      <trkpt lat="45.23495" lon="5.90446">
        <ele>775.8</ele>
        <time>2021-03-21T16:00:55Z</time>
      </trkpt>
      <trkpt lat="45.23501" lon="5.9041">
        <ele>775.9</ele>
        <time>2021-03-21T16:00:58Z</time>
      </trkpt>
      <trkpt lat="45.23508" lon="5.90378">
        <ele>774.6</ele>
        <time>2021-03-21T16:01:01Z</time>
      </trkpt>
      <trkpt lat="45.23512" lon="5.90344">
        <ele>772.7</ele>
        <time>2021-03-21T16:01:04Z</time>
      </trkpt>
      <trkpt lat="45.23508" lon="5.90306">
        <ele>766.7</ele>
        <time>2021-03-21T16:01:07Z</time>
      </trkpt>
      <trkpt lat="45.23497" lon="5.90286">
        <ele>767.5</ele>
        <time>2021-03-21T16:01:09Z</time>
      </trkpt>
      <trkpt lat="45.23485" lon="5.9027">
        <ele>766.9</ele>
        <time>2021-03-21T16:01:11Z</time>
      </trkpt>
      <trkpt lat="45.2347" lon="5.90257">
        <ele>765.3</ele>
        <time>2021-03-21T16:01:14Z</time>
      </trkpt>
      <trkpt lat="45.23456" lon="5.9025">
        <ele>763</ele>
        <time>2021-03-21T16:01:17Z</time>
      </trkpt>
      <trkpt lat="45.2345" lon="5.90246">
        <ele>761.5</ele>
        <time>2021-03-21T16:01:19Z</time>
      </trkpt>
      <trkpt lat="45.23447" lon="5.90246">
        <ele>760.7</ele>
        <time>2021-03-21T16:01:21Z</time>
      </trkpt>
      <trkpt lat="45.23442" lon="5.90242">
        <ele>761</ele>
        <time>2021-03-21T16:01:24Z</time>
      </trkpt>
      <trkpt lat="45.23446" lon="5.90239">
        <ele>760.2</ele>
        <time>2021-03-21T16:01:27Z</time>
      </trkpt>
      <trkpt lat="45.2345" lon="5.90243">
        <ele>759.7</ele>
        <time>2021-03-21T16:01:29Z</time>
      </trkpt>
      <trkpt lat="45.23453" lon="5.90246">
        <ele>761.6</ele>
        <time>2021-03-21T16:01:32Z</time>
      </trkpt>
      <trkpt lat="45.23449" lon="5.90242">
        <ele>760.4</ele>
        <time>2021-03-21T16:01:35Z</time>
      </trkpt>
      <trkpt lat="45.23446" lon="5.90241">
        <ele>762.3</ele>
        <time>2021-03-21T16:01:38Z</time>
      </trkpt>
      <trkpt lat="45.23444" lon="5.9024">
        <ele>759.3</ele>
        <time>2021-03-21T16:01:41Z</time>
      </trkpt>
      <trkpt lat="45.23442" lon="5.9024">
        <ele>759.3</ele>
        <time>2021-03-21T16:01:44Z</time>
      </trkpt>
      <trkpt lat="45.23442" lon="5.90242">
        <ele>757.1</ele>
        <time>2021-03-21T16:01:47Z</time>
      </trkpt>
      <trkpt lat="45.23443" lon="5.90244">
        <ele>761</ele>
        <time>2021-03-21T16:01:49Z</time>
      </trkpt>
      <trkpt lat="45.23441" lon="5.90246">
        <ele>759.5</ele>
        <time>2021-03-21T16:01:51Z</time>
      </trkpt>
      <trkpt lat="45.23441" lon="5.90247">
        <ele>760.9</ele>
        <time>2021-03-21T16:01:54Z</time>
      </trkpt>
      <trkpt lat="45.23442" lon="5.90247">
        <ele>759.6</ele>
        <time>2021-03-21T16:01:56Z</time>
      </trkpt>
      <trkpt lat="45.23442" lon="5.90247">
        <ele>760.7</ele>
        <time>2021-03-21T16:01:58Z</time>
      </trkpt>
      <trkpt lat="45.23443" lon="5.90248">
        <ele>760</ele>
        <time>2021-03-21T16:02:01Z</time>
      </trkpt>
      <trkpt lat="45.23443" lon="5.90248">
        <ele>758.7</ele>
        <time>2021-03-21T16:02:04Z</time>
      </trkpt>
      <trkpt lat="45.23443" lon="5.90248">
        <ele>760.3</ele>
        <time>2021-03-21T16:02:06Z</time>
      </trkpt>
      <trkpt lat="45.23443" lon="5.90248">
        <ele>759.7</ele>
        <time>2021-03-21T16:02:09Z</time>
      </trkpt>
      <trkpt lat="45.23443" lon="5.90248">
        <ele>758.7</ele>
        <time>2021-03-21T16:02:12Z</time>
      </trkpt>
      <trkpt lat="45.23443" lon="5.90248">
        <ele>759.9</ele>
        <time>2021-03-21T16:02:15Z</time>
      </trkpt>
      <trkpt lat="45.23443" lon="5.90248">
        <ele>760.1</ele>
        <time>2021-03-21T16:02:18Z</time>
      </trkpt>
      <trkpt lat="45.23443" lon="5.90248">
        <ele>759.4</ele>
        <time>2021-03-21T16:02:20Z</time>
      </trkpt>
      <trkpt lat="45.23443" lon="5.90248">
        <ele>759.9</ele>
        <time>2021-03-21T16:02:23Z</time>
      </trkpt>
      <trkpt lat="45.23443" lon="5.90248">
        <ele>758.8</ele>
        <time>2021-03-21T16:02:26Z</time>
      </trkpt>
      <trkpt lat="45.23443" lon="5.90248">
        <ele>757.6</ele>
        <time>2021-03-21T16:02:29Z</time>
      </trkpt>
      <trkpt lat="45.23443" lon="5.90248">
        <ele>759</ele>
        <time>2021-03-21T16:02:32Z</time>
      </trkpt>
      <trkpt lat="45.23443" lon="5.90248">
        <ele>758.9</ele>
        <time>2021-03-21T16:02:35Z</time>
      </trkpt>
      <trkpt lat="45.23443" lon="5.90248">
        <ele>758.5</ele>
        <time>2021-03-21T16:02:37Z</time>
      </trkpt>
      <trkpt lat="45.23443" lon="5.90248">
        <ele>758.2</ele>
        <time>2021-03-21T16:02:40Z</time>
      </trkpt>
      <trkpt lat="45.23443" lon="5.90248">
        <ele>760.2</ele>
        <time>2021-03-21T16:02:42Z</time>
      </trkpt>
      <trkpt lat="45.23443" lon="5.90248">
        <ele>758.9</ele>
        <time>2021-03-21T16:02:44Z</time>
      </trkpt>
      <trkpt lat="45.23443" lon="5.90248">
        <ele>759.4</ele>
        <time>2021-03-21T16:02:47Z</time>
      </trkpt>
      <trkpt lat="45.23443" lon="5.90248">
        <ele>759.3</ele>
        <time>2021-03-21T16:02:49Z</time>
      </trkpt>
      <trkpt lat="45.23443" lon="5.90248">
        <ele>758.4</ele>
        <time>2021-03-21T16:02:52Z</time>
      </trkpt>
      <trkpt lat="45.23443" lon="5.90248">
        <ele>760.3</ele>
        <time>2021-03-21T16:02:54Z</time>
      </trkpt>
      <trkpt lat="45.23443" lon="5.90248">
        <ele>758.6</ele>
        <time>2021-03-21T16:02:56Z</time>
      </trkpt>
      <trkpt lat="45.23443" lon="5.90248">
        <ele>758.6</ele>
        <time>2021-03-21T16:02:59Z</time>
      </trkpt>
      <trkpt lat="45.23443" lon="5.90248">
        <ele>758.8</ele>
        <time>2021-03-21T16:03:02Z</time>
      </trkpt>
      <trkpt lat="45.23443" lon="5.90248">
        <ele>759.4</ele>
        <time>2021-03-21T16:03:04Z</time>
      </trkpt>
      <trkpt lat="45.23443" lon="5.90248">
        <ele>758.6</ele>
        <time>2021-03-21T16:03:07Z</time>
      </trkpt>
      <trkpt lat="45.23443" lon="5.90248">
        <ele>759.3</ele>
        <time>2021-03-21T16:03:10Z</time>
      </trkpt>
      <trkpt lat="45.23443" lon="5.90248">
        <ele>759.1</ele>
        <time>2021-03-21T16:03:13Z</time>
      </trkpt>
      <trkpt lat="45.23443" lon="5.90248">
        <ele>760.5</ele>
        <time>2021-03-21T16:03:16Z</time>
      </trkpt>
      <trkpt lat="45.23443" lon="5.90248">
        <ele>759.8</ele>
        <time>2021-03-21T16:03:19Z</time>
      </trkpt>
      <trkpt lat="45.23443" lon="5.90248">
        <ele>759.1</ele>
        <time>2021-03-21T16:03:21Z</time>
      </trkpt>
      <trkpt lat="45.23443" lon="5.90248">
        <ele>759</ele>
        <time>2021-03-21T16:03:24Z</time>
      </trkpt>
      <trkpt lat="45.23443" lon="5.90248">
        <ele>759.9</ele>
        <time>2021-03-21T16:03:27Z</time>
      </trkpt>
      <trkpt lat="45.23443" lon="5.90248">
        <ele>758.6</ele>
        <time>2021-03-21T16:03:30Z</time>
      </trkpt>
      <trkpt lat="45.23442" lon="5.90251">
        <ele>754.4</ele>
        <time>2021-03-21T16:03:33Z</time>
      </trkpt>
      <trkpt lat="45.23437" lon="5.90253">
        <ele>753.8</ele>
        <time>2021-03-21T16:03:35Z</time>
      </trkpt>
      <trkpt lat="45.23432" lon="5.90254">
        <ele>754.4</ele>
        <time>2021-03-21T16:03:37Z</time>
      </trkpt>
      <trkpt lat="45.23419" lon="5.90262">
        <ele>754.4</ele>
        <time>2021-03-21T16:03:40Z</time>
      </trkpt>
      <trkpt lat="45.23408" lon="5.90266">
        <ele>753.6</ele>
        <time>2021-03-21T16:03:42Z</time>
      </trkpt>
      <trkpt lat="45.23397" lon="5.90269">
        <ele>752.7</ele>
        <time>2021-03-21T16:03:44Z</time>
      </trkpt>
      <trkpt lat="45.23386" lon="5.90272">
        <ele>751.1</ele>
        <time>2021-03-21T16:03:46Z</time>
      </trkpt>
      <trkpt lat="45.23367" lon="5.90279">
        <ele>750.8</ele>
        <time>2021-03-21T16:03:49Z</time>
      </trkpt>
      <trkpt lat="45.23347" lon="5.9029">
        <ele>748.1</ele>
        <time>2021-03-21T16:03:52Z</time>
      </trkpt>
      <trkpt lat="45.23325" lon="5.90303">
        <ele>750.7</ele>
        <time>2021-03-21T16:03:55Z</time>
      </trkpt>
      <trkpt lat="45.23301" lon="5.90317">
        <ele>749.4</ele>
        <time>2021-03-21T16:03:58Z</time>
      </trkpt>
      <trkpt lat="45.23285" lon="5.90326">
        <ele>750.4</ele>
        <time>2021-03-21T16:04:00Z</time>
      </trkpt>
      <trkpt lat="45.23259" lon="5.90333">
        <ele>747.2</ele>
        <time>2021-03-21T16:04:03Z</time>
      </trkpt>
      <trkpt lat="45.2324" lon="5.90333">
        <ele>748.2</ele>
        <time>2021-03-21T16:04:05Z</time>
      </trkpt>
      <trkpt lat="45.23217" lon="5.90331">
        <ele>747.4</ele>
        <time>2021-03-21T16:04:08Z</time>
      </trkpt>
      <trkpt lat="45.23203" lon="5.9033">
        <ele>746.7</ele>
        <time>2021-03-21T16:04:10Z</time>
      </trkpt>
      <trkpt lat="45.23183" lon="5.90328">
        <ele>744.4</ele>
        <time>2021-03-21T16:04:13Z</time>
      </trkpt>
      <trkpt lat="45.23169" lon="5.90325">
        <ele>744.3</ele>
        <time>2021-03-21T16:04:15Z</time>
      </trkpt>
      <trkpt lat="45.2315" lon="5.90321">
        <ele>746.7</ele>
        <time>2021-03-21T16:04:18Z</time>
      </trkpt>
      <trkpt lat="45.23137" lon="5.90318">
        <ele>747.1</ele>
        <time>2021-03-21T16:04:20Z</time>
      </trkpt>
      <trkpt lat="45.23124" lon="5.90317">
        <ele>746.3</ele>
        <time>2021-03-21T16:04:22Z</time>
      </trkpt>
      <trkpt lat="45.23109" lon="5.90317">
        <ele>744.2</ele>
        <time>2021-03-21T16:04:24Z</time>
      </trkpt>
      <trkpt lat="45.23085" lon="5.90319">
        <ele>744.7</ele>
        <time>2021-03-21T16:04:27Z</time>
      </trkpt>
      <trkpt lat="45.23071" lon="5.90324">
        <ele>742.7</ele>
        <time>2021-03-21T16:04:29Z</time>
      </trkpt>
      <trkpt lat="45.23048" lon="5.9033">
        <ele>742.9</ele>
        <time>2021-03-21T16:04:32Z</time>
      </trkpt>
      <trkpt lat="45.23032" lon="5.90333">
        <ele>739.3</ele>
        <time>2021-03-21T16:04:34Z</time>
      </trkpt>
      <trkpt lat="45.23009" lon="5.90338">
        <ele>735.1</ele>
        <time>2021-03-21T16:04:37Z</time>
      </trkpt>
      <trkpt lat="45.22995" lon="5.90341">
        <ele>737.1</ele>
        <time>2021-03-21T16:04:39Z</time>
      </trkpt>
      <trkpt lat="45.22977" lon="5.9035">
        <ele>736.3</ele>
        <time>2021-03-21T16:04:42Z</time>
      </trkpt>
      <trkpt lat="45.22965" lon="5.90356">
        <ele>737.1</ele>
        <time>2021-03-21T16:04:44Z</time>
      </trkpt>
      <trkpt lat="45.22946" lon="5.90354">
        <ele>735.7</ele>
        <time>2021-03-21T16:04:47Z</time>
      </trkpt>
      <trkpt lat="45.22942" lon="5.90342">
        <ele>737.3</ele>
        <time>2021-03-21T16:04:49Z</time>
      </trkpt>
      <trkpt lat="45.22938" lon="5.90329">
        <ele>737.6</ele>
        <time>2021-03-21T16:04:52Z</time>
      </trkpt>
      <trkpt lat="45.22937" lon="5.90323">
        <ele>736.3</ele>
        <time>2021-03-21T16:04:54Z</time>
      </trkpt>
      <trkpt lat="45.22931" lon="5.90313">
        <ele>732.7</ele>
        <time>2021-03-21T16:04:57Z</time>
      </trkpt>
      <trkpt lat="45.22926" lon="5.90307">
        <ele>730.4</ele>
        <time>2021-03-21T16:04:59Z</time>
      </trkpt>
      <trkpt lat="45.22919" lon="5.90302">
        <ele>730.3</ele>
        <time>2021-03-21T16:05:01Z</time>
      </trkpt>
      <trkpt lat="45.22912" lon="5.90297">
        <ele>728.2</ele>
        <time>2021-03-21T16:05:03Z</time>
      </trkpt>
      <trkpt lat="45.22903" lon="5.90291">
        <ele>729.5</ele>
        <time>2021-03-21T16:05:06Z</time>
      </trkpt>
      <trkpt lat="45.22895" lon="5.90287">
        <ele>733.4</ele>
        <time>2021-03-21T16:05:08Z</time>
      </trkpt>
      <trkpt lat="45.22884" lon="5.90278">
        <ele>736.4</ele>
        <time>2021-03-21T16:05:11Z</time>
      </trkpt>
      <trkpt lat="45.22874" lon="5.9027">
        <ele>739.3</ele>
        <time>2021-03-21T16:05:14Z</time>
      </trkpt>
      <trkpt lat="45.22863" lon="5.90257">
        <ele>737.2</ele>
        <time>2021-03-21T16:05:17Z</time>
      </trkpt>
      <trkpt lat="45.22852" lon="5.90245">
        <ele>737.6</ele>
        <time>2021-03-21T16:05:19Z</time>
      </trkpt>
      <trkpt lat="45.22838" lon="5.90235">
        <ele>739.8</ele>
        <time>2021-03-21T16:05:22Z</time>
      </trkpt>
      <trkpt lat="45.22827" lon="5.90234">
        <ele>742.8</ele>
        <time>2021-03-21T16:05:24Z</time>
      </trkpt>
      <trkpt lat="45.22817" lon="5.90233">
        <ele>742.4</ele>
        <time>2021-03-21T16:05:26Z</time>
      </trkpt>
      <trkpt lat="45.22802" lon="5.90234">
        <ele>740.5</ele>
        <time>2021-03-21T16:05:29Z</time>
      </trkpt>
      <trkpt lat="45.22793" lon="5.90236">
        <ele>741.7</ele>
        <time>2021-03-21T16:05:31Z</time>
      </trkpt>
      <trkpt lat="45.22783" lon="5.90237">
        <ele>741.7</ele>
        <time>2021-03-21T16:05:33Z</time>
      </trkpt>
      <trkpt lat="45.22765" lon="5.90239">
        <ele>742.8</ele>
        <time>2021-03-21T16:05:36Z</time>
      </trkpt>
      <trkpt lat="45.22753" lon="5.90242">
        <ele>740.5</ele>
        <time>2021-03-21T16:05:38Z</time>
      </trkpt>
      <trkpt lat="45.22737" lon="5.90242">
        <ele>740.9</ele>
        <time>2021-03-21T16:05:41Z</time>
      </trkpt>
      <trkpt lat="45.22722" lon="5.90244">
        <ele>738.4</ele>
        <time>2021-03-21T16:05:44Z</time>
      </trkpt>
      <trkpt lat="45.22712" lon="5.90248">
        <ele>741.8</ele>
        <time>2021-03-21T16:05:46Z</time>
      </trkpt>
      <trkpt lat="45.227" lon="5.90251">
        <ele>742.2</ele>
        <time>2021-03-21T16:05:48Z</time>
      </trkpt>
      <trkpt lat="45.22682" lon="5.90261">
        <ele>738.7</ele>
        <time>2021-03-21T16:05:51Z</time>
      </trkpt>
      <trkpt lat="45.22663" lon="5.90271">
        <ele>738.7</ele>
        <time>2021-03-21T16:05:54Z</time>
      </trkpt>
      <trkpt lat="45.22647" lon="5.9028">
        <ele>736.6</ele>
        <time>2021-03-21T16:05:57Z</time>
      </trkpt>
      <trkpt lat="45.2264" lon="5.9029">
        <ele>734.6</ele>
        <time>2021-03-21T16:05:59Z</time>
      </trkpt>
      <trkpt lat="45.22631" lon="5.90311">
        <ele>732.3</ele>
        <time>2021-03-21T16:06:02Z</time>
      </trkpt>
      <trkpt lat="45.22622" lon="5.90335">
        <ele>735.1</ele>
        <time>2021-03-21T16:06:05Z</time>
      </trkpt>
      <trkpt lat="45.22598" lon="5.90401">
        <ele>736.9</ele>
        <time>2021-03-21T16:06:14Z</time>
      </trkpt>
      <trkpt lat="45.22595" lon="5.90417">
        <ele>736.9</ele>
        <time>2021-03-21T16:06:16Z</time>
      </trkpt>
      <trkpt lat="45.22586" lon="5.90447">
        <ele>739</ele>
        <time>2021-03-21T16:06:20Z</time>
      </trkpt>
      <trkpt lat="45.22582" lon="5.90462">
        <ele>738.8</ele>
        <time>2021-03-21T16:06:22Z</time>
      </trkpt>
      <trkpt lat="45.22576" lon="5.90487">
        <ele>734.5</ele>
        <time>2021-03-21T16:06:25Z</time>
      </trkpt>
      <trkpt lat="45.22573" lon="5.90506">
        <ele>731.1</ele>
        <time>2021-03-21T16:06:27Z</time>
      </trkpt>
      <trkpt lat="45.22558" lon="5.9052">
        <ele>733.8</ele>
        <time>2021-03-21T16:06:30Z</time>
      </trkpt>
      <trkpt lat="45.22546" lon="5.90516">
        <ele>732.2</ele>
        <time>2021-03-21T16:06:32Z</time>
      </trkpt>
      <trkpt lat="45.22538" lon="5.90505">
        <ele>735.8</ele>
        <time>2021-03-21T16:06:34Z</time>
      </trkpt>
      <trkpt lat="45.22534" lon="5.90487">
        <ele>736.3</ele>
        <time>2021-03-21T16:06:37Z</time>
      </trkpt>
      <trkpt lat="45.22529" lon="5.90469">
        <ele>734.4</ele>
        <time>2021-03-21T16:06:40Z</time>
      </trkpt>
      <trkpt lat="45.22525" lon="5.90455">
        <ele>737.1</ele>
        <time>2021-03-21T16:06:43Z</time>
      </trkpt>
      <trkpt lat="45.22521" lon="5.90444">
        <ele>738.2</ele>
        <time>2021-03-21T16:06:45Z</time>
      </trkpt>
      <trkpt lat="45.22517" lon="5.90433">
        <ele>739.9</ele>
        <time>2021-03-21T16:06:47Z</time>
      </trkpt>
      <trkpt lat="45.22508" lon="5.90418">
        <ele>740</ele>
        <time>2021-03-21T16:06:50Z</time>
      </trkpt>
      <trkpt lat="45.22499" lon="5.90407">
        <ele>748.3</ele>
        <time>2021-03-21T16:06:52Z</time>
      </trkpt>
      <trkpt lat="45.22484" lon="5.90396">
        <ele>746.5</ele>
        <time>2021-03-21T16:06:55Z</time>
      </trkpt>
      <trkpt lat="45.22475" lon="5.90389">
        <ele>745.5</ele>
        <time>2021-03-21T16:06:57Z</time>
      </trkpt>
      <trkpt lat="45.22462" lon="5.90381">
        <ele>745.3</ele>
        <time>2021-03-21T16:07:00Z</time>
      </trkpt>
      <trkpt lat="45.22455" lon="5.90373">
        <ele>743.8</ele>
        <time>2021-03-21T16:07:02Z</time>
      </trkpt>
      <trkpt lat="45.22444" lon="5.90358">
        <ele>748.3</ele>
        <time>2021-03-21T16:07:05Z</time>
      </trkpt>
      <trkpt lat="45.22437" lon="5.90351">
        <ele>748.7</ele>
        <time>2021-03-21T16:07:07Z</time>
      </trkpt>
      <trkpt lat="45.2243" lon="5.90344">
        <ele>746.7</ele>
        <time>2021-03-21T16:07:09Z</time>
      </trkpt>
      <trkpt lat="45.2242" lon="5.9033">
        <ele>750.8</ele>
        <time>2021-03-21T16:07:12Z</time>
      </trkpt>
      <trkpt lat="45.22412" lon="5.90313">
        <ele>749.6</ele>
        <time>2021-03-21T16:07:15Z</time>
      </trkpt>
      <trkpt lat="45.22403" lon="5.90294">
        <ele>751.7</ele>
        <time>2021-03-21T16:07:18Z</time>
      </trkpt>
      <trkpt lat="45.22398" lon="5.90281">
        <ele>750.9</ele>
        <time>2021-03-21T16:07:20Z</time>
      </trkpt>
      <trkpt lat="45.22391" lon="5.9026">
        <ele>754.4</ele>
        <time>2021-03-21T16:07:23Z</time>
      </trkpt>
      <trkpt lat="45.22387" lon="5.90241">
        <ele>755.8</ele>
        <time>2021-03-21T16:07:26Z</time>
      </trkpt>
      <trkpt lat="45.22383" lon="5.90226">
        <ele>755</ele>
        <time>2021-03-21T16:07:29Z</time>
      </trkpt>
      <trkpt lat="45.22373" lon="5.90209">
        <ele>755.1</ele>
        <time>2021-03-21T16:07:32Z</time>
      </trkpt>
      <trkpt lat="45.22356" lon="5.90194">
        <ele>755.9</ele>
        <time>2021-03-21T16:07:35Z</time>
      </trkpt>
      <trkpt lat="45.22341" lon="5.90178">
        <ele>752.3</ele>
        <time>2021-03-21T16:07:38Z</time>
      </trkpt>
      <trkpt lat="45.22329" lon="5.90165">
        <ele>751.2</ele>
        <time>2021-03-21T16:07:41Z</time>
      </trkpt>
      <trkpt lat="45.22321" lon="5.9016">
        <ele>749.3</ele>
        <time>2021-03-21T16:07:43Z</time>
      </trkpt>
      <trkpt lat="45.22308" lon="5.90155">
        <ele>747</ele>
        <time>2021-03-21T16:07:46Z</time>
      </trkpt>
      <trkpt lat="45.22296" lon="5.90149">
        <ele>743.3</ele>
        <time>2021-03-21T16:07:49Z</time>
      </trkpt>
      <trkpt lat="45.22286" lon="5.90142">
        <ele>747</ele>
        <time>2021-03-21T16:07:52Z</time>
      </trkpt>
      <trkpt lat="45.22277" lon="5.90137">
        <ele>749.7</ele>
        <time>2021-03-21T16:07:54Z</time>
      </trkpt>
      <trkpt lat="45.22269" lon="5.90131">
        <ele>753.1</ele>
        <time>2021-03-21T16:07:56Z</time>
      </trkpt>
      <trkpt lat="45.22261" lon="5.90125">
        <ele>754</ele>
        <time>2021-03-21T16:07:58Z</time>
      </trkpt>
      <trkpt lat="45.2225" lon="5.90117">
        <ele>755.5</ele>
        <time>2021-03-21T16:08:01Z</time>
      </trkpt>
      <trkpt lat="45.22243" lon="5.90113">
        <ele>757.7</ele>
        <time>2021-03-21T16:08:03Z</time>
      </trkpt>
      <trkpt lat="45.22231" lon="5.90111">
        <ele>758.1</ele>
        <time>2021-03-21T16:08:06Z</time>
      </trkpt>
      <trkpt lat="45.22221" lon="5.90117">
        <ele>759</ele>
        <time>2021-03-21T16:08:09Z</time>
      </trkpt>
      <trkpt lat="45.22211" lon="5.9013">
        <ele>760.7</ele>
        <time>2021-03-21T16:08:12Z</time>
      </trkpt>
      <trkpt lat="45.22199" lon="5.90145">
        <ele>761.2</ele>
        <time>2021-03-21T16:08:15Z</time>
      </trkpt>
      <trkpt lat="45.22188" lon="5.90162">
        <ele>759.9</ele>
        <time>2021-03-21T16:08:18Z</time>
      </trkpt>
      <trkpt lat="45.22179" lon="5.90174">
        <ele>760.9</ele>
        <time>2021-03-21T16:08:20Z</time>
      </trkpt>
      <trkpt lat="45.22169" lon="5.90186">
        <ele>763.2</ele>
        <time>2021-03-21T16:08:22Z</time>
      </trkpt>
      <trkpt lat="45.22158" lon="5.90196">
        <ele>765.2</ele>
        <time>2021-03-21T16:08:24Z</time>
      </trkpt>
      <trkpt lat="45.22141" lon="5.90208">
        <ele>765.1</ele>
        <time>2021-03-21T16:08:27Z</time>
      </trkpt>
      <trkpt lat="45.22124" lon="5.90222">
        <ele>764.7</ele>
        <time>2021-03-21T16:08:30Z</time>
      </trkpt>
      <trkpt lat="45.22106" lon="5.90233">
        <ele>766.7</ele>
        <time>2021-03-21T16:08:33Z</time>
      </trkpt>
      <trkpt lat="45.22094" lon="5.90239">
        <ele>768.2</ele>
        <time>2021-03-21T16:08:35Z</time>
      </trkpt>
      <trkpt lat="45.22076" lon="5.90245">
        <ele>766.3</ele>
        <time>2021-03-21T16:08:38Z</time>
      </trkpt>
      <trkpt lat="45.22056" lon="5.90248">
        <ele>764.2</ele>
        <time>2021-03-21T16:08:41Z</time>
      </trkpt>
      <trkpt lat="45.22038" lon="5.90247">
        <ele>763.6</ele>
        <time>2021-03-21T16:08:44Z</time>
      </trkpt>
      <trkpt lat="45.22025" lon="5.90245">
        <ele>761.5</ele>
        <time>2021-03-21T16:08:46Z</time>
      </trkpt>
      <trkpt lat="45.22008" lon="5.90234">
        <ele>758.8</ele>
        <time>2021-03-21T16:08:49Z</time>
      </trkpt>
      <trkpt lat="45.21994" lon="5.90224">
        <ele>760.7</ele>
        <time>2021-03-21T16:08:52Z</time>
      </trkpt>
      <trkpt lat="45.21982" lon="5.90214">
        <ele>760.1</ele>
        <time>2021-03-21T16:08:55Z</time>
      </trkpt>
      <trkpt lat="45.21973" lon="5.90206">
        <ele>760.1</ele>
        <time>2021-03-21T16:08:58Z</time>
      </trkpt>
      <trkpt lat="45.21967" lon="5.90198">
        <ele>760.7</ele>
        <time>2021-03-21T16:09:00Z</time>
      </trkpt>
      <trkpt lat="45.21958" lon="5.90187">
        <ele>760.1</ele>
        <time>2021-03-21T16:09:03Z</time>
      </trkpt>
      <trkpt lat="45.21948" lon="5.90177">
        <ele>761.9</ele>
        <time>2021-03-21T16:09:06Z</time>
      </trkpt>
      <trkpt lat="45.21944" lon="5.90168">
        <ele>761.5</ele>
        <time>2021-03-21T16:09:08Z</time>
      </trkpt>
      <trkpt lat="45.21939" lon="5.9016">
        <ele>763.1</ele>
        <time>2021-03-21T16:09:10Z</time>
      </trkpt>
      <trkpt lat="45.21934" lon="5.90152">
        <ele>760.7</ele>
        <time>2021-03-21T16:09:12Z</time>
      </trkpt>
      <trkpt lat="45.21927" lon="5.90138">
        <ele>762.2</ele>
        <time>2021-03-21T16:09:15Z</time>
      </trkpt>
      <trkpt lat="45.21926" lon="5.90128">
        <ele>763.9</ele>
        <time>2021-03-21T16:09:17Z</time>
      </trkpt>
      <trkpt lat="45.2193" lon="5.90112">
        <ele>764.6</ele>
        <time>2021-03-21T16:09:20Z</time>
      </trkpt>
      <trkpt lat="45.21936" lon="5.90095">
        <ele>767.3</ele>
        <time>2021-03-21T16:09:23Z</time>
      </trkpt>
      <trkpt lat="45.21939" lon="5.9008">
        <ele>766.5</ele>
        <time>2021-03-21T16:09:26Z</time>
      </trkpt>
      <trkpt lat="45.21939" lon="5.90063">
        <ele>768.9</ele>
        <time>2021-03-21T16:09:29Z</time>
      </trkpt>
      <trkpt lat="45.21931" lon="5.90047">
        <ele>768.4</ele>
        <time>2021-03-21T16:09:32Z</time>
      </trkpt>
      <trkpt lat="45.21924" lon="5.9004">
        <ele>769.1</ele>
        <time>2021-03-21T16:09:34Z</time>
      </trkpt>
      <trkpt lat="45.21913" lon="5.9003">
        <ele>771</ele>
        <time>2021-03-21T16:09:37Z</time>
      </trkpt>
      <trkpt lat="45.21903" lon="5.90024">
        <ele>771.1</ele>
        <time>2021-03-21T16:09:39Z</time>
      </trkpt>
      <trkpt lat="45.21893" lon="5.90019">
        <ele>773.9</ele>
        <time>2021-03-21T16:09:41Z</time>
      </trkpt>
      <trkpt lat="45.21879" lon="5.90008">
        <ele>774.2</ele>
        <time>2021-03-21T16:09:44Z</time>
      </trkpt>
      <trkpt lat="45.21864" lon="5.89998">
        <ele>774.5</ele>
        <time>2021-03-21T16:09:47Z</time>
      </trkpt>
      <trkpt lat="45.21854" lon="5.89993">
        <ele>775.3</ele>
        <time>2021-03-21T16:09:49Z</time>
      </trkpt>
      <trkpt lat="45.2184" lon="5.89987">
        <ele>770.2</ele>
        <time>2021-03-21T16:09:52Z</time>
      </trkpt>
      <trkpt lat="45.21825" lon="5.8998">
        <ele>774.6</ele>
        <time>2021-03-21T16:09:55Z</time>
      </trkpt>
      <trkpt lat="45.21811" lon="5.89974">
        <ele>771.4</ele>
        <time>2021-03-21T16:09:58Z</time>
      </trkpt>
      <trkpt lat="45.21787" lon="5.89964">
        <ele>773.2</ele>
        <time>2021-03-21T16:10:05Z</time>
      </trkpt>
      <trkpt lat="45.21776" lon="5.89961">
        <ele>770.6</ele>
        <time>2021-03-21T16:10:07Z</time>
      </trkpt>
      <trkpt lat="45.21766" lon="5.89955">
        <ele>772.1</ele>
        <time>2021-03-21T16:10:09Z</time>
      </trkpt>
      <trkpt lat="45.21751" lon="5.89945">
        <ele>767.7</ele>
        <time>2021-03-21T16:10:12Z</time>
      </trkpt>
      <trkpt lat="45.21741" lon="5.89938">
        <ele>767.5</ele>
        <time>2021-03-21T16:10:14Z</time>
      </trkpt>
      <trkpt lat="45.21726" lon="5.89932">
        <ele>767.8</ele>
        <time>2021-03-21T16:10:17Z</time>
      </trkpt>
      <trkpt lat="45.21715" lon="5.89926">
        <ele>766.7</ele>
        <time>2021-03-21T16:10:19Z</time>
      </trkpt>
      <trkpt lat="45.21704" lon="5.89918">
        <ele>768.6</ele>
        <time>2021-03-21T16:10:22Z</time>
      </trkpt>
      <trkpt lat="45.21695" lon="5.89908">
        <ele>767.6</ele>
        <time>2021-03-21T16:10:24Z</time>
      </trkpt>
      <trkpt lat="45.21682" lon="5.89895">
        <ele>769</ele>
        <time>2021-03-21T16:10:27Z</time>
      </trkpt>
      <trkpt lat="45.21672" lon="5.89885">
        <ele>770.2</ele>
        <time>2021-03-21T16:10:29Z</time>
      </trkpt>
      <trkpt lat="45.21662" lon="5.89874">
        <ele>772.9</ele>
        <time>2021-03-21T16:10:31Z</time>
      </trkpt>
      <trkpt lat="45.21647" lon="5.89859">
        <ele>775.3</ele>
        <time>2021-03-21T16:10:34Z</time>
      </trkpt>
      <trkpt lat="45.21632" lon="5.89846">
        <ele>773.8</ele>
        <time>2021-03-21T16:10:37Z</time>
      </trkpt>
      <trkpt lat="45.21617" lon="5.89833">
        <ele>776.9</ele>
        <time>2021-03-21T16:10:40Z</time>
      </trkpt>
      <trkpt lat="45.21602" lon="5.8982">
        <ele>777.9</ele>
        <time>2021-03-21T16:10:43Z</time>
      </trkpt>
      <trkpt lat="45.21587" lon="5.89809">
        <ele>780.9</ele>
        <time>2021-03-21T16:10:46Z</time>
      </trkpt>
      <trkpt lat="45.21577" lon="5.89802">
        <ele>782</ele>
        <time>2021-03-21T16:10:48Z</time>
      </trkpt>
      <trkpt lat="45.21567" lon="5.89795">
        <ele>782.6</ele>
        <time>2021-03-21T16:10:50Z</time>
      </trkpt>
      <trkpt lat="45.21553" lon="5.89784">
        <ele>783.3</ele>
        <time>2021-03-21T16:10:53Z</time>
      </trkpt>
      <trkpt lat="45.21543" lon="5.89776">
        <ele>784.6</ele>
        <time>2021-03-21T16:10:55Z</time>
      </trkpt>
      <trkpt lat="45.21528" lon="5.89765">
        <ele>785.4</ele>
        <time>2021-03-21T16:10:58Z</time>
      </trkpt>
      <trkpt lat="45.21519" lon="5.8976">
        <ele>785.5</ele>
        <time>2021-03-21T16:11:00Z</time>
      </trkpt>
      <trkpt lat="45.21512" lon="5.89754">
        <ele>784.6</ele>
        <time>2021-03-21T16:11:02Z</time>
      </trkpt>
      <trkpt lat="45.21502" lon="5.89748">
        <ele>785.7</ele>
        <time>2021-03-21T16:11:04Z</time>
      </trkpt>
      <trkpt lat="45.21486" lon="5.89739">
        <ele>790.6</ele>
        <time>2021-03-21T16:11:07Z</time>
      </trkpt>
      <trkpt lat="45.2147" lon="5.8973">
        <ele>789.5</ele>
        <time>2021-03-21T16:11:10Z</time>
      </trkpt>
      <trkpt lat="45.21455" lon="5.89725">
        <ele>790.1</ele>
        <time>2021-03-21T16:11:13Z</time>
      </trkpt>
      <trkpt lat="45.21438" lon="5.89724">
        <ele>791.3</ele>
        <time>2021-03-21T16:11:16Z</time>
      </trkpt>
      <trkpt lat="45.21428" lon="5.89725">
        <ele>792.5</ele>
        <time>2021-03-21T16:11:18Z</time>
      </trkpt>
      <trkpt lat="45.21416" lon="5.89726">
        <ele>791.9</ele>
        <time>2021-03-21T16:11:20Z</time>
      </trkpt>
      <trkpt lat="45.21405" lon="5.89729">
        <ele>793.6</ele>
        <time>2021-03-21T16:11:22Z</time>
      </trkpt>
      <trkpt lat="45.2139" lon="5.89733">
        <ele>793</ele>
        <time>2021-03-21T16:11:25Z</time>
      </trkpt>
      <trkpt lat="45.21375" lon="5.89742">
        <ele>795</ele>
        <time>2021-03-21T16:11:28Z</time>
      </trkpt>
      <trkpt lat="45.21359" lon="5.89751">
        <ele>793.4</ele>
        <time>2021-03-21T16:11:31Z</time>
      </trkpt>
      <trkpt lat="45.21346" lon="5.89758">
        <ele>793.8</ele>
        <time>2021-03-21T16:11:33Z</time>
      </trkpt>
      <trkpt lat="45.21329" lon="5.89768">
        <ele>790.6</ele>
        <time>2021-03-21T16:11:36Z</time>
      </trkpt>
      <trkpt lat="45.21312" lon="5.89778">
        <ele>792.7</ele>
        <time>2021-03-21T16:11:39Z</time>
      </trkpt>
      <trkpt lat="45.21301" lon="5.89785">
        <ele>792.5</ele>
        <time>2021-03-21T16:11:41Z</time>
      </trkpt>
      <trkpt lat="45.2129" lon="5.89787">
        <ele>793.7</ele>
        <time>2021-03-21T16:11:44Z</time>
      </trkpt>
      <trkpt lat="45.21284" lon="5.89787">
        <ele>795.3</ele>
        <time>2021-03-21T16:11:46Z</time>
      </trkpt>
      <trkpt lat="45.21276" lon="5.89789">
        <ele>796.1</ele>
        <time>2021-03-21T16:11:48Z</time>
      </trkpt>
      <trkpt lat="45.21265" lon="5.89791">
        <ele>798.2</ele>
        <time>2021-03-21T16:11:51Z</time>
      </trkpt>
      <trkpt lat="45.21257" lon="5.89792">
        <ele>798</ele>
        <time>2021-03-21T16:11:53Z</time>
      </trkpt>
      <trkpt lat="45.21246" lon="5.89792">
        <ele>797.5</ele>
        <time>2021-03-21T16:11:56Z</time>
      </trkpt>
      <trkpt lat="45.21237" lon="5.89793">
        <ele>798.8</ele>
        <time>2021-03-21T16:11:58Z</time>
      </trkpt>
      <trkpt lat="45.21224" lon="5.89792">
        <ele>799</ele>
        <time>2021-03-21T16:12:01Z</time>
      </trkpt>
      <trkpt lat="45.21215" lon="5.89788">
        <ele>800.1</ele>
        <time>2021-03-21T16:12:03Z</time>
      </trkpt>
      <trkpt lat="45.21201" lon="5.89776">
        <ele>800.6</ele>
        <time>2021-03-21T16:12:06Z</time>
      </trkpt>
      <trkpt lat="45.21189" lon="5.89768">
        <ele>803.1</ele>
        <time>2021-03-21T16:12:09Z</time>
      </trkpt>
      <trkpt lat="45.21177" lon="5.89762">
        <ele>802</ele>
        <time>2021-03-21T16:12:12Z</time>
      </trkpt>
      <trkpt lat="45.21168" lon="5.89757">
        <ele>801.2</ele>
        <time>2021-03-21T16:12:14Z</time>
      </trkpt>
      <trkpt lat="45.21154" lon="5.89756">
        <ele>802.9</ele>
        <time>2021-03-21T16:12:17Z</time>
      </trkpt>
      <trkpt lat="45.21139" lon="5.89766">
        <ele>805.4</ele>
        <time>2021-03-21T16:12:20Z</time>
      </trkpt>
      <trkpt lat="45.21128" lon="5.89777">
        <ele>808.9</ele>
        <time>2021-03-21T16:12:23Z</time>
      </trkpt>
      <trkpt lat="45.21119" lon="5.89782">
        <ele>808.8</ele>
        <time>2021-03-21T16:12:25Z</time>
      </trkpt>
      <trkpt lat="45.2111" lon="5.89785">
        <ele>808.9</ele>
        <time>2021-03-21T16:12:27Z</time>
      </trkpt>
      <trkpt lat="45.21098" lon="5.89787">
        <ele>808.7</ele>
        <time>2021-03-21T16:12:30Z</time>
      </trkpt>
      <trkpt lat="45.2109" lon="5.89784">
        <ele>807.7</ele>
        <time>2021-03-21T16:12:32Z</time>
      </trkpt>
      <trkpt lat="45.21078" lon="5.89777">
        <ele>806.9</ele>
        <time>2021-03-21T16:12:35Z</time>
      </trkpt>
      <trkpt lat="45.21063" lon="5.89766">
        <ele>807</ele>
        <time>2021-03-21T16:12:38Z</time>
      </trkpt>
      <trkpt lat="45.21051" lon="5.89765">
        <ele>803.8</ele>
        <time>2021-03-21T16:12:40Z</time>
      </trkpt>
      <trkpt lat="45.2103" lon="5.89774">
        <ele>800.2</ele>
        <time>2021-03-21T16:12:43Z</time>
      </trkpt>
      <trkpt lat="45.21009" lon="5.89782">
        <ele>800</ele>
        <time>2021-03-21T16:12:46Z</time>
      </trkpt>
      <trkpt lat="45.20997" lon="5.89783">
        <ele>801.7</ele>
        <time>2021-03-21T16:12:48Z</time>
      </trkpt>
      <trkpt lat="45.20978" lon="5.89774">
        <ele>799.2</ele>
        <time>2021-03-21T16:12:51Z</time>
      </trkpt>
      <trkpt lat="45.20969" lon="5.89764">
        <ele>799.6</ele>
        <time>2021-03-21T16:12:53Z</time>
      </trkpt>
      <trkpt lat="45.20964" lon="5.89742">
        <ele>801.2</ele>
        <time>2021-03-21T16:12:56Z</time>
      </trkpt>
      <trkpt lat="45.20966" lon="5.89727">
        <ele>800.6</ele>
        <time>2021-03-21T16:12:58Z</time>
      </trkpt>
      <trkpt lat="45.20975" lon="5.89709">
        <ele>802.2</ele>
        <time>2021-03-21T16:13:01Z</time>
      </trkpt>
      <trkpt lat="45.20987" lon="5.89696">
        <ele>803.9</ele>
        <time>2021-03-21T16:13:04Z</time>
      </trkpt>
      <trkpt lat="45.20993" lon="5.89687">
        <ele>803.4</ele>
        <time>2021-03-21T16:13:06Z</time>
      </trkpt>
      <trkpt lat="45.21003" lon="5.89674">
        <ele>805.1</ele>
        <time>2021-03-21T16:13:09Z</time>
      </trkpt>
      <trkpt lat="45.21012" lon="5.89661">
        <ele>805.5</ele>
        <time>2021-03-21T16:13:12Z</time>
      </trkpt>
      <trkpt lat="45.21019" lon="5.89645">
        <ele>805.5</ele>
        <time>2021-03-21T16:13:15Z</time>
      </trkpt>
      <trkpt lat="45.21022" lon="5.89632">
        <ele>805.7</ele>
        <time>2021-03-21T16:13:17Z</time>
      </trkpt>
      <trkpt lat="45.21024" lon="5.89611">
        <ele>805.8</ele>
        <time>2021-03-21T16:13:20Z</time>
      </trkpt>
      <trkpt lat="45.21025" lon="5.89598">
        <ele>804.7</ele>
        <time>2021-03-21T16:13:22Z</time>
      </trkpt>
      <trkpt lat="45.21025" lon="5.89581">
        <ele>806</ele>
        <time>2021-03-21T16:13:24Z</time>
      </trkpt>
      <trkpt lat="45.21025" lon="5.8956">
        <ele>807.6</ele>
        <time>2021-03-21T16:13:27Z</time>
      </trkpt>
      <trkpt lat="45.21025" lon="5.89546">
        <ele>807.2</ele>
        <time>2021-03-21T16:13:29Z</time>
      </trkpt>
      <trkpt lat="45.21026" lon="5.8952">
        <ele>807.3</ele>
        <time>2021-03-21T16:13:32Z</time>
      </trkpt>
      <trkpt lat="45.21026" lon="5.89502">
        <ele>807.8</ele>
        <time>2021-03-21T16:13:34Z</time>
      </trkpt>
      <trkpt lat="45.21026" lon="5.89488">
        <ele>808.2</ele>
        <time>2021-03-21T16:13:36Z</time>
      </trkpt>
      <trkpt lat="45.21033" lon="5.89468">
        <ele>805.6</ele>
        <time>2021-03-21T16:13:39Z</time>
      </trkpt>
      <trkpt lat="45.21043" lon="5.89447">
        <ele>805.1</ele>
        <time>2021-03-21T16:13:42Z</time>
      </trkpt>
      <trkpt lat="45.21054" lon="5.89431">
        <ele>807.7</ele>
        <time>2021-03-21T16:13:45Z</time>
      </trkpt>
      <trkpt lat="45.21061" lon="5.89419">
        <ele>808.5</ele>
        <time>2021-03-21T16:13:47Z</time>
      </trkpt>
      <trkpt lat="45.21071" lon="5.89401">
        <ele>810.3</ele>
        <time>2021-03-21T16:13:50Z</time>
      </trkpt>
      <trkpt lat="45.21079" lon="5.89391">
        <ele>812.2</ele>
        <time>2021-03-21T16:13:52Z</time>
      </trkpt>
      <trkpt lat="45.21089" lon="5.89374">
        <ele>814.3</ele>
        <time>2021-03-21T16:13:55Z</time>
      </trkpt>
      <trkpt lat="45.21096" lon="5.89362">
        <ele>814.5</ele>
        <time>2021-03-21T16:13:57Z</time>
      </trkpt>
      <trkpt lat="45.21105" lon="5.89346">
        <ele>814</ele>
        <time>2021-03-21T16:14:00Z</time>
      </trkpt>
      <trkpt lat="45.21115" lon="5.89331">
        <ele>814</ele>
        <time>2021-03-21T16:14:03Z</time>
      </trkpt>
      <trkpt lat="45.21123" lon="5.8932">
        <ele>813.5</ele>
        <time>2021-03-21T16:14:05Z</time>
      </trkpt>
      <trkpt lat="45.21135" lon="5.8931">
        <ele>814.5</ele>
        <time>2021-03-21T16:14:08Z</time>
      </trkpt>
      <trkpt lat="45.21144" lon="5.89305">
        <ele>815.4</ele>
        <time>2021-03-21T16:14:10Z</time>
      </trkpt>
      <trkpt lat="45.21153" lon="5.89303">
        <ele>814.3</ele>
        <time>2021-03-21T16:14:12Z</time>
      </trkpt>
      <trkpt lat="45.21165" lon="5.893">
        <ele>812.6</ele>
        <time>2021-03-21T16:14:15Z</time>
      </trkpt>
      <trkpt lat="45.21174" lon="5.89294">
        <ele>812.1</ele>
        <time>2021-03-21T16:14:17Z</time>
      </trkpt>
      <trkpt lat="45.21185" lon="5.89277">
        <ele>811.3</ele>
        <time>2021-03-21T16:14:20Z</time>
      </trkpt>
      <trkpt lat="45.21193" lon="5.89256">
        <ele>813.5</ele>
        <time>2021-03-21T16:14:23Z</time>
      </trkpt>
      <trkpt lat="45.212" lon="5.89235">
        <ele>813.3</ele>
        <time>2021-03-21T16:14:26Z</time>
      </trkpt>
      <trkpt lat="45.21205" lon="5.89221">
        <ele>813.7</ele>
        <time>2021-03-21T16:14:28Z</time>
      </trkpt>
      <trkpt lat="45.21211" lon="5.89202">
        <ele>811.6</ele>
        <time>2021-03-21T16:14:31Z</time>
      </trkpt>
      <trkpt lat="45.21215" lon="5.89192">
        <ele>810.4</ele>
        <time>2021-03-21T16:14:33Z</time>
      </trkpt>
      <trkpt lat="45.21228" lon="5.89182">
        <ele>808.3</ele>
        <time>2021-03-21T16:14:36Z</time>
      </trkpt>
      <trkpt lat="45.21235" lon="5.89179">
        <ele>810</ele>
        <time>2021-03-21T16:14:38Z</time>
      </trkpt>
      <trkpt lat="45.21247" lon="5.89174">
        <ele>811</ele>
        <time>2021-03-21T16:14:41Z</time>
      </trkpt>
      <trkpt lat="45.21261" lon="5.89166">
        <ele>810.4</ele>
        <time>2021-03-21T16:14:44Z</time>
      </trkpt>
      <trkpt lat="45.21269" lon="5.89158">
        <ele>810.9</ele>
        <time>2021-03-21T16:14:46Z</time>
      </trkpt>
      <trkpt lat="45.21282" lon="5.8915">
        <ele>813.9</ele>
        <time>2021-03-21T16:14:49Z</time>
      </trkpt>
      <trkpt lat="45.21296" lon="5.89142">
        <ele>811.4</ele>
        <time>2021-03-21T16:14:52Z</time>
      </trkpt>
      <trkpt lat="45.21308" lon="5.89135">
        <ele>814</ele>
        <time>2021-03-21T16:14:55Z</time>
      </trkpt>
      <trkpt lat="45.2132" lon="5.89129">
        <ele>816</ele>
        <time>2021-03-21T16:14:58Z</time>
      </trkpt>
      <trkpt lat="45.21333" lon="5.89123">
        <ele>817.1</ele>
        <time>2021-03-21T16:15:01Z</time>
      </trkpt>
      <trkpt lat="45.21348" lon="5.89114">
        <ele>817.4</ele>
        <time>2021-03-21T16:15:04Z</time>
      </trkpt>
      <trkpt lat="45.21364" lon="5.89104">
        <ele>814.8</ele>
        <time>2021-03-21T16:15:07Z</time>
      </trkpt>
      <trkpt lat="45.21372" lon="5.89098">
        <ele>814.3</ele>
        <time>2021-03-21T16:15:09Z</time>
      </trkpt>
      <trkpt lat="45.21386" lon="5.89086">
        <ele>814.9</ele>
        <time>2021-03-21T16:15:12Z</time>
      </trkpt>
      <trkpt lat="45.21399" lon="5.89078">
        <ele>816</ele>
        <time>2021-03-21T16:15:15Z</time>
      </trkpt>
      <trkpt lat="45.2141" lon="5.89071">
        <ele>814.3</ele>
        <time>2021-03-21T16:15:18Z</time>
      </trkpt>
      <trkpt lat="45.21416" lon="5.89068">
        <ele>816.6</ele>
        <time>2021-03-21T16:15:20Z</time>
      </trkpt>
      <trkpt lat="45.21423" lon="5.89064">
        <ele>816.1</ele>
        <time>2021-03-21T16:15:22Z</time>
      </trkpt>
      <trkpt lat="45.21436" lon="5.8906">
        <ele>816.6</ele>
        <time>2021-03-21T16:15:25Z</time>
      </trkpt>
      <trkpt lat="45.21449" lon="5.89054">
        <ele>815.5</ele>
        <time>2021-03-21T16:15:27Z</time>
      </trkpt>
      <trkpt lat="45.21467" lon="5.89046">
        <ele>818.2</ele>
        <time>2021-03-21T16:15:30Z</time>
      </trkpt>
      <trkpt lat="45.21486" lon="5.89037">
        <ele>817.7</ele>
        <time>2021-03-21T16:15:33Z</time>
      </trkpt>
      <trkpt lat="45.21506" lon="5.89031">
        <ele>826.4</ele>
        <time>2021-03-21T16:15:36Z</time>
      </trkpt>
      <trkpt lat="45.21523" lon="5.89025">
        <ele>825.7</ele>
        <time>2021-03-21T16:15:39Z</time>
      </trkpt>
      <trkpt lat="45.21538" lon="5.89019">
        <ele>826.3</ele>
        <time>2021-03-21T16:15:42Z</time>
      </trkpt>
      <trkpt lat="45.21549" lon="5.89015">
        <ele>825.9</ele>
        <time>2021-03-21T16:15:44Z</time>
      </trkpt>
      <trkpt lat="45.21564" lon="5.89008">
        <ele>821.2</ele>
        <time>2021-03-21T16:15:47Z</time>
      </trkpt>
      <trkpt lat="45.21574" lon="5.89001">
        <ele>825</ele>
        <time>2021-03-21T16:15:49Z</time>
      </trkpt>
      <trkpt lat="45.21584" lon="5.88994">
        <ele>825.3</ele>
        <time>2021-03-21T16:15:51Z</time>
      </trkpt>
      <trkpt lat="45.21598" lon="5.88985">
        <ele>831.4</ele>
        <time>2021-03-21T16:15:54Z</time>
      </trkpt>
      <trkpt lat="45.21612" lon="5.88975">
        <ele>832.4</ele>
        <time>2021-03-21T16:15:57Z</time>
      </trkpt>
      <trkpt lat="45.21622" lon="5.88968">
        <ele>834.1</ele>
        <time>2021-03-21T16:15:59Z</time>
      </trkpt>
      <trkpt lat="45.21633" lon="5.88961">
        <ele>835.8</ele>
        <time>2021-03-21T16:16:01Z</time>
      </trkpt>
      <trkpt lat="45.21649" lon="5.88952">
        <ele>837.2</ele>
        <time>2021-03-21T16:16:04Z</time>
      </trkpt>
      <trkpt lat="45.21659" lon="5.88946">
        <ele>841</ele>
        <time>2021-03-21T16:16:06Z</time>
      </trkpt>
      <trkpt lat="45.21669" lon="5.8894">
        <ele>842.1</ele>
        <time>2021-03-21T16:16:08Z</time>
      </trkpt>
      <trkpt lat="45.21683" lon="5.8893">
        <ele>845.8</ele>
        <time>2021-03-21T16:16:11Z</time>
      </trkpt>
      <trkpt lat="45.21696" lon="5.88919">
        <ele>845.8</ele>
        <time>2021-03-21T16:16:14Z</time>
      </trkpt>
      <trkpt lat="45.21707" lon="5.88904">
        <ele>848.3</ele>
        <time>2021-03-21T16:16:17Z</time>
      </trkpt>
      <trkpt lat="45.21708" lon="5.88886">
        <ele>848.9</ele>
        <time>2021-03-21T16:16:20Z</time>
      </trkpt>
      <trkpt lat="45.21704" lon="5.88873">
        <ele>850.2</ele>
        <time>2021-03-21T16:16:23Z</time>
      </trkpt>
      <trkpt lat="45.21699" lon="5.88864">
        <ele>850.9</ele>
        <time>2021-03-21T16:16:26Z</time>
      </trkpt>
      <trkpt lat="45.21695" lon="5.88858">
        <ele>849.7</ele>
        <time>2021-03-21T16:16:29Z</time>
      </trkpt>
      <trkpt lat="45.21692" lon="5.88853">
        <ele>851.1</ele>
        <time>2021-03-21T16:16:32Z</time>
      </trkpt>
      <trkpt lat="45.21691" lon="5.88852">
        <ele>852.2</ele>
        <time>2021-03-21T16:16:35Z</time>
      </trkpt>
      <trkpt lat="45.21689" lon="5.88852">
        <ele>849.6</ele>
        <time>2021-03-21T16:16:37Z</time>
      </trkpt>
      <trkpt lat="45.21689" lon="5.88852">
        <ele>849.4</ele>
        <time>2021-03-21T16:16:39Z</time>
      </trkpt>
      <trkpt lat="45.21687" lon="5.88852">
        <ele>847.7</ele>
        <time>2021-03-21T16:16:42Z</time>
      </trkpt>
      <trkpt lat="45.21686" lon="5.88853">
        <ele>847.9</ele>
        <time>2021-03-21T16:16:45Z</time>
      </trkpt>
      <trkpt lat="45.21683" lon="5.88853">
        <ele>844.6</ele>
        <time>2021-03-21T16:16:48Z</time>
      </trkpt>
      <trkpt lat="45.21683" lon="5.88854">
        <ele>843</ele>
        <time>2021-03-21T16:16:51Z</time>
      </trkpt>
      <trkpt lat="45.21683" lon="5.88854">
        <ele>844.6</ele>
        <time>2021-03-21T16:16:53Z</time>
      </trkpt>
      <trkpt lat="45.21683" lon="5.88853">
        <ele>843.2</ele>
        <time>2021-03-21T16:16:56Z</time>
      </trkpt>
      <trkpt lat="45.21683" lon="5.88852">
        <ele>842.8</ele>
        <time>2021-03-21T16:16:59Z</time>
      </trkpt>
      <trkpt lat="45.21683" lon="5.88852">
        <ele>844.5</ele>
        <time>2021-03-21T16:17:02Z</time>
      </trkpt>
      <trkpt lat="45.21683" lon="5.88852">
        <ele>843.8</ele>
        <time>2021-03-21T16:17:04Z</time>
      </trkpt>
      <trkpt lat="45.21683" lon="5.88852">
        <ele>842.7</ele>
        <time>2021-03-21T16:17:06Z</time>
      </trkpt>
      <trkpt lat="45.21683" lon="5.88852">
        <ele>842.9</ele>
        <time>2021-03-21T16:17:09Z</time>
      </trkpt>
      <trkpt lat="45.21683" lon="5.88852">
        <ele>843.4</ele>
        <time>2021-03-21T16:17:11Z</time>
      </trkpt>
      <trkpt lat="45.21683" lon="5.88852">
        <ele>842.6</ele>
        <time>2021-03-21T16:17:13Z</time>
      </trkpt>
      <trkpt lat="45.21683" lon="5.88852">
        <ele>843.8</ele>
        <time>2021-03-21T16:17:16Z</time>
      </trkpt>
      <trkpt lat="45.21683" lon="5.88852">
        <ele>843.6</ele>
        <time>2021-03-21T16:17:18Z</time>
      </trkpt>
      <trkpt lat="45.21683" lon="5.88852">
        <ele>843.5</ele>
        <time>2021-03-21T16:17:21Z</time>
      </trkpt>
      <trkpt lat="45.21683" lon="5.88852">
        <ele>843.6</ele>
        <time>2021-03-21T16:17:23Z</time>
      </trkpt>
      <trkpt lat="45.21683" lon="5.88852">
        <ele>843.8</ele>
        <time>2021-03-21T16:17:25Z</time>
      </trkpt>
      <trkpt lat="45.21683" lon="5.88852">
        <ele>843.6</ele>
        <time>2021-03-21T16:17:28Z</time>
      </trkpt>
      <trkpt lat="45.21683" lon="5.88852">
        <ele>843.3</ele>
        <time>2021-03-21T16:17:30Z</time>
      </trkpt>
      <trkpt lat="45.21671" lon="5.88845">
        <ele>841.6</ele>
        <time>2021-03-21T16:17:33Z</time>
      </trkpt>
      <trkpt lat="45.21653" lon="5.88836">
        <ele>838.9</ele>
        <time>2021-03-21T16:17:36Z</time>
      </trkpt>
      <trkpt lat="45.2163" lon="5.88825">
        <ele>837.5</ele>
        <time>2021-03-21T16:17:39Z</time>
      </trkpt>
      <trkpt lat="45.21613" lon="5.88815">
        <ele>835.9</ele>
        <time>2021-03-21T16:17:41Z</time>
      </trkpt>
      <trkpt lat="45.21588" lon="5.88792">
        <ele>836.8</ele>
        <time>2021-03-21T16:17:44Z</time>
      </trkpt>
      <trkpt lat="45.21563" lon="5.8876">
        <ele>834.8</ele>
        <time>2021-03-21T16:17:47Z</time>
      </trkpt>
      <trkpt lat="45.21543" lon="5.8874">
        <ele>831.2</ele>
        <time>2021-03-21T16:17:49Z</time>
      </trkpt>
      <trkpt lat="45.21522" lon="5.88722">
        <ele>830.2</ele>
        <time>2021-03-21T16:17:51Z</time>
      </trkpt>
      <trkpt lat="45.21498" lon="5.88676">
        <ele>829.7</ele>
        <time>2021-03-21T16:17:54Z</time>
      </trkpt>
      <trkpt lat="45.21487" lon="5.88646">
        <ele>830.8</ele>
        <time>2021-03-21T16:17:56Z</time>
      </trkpt>
      <trkpt lat="45.21478" lon="5.88614">
        <ele>827.3</ele>
        <time>2021-03-21T16:17:58Z</time>
      </trkpt>
      <trkpt lat="45.21459" lon="5.88573">
        <ele>822.8</ele>
        <time>2021-03-21T16:18:01Z</time>
      </trkpt>
      <trkpt lat="45.21437" lon="5.88526">
        <ele>822.7</ele>
        <time>2021-03-21T16:18:04Z</time>
      </trkpt>
      <trkpt lat="45.21424" lon="5.88489">
        <ele>822.6</ele>
        <time>2021-03-21T16:18:06Z</time>
      </trkpt>
      <trkpt lat="45.21416" lon="5.88437">
        <ele>818</ele>
        <time>2021-03-21T16:18:09Z</time>
      </trkpt>
      <trkpt lat="45.21418" lon="5.88391">
        <ele>816</ele>
        <time>2021-03-21T16:18:12Z</time>
      </trkpt>
      <trkpt lat="45.21421" lon="5.8835">
        <ele>812.8</ele>
        <time>2021-03-21T16:18:15Z</time>
      </trkpt>
      <trkpt lat="45.21411" lon="5.88315">
        <ele>814.2</ele>
        <time>2021-03-21T16:18:18Z</time>
      </trkpt>
      <trkpt lat="45.21395" lon="5.88301">
        <ele>815.3</ele>
        <time>2021-03-21T16:18:20Z</time>
      </trkpt>
      <trkpt lat="45.21372" lon="5.88302">
        <ele>811.3</ele>
        <time>2021-03-21T16:18:23Z</time>
      </trkpt>
      <trkpt lat="45.21345" lon="5.88323">
        <ele>809.4</ele>
        <time>2021-03-21T16:18:26Z</time>
      </trkpt>
      <trkpt lat="45.21323" lon="5.88337">
        <ele>806.4</ele>
        <time>2021-03-21T16:18:28Z</time>
      </trkpt>
      <trkpt lat="45.21292" lon="5.88354">
        <ele>805.8</ele>
        <time>2021-03-21T16:18:31Z</time>
      </trkpt>
      <trkpt lat="45.21272" lon="5.88359">
        <ele>807.5</ele>
        <time>2021-03-21T16:18:33Z</time>
      </trkpt>
      <trkpt lat="45.21245" lon="5.88359">
        <ele>809.1</ele>
        <time>2021-03-21T16:18:36Z</time>
      </trkpt>
      <trkpt lat="45.2123" lon="5.88357">
        <ele>808.5</ele>
        <time>2021-03-21T16:18:38Z</time>
      </trkpt>
      <trkpt lat="45.21217" lon="5.88355">
        <ele>810.4</ele>
        <time>2021-03-21T16:18:40Z</time>
      </trkpt>
      <trkpt lat="45.21197" lon="5.88352">
        <ele>809</ele>
        <time>2021-03-21T16:18:43Z</time>
      </trkpt>
      <trkpt lat="45.21173" lon="5.88349">
        <ele>810.1</ele>
        <time>2021-03-21T16:18:46Z</time>
      </trkpt>
      <trkpt lat="45.21151" lon="5.88341">
        <ele>809.7</ele>
        <time>2021-03-21T16:18:49Z</time>
      </trkpt>
      <trkpt lat="45.21136" lon="5.88337">
        <ele>809.1</ele>
        <time>2021-03-21T16:18:51Z</time>
      </trkpt>
      <trkpt lat="45.21121" lon="5.88334">
        <ele>808.8</ele>
        <time>2021-03-21T16:18:53Z</time>
      </trkpt>
      <trkpt lat="45.21093" lon="5.88325">
        <ele>808.5</ele>
        <time>2021-03-21T16:18:57Z</time>
      </trkpt>
      <trkpt lat="45.21073" lon="5.8831">
        <ele>808.3</ele>
        <time>2021-03-21T16:19:00Z</time>
      </trkpt>
      <trkpt lat="45.21056" lon="5.88295">
        <ele>805.8</ele>
        <time>2021-03-21T16:19:03Z</time>
      </trkpt>
      <trkpt lat="45.21036" lon="5.88287">
        <ele>807.7</ele>
        <time>2021-03-21T16:19:06Z</time>
      </trkpt>
      <trkpt lat="45.21022" lon="5.88286">
        <ele>807.3</ele>
        <time>2021-03-21T16:19:08Z</time>
      </trkpt>
      <trkpt lat="45.21" lon="5.88283">
        <ele>806.2</ele>
        <time>2021-03-21T16:19:13Z</time>
      </trkpt>
      <trkpt lat="45.20979" lon="5.8828">
        <ele>807.6</ele>
        <time>2021-03-21T16:19:15Z</time>
      </trkpt>
      <trkpt lat="45.20956" lon="5.88274">
        <ele>806.6</ele>
        <time>2021-03-21T16:19:18Z</time>
      </trkpt>
      <trkpt lat="45.20934" lon="5.88269">
        <ele>805.1</ele>
        <time>2021-03-21T16:19:21Z</time>
      </trkpt>
      <trkpt lat="45.20912" lon="5.88262">
        <ele>806.7</ele>
        <time>2021-03-21T16:19:24Z</time>
      </trkpt>
      <trkpt lat="45.20898" lon="5.8826">
        <ele>809.2</ele>
        <time>2021-03-21T16:19:26Z</time>
      </trkpt>
      <trkpt lat="45.20879" lon="5.88261">
        <ele>805.8</ele>
        <time>2021-03-21T16:19:29Z</time>
      </trkpt>
      <trkpt lat="45.20861" lon="5.88269">
        <ele>806.6</ele>
        <time>2021-03-21T16:19:32Z</time>
      </trkpt>
      <trkpt lat="45.20847" lon="5.88289">
        <ele>804.7</ele>
        <time>2021-03-21T16:19:35Z</time>
      </trkpt>
      <trkpt lat="45.20835" lon="5.88303">
        <ele>801.1</ele>
        <time>2021-03-21T16:19:37Z</time>
      </trkpt>
      <trkpt lat="45.20818" lon="5.88315">
        <ele>798.5</ele>
        <time>2021-03-21T16:19:39Z</time>
      </trkpt>
      <trkpt lat="45.20793" lon="5.88327">
        <ele>799.2</ele>
        <time>2021-03-21T16:19:42Z</time>
      </trkpt>
      <trkpt lat="45.20764" lon="5.88339">
        <ele>795.7</ele>
        <time>2021-03-21T16:19:45Z</time>
      </trkpt>
      <trkpt lat="45.20733" lon="5.88343">
        <ele>794.1</ele>
        <time>2021-03-21T16:19:48Z</time>
      </trkpt>
      <trkpt lat="45.20702" lon="5.88349">
        <ele>788.2</ele>
        <time>2021-03-21T16:19:51Z</time>
      </trkpt>
      <trkpt lat="45.20684" lon="5.88341">
        <ele>788.4</ele>
        <time>2021-03-21T16:19:53Z</time>
      </trkpt>
      <trkpt lat="45.20669" lon="5.88326">
        <ele>786.1</ele>
        <time>2021-03-21T16:19:55Z</time>
      </trkpt>
      <trkpt lat="45.20648" lon="5.88289">
        <ele>784.1</ele>
        <time>2021-03-21T16:19:58Z</time>
      </trkpt>
      <trkpt lat="45.20637" lon="5.88247">
        <ele>781.5</ele>
        <time>2021-03-21T16:20:01Z</time>
      </trkpt>
      <trkpt lat="45.20612" lon="5.88225">
        <ele>776.8</ele>
        <time>2021-03-21T16:20:04Z</time>
      </trkpt>
      <trkpt lat="45.20594" lon="5.88211">
        <ele>776.6</ele>
        <time>2021-03-21T16:20:06Z</time>
      </trkpt>
      <trkpt lat="45.20583" lon="5.88178">
        <ele>775.7</ele>
        <time>2021-03-21T16:20:09Z</time>
      </trkpt>
      <trkpt lat="45.20573" lon="5.88152">
        <ele>773.6</ele>
        <time>2021-03-21T16:20:12Z</time>
      </trkpt>
      <trkpt lat="45.20563" lon="5.88138">
        <ele>771.1</ele>
        <time>2021-03-21T16:20:14Z</time>
      </trkpt>
      <trkpt lat="45.20548" lon="5.88126">
        <ele>771.9</ele>
        <time>2021-03-21T16:20:17Z</time>
      </trkpt>
      <trkpt lat="45.20537" lon="5.88124">
        <ele>771.9</ele>
        <time>2021-03-21T16:20:19Z</time>
      </trkpt>
      <trkpt lat="45.20526" lon="5.88128">
        <ele>773.4</ele>
        <time>2021-03-21T16:20:21Z</time>
      </trkpt>
      <trkpt lat="45.20512" lon="5.88136">
        <ele>772.4</ele>
        <time>2021-03-21T16:20:24Z</time>
      </trkpt>
      <trkpt lat="45.20497" lon="5.88142">
        <ele>776.3</ele>
        <time>2021-03-21T16:20:27Z</time>
      </trkpt>
      <trkpt lat="45.20481" lon="5.88144">
        <ele>773.4</ele>
        <time>2021-03-21T16:20:30Z</time>
      </trkpt>
      <trkpt lat="45.20466" lon="5.88144">
        <ele>776.2</ele>
        <time>2021-03-21T16:20:33Z</time>
      </trkpt>
      <trkpt lat="45.20453" lon="5.88142">
        <ele>775.7</ele>
        <time>2021-03-21T16:20:36Z</time>
      </trkpt>
      <trkpt lat="45.2044" lon="5.88137">
        <ele>775.1</ele>
        <time>2021-03-21T16:20:39Z</time>
      </trkpt>
      <trkpt lat="45.20431" lon="5.88135">
        <ele>772.6</ele>
        <time>2021-03-21T16:20:41Z</time>
      </trkpt>
      <trkpt lat="45.20416" lon="5.88133">
        <ele>772.3</ele>
        <time>2021-03-21T16:20:44Z</time>
      </trkpt>
      <trkpt lat="45.204" lon="5.88132">
        <ele>772.5</ele>
        <time>2021-03-21T16:20:47Z</time>
      </trkpt>
      <trkpt lat="45.20389" lon="5.88134">
        <ele>771.3</ele>
        <time>2021-03-21T16:20:49Z</time>
      </trkpt>
      <trkpt lat="45.20372" lon="5.88137">
        <ele>770.6</ele>
        <time>2021-03-21T16:20:52Z</time>
      </trkpt>
      <trkpt lat="45.20357" lon="5.88143">
        <ele>770.3</ele>
        <time>2021-03-21T16:20:55Z</time>
      </trkpt>
      <trkpt lat="45.20344" lon="5.88153">
        <ele>769.6</ele>
        <time>2021-03-21T16:20:58Z</time>
      </trkpt>
      <trkpt lat="45.20331" lon="5.88168">
        <ele>771.1</ele>
        <time>2021-03-21T16:21:01Z</time>
      </trkpt>
      <trkpt lat="45.20319" lon="5.88184">
        <ele>772.9</ele>
        <time>2021-03-21T16:21:04Z</time>
      </trkpt>
      <trkpt lat="45.20306" lon="5.88197">
        <ele>769.9</ele>
        <time>2021-03-21T16:21:07Z</time>
      </trkpt>
      <trkpt lat="45.20298" lon="5.88203">
        <ele>771.4</ele>
        <time>2021-03-21T16:21:09Z</time>
      </trkpt>
      <trkpt lat="45.20288" lon="5.8821">
        <ele>772.1</ele>
        <time>2021-03-21T16:21:12Z</time>
      </trkpt>
      <trkpt lat="45.20281" lon="5.88214">
        <ele>772.7</ele>
        <time>2021-03-21T16:21:14Z</time>
      </trkpt>
      <trkpt lat="45.20272" lon="5.88217">
        <ele>777.2</ele>
        <time>2021-03-21T16:21:16Z</time>
      </trkpt>
      <trkpt lat="45.2026" lon="5.88218">
        <ele>779.4</ele>
        <time>2021-03-21T16:21:19Z</time>
      </trkpt>
      <trkpt lat="45.20247" lon="5.88218">
        <ele>780.2</ele>
        <time>2021-03-21T16:21:22Z</time>
      </trkpt>
      <trkpt lat="45.20234" lon="5.88218">
        <ele>781.3</ele>
        <time>2021-03-21T16:21:25Z</time>
      </trkpt>
      <trkpt lat="45.20223" lon="5.88214">
        <ele>782.2</ele>
        <time>2021-03-21T16:21:28Z</time>
      </trkpt>
      <trkpt lat="45.20215" lon="5.8821">
        <ele>780.6</ele>
        <time>2021-03-21T16:21:30Z</time>
      </trkpt>
      <trkpt lat="45.20204" lon="5.88204">
        <ele>781</ele>
        <time>2021-03-21T16:21:33Z</time>
      </trkpt>
      <trkpt lat="45.20194" lon="5.88196">
        <ele>783.4</ele>
        <time>2021-03-21T16:21:36Z</time>
      </trkpt>
      <trkpt lat="45.20185" lon="5.88187">
        <ele>781.9</ele>
        <time>2021-03-21T16:21:39Z</time>
      </trkpt>
      <trkpt lat="45.20176" lon="5.88175">
        <ele>783.3</ele>
        <time>2021-03-21T16:21:42Z</time>
      </trkpt>
      <trkpt lat="45.20171" lon="5.88168">
        <ele>784.8</ele>
        <time>2021-03-21T16:21:44Z</time>
      </trkpt>
      <trkpt lat="45.20166" lon="5.88159">
        <ele>782.3</ele>
        <time>2021-03-21T16:21:46Z</time>
      </trkpt>
      <trkpt lat="45.20159" lon="5.88145">
        <ele>784.2</ele>
        <time>2021-03-21T16:21:49Z</time>
      </trkpt>
      <trkpt lat="45.20155" lon="5.88129">
        <ele>786.1</ele>
        <time>2021-03-21T16:21:52Z</time>
      </trkpt>
      <trkpt lat="45.20152" lon="5.88111">
        <ele>786.2</ele>
        <time>2021-03-21T16:21:55Z</time>
      </trkpt>
      <trkpt lat="45.20153" lon="5.88094">
        <ele>789.7</ele>
        <time>2021-03-21T16:21:58Z</time>
      </trkpt>
      <trkpt lat="45.20155" lon="5.88074">
        <ele>786.7</ele>
        <time>2021-03-21T16:22:03Z</time>
      </trkpt>
      <trkpt lat="45.2016" lon="5.88058">
        <ele>785.9</ele>
        <time>2021-03-21T16:22:06Z</time>
      </trkpt>
      <trkpt lat="45.20159" lon="5.8805">
        <ele>785</ele>
        <time>2021-03-21T16:22:08Z</time>
      </trkpt>
      <trkpt lat="45.20156" lon="5.88036">
        <ele>784.7</ele>
        <time>2021-03-21T16:22:11Z</time>
      </trkpt>
      <trkpt lat="45.20154" lon="5.88027">
        <ele>786.7</ele>
        <time>2021-03-21T16:22:13Z</time>
      </trkpt>
      <trkpt lat="45.20152" lon="5.88012">
        <ele>791</ele>
        <time>2021-03-21T16:22:16Z</time>
      </trkpt>
      <trkpt lat="45.20151" lon="5.88001">
        <ele>788.8</ele>
        <time>2021-03-21T16:22:18Z</time>
      </trkpt>
      <trkpt lat="45.20148" lon="5.87986">
        <ele>790.2</ele>
        <time>2021-03-21T16:22:21Z</time>
      </trkpt>
      <trkpt lat="45.20144" lon="5.87974">
        <ele>790.9</ele>
        <time>2021-03-21T16:22:23Z</time>
      </trkpt>
      <trkpt lat="45.20139" lon="5.87958">
        <ele>788.3</ele>
        <time>2021-03-21T16:22:26Z</time>
      </trkpt>
      <trkpt lat="45.20133" lon="5.87941">
        <ele>791.7</ele>
        <time>2021-03-21T16:22:29Z</time>
      </trkpt>
      <trkpt lat="45.20129" lon="5.87923">
        <ele>788</ele>
        <time>2021-03-21T16:22:32Z</time>
      </trkpt>
      <trkpt lat="45.20127" lon="5.87911">
        <ele>791.8</ele>
        <time>2021-03-21T16:22:34Z</time>
      </trkpt>
      <trkpt lat="45.20124" lon="5.87895">
        <ele>792.4</ele>
        <time>2021-03-21T16:22:37Z</time>
      </trkpt>
      <trkpt lat="45.20122" lon="5.87876">
        <ele>793.8</ele>
        <time>2021-03-21T16:22:40Z</time>
      </trkpt>
      <trkpt lat="45.20121" lon="5.87859">
        <ele>798.6</ele>
        <time>2021-03-21T16:22:43Z</time>
      </trkpt>
      <trkpt lat="45.20118" lon="5.87821">
        <ele>799.8</ele>
        <time>2021-03-21T16:22:51Z</time>
      </trkpt>
      <trkpt lat="45.20115" lon="5.8781">
        <ele>799</ele>
        <time>2021-03-21T16:22:54Z</time>
      </trkpt>
      <trkpt lat="45.20115" lon="5.87801">
        <ele>802.1</ele>
        <time>2021-03-21T16:22:56Z</time>
      </trkpt>
      <trkpt lat="45.20116" lon="5.87793">
        <ele>803</ele>
        <time>2021-03-21T16:22:58Z</time>
      </trkpt>
      <trkpt lat="45.20118" lon="5.87782">
        <ele>800.2</ele>
        <time>2021-03-21T16:23:01Z</time>
      </trkpt>
      <trkpt lat="45.2012" lon="5.8777">
        <ele>801.2</ele>
        <time>2021-03-21T16:23:04Z</time>
      </trkpt>
      <trkpt lat="45.20121" lon="5.87754">
        <ele>800.2</ele>
        <time>2021-03-21T16:23:07Z</time>
      </trkpt>
      <trkpt lat="45.20123" lon="5.87742">
        <ele>802.3</ele>
        <time>2021-03-21T16:23:09Z</time>
      </trkpt>
      <trkpt lat="45.20125" lon="5.87725">
        <ele>803.7</ele>
        <time>2021-03-21T16:23:12Z</time>
      </trkpt>
      <trkpt lat="45.20126" lon="5.87715">
        <ele>808.6</ele>
        <time>2021-03-21T16:23:14Z</time>
      </trkpt>
      <trkpt lat="45.20127" lon="5.877">
        <ele>809.9</ele>
        <time>2021-03-21T16:23:17Z</time>
      </trkpt>
      <trkpt lat="45.20129" lon="5.87681">
        <ele>809.5</ele>
        <time>2021-03-21T16:23:20Z</time>
      </trkpt>
      <trkpt lat="45.20129" lon="5.87669">
        <ele>810</ele>
        <time>2021-03-21T16:23:22Z</time>
      </trkpt>
      <trkpt lat="45.20127" lon="5.8765">
        <ele>809.9</ele>
        <time>2021-03-21T16:23:25Z</time>
      </trkpt>
      <trkpt lat="45.20124" lon="5.87633">
        <ele>809.4</ele>
        <time>2021-03-21T16:23:28Z</time>
      </trkpt>
      <trkpt lat="45.2012" lon="5.87616">
        <ele>810.9</ele>
        <time>2021-03-21T16:23:31Z</time>
      </trkpt>
      <trkpt lat="45.20116" lon="5.87603">
        <ele>811.1</ele>
        <time>2021-03-21T16:23:33Z</time>
      </trkpt>
      <trkpt lat="45.20111" lon="5.87579">
        <ele>810.3</ele>
        <time>2021-03-21T16:23:36Z</time>
      </trkpt>
      <trkpt lat="45.20109" lon="5.87561">
        <ele>813.1</ele>
        <time>2021-03-21T16:23:38Z</time>
      </trkpt>
      <trkpt lat="45.20108" lon="5.87542">
        <ele>816.7</ele>
        <time>2021-03-21T16:23:40Z</time>
      </trkpt>
      <trkpt lat="45.20107" lon="5.87514">
        <ele>819.7</ele>
        <time>2021-03-21T16:23:43Z</time>
      </trkpt>
      <trkpt lat="45.20109" lon="5.87503">
        <ele>821.4</ele>
        <time>2021-03-21T16:23:45Z</time>
      </trkpt>
      <trkpt lat="45.20112" lon="5.87487">
        <ele>822.4</ele>
        <time>2021-03-21T16:23:48Z</time>
      </trkpt>
      <trkpt lat="45.20114" lon="5.8747">
        <ele>825.5</ele>
        <time>2021-03-21T16:23:51Z</time>
      </trkpt>
      <trkpt lat="45.20119" lon="5.87458">
        <ele>827.8</ele>
        <time>2021-03-21T16:23:54Z</time>
      </trkpt>
      <trkpt lat="45.20128" lon="5.87445">
        <ele>829.6</ele>
        <time>2021-03-21T16:23:57Z</time>
      </trkpt>
      <trkpt lat="45.20136" lon="5.87433">
        <ele>832.9</ele>
        <time>2021-03-21T16:24:00Z</time>
      </trkpt>
      <trkpt lat="45.20142" lon="5.87426">
        <ele>833.2</ele>
        <time>2021-03-21T16:24:02Z</time>
      </trkpt>
      <trkpt lat="45.20149" lon="5.87412">
        <ele>832.8</ele>
        <time>2021-03-21T16:24:05Z</time>
      </trkpt>
      <trkpt lat="45.20152" lon="5.87402">
        <ele>833.8</ele>
        <time>2021-03-21T16:24:07Z</time>
      </trkpt>
      <trkpt lat="45.20154" lon="5.8739">
        <ele>834.1</ele>
        <time>2021-03-21T16:24:09Z</time>
      </trkpt>
      <trkpt lat="45.20154" lon="5.8737">
        <ele>835.4</ele>
        <time>2021-03-21T16:24:12Z</time>
      </trkpt>
      <trkpt lat="45.20151" lon="5.87352">
        <ele>836.4</ele>
        <time>2021-03-21T16:24:15Z</time>
      </trkpt>
      <trkpt lat="45.20148" lon="5.87337">
        <ele>833.6</ele>
        <time>2021-03-21T16:24:18Z</time>
      </trkpt>
      <trkpt lat="45.20144" lon="5.87322">
        <ele>834.2</ele>
        <time>2021-03-21T16:24:21Z</time>
      </trkpt>
      <trkpt lat="45.20141" lon="5.87312">
        <ele>834.1</ele>
        <time>2021-03-21T16:24:23Z</time>
      </trkpt>
      <trkpt lat="45.20138" lon="5.873">
        <ele>836.7</ele>
        <time>2021-03-21T16:24:25Z</time>
      </trkpt>
      <trkpt lat="45.20132" lon="5.87284">
        <ele>838.8</ele>
        <time>2021-03-21T16:24:28Z</time>
      </trkpt>
      <trkpt lat="45.20128" lon="5.87274">
        <ele>837.3</ele>
        <time>2021-03-21T16:24:30Z</time>
      </trkpt>
      <trkpt lat="45.20122" lon="5.87258">
        <ele>836.3</ele>
        <time>2021-03-21T16:24:33Z</time>
      </trkpt>
      <trkpt lat="45.20118" lon="5.87249">
        <ele>837.8</ele>
        <time>2021-03-21T16:24:35Z</time>
      </trkpt>
      <trkpt lat="45.20114" lon="5.87239">
        <ele>835.7</ele>
        <time>2021-03-21T16:24:37Z</time>
      </trkpt>
      <trkpt lat="45.20108" lon="5.87224">
        <ele>835.5</ele>
        <time>2021-03-21T16:24:40Z</time>
      </trkpt>
      <trkpt lat="45.20104" lon="5.87214">
        <ele>837.2</ele>
        <time>2021-03-21T16:24:42Z</time>
      </trkpt>
      <trkpt lat="45.20099" lon="5.87201">
        <ele>839.4</ele>
        <time>2021-03-21T16:24:45Z</time>
      </trkpt>
      <trkpt lat="45.20095" lon="5.87192">
        <ele>839.1</ele>
        <time>2021-03-21T16:24:47Z</time>
      </trkpt>
      <trkpt lat="45.2009" lon="5.87183">
        <ele>837.7</ele>
        <time>2021-03-21T16:24:49Z</time>
      </trkpt>
      <trkpt lat="45.20085" lon="5.87173">
        <ele>835.4</ele>
        <time>2021-03-21T16:24:51Z</time>
      </trkpt>
      <trkpt lat="45.20078" lon="5.87161">
        <ele>839.7</ele>
        <time>2021-03-21T16:24:54Z</time>
      </trkpt>
      <trkpt lat="45.20074" lon="5.87151">
        <ele>840.3</ele>
        <time>2021-03-21T16:24:56Z</time>
      </trkpt>
      <trkpt lat="45.20068" lon="5.8713">
        <ele>838.6</ele>
        <time>2021-03-21T16:24:59Z</time>
      </trkpt>
      <trkpt lat="45.20064" lon="5.87111">
        <ele>838.7</ele>
        <time>2021-03-21T16:25:02Z</time>
      </trkpt>
      <trkpt lat="45.20064" lon="5.87097">
        <ele>842</ele>
        <time>2021-03-21T16:25:04Z</time>
      </trkpt>
      <trkpt lat="45.20064" lon="5.87078">
        <ele>841.4</ele>
        <time>2021-03-21T16:25:07Z</time>
      </trkpt>
      <trkpt lat="45.20065" lon="5.87067">
        <ele>843.7</ele>
        <time>2021-03-21T16:25:09Z</time>
      </trkpt>
      <trkpt lat="45.20067" lon="5.87055">
        <ele>841.6</ele>
        <time>2021-03-21T16:25:11Z</time>
      </trkpt>
      <trkpt lat="45.20069" lon="5.8704">
        <ele>841.3</ele>
        <time>2021-03-21T16:25:14Z</time>
      </trkpt>
      <trkpt lat="45.2007" lon="5.87029">
        <ele>839.7</ele>
        <time>2021-03-21T16:25:16Z</time>
      </trkpt>
      <trkpt lat="45.2007" lon="5.87017">
        <ele>841.9</ele>
        <time>2021-03-21T16:25:19Z</time>
      </trkpt>
      <trkpt lat="45.2007" lon="5.87004">
        <ele>844.9</ele>
        <time>2021-03-21T16:25:21Z</time>
      </trkpt>
      <trkpt lat="45.2007" lon="5.86984">
        <ele>842.8</ele>
        <time>2021-03-21T16:25:24Z</time>
      </trkpt>
      <trkpt lat="45.20072" lon="5.86973">
        <ele>840.1</ele>
        <time>2021-03-21T16:25:26Z</time>
      </trkpt>
      <trkpt lat="45.20076" lon="5.86954">
        <ele>841.8</ele>
        <time>2021-03-21T16:25:29Z</time>
      </trkpt>
      <trkpt lat="45.20081" lon="5.86935">
        <ele>845.6</ele>
        <time>2021-03-21T16:25:32Z</time>
      </trkpt>
      <trkpt lat="45.20086" lon="5.86918">
        <ele>843.3</ele>
        <time>2021-03-21T16:25:35Z</time>
      </trkpt>
      <trkpt lat="45.20087" lon="5.86905">
        <ele>846.9</ele>
        <time>2021-03-21T16:25:37Z</time>
      </trkpt>
      <trkpt lat="45.20085" lon="5.8689">
        <ele>852.2</ele>
        <time>2021-03-21T16:25:39Z</time>
      </trkpt>
      <trkpt lat="45.20078" lon="5.86869">
        <ele>856.6</ele>
        <time>2021-03-21T16:25:42Z</time>
      </trkpt>
      <trkpt lat="45.20069" lon="5.8685">
        <ele>858.8</ele>
        <time>2021-03-21T16:25:45Z</time>
      </trkpt>
      <trkpt lat="45.20059" lon="5.86833">
        <ele>862.5</ele>
        <time>2021-03-21T16:25:48Z</time>
      </trkpt>
      <trkpt lat="45.20049" lon="5.86816">
        <ele>861.9</ele>
        <time>2021-03-21T16:25:51Z</time>
      </trkpt>
      <trkpt lat="45.20041" lon="5.86801">
        <ele>865.6</ele>
        <time>2021-03-21T16:25:54Z</time>
      </trkpt>
      <trkpt lat="45.20035" lon="5.86791">
        <ele>863.2</ele>
        <time>2021-03-21T16:25:56Z</time>
      </trkpt>
      <trkpt lat="45.20027" lon="5.86776">
        <ele>868.2</ele>
        <time>2021-03-21T16:25:59Z</time>
      </trkpt>
      <trkpt lat="45.20021" lon="5.86767">
        <ele>869.1</ele>
        <time>2021-03-21T16:26:01Z</time>
      </trkpt>
      <trkpt lat="45.20012" lon="5.86754">
        <ele>867.1</ele>
        <time>2021-03-21T16:26:04Z</time>
      </trkpt>
      <trkpt lat="45.20002" lon="5.86741">
        <ele>870.6</ele>
        <time>2021-03-21T16:26:07Z</time>
      </trkpt>
      <trkpt lat="45.19994" lon="5.86734">
        <ele>869.9</ele>
        <time>2021-03-21T16:26:09Z</time>
      </trkpt>
      <trkpt lat="45.19981" lon="5.86726">
        <ele>872.6</ele>
        <time>2021-03-21T16:26:12Z</time>
      </trkpt>
      <trkpt lat="45.19972" lon="5.86723">
        <ele>871.1</ele>
        <time>2021-03-21T16:26:14Z</time>
      </trkpt>
      <trkpt lat="45.1996" lon="5.86722">
        <ele>872.2</ele>
        <time>2021-03-21T16:26:17Z</time>
      </trkpt>
      <trkpt lat="45.19947" lon="5.86725">
        <ele>870.2</ele>
        <time>2021-03-21T16:26:20Z</time>
      </trkpt>
      <trkpt lat="45.19938" lon="5.86727">
        <ele>872.8</ele>
        <time>2021-03-21T16:26:22Z</time>
      </trkpt>
      <trkpt lat="45.19928" lon="5.86727">
        <ele>872.8</ele>
        <time>2021-03-21T16:26:25Z</time>
      </trkpt>
      <trkpt lat="45.19921" lon="5.86727">
        <ele>874.9</ele>
        <time>2021-03-21T16:26:27Z</time>
      </trkpt>
      <trkpt lat="45.19909" lon="5.86727">
        <ele>878.7</ele>
        <time>2021-03-21T16:26:30Z</time>
      </trkpt>
      <trkpt lat="45.19901" lon="5.86728">
        <ele>879.1</ele>
        <time>2021-03-21T16:26:32Z</time>
      </trkpt>
      <trkpt lat="45.19888" lon="5.86729">
        <ele>880.5</ele>
        <time>2021-03-21T16:26:35Z</time>
      </trkpt>
      <trkpt lat="45.1988" lon="5.86729">
        <ele>882.3</ele>
        <time>2021-03-21T16:26:37Z</time>
      </trkpt>
      <trkpt lat="45.19868" lon="5.8673">
        <ele>883.7</ele>
        <time>2021-03-21T16:26:40Z</time>
      </trkpt>
      <trkpt lat="45.1986" lon="5.8673">
        <ele>884.7</ele>
        <time>2021-03-21T16:26:42Z</time>
      </trkpt>
      <trkpt lat="45.19852" lon="5.86729">
        <ele>885.2</ele>
        <time>2021-03-21T16:26:44Z</time>
      </trkpt>
      <trkpt lat="45.1984" lon="5.86725">
        <ele>885.4</ele>
        <time>2021-03-21T16:26:47Z</time>
      </trkpt>
      <trkpt lat="45.19829" lon="5.8672">
        <ele>886.7</ele>
        <time>2021-03-21T16:26:50Z</time>
      </trkpt>
      <trkpt lat="45.19821" lon="5.86718">
        <ele>888.6</ele>
        <time>2021-03-21T16:26:52Z</time>
      </trkpt>
      <trkpt lat="45.19809" lon="5.86714">
        <ele>892.9</ele>
        <time>2021-03-21T16:26:55Z</time>
      </trkpt>
      <trkpt lat="45.19798" lon="5.86711">
        <ele>895.1</ele>
        <time>2021-03-21T16:26:58Z</time>
      </trkpt>
      <trkpt lat="45.19787" lon="5.8671">
        <ele>895</ele>
        <time>2021-03-21T16:27:01Z</time>
      </trkpt>
      <trkpt lat="45.19776" lon="5.86708">
        <ele>897.6</ele>
        <time>2021-03-21T16:27:04Z</time>
      </trkpt>
      <trkpt lat="45.19768" lon="5.86708">
        <ele>898.4</ele>
        <time>2021-03-21T16:27:06Z</time>
      </trkpt>
      <trkpt lat="45.19757" lon="5.86707">
        <ele>899.3</ele>
        <time>2021-03-21T16:27:09Z</time>
      </trkpt>
      <trkpt lat="45.1975" lon="5.86708">
        <ele>900.6</ele>
        <time>2021-03-21T16:27:11Z</time>
      </trkpt>
      <trkpt lat="45.19739" lon="5.86712">
        <ele>903</ele>
        <time>2021-03-21T16:27:14Z</time>
      </trkpt>
      <trkpt lat="45.19732" lon="5.86717">
        <ele>902.6</ele>
        <time>2021-03-21T16:27:16Z</time>
      </trkpt>
      <trkpt lat="45.19723" lon="5.86728">
        <ele>902.8</ele>
        <time>2021-03-21T16:27:19Z</time>
      </trkpt>
      <trkpt lat="45.1972" lon="5.86737">
        <ele>902.6</ele>
        <time>2021-03-21T16:27:21Z</time>
      </trkpt>
      <trkpt lat="45.19717" lon="5.86755">
        <ele>903.6</ele>
        <time>2021-03-21T16:27:24Z</time>
      </trkpt>
      <trkpt lat="45.19718" lon="5.86771">
        <ele>902.7</ele>
        <time>2021-03-21T16:27:27Z</time>
      </trkpt>
      <trkpt lat="45.1972" lon="5.86788">
        <ele>901.8</ele>
        <time>2021-03-21T16:27:30Z</time>
      </trkpt>
      <trkpt lat="45.19721" lon="5.86806">
        <ele>904.1</ele>
        <time>2021-03-21T16:27:33Z</time>
      </trkpt>
      <trkpt lat="45.19718" lon="5.86823">
        <ele>905.3</ele>
        <time>2021-03-21T16:27:36Z</time>
      </trkpt>
      <trkpt lat="45.19714" lon="5.86834">
        <ele>905.3</ele>
        <time>2021-03-21T16:27:38Z</time>
      </trkpt>
      <trkpt lat="45.19704" lon="5.86847">
        <ele>907.2</ele>
        <time>2021-03-21T16:27:41Z</time>
      </trkpt>
      <trkpt lat="45.19696" lon="5.86852">
        <ele>908.8</ele>
        <time>2021-03-21T16:27:43Z</time>
      </trkpt>
      <trkpt lat="45.19687" lon="5.86855">
        <ele>907.5</ele>
        <time>2021-03-21T16:27:45Z</time>
      </trkpt>
      <trkpt lat="45.19674" lon="5.86855">
        <ele>909.3</ele>
        <time>2021-03-21T16:27:48Z</time>
      </trkpt>
      <trkpt lat="45.19664" lon="5.86855">
        <ele>910.9</ele>
        <time>2021-03-21T16:27:50Z</time>
      </trkpt>
      <trkpt lat="45.19651" lon="5.86855">
        <ele>913.4</ele>
        <time>2021-03-21T16:27:53Z</time>
      </trkpt>
      <trkpt lat="45.19643" lon="5.86854">
        <ele>914.1</ele>
        <time>2021-03-21T16:27:55Z</time>
      </trkpt>
      <trkpt lat="45.1963" lon="5.86854">
        <ele>915.2</ele>
        <time>2021-03-21T16:27:58Z</time>
      </trkpt>
      <trkpt lat="45.19623" lon="5.86853">
        <ele>916.6</ele>
        <time>2021-03-21T16:28:00Z</time>
      </trkpt>
      <trkpt lat="45.19615" lon="5.86854">
        <ele>917.1</ele>
        <time>2021-03-21T16:28:02Z</time>
      </trkpt>
      <trkpt lat="45.19603" lon="5.86854">
        <ele>918.5</ele>
        <time>2021-03-21T16:28:05Z</time>
      </trkpt>
      <trkpt lat="45.19596" lon="5.86854">
        <ele>916.8</ele>
        <time>2021-03-21T16:28:07Z</time>
      </trkpt>
      <trkpt lat="45.19588" lon="5.86854">
        <ele>917.6</ele>
        <time>2021-03-21T16:28:09Z</time>
      </trkpt>
      <trkpt lat="45.19575" lon="5.86856">
        <ele>920.1</ele>
        <time>2021-03-21T16:28:12Z</time>
      </trkpt>
      <trkpt lat="45.19567" lon="5.86858">
        <ele>919.4</ele>
        <time>2021-03-21T16:28:14Z</time>
      </trkpt>
      <trkpt lat="45.19554" lon="5.86863">
        <ele>919.4</ele>
        <time>2021-03-21T16:28:17Z</time>
      </trkpt>
      <trkpt lat="45.19542" lon="5.86871">
        <ele>922</ele>
        <time>2021-03-21T16:28:20Z</time>
      </trkpt>
      <trkpt lat="45.19534" lon="5.86881">
        <ele>921.1</ele>
        <time>2021-03-21T16:28:23Z</time>
      </trkpt>
      <trkpt lat="45.19528" lon="5.86897">
        <ele>921.9</ele>
        <time>2021-03-21T16:28:26Z</time>
      </trkpt>
      <trkpt lat="45.19526" lon="5.86914">
        <ele>921.4</ele>
        <time>2021-03-21T16:28:29Z</time>
      </trkpt>
      <trkpt lat="45.19528" lon="5.86932">
        <ele>922.8</ele>
        <time>2021-03-21T16:28:32Z</time>
      </trkpt>
      <trkpt lat="45.19531" lon="5.8695">
        <ele>924.3</ele>
        <time>2021-03-21T16:28:35Z</time>
      </trkpt>
      <trkpt lat="45.19534" lon="5.86966">
        <ele>922.4</ele>
        <time>2021-03-21T16:28:38Z</time>
      </trkpt>
      <trkpt lat="45.19537" lon="5.86984">
        <ele>924.6</ele>
        <time>2021-03-21T16:28:41Z</time>
      </trkpt>
      <trkpt lat="45.1954" lon="5.86997">
        <ele>926</ele>
        <time>2021-03-21T16:28:43Z</time>
      </trkpt>
      <trkpt lat="45.19545" lon="5.87017">
        <ele>927.4</ele>
        <time>2021-03-21T16:28:46Z</time>
      </trkpt>
      <trkpt lat="45.19554" lon="5.87037">
        <ele>926.3</ele>
        <time>2021-03-21T16:28:49Z</time>
      </trkpt>
      <trkpt lat="45.19564" lon="5.87056">
        <ele>926.9</ele>
        <time>2021-03-21T16:28:52Z</time>
      </trkpt>
      <trkpt lat="45.1957" lon="5.87067">
        <ele>927.9</ele>
        <time>2021-03-21T16:28:54Z</time>
      </trkpt>
      <trkpt lat="45.19577" lon="5.87081">
        <ele>929.2</ele>
        <time>2021-03-21T16:28:57Z</time>
      </trkpt>
      <trkpt lat="45.19583" lon="5.8709">
        <ele>929.9</ele>
        <time>2021-03-21T16:28:59Z</time>
      </trkpt>
      <trkpt lat="45.19596" lon="5.87108">
        <ele>929</ele>
        <time>2021-03-21T16:29:02Z</time>
      </trkpt>
      <trkpt lat="45.1961" lon="5.87125">
        <ele>928.1</ele>
        <time>2021-03-21T16:29:05Z</time>
      </trkpt>
      <trkpt lat="45.19623" lon="5.87142">
        <ele>926.4</ele>
        <time>2021-03-21T16:29:08Z</time>
      </trkpt>
      <trkpt lat="45.19631" lon="5.87154">
        <ele>925.6</ele>
        <time>2021-03-21T16:29:10Z</time>
      </trkpt>
      <trkpt lat="45.19643" lon="5.87171">
        <ele>923.1</ele>
        <time>2021-03-21T16:29:13Z</time>
      </trkpt>
      <trkpt lat="45.19651" lon="5.87183">
        <ele>922.4</ele>
        <time>2021-03-21T16:29:15Z</time>
      </trkpt>
      <trkpt lat="45.19666" lon="5.87206">
        <ele>920.8</ele>
        <time>2021-03-21T16:29:18Z</time>
      </trkpt>
      <trkpt lat="45.19673" lon="5.87223">
        <ele>922</ele>
        <time>2021-03-21T16:29:20Z</time>
      </trkpt>
      <trkpt lat="45.19677" lon="5.87243">
        <ele>923.6</ele>
        <time>2021-03-21T16:29:22Z</time>
      </trkpt>
      <trkpt lat="45.1968" lon="5.87263">
        <ele>922.2</ele>
        <time>2021-03-21T16:29:24Z</time>
      </trkpt>
      <trkpt lat="45.19682" lon="5.87294">
        <ele>922.4</ele>
        <time>2021-03-21T16:29:27Z</time>
      </trkpt>
      <trkpt lat="45.19684" lon="5.87324">
        <ele>923.1</ele>
        <time>2021-03-21T16:29:30Z</time>
      </trkpt>
      <trkpt lat="45.19685" lon="5.87353">
        <ele>921.7</ele>
        <time>2021-03-21T16:29:33Z</time>
      </trkpt>
      <trkpt lat="45.19688" lon="5.87381">
        <ele>925</ele>
        <time>2021-03-21T16:29:36Z</time>
      </trkpt>
      <trkpt lat="45.19689" lon="5.8741">
        <ele>925.1</ele>
        <time>2021-03-21T16:29:39Z</time>
      </trkpt>
      <trkpt lat="45.1969" lon="5.87428">
        <ele>923.9</ele>
        <time>2021-03-21T16:29:41Z</time>
      </trkpt>
      <trkpt lat="45.19692" lon="5.87447">
        <ele>924.3</ele>
        <time>2021-03-21T16:29:43Z</time>
      </trkpt>
      <trkpt lat="45.19691" lon="5.87472">
        <ele>927.6</ele>
        <time>2021-03-21T16:29:46Z</time>
      </trkpt>
      <trkpt lat="45.19685" lon="5.87491">
        <ele>925.1</ele>
        <time>2021-03-21T16:29:48Z</time>
      </trkpt>
      <trkpt lat="45.19671" lon="5.87516">
        <ele>926.7</ele>
        <time>2021-03-21T16:29:51Z</time>
      </trkpt>
      <trkpt lat="45.19656" lon="5.87536">
        <ele>925.7</ele>
        <time>2021-03-21T16:29:54Z</time>
      </trkpt>
      <trkpt lat="45.19646" lon="5.87547">
        <ele>925.5</ele>
        <time>2021-03-21T16:29:56Z</time>
      </trkpt>
      <trkpt lat="45.19634" lon="5.87562">
        <ele>927.4</ele>
        <time>2021-03-21T16:29:59Z</time>
      </trkpt>
      <trkpt lat="45.19623" lon="5.87574">
        <ele>925.8</ele>
        <time>2021-03-21T16:30:02Z</time>
      </trkpt>
      <trkpt lat="45.19615" lon="5.87583">
        <ele>927.8</ele>
        <time>2021-03-21T16:30:04Z</time>
      </trkpt>
      <trkpt lat="45.19607" lon="5.87591">
        <ele>925.6</ele>
        <time>2021-03-21T16:30:06Z</time>
      </trkpt>
      <trkpt lat="45.19595" lon="5.87606">
        <ele>923.4</ele>
        <time>2021-03-21T16:30:09Z</time>
      </trkpt>
      <trkpt lat="45.19586" lon="5.87617">
        <ele>924.4</ele>
        <time>2021-03-21T16:30:11Z</time>
      </trkpt>
      <trkpt lat="45.19578" lon="5.87629">
        <ele>924.2</ele>
        <time>2021-03-21T16:30:13Z</time>
      </trkpt>
      <trkpt lat="45.19565" lon="5.87643">
        <ele>922.9</ele>
        <time>2021-03-21T16:30:16Z</time>
      </trkpt>
      <trkpt lat="45.19556" lon="5.87651">
        <ele>926.1</ele>
        <time>2021-03-21T16:30:18Z</time>
      </trkpt>
      <trkpt lat="45.19542" lon="5.87661">
        <ele>927.7</ele>
        <time>2021-03-21T16:30:21Z</time>
      </trkpt>
      <trkpt lat="45.19531" lon="5.87663">
        <ele>929.5</ele>
        <time>2021-03-21T16:30:23Z</time>
      </trkpt>
      <trkpt lat="45.19515" lon="5.87663">
        <ele>930</ele>
        <time>2021-03-21T16:30:26Z</time>
      </trkpt>
      <trkpt lat="45.19503" lon="5.87664">
        <ele>933.7</ele>
        <time>2021-03-21T16:30:28Z</time>
      </trkpt>
      <trkpt lat="45.19484" lon="5.87663">
        <ele>936.8</ele>
        <time>2021-03-21T16:30:31Z</time>
      </trkpt>
      <trkpt lat="45.19468" lon="5.87665">
        <ele>940.6</ele>
        <time>2021-03-21T16:30:34Z</time>
      </trkpt>
      <trkpt lat="45.19451" lon="5.87665">
        <ele>940.8</ele>
        <time>2021-03-21T16:30:37Z</time>
      </trkpt>
      <trkpt lat="45.19441" lon="5.87665">
        <ele>943.3</ele>
        <time>2021-03-21T16:30:39Z</time>
      </trkpt>
      <trkpt lat="45.19432" lon="5.87664">
        <ele>946.3</ele>
        <time>2021-03-21T16:30:41Z</time>
      </trkpt>
      <trkpt lat="45.19417" lon="5.87665">
        <ele>948.6</ele>
        <time>2021-03-21T16:30:44Z</time>
      </trkpt>
      <trkpt lat="45.19409" lon="5.87663">
        <ele>948.2</ele>
        <time>2021-03-21T16:30:46Z</time>
      </trkpt>
      <trkpt lat="45.19396" lon="5.87666">
        <ele>946</ele>
        <time>2021-03-21T16:30:49Z</time>
      </trkpt>
      <trkpt lat="45.1938" lon="5.87673">
        <ele>943.5</ele>
        <time>2021-03-21T16:30:52Z</time>
      </trkpt>
      <trkpt lat="45.19368" lon="5.87684">
        <ele>942.7</ele>
        <time>2021-03-21T16:30:55Z</time>
      </trkpt>
      <trkpt lat="45.19362" lon="5.87695">
        <ele>941.4</ele>
        <time>2021-03-21T16:30:57Z</time>
      </trkpt>
      <trkpt lat="45.19355" lon="5.87711">
        <ele>939.6</ele>
        <time>2021-03-21T16:31:00Z</time>
      </trkpt>
      <trkpt lat="45.19352" lon="5.87728">
        <ele>940.6</ele>
        <time>2021-03-21T16:31:03Z</time>
      </trkpt>
      <trkpt lat="45.19351" lon="5.87745">
        <ele>941.7</ele>
        <time>2021-03-21T16:31:06Z</time>
      </trkpt>
      <trkpt lat="45.1935" lon="5.87761">
        <ele>942.5</ele>
        <time>2021-03-21T16:31:09Z</time>
      </trkpt>
      <trkpt lat="45.1935" lon="5.87782">
        <ele>938.7</ele>
        <time>2021-03-21T16:31:12Z</time>
      </trkpt>
      <trkpt lat="45.19349" lon="5.87801">
        <ele>940.4</ele>
        <time>2021-03-21T16:31:15Z</time>
      </trkpt>
      <trkpt lat="45.1935" lon="5.87821">
        <ele>941.3</ele>
        <time>2021-03-21T16:31:18Z</time>
      </trkpt>
      <trkpt lat="45.19349" lon="5.87837">
        <ele>941.4</ele>
        <time>2021-03-21T16:31:20Z</time>
      </trkpt>
      <trkpt lat="45.1935" lon="5.87863">
        <ele>939.7</ele>
        <time>2021-03-21T16:31:23Z</time>
      </trkpt>
      <trkpt lat="45.19352" lon="5.87888">
        <ele>939.4</ele>
        <time>2021-03-21T16:31:26Z</time>
      </trkpt>
      <trkpt lat="45.19356" lon="5.87915">
        <ele>941</ele>
        <time>2021-03-21T16:31:29Z</time>
      </trkpt>
      <trkpt lat="45.19368" lon="5.87939">
        <ele>940</ele>
        <time>2021-03-21T16:31:32Z</time>
      </trkpt>
      <trkpt lat="45.1938" lon="5.87962">
        <ele>938.4</ele>
        <time>2021-03-21T16:31:35Z</time>
      </trkpt>
      <trkpt lat="45.19391" lon="5.87976">
        <ele>938.7</ele>
        <time>2021-03-21T16:31:37Z</time>
      </trkpt>
      <trkpt lat="45.19408" lon="5.87999">
        <ele>935.8</ele>
        <time>2021-03-21T16:31:40Z</time>
      </trkpt>
      <trkpt lat="45.19419" lon="5.88015">
        <ele>936.3</ele>
        <time>2021-03-21T16:31:42Z</time>
      </trkpt>
      <trkpt lat="45.19429" lon="5.88033">
        <ele>936</ele>
        <time>2021-03-21T16:31:44Z</time>
      </trkpt>
      <trkpt lat="45.19438" lon="5.88064">
        <ele>935.2</ele>
        <time>2021-03-21T16:31:47Z</time>
      </trkpt>
      <trkpt lat="45.19441" lon="5.88088">
        <ele>936.1</ele>
        <time>2021-03-21T16:31:49Z</time>
      </trkpt>
      <trkpt lat="45.1944" lon="5.88111">
        <ele>932</ele>
        <time>2021-03-21T16:31:51Z</time>
      </trkpt>
      <trkpt lat="45.19431" lon="5.88144">
        <ele>930.1</ele>
        <time>2021-03-21T16:31:54Z</time>
      </trkpt>
      <trkpt lat="45.19427" lon="5.88166">
        <ele>928.5</ele>
        <time>2021-03-21T16:31:56Z</time>
      </trkpt>
      <trkpt lat="45.19421" lon="5.88193">
        <ele>927.8</ele>
        <time>2021-03-21T16:31:59Z</time>
      </trkpt>
      <trkpt lat="45.19412" lon="5.88201">
        <ele>925.4</ele>
        <time>2021-03-21T16:32:01Z</time>
      </trkpt>
      <trkpt lat="45.19401" lon="5.88204">
        <ele>924.9</ele>
        <time>2021-03-21T16:32:04Z</time>
      </trkpt>
      <trkpt lat="45.19397" lon="5.88205">
        <ele>926.1</ele>
        <time>2021-03-21T16:32:07Z</time>
      </trkpt>
      <trkpt lat="45.19396" lon="5.88208">
        <ele>923.8</ele>
        <time>2021-03-21T16:32:10Z</time>
      </trkpt>
      <trkpt lat="45.19395" lon="5.8821">
        <ele>924.2</ele>
        <time>2021-03-21T16:32:12Z</time>
      </trkpt>
      <trkpt lat="45.19395" lon="5.88215">
        <ele>918.4</ele>
        <time>2021-03-21T16:32:15Z</time>
      </trkpt>
      <trkpt lat="45.19396" lon="5.88215">
        <ele>920.8</ele>
        <time>2021-03-21T16:32:18Z</time>
      </trkpt>
      <trkpt lat="45.19397" lon="5.88215">
        <ele>920.2</ele>
        <time>2021-03-21T16:32:20Z</time>
      </trkpt>
      <trkpt lat="45.19395" lon="5.88218">
        <ele>918.8</ele>
        <time>2021-03-21T16:32:23Z</time>
      </trkpt>
      <trkpt lat="45.19395" lon="5.88222">
        <ele>919.4</ele>
        <time>2021-03-21T16:32:25Z</time>
      </trkpt>
      <trkpt lat="45.19395" lon="5.88228">
        <ele>918.4</ele>
        <time>2021-03-21T16:32:27Z</time>
      </trkpt>
      <trkpt lat="45.19397" lon="5.88244">
        <ele>921.2</ele>
        <time>2021-03-21T16:32:30Z</time>
      </trkpt>
      <trkpt lat="45.19399" lon="5.8826">
        <ele>921.3</ele>
        <time>2021-03-21T16:32:32Z</time>
      </trkpt>
      <trkpt lat="45.19398" lon="5.88284">
        <ele>921.6</ele>
        <time>2021-03-21T16:32:35Z</time>
      </trkpt>
      <trkpt lat="45.19391" lon="5.88313">
        <ele>919.6</ele>
        <time>2021-03-21T16:32:38Z</time>
      </trkpt>
      <trkpt lat="45.19386" lon="5.88334">
        <ele>915.6</ele>
        <time>2021-03-21T16:32:40Z</time>
      </trkpt>
      <trkpt lat="45.19382" lon="5.88359">
        <ele>915.6</ele>
        <time>2021-03-21T16:32:42Z</time>
      </trkpt>
      <trkpt lat="45.19374" lon="5.88397">
        <ele>916.1</ele>
        <time>2021-03-21T16:32:45Z</time>
      </trkpt>
      <trkpt lat="45.19346" lon="5.8843">
        <ele>914.4</ele>
        <time>2021-03-21T16:32:48Z</time>
      </trkpt>
      <trkpt lat="45.19308" lon="5.8844">
        <ele>910.5</ele>
        <time>2021-03-21T16:32:51Z</time>
      </trkpt>
      <trkpt lat="45.19282" lon="5.88446">
        <ele>911.3</ele>
        <time>2021-03-21T16:32:53Z</time>
      </trkpt>
      <trkpt lat="45.19254" lon="5.88455">
        <ele>909.9</ele>
        <time>2021-03-21T16:32:55Z</time>
      </trkpt>
      <trkpt lat="45.19213" lon="5.88464">
        <ele>909.6</ele>
        <time>2021-03-21T16:32:58Z</time>
      </trkpt>
      <trkpt lat="45.19182" lon="5.88462">
        <ele>908.6</ele>
        <time>2021-03-21T16:33:00Z</time>
      </trkpt>
      <trkpt lat="45.19135" lon="5.88452">
        <ele>906.2</ele>
        <time>2021-03-21T16:33:03Z</time>
      </trkpt>
      <trkpt lat="45.19104" lon="5.88445">
        <ele>907.9</ele>
        <time>2021-03-21T16:33:05Z</time>
      </trkpt>
      <trkpt lat="45.19073" lon="5.88439">
        <ele>906.4</ele>
        <time>2021-03-21T16:33:07Z</time>
      </trkpt>
      <trkpt lat="45.19025" lon="5.88444">
        <ele>903.3</ele>
        <time>2021-03-21T16:33:10Z</time>
      </trkpt>
      <trkpt lat="45.18991" lon="5.8845">
        <ele>901.7</ele>
        <time>2021-03-21T16:33:12Z</time>
      </trkpt>
      <trkpt lat="45.18942" lon="5.88459">
        <ele>899.6</ele>
        <time>2021-03-21T16:33:15Z</time>
      </trkpt>
      <trkpt lat="45.18907" lon="5.88462">
        <ele>896.7</ele>
        <time>2021-03-21T16:33:17Z</time>
      </trkpt>
      <trkpt lat="45.18876" lon="5.88472">
        <ele>892.3</ele>
        <time>2021-03-21T16:33:19Z</time>
      </trkpt>
      <trkpt lat="45.18834" lon="5.88483">
        <ele>892.7</ele>
        <time>2021-03-21T16:33:22Z</time>
      </trkpt>
      <trkpt lat="45.18798" lon="5.8846">
        <ele>889.7</ele>
        <time>2021-03-21T16:33:25Z</time>
      </trkpt>
      <trkpt lat="45.18766" lon="5.88414">
        <ele>892</ele>
        <time>2021-03-21T16:33:28Z</time>
      </trkpt>
      <trkpt lat="45.18752" lon="5.88369">
        <ele>889.1</ele>
        <time>2021-03-21T16:33:31Z</time>
      </trkpt>
      <trkpt lat="45.18737" lon="5.88331">
        <ele>886.8</ele>
        <time>2021-03-21T16:33:34Z</time>
      </trkpt>
      <trkpt lat="45.18723" lon="5.883">
        <ele>879.9</ele>
        <time>2021-03-21T16:33:37Z</time>
      </trkpt>
      <trkpt lat="45.18711" lon="5.88263">
        <ele>878.1</ele>
        <time>2021-03-21T16:33:40Z</time>
      </trkpt>
      <trkpt lat="45.18707" lon="5.88237">
        <ele>877.3</ele>
        <time>2021-03-21T16:33:42Z</time>
      </trkpt>
      <trkpt lat="45.18711" lon="5.882">
        <ele>871.7</ele>
        <time>2021-03-21T16:33:45Z</time>
      </trkpt>
      <trkpt lat="45.18717" lon="5.88162">
        <ele>871.4</ele>
        <time>2021-03-21T16:33:48Z</time>
      </trkpt>
      <trkpt lat="45.1872" lon="5.88135">
        <ele>869.8</ele>
        <time>2021-03-21T16:33:50Z</time>
      </trkpt>
      <trkpt lat="45.18724" lon="5.88092">
        <ele>869.3</ele>
        <time>2021-03-21T16:33:53Z</time>
      </trkpt>
      <trkpt lat="45.1872" lon="5.88062">
        <ele>868.8</ele>
        <time>2021-03-21T16:33:55Z</time>
      </trkpt>
      <trkpt lat="45.18712" lon="5.88018">
        <ele>867.8</ele>
        <time>2021-03-21T16:33:58Z</time>
      </trkpt>
      <trkpt lat="45.18692" lon="5.87969">
        <ele>867.4</ele>
        <time>2021-03-21T16:34:01Z</time>
      </trkpt>
      <trkpt lat="45.18666" lon="5.87916">
        <ele>863.6</ele>
        <time>2021-03-21T16:34:04Z</time>
      </trkpt>
      <trkpt lat="45.18629" lon="5.87873">
        <ele>862.9</ele>
        <time>2021-03-21T16:34:07Z</time>
      </trkpt>
      <trkpt lat="45.18605" lon="5.8785">
        <ele>860.1</ele>
        <time>2021-03-21T16:34:09Z</time>
      </trkpt>
      <trkpt lat="45.18566" lon="5.87824">
        <ele>859.2</ele>
        <time>2021-03-21T16:34:12Z</time>
      </trkpt>
      <trkpt lat="45.18533" lon="5.8781">
        <ele>853.6</ele>
        <time>2021-03-21T16:34:14Z</time>
      </trkpt>
      <trkpt lat="45.18487" lon="5.87792">
        <ele>852.1</ele>
        <time>2021-03-21T16:34:17Z</time>
      </trkpt>
      <trkpt lat="45.18446" lon="5.87779">
        <ele>845</ele>
        <time>2021-03-21T16:34:20Z</time>
      </trkpt>
      <trkpt lat="45.18416" lon="5.87789">
        <ele>847.6</ele>
        <time>2021-03-21T16:34:22Z</time>
      </trkpt>
      <trkpt lat="45.18379" lon="5.8783">
        <ele>842.6</ele>
        <time>2021-03-21T16:34:25Z</time>
      </trkpt>
      <trkpt lat="45.18353" lon="5.87863">
        <ele>839.7</ele>
        <time>2021-03-21T16:34:27Z</time>
      </trkpt>
      <trkpt lat="45.18313" lon="5.8791">
        <ele>834.5</ele>
        <time>2021-03-21T16:34:30Z</time>
      </trkpt>
      <trkpt lat="45.18286" lon="5.87942">
        <ele>833.6</ele>
        <time>2021-03-21T16:34:32Z</time>
      </trkpt>
      <trkpt lat="45.1826" lon="5.87994">
        <ele>820.7</ele>
        <time>2021-03-21T16:34:35Z</time>
      </trkpt>
      <trkpt lat="45.18244" lon="5.88031">
        <ele>813.8</ele>
        <time>2021-03-21T16:34:38Z</time>
      </trkpt>
      <trkpt lat="45.18239" lon="5.88039">
        <ele>810.3</ele>
        <time>2021-03-21T16:34:40Z</time>
      </trkpt>
      <trkpt lat="45.18243" lon="5.88011">
        <ele>800.3</ele>
        <time>2021-03-21T16:34:43Z</time>
      </trkpt>
      <trkpt lat="45.18245" lon="5.88003">
        <ele>800.5</ele>
        <time>2021-03-21T16:34:45Z</time>
      </trkpt>
      <trkpt lat="45.18246" lon="5.87997">
        <ele>800.9</ele>
        <time>2021-03-21T16:34:48Z</time>
      </trkpt>
      <trkpt lat="45.18249" lon="5.87993">
        <ele>797.4</ele>
        <time>2021-03-21T16:34:51Z</time>
      </trkpt>
      <trkpt lat="45.18257" lon="5.87981">
        <ele>793.6</ele>
        <time>2021-03-21T16:34:54Z</time>
      </trkpt>
      <trkpt lat="45.18262" lon="5.87966">
        <ele>792.2</ele>
        <time>2021-03-21T16:34:56Z</time>
      </trkpt>
      <trkpt lat="45.18265" lon="5.87936">
        <ele>789.5</ele>
        <time>2021-03-21T16:34:59Z</time>
      </trkpt>
      <trkpt lat="45.18262" lon="5.87912">
        <ele>790.8</ele>
        <time>2021-03-21T16:35:01Z</time>
      </trkpt>
      <trkpt lat="45.18259" lon="5.87884">
        <ele>790.5</ele>
        <time>2021-03-21T16:35:03Z</time>
      </trkpt>
      <trkpt lat="45.18264" lon="5.87838">
        <ele>789</ele>
        <time>2021-03-21T16:35:06Z</time>
      </trkpt>
      <trkpt lat="45.18271" lon="5.87806">
        <ele>786.4</ele>
        <time>2021-03-21T16:35:08Z</time>
      </trkpt>
      <trkpt lat="45.18282" lon="5.87761">
        <ele>783.2</ele>
        <time>2021-03-21T16:35:11Z</time>
      </trkpt>
      <trkpt lat="45.18292" lon="5.87717">
        <ele>784.3</ele>
        <time>2021-03-21T16:35:14Z</time>
      </trkpt>
      <trkpt lat="45.18296" lon="5.87696">
        <ele>780.7</ele>
        <time>2021-03-21T16:35:16Z</time>
      </trkpt>
      <trkpt lat="45.18297" lon="5.87686">
        <ele>780.4</ele>
        <time>2021-03-21T16:35:18Z</time>
      </trkpt>
      <trkpt lat="45.18296" lon="5.87685">
        <ele>776.9</ele>
        <time>2021-03-21T16:35:21Z</time>
      </trkpt>
      <trkpt lat="45.18296" lon="5.87687">
        <ele>774.5</ele>
        <time>2021-03-21T16:35:23Z</time>
      </trkpt>
      <trkpt lat="45.18295" lon="5.87683">
        <ele>771</ele>
        <time>2021-03-21T16:35:26Z</time>
      </trkpt>
      <trkpt lat="45.18298" lon="5.87676">
        <ele>768.9</ele>
        <time>2021-03-21T16:35:28Z</time>
      </trkpt>
      <trkpt lat="45.183" lon="5.87665">
        <ele>767.1</ele>
        <time>2021-03-21T16:35:31Z</time>
      </trkpt>
      <trkpt lat="45.183" lon="5.87658">
        <ele>765.1</ele>
        <time>2021-03-21T16:35:33Z</time>
      </trkpt>
      <trkpt lat="45.18301" lon="5.8764">
        <ele>766.7</ele>
        <time>2021-03-21T16:35:36Z</time>
      </trkpt>
      <trkpt lat="45.18306" lon="5.87619">
        <ele>766.9</ele>
        <time>2021-03-21T16:35:39Z</time>
      </trkpt>
      <trkpt lat="45.18314" lon="5.87597">
        <ele>764.5</ele>
        <time>2021-03-21T16:35:42Z</time>
      </trkpt>
      <trkpt lat="45.18319" lon="5.87586">
        <ele>762.1</ele>
        <time>2021-03-21T16:35:44Z</time>
      </trkpt>
      <trkpt lat="45.18325" lon="5.87575">
        <ele>759</ele>
        <time>2021-03-21T16:35:46Z</time>
      </trkpt>
      <trkpt lat="45.18332" lon="5.87558">
        <ele>757.9</ele>
        <time>2021-03-21T16:35:49Z</time>
      </trkpt>
      <trkpt lat="45.18335" lon="5.87548">
        <ele>756.7</ele>
        <time>2021-03-21T16:35:51Z</time>
      </trkpt>
      <trkpt lat="45.1834" lon="5.87531">
        <ele>756</ele>
        <time>2021-03-21T16:35:54Z</time>
      </trkpt>
      <trkpt lat="45.18343" lon="5.87517">
        <ele>754.4</ele>
        <time>2021-03-21T16:35:56Z</time>
      </trkpt>
      <trkpt lat="45.18349" lon="5.87504">
        <ele>753.2</ele>
        <time>2021-03-21T16:35:58Z</time>
      </trkpt>
      <trkpt lat="45.18357" lon="5.8748">
        <ele>751.3</ele>
        <time>2021-03-21T16:36:01Z</time>
      </trkpt>
      <trkpt lat="45.18365" lon="5.87455">
        <ele>754.1</ele>
        <time>2021-03-21T16:36:04Z</time>
      </trkpt>
      <trkpt lat="45.18373" lon="5.87432">
        <ele>754.1</ele>
        <time>2021-03-21T16:36:07Z</time>
      </trkpt>
      <trkpt lat="45.18383" lon="5.87406">
        <ele>753.1</ele>
        <time>2021-03-21T16:36:10Z</time>
      </trkpt>
      <trkpt lat="45.18387" lon="5.87383">
        <ele>751.9</ele>
        <time>2021-03-21T16:36:13Z</time>
      </trkpt>
      <trkpt lat="45.18386" lon="5.87378">
        <ele>751.5</ele>
        <time>2021-03-21T16:36:15Z</time>
      </trkpt>
      <trkpt lat="45.18384" lon="5.87377">
        <ele>750.3</ele>
        <time>2021-03-21T16:36:18Z</time>
      </trkpt>
      <trkpt lat="45.18385" lon="5.87378">
        <ele>745</ele>
        <time>2021-03-21T16:36:21Z</time>
      </trkpt>
      <trkpt lat="45.18387" lon="5.87379">
        <ele>743.1</ele>
        <time>2021-03-21T16:36:24Z</time>
      </trkpt>
      <trkpt lat="45.18388" lon="5.8738">
        <ele>740.7</ele>
        <time>2021-03-21T16:36:27Z</time>
      </trkpt>
      <trkpt lat="45.18389" lon="5.8738">
        <ele>740.4</ele>
        <time>2021-03-21T16:36:30Z</time>
      </trkpt>
      <trkpt lat="45.18389" lon="5.87381">
        <ele>740.8</ele>
        <time>2021-03-21T16:36:32Z</time>
      </trkpt>
      <trkpt lat="45.18389" lon="5.87381">
        <ele>740.6</ele>
        <time>2021-03-21T16:36:35Z</time>
      </trkpt>
      <trkpt lat="45.18389" lon="5.87381">
        <ele>741.4</ele>
        <time>2021-03-21T16:36:37Z</time>
      </trkpt>
      <trkpt lat="45.18389" lon="5.87381">
        <ele>740.8</ele>
        <time>2021-03-21T16:36:39Z</time>
      </trkpt>
      <trkpt lat="45.18389" lon="5.87381">
        <ele>742.5</ele>
        <time>2021-03-21T16:36:42Z</time>
      </trkpt>
      <trkpt lat="45.18389" lon="5.8738">
        <ele>740.6</ele>
        <time>2021-03-21T16:36:45Z</time>
      </trkpt>
      <trkpt lat="45.18389" lon="5.8738">
        <ele>743.7</ele>
        <time>2021-03-21T16:36:48Z</time>
      </trkpt>
      <trkpt lat="45.18389" lon="5.87381">
        <ele>742.2</ele>
        <time>2021-03-21T16:36:51Z</time>
      </trkpt>
      <trkpt lat="45.18389" lon="5.8738">
        <ele>741.7</ele>
        <time>2021-03-21T16:36:53Z</time>
      </trkpt>
      <trkpt lat="45.18389" lon="5.8738">
        <ele>741.7</ele>
        <time>2021-03-21T16:36:56Z</time>
      </trkpt>
      <trkpt lat="45.18389" lon="5.87381">
        <ele>740.5</ele>
        <time>2021-03-21T16:36:59Z</time>
      </trkpt>
      <trkpt lat="45.18389" lon="5.8738">
        <ele>742.7</ele>
        <time>2021-03-21T16:37:01Z</time>
      </trkpt>
      <trkpt lat="45.18389" lon="5.8738">
        <ele>742.3</ele>
        <time>2021-03-21T16:37:04Z</time>
      </trkpt>
      <trkpt lat="45.18389" lon="5.87381">
        <ele>742.9</ele>
        <time>2021-03-21T16:37:07Z</time>
      </trkpt>
      <trkpt lat="45.18389" lon="5.87381">
        <ele>743</ele>
        <time>2021-03-21T16:37:09Z</time>
      </trkpt>
      <trkpt lat="45.18389" lon="5.87381">
        <ele>743.2</ele>
        <time>2021-03-21T16:37:11Z</time>
      </trkpt>
      <trkpt lat="45.18389" lon="5.87381">
        <ele>740.7</ele>
        <time>2021-03-21T16:37:13Z</time>
      </trkpt>
      <trkpt lat="45.18389" lon="5.87381">
        <ele>741.5</ele>
        <time>2021-03-21T16:37:16Z</time>
      </trkpt>
      <trkpt lat="45.18389" lon="5.87381">
        <ele>742.5</ele>
        <time>2021-03-21T16:37:19Z</time>
      </trkpt>
      <trkpt lat="45.18389" lon="5.87381">
        <ele>742</ele>
        <time>2021-03-21T16:37:21Z</time>
      </trkpt>
      <trkpt lat="45.18389" lon="5.87381">
        <ele>742.9</ele>
        <time>2021-03-21T16:37:24Z</time>
      </trkpt>
      <trkpt lat="45.18389" lon="5.87381">
        <ele>741.5</ele>
        <time>2021-03-21T16:37:26Z</time>
      </trkpt>
      <trkpt lat="45.18389" lon="5.87381">
        <ele>738.5</ele>
        <time>2021-03-21T16:37:29Z</time>
      </trkpt>
      <trkpt lat="45.18389" lon="5.87381">
        <ele>740.9</ele>
        <time>2021-03-21T16:37:32Z</time>
      </trkpt>
      <trkpt lat="45.18389" lon="5.87381">
        <ele>741.5</ele>
        <time>2021-03-21T16:37:34Z</time>
      </trkpt>
      <trkpt lat="45.18389" lon="5.87381">
        <ele>742</ele>
        <time>2021-03-21T16:37:37Z</time>
      </trkpt>
    </trkseg>
  </trk>
</gpx>